<?xml version="1.0" encoding="UTF-8" ?>
<gpx version="1.1" xmlns:xsi="http://www.w3.org/2001/XMLSchema-instance"
    xmlns="http://www.topografix.com/GPX/1/1"
    xsi:schemaLocation="http://www.topografix.com/GPX/1/1 http://www.topografix.com/GPX/1/1/gpx.xsd"
    creator="Openrunner - https://www.openrunner.com" >
                <wpt lat="45.054424" lon="3.900885">
                        <ele>0</ele>
                        <name><![CDATA[Savoir-faire: Skate park]]></name>
                        <desc><![CDATA[Venez d&eacute;couvrir le Skate parc et le pump track du Puy&nbsp; !]]></desc>
                    <sym>1</sym>
                </wpt>
            	<trk>
	                   <name>[Itinéraire] GR430 Chemin de Saint-Régis-25107781</name>
						<trkseg>
					<trkpt lat="45.043600" lon="3.885160">
						<ele>644</ele>
						<time>2026-09-03T11:42:59Z</time>
					</trkpt>
					<trkpt lat="45.043470" lon="3.885240">
						<ele>642</ele>
						<time>2026-09-03T11:43:06Z</time>
					</trkpt>
					<trkpt lat="45.042950" lon="3.885450">
						<ele>634</ele>
						<time>2026-09-03T11:43:33Z</time>
					</trkpt>
					<trkpt lat="45.042520" lon="3.885520">
						<ele>629</ele>
						<time>2026-09-03T11:43:55Z</time>
					</trkpt>
					<trkpt lat="45.042340" lon="3.885520">
						<ele>628</ele>
						<time>2026-09-03T11:44:04Z</time>
					</trkpt>
					<trkpt lat="45.042080" lon="3.885560">
						<ele>627</ele>
						<time>2026-09-03T11:44:17Z</time>
					</trkpt>
					<trkpt lat="45.042150" lon="3.886650">
						<ele>628</ele>
						<time>2026-09-03T11:44:56Z</time>
					</trkpt>
					<trkpt lat="45.042120" lon="3.886910">
						<ele>627</ele>
						<time>2026-09-03T11:45:05Z</time>
					</trkpt>
					<trkpt lat="45.042070" lon="3.887080">
						<ele>626</ele>
						<time>2026-09-03T11:45:11Z</time>
					</trkpt>
					<trkpt lat="45.041720" lon="3.887330">
						<ele>625</ele>
						<time>2026-09-03T11:45:31Z</time>
					</trkpt>
					<trkpt lat="45.041510" lon="3.887540">
						<ele>625</ele>
						<time>2026-09-03T11:45:44Z</time>
					</trkpt>
					<trkpt lat="45.041340" lon="3.887770">
						<ele>625</ele>
						<time>2026-09-03T11:45:56Z</time>
					</trkpt>
					<trkpt lat="45.041230" lon="3.888100">
						<ele>625</ele>
						<time>2026-09-03T11:46:09Z</time>
					</trkpt>
					<trkpt lat="45.041140" lon="3.888170">
						<ele>626</ele>
						<time>2026-09-03T11:46:14Z</time>
					</trkpt>
					<trkpt lat="45.041070" lon="3.889170">
						<ele>629</ele>
						<time>2026-09-03T11:46:49Z</time>
					</trkpt>
					<trkpt lat="45.041100" lon="3.889690">
						<ele>632</ele>
						<time>2026-09-03T11:47:08Z</time>
					</trkpt>
					<trkpt lat="45.041270" lon="3.890690">
						<ele>637</ele>
						<time>2026-09-03T11:47:44Z</time>
					</trkpt>
					<trkpt lat="45.041540" lon="3.891680">
						<ele>641</ele>
						<time>2026-09-03T11:48:22Z</time>
					</trkpt>
					<trkpt lat="45.040890" lon="3.892480">
						<ele>653</ele>
						<time>2026-09-03T11:49:05Z</time>
					</trkpt>
					<trkpt lat="45.040690" lon="3.892780">
						<ele>656</ele>
						<time>2026-09-03T11:49:19Z</time>
					</trkpt>
					<trkpt lat="45.040520" lon="3.893150">
						<ele>659</ele>
						<time>2026-09-03T11:49:35Z</time>
					</trkpt>
					<trkpt lat="45.040370" lon="3.893760">
						<ele>664</ele>
						<time>2026-09-03T11:49:58Z</time>
					</trkpt>
					<trkpt lat="45.040290" lon="3.894350">
						<ele>668</ele>
						<time>2026-09-03T11:50:19Z</time>
					</trkpt>
					<trkpt lat="45.039990" lon="3.895530">
						<ele>674</ele>
						<time>2026-09-03T11:51:03Z</time>
					</trkpt>
					<trkpt lat="45.039840" lon="3.895720">
						<ele>677</ele>
						<time>2026-09-03T11:51:13Z</time>
					</trkpt>
					<trkpt lat="45.039640" lon="3.895880">
						<ele>680</ele>
						<time>2026-09-03T11:51:25Z</time>
					</trkpt>
					<trkpt lat="45.039350" lon="3.896040">
						<ele>685</ele>
						<time>2026-09-03T11:51:40Z</time>
					</trkpt>
					<trkpt lat="45.039240" lon="3.896160">
						<ele>688</ele>
						<time>2026-09-03T11:51:47Z</time>
					</trkpt>
					<trkpt lat="45.038800" lon="3.896780">
						<ele>696</ele>
						<time>2026-09-03T11:52:19Z</time>
					</trkpt>
					<trkpt lat="45.038700" lon="3.897040">
						<ele>699</ele>
						<time>2026-09-03T11:52:29Z</time>
					</trkpt>
					<trkpt lat="45.037760" lon="3.896980">
						<ele>704</ele>
						<time>2026-09-03T11:53:16Z</time>
					</trkpt>
					<trkpt lat="45.037720" lon="3.896970">
						<ele>704</ele>
						<time>2026-09-03T11:53:18Z</time>
					</trkpt>
					<trkpt lat="45.037680" lon="3.896910">
						<ele>704</ele>
						<time>2026-09-03T11:53:21Z</time>
					</trkpt>
					<trkpt lat="45.037560" lon="3.897040">
						<ele>706</ele>
						<time>2026-09-03T11:53:29Z</time>
					</trkpt>
					<trkpt lat="45.037450" lon="3.897400">
						<ele>709</ele>
						<time>2026-09-03T11:53:42Z</time>
					</trkpt>
					<trkpt lat="45.037330" lon="3.897540">
						<ele>712</ele>
						<time>2026-09-03T11:53:50Z</time>
					</trkpt>
					<trkpt lat="45.036960" lon="3.897850">
						<ele>720</ele>
						<time>2026-09-03T11:54:12Z</time>
					</trkpt>
					<trkpt lat="45.036740" lon="3.898000">
						<ele>725</ele>
						<time>2026-09-03T11:54:24Z</time>
					</trkpt>
					<trkpt lat="45.036170" lon="3.898520">
						<ele>739</ele>
						<time>2026-09-03T11:54:58Z</time>
					</trkpt>
					<trkpt lat="45.035820" lon="3.898880">
						<ele>747</ele>
						<time>2026-09-03T11:55:20Z</time>
					</trkpt>
					<trkpt lat="45.035660" lon="3.899080">
						<ele>751</ele>
						<time>2026-09-03T11:55:30Z</time>
					</trkpt>
					<trkpt lat="45.035550" lon="3.899290">
						<ele>754</ele>
						<time>2026-09-03T11:55:39Z</time>
					</trkpt>
					<trkpt lat="45.035380" lon="3.900070">
						<ele>759</ele>
						<time>2026-09-03T11:56:08Z</time>
					</trkpt>
					<trkpt lat="45.035300" lon="3.900230">
						<ele>762</ele>
						<time>2026-09-03T11:56:15Z</time>
					</trkpt>
					<trkpt lat="45.035290" lon="3.900380">
						<ele>763</ele>
						<time>2026-09-03T11:56:21Z</time>
					</trkpt>
					<trkpt lat="45.035000" lon="3.900680">
						<ele>772</ele>
						<time>2026-09-03T11:56:39Z</time>
					</trkpt>
					<trkpt lat="45.034940" lon="3.900770">
						<ele>773</ele>
						<time>2026-09-03T11:56:43Z</time>
					</trkpt>
					<trkpt lat="45.034830" lon="3.901150">
						<ele>775</ele>
						<time>2026-09-03T11:56:57Z</time>
					</trkpt>
					<trkpt lat="45.034760" lon="3.901210">
						<ele>776</ele>
						<time>2026-09-03T11:57:02Z</time>
					</trkpt>
					<trkpt lat="45.034360" lon="3.901320">
						<ele>779</ele>
						<time>2026-09-03T11:57:22Z</time>
					</trkpt>
					<trkpt lat="45.033760" lon="3.901530">
						<ele>780</ele>
						<time>2026-09-03T11:57:53Z</time>
					</trkpt>
					<trkpt lat="45.033410" lon="3.901770">
						<ele>779</ele>
						<time>2026-09-03T11:58:12Z</time>
					</trkpt>
					<trkpt lat="45.033080" lon="3.902050">
						<ele>776</ele>
						<time>2026-09-03T11:58:32Z</time>
					</trkpt>
					<trkpt lat="45.033010" lon="3.902030">
						<ele>775</ele>
						<time>2026-09-03T11:58:35Z</time>
					</trkpt>
					<trkpt lat="45.032780" lon="3.901880">
						<ele>773</ele>
						<time>2026-09-03T11:58:48Z</time>
					</trkpt>
					<trkpt lat="45.032640" lon="3.901760">
						<ele>773</ele>
						<time>2026-09-03T11:58:56Z</time>
					</trkpt>
					<trkpt lat="45.032530" lon="3.901760">
						<ele>772</ele>
						<time>2026-09-03T11:59:02Z</time>
					</trkpt>
					<trkpt lat="45.032340" lon="3.901880">
						<ele>769</ele>
						<time>2026-09-03T11:59:12Z</time>
					</trkpt>
					<trkpt lat="45.032190" lon="3.902140">
						<ele>765</ele>
						<time>2026-09-03T11:59:24Z</time>
					</trkpt>
					<trkpt lat="45.032190" lon="3.902350">
						<ele>764</ele>
						<time>2026-09-03T11:59:31Z</time>
					</trkpt>
					<trkpt lat="45.032120" lon="3.902550">
						<ele>762</ele>
						<time>2026-09-03T11:59:39Z</time>
					</trkpt>
					<trkpt lat="45.032030" lon="3.902600">
						<ele>760</ele>
						<time>2026-09-03T11:59:44Z</time>
					</trkpt>
					<trkpt lat="45.031790" lon="3.902630">
						<ele>757</ele>
						<time>2026-09-03T11:59:56Z</time>
					</trkpt>
					<trkpt lat="45.031640" lon="3.902680">
						<ele>755</ele>
						<time>2026-09-03T12:00:04Z</time>
					</trkpt>
					<trkpt lat="45.031580" lon="3.902740">
						<ele>755</ele>
						<time>2026-09-03T12:00:07Z</time>
					</trkpt>
					<trkpt lat="45.031520" lon="3.902850">
						<ele>754</ele>
						<time>2026-09-03T12:00:12Z</time>
					</trkpt>
					<trkpt lat="45.031510" lon="3.902960">
						<ele>753</ele>
						<time>2026-09-03T12:00:16Z</time>
					</trkpt>
					<trkpt lat="45.031730" lon="3.904700">
						<ele>748</ele>
						<time>2026-09-03T12:01:19Z</time>
					</trkpt>
					<trkpt lat="45.031710" lon="3.905250">
						<ele>748</ele>
						<time>2026-09-03T12:01:38Z</time>
					</trkpt>
					<trkpt lat="45.031700" lon="3.905320">
						<ele>748</ele>
						<time>2026-09-03T12:01:41Z</time>
					</trkpt>
					<trkpt lat="45.031610" lon="3.905410">
						<ele>748</ele>
						<time>2026-09-03T12:01:46Z</time>
					</trkpt>
					<trkpt lat="45.031070" lon="3.905490">
						<ele>747</ele>
						<time>2026-09-03T12:02:13Z</time>
					</trkpt>
					<trkpt lat="45.031010" lon="3.905520">
						<ele>747</ele>
						<time>2026-09-03T12:02:17Z</time>
					</trkpt>
					<trkpt lat="45.030970" lon="3.905600">
						<ele>748</ele>
						<time>2026-09-03T12:02:20Z</time>
					</trkpt>
					<trkpt lat="45.031030" lon="3.905910">
						<ele>749</ele>
						<time>2026-09-03T12:02:31Z</time>
					</trkpt>
					<trkpt lat="45.030980" lon="3.906380">
						<ele>752</ele>
						<time>2026-09-03T12:02:48Z</time>
					</trkpt>
					<trkpt lat="45.031010" lon="3.906570">
						<ele>753</ele>
						<time>2026-09-03T12:02:55Z</time>
					</trkpt>
					<trkpt lat="45.031160" lon="3.906980">
						<ele>755</ele>
						<time>2026-09-03T12:03:12Z</time>
					</trkpt>
					<trkpt lat="45.030810" lon="3.907310">
						<ele>756</ele>
						<time>2026-09-03T12:03:33Z</time>
					</trkpt>
					<trkpt lat="45.030670" lon="3.907390">
						<ele>757</ele>
						<time>2026-09-03T12:03:40Z</time>
					</trkpt>
					<trkpt lat="45.030330" lon="3.907470">
						<ele>759</ele>
						<time>2026-09-03T12:03:57Z</time>
					</trkpt>
					<trkpt lat="45.030040" lon="3.907690">
						<ele>761</ele>
						<time>2026-09-03T12:04:14Z</time>
					</trkpt>
					<trkpt lat="45.029930" lon="3.907910">
						<ele>764</ele>
						<time>2026-09-03T12:04:23Z</time>
					</trkpt>
					<trkpt lat="45.029650" lon="3.908250">
						<ele>770</ele>
						<time>2026-09-03T12:04:42Z</time>
					</trkpt>
					<trkpt lat="45.029530" lon="3.908500">
						<ele>774</ele>
						<time>2026-09-03T12:04:53Z</time>
					</trkpt>
					<trkpt lat="45.029370" lon="3.908760">
						<ele>779</ele>
						<time>2026-09-03T12:05:05Z</time>
					</trkpt>
					<trkpt lat="45.029080" lon="3.909030">
						<ele>786</ele>
						<time>2026-09-03T12:05:22Z</time>
					</trkpt>
					<trkpt lat="45.028850" lon="3.909130">
						<ele>790</ele>
						<time>2026-09-03T12:05:34Z</time>
					</trkpt>
					<trkpt lat="45.028510" lon="3.909420">
						<ele>797</ele>
						<time>2026-09-03T12:05:54Z</time>
					</trkpt>
					<trkpt lat="45.028100" lon="3.909660">
						<ele>803</ele>
						<time>2026-09-03T12:06:16Z</time>
					</trkpt>
					<trkpt lat="45.027460" lon="3.909890">
						<ele>810</ele>
						<time>2026-09-03T12:06:49Z</time>
					</trkpt>
					<trkpt lat="45.027380" lon="3.909940">
						<ele>811</ele>
						<time>2026-09-03T12:06:54Z</time>
					</trkpt>
					<trkpt lat="45.027330" lon="3.910040">
						<ele>812</ele>
						<time>2026-09-03T12:06:58Z</time>
					</trkpt>
					<trkpt lat="45.027170" lon="3.910140">
						<ele>813</ele>
						<time>2026-09-03T12:07:07Z</time>
					</trkpt>
					<trkpt lat="45.027050" lon="3.910160">
						<ele>814</ele>
						<time>2026-09-03T12:07:13Z</time>
					</trkpt>
					<trkpt lat="45.026700" lon="3.910130">
						<ele>815</ele>
						<time>2026-09-03T12:07:30Z</time>
					</trkpt>
					<trkpt lat="45.026180" lon="3.910150">
						<ele>818</ele>
						<time>2026-09-03T12:07:56Z</time>
					</trkpt>
					<trkpt lat="45.025660" lon="3.910250">
						<ele>821</ele>
						<time>2026-09-03T12:08:23Z</time>
					</trkpt>
					<trkpt lat="45.025150" lon="3.910470">
						<ele>824</ele>
						<time>2026-09-03T12:08:49Z</time>
					</trkpt>
					<trkpt lat="45.025100" lon="3.910560">
						<ele>825</ele>
						<time>2026-09-03T12:08:53Z</time>
					</trkpt>
					<trkpt lat="45.025050" lon="3.910590">
						<ele>825</ele>
						<time>2026-09-03T12:08:56Z</time>
					</trkpt>
					<trkpt lat="45.024790" lon="3.910590">
						<ele>826</ele>
						<time>2026-09-03T12:09:09Z</time>
					</trkpt>
					<trkpt lat="45.024480" lon="3.910510">
						<ele>827</ele>
						<time>2026-09-03T12:09:25Z</time>
					</trkpt>
					<trkpt lat="45.024140" lon="3.910560">
						<ele>829</ele>
						<time>2026-09-03T12:09:42Z</time>
					</trkpt>
					<trkpt lat="45.023920" lon="3.910670">
						<ele>829</ele>
						<time>2026-09-03T12:09:54Z</time>
					</trkpt>
					<trkpt lat="45.023820" lon="3.910790">
						<ele>829</ele>
						<time>2026-09-03T12:10:00Z</time>
					</trkpt>
					<trkpt lat="45.023630" lon="3.910910">
						<ele>830</ele>
						<time>2026-09-03T12:10:11Z</time>
					</trkpt>
					<trkpt lat="45.023460" lon="3.910970">
						<ele>831</ele>
						<time>2026-09-03T12:10:19Z</time>
					</trkpt>
					<trkpt lat="45.023070" lon="3.911260">
						<ele>832</ele>
						<time>2026-09-03T12:10:41Z</time>
					</trkpt>
					<trkpt lat="45.022620" lon="3.911470">
						<ele>832</ele>
						<time>2026-09-03T12:11:05Z</time>
					</trkpt>
					<trkpt lat="45.021820" lon="3.912060">
						<ele>830</ele>
						<time>2026-09-03T12:11:50Z</time>
					</trkpt>
					<trkpt lat="45.020920" lon="3.913330">
						<ele>825</ele>
						<time>2026-09-03T12:12:54Z</time>
					</trkpt>
					<trkpt lat="45.020380" lon="3.913330">
						<ele>820</ele>
						<time>2026-09-03T12:13:21Z</time>
					</trkpt>
					<trkpt lat="45.020180" lon="3.913360">
						<ele>818</ele>
						<time>2026-09-03T12:13:31Z</time>
					</trkpt>
					<trkpt lat="45.020040" lon="3.913440">
						<ele>816</ele>
						<time>2026-09-03T12:13:39Z</time>
					</trkpt>
					<trkpt lat="45.019490" lon="3.913630">
						<ele>809</ele>
						<time>2026-09-03T12:14:07Z</time>
					</trkpt>
					<trkpt lat="45.018910" lon="3.913870">
						<ele>803</ele>
						<time>2026-09-03T12:14:37Z</time>
					</trkpt>
					<trkpt lat="45.018190" lon="3.913960">
						<ele>799</ele>
						<time>2026-09-03T12:15:13Z</time>
					</trkpt>
					<trkpt lat="45.017700" lon="3.914090">
						<ele>797</ele>
						<time>2026-09-03T12:15:38Z</time>
					</trkpt>
					<trkpt lat="45.017330" lon="3.914120">
						<ele>795</ele>
						<time>2026-09-03T12:15:57Z</time>
					</trkpt>
					<trkpt lat="45.017140" lon="3.914190">
						<ele>795</ele>
						<time>2026-09-03T12:16:07Z</time>
					</trkpt>
					<trkpt lat="45.016940" lon="3.914340">
						<ele>794</ele>
						<time>2026-09-03T12:16:18Z</time>
					</trkpt>
					<trkpt lat="45.016680" lon="3.914600">
						<ele>793</ele>
						<time>2026-09-03T12:16:34Z</time>
					</trkpt>
					<trkpt lat="45.016450" lon="3.914750">
						<ele>792</ele>
						<time>2026-09-03T12:16:47Z</time>
					</trkpt>
					<trkpt lat="45.016280" lon="3.914830">
						<ele>792</ele>
						<time>2026-09-03T12:16:55Z</time>
					</trkpt>
					<trkpt lat="45.015950" lon="3.914860">
						<ele>791</ele>
						<time>2026-09-03T12:17:12Z</time>
					</trkpt>
					<trkpt lat="45.015860" lon="3.914500">
						<ele>789</ele>
						<time>2026-09-03T12:17:26Z</time>
					</trkpt>
					<trkpt lat="45.015650" lon="3.913850">
						<ele>788</ele>
						<time>2026-09-03T12:17:51Z</time>
					</trkpt>
					<trkpt lat="45.015560" lon="3.913690">
						<ele>787</ele>
						<time>2026-09-03T12:17:58Z</time>
					</trkpt>
					<trkpt lat="45.015480" lon="3.913620">
						<ele>787</ele>
						<time>2026-09-03T12:18:03Z</time>
					</trkpt>
					<trkpt lat="45.015380" lon="3.913610">
						<ele>787</ele>
						<time>2026-09-03T12:18:08Z</time>
					</trkpt>
					<trkpt lat="45.015180" lon="3.913760">
						<ele>786</ele>
						<time>2026-09-03T12:18:19Z</time>
					</trkpt>
					<trkpt lat="45.014970" lon="3.913830">
						<ele>786</ele>
						<time>2026-09-03T12:18:30Z</time>
					</trkpt>
					<trkpt lat="45.014490" lon="3.913680">
						<ele>784</ele>
						<time>2026-09-03T12:18:54Z</time>
					</trkpt>
					<trkpt lat="45.014340" lon="3.913530">
						<ele>784</ele>
						<time>2026-09-03T12:19:04Z</time>
					</trkpt>
					<trkpt lat="45.014190" lon="3.913420">
						<ele>784</ele>
						<time>2026-09-03T12:19:12Z</time>
					</trkpt>
					<trkpt lat="45.014090" lon="3.913480">
						<ele>784</ele>
						<time>2026-09-03T12:19:18Z</time>
					</trkpt>
					<trkpt lat="45.014030" lon="3.913640">
						<ele>784</ele>
						<time>2026-09-03T12:19:24Z</time>
					</trkpt>
					<trkpt lat="45.013940" lon="3.913790">
						<ele>784</ele>
						<time>2026-09-03T12:19:31Z</time>
					</trkpt>
					<trkpt lat="45.013640" lon="3.913880">
						<ele>784</ele>
						<time>2026-09-03T12:19:46Z</time>
					</trkpt>
					<trkpt lat="45.013430" lon="3.914060">
						<ele>783</ele>
						<time>2026-09-03T12:19:59Z</time>
					</trkpt>
					<trkpt lat="45.013340" lon="3.913660">
						<ele>784</ele>
						<time>2026-09-03T12:20:13Z</time>
					</trkpt>
					<trkpt lat="45.013080" lon="3.912930">
						<ele>786</ele>
						<time>2026-09-03T12:20:42Z</time>
					</trkpt>
					<trkpt lat="45.012990" lon="3.912370">
						<ele>787</ele>
						<time>2026-09-03T12:21:03Z</time>
					</trkpt>
					<trkpt lat="45.013110" lon="3.911650">
						<ele>788</ele>
						<time>2026-09-03T12:21:29Z</time>
					</trkpt>
					<trkpt lat="45.013420" lon="3.910100">
						<ele>791</ele>
						<time>2026-09-03T12:22:26Z</time>
					</trkpt>
					<trkpt lat="45.013390" lon="3.909420">
						<ele>794</ele>
						<time>2026-09-03T12:22:50Z</time>
					</trkpt>
					<trkpt lat="45.013430" lon="3.909190">
						<ele>796</ele>
						<time>2026-09-03T12:22:58Z</time>
					</trkpt>
					<trkpt lat="45.013510" lon="3.908990">
						<ele>798</ele>
						<time>2026-09-03T12:23:06Z</time>
					</trkpt>
					<trkpt lat="45.013510" lon="3.908820">
						<ele>800</ele>
						<time>2026-09-03T12:23:12Z</time>
					</trkpt>
					<trkpt lat="45.013380" lon="3.908690">
						<ele>800</ele>
						<time>2026-09-03T12:23:20Z</time>
					</trkpt>
					<trkpt lat="45.012850" lon="3.907630">
						<ele>806</ele>
						<time>2026-09-03T12:24:06Z</time>
					</trkpt>
					<trkpt lat="45.012620" lon="3.907310">
						<ele>807</ele>
						<time>2026-09-03T12:24:22Z</time>
					</trkpt>
					<trkpt lat="45.012460" lon="3.906990">
						<ele>807</ele>
						<time>2026-09-03T12:24:36Z</time>
					</trkpt>
					<trkpt lat="45.012430" lon="3.906790">
						<ele>808</ele>
						<time>2026-09-03T12:24:44Z</time>
					</trkpt>
					<trkpt lat="45.012440" lon="3.906670">
						<ele>808</ele>
						<time>2026-09-03T12:24:48Z</time>
					</trkpt>
					<trkpt lat="45.012300" lon="3.906770">
						<ele>808</ele>
						<time>2026-09-03T12:24:56Z</time>
					</trkpt>
					<trkpt lat="45.011670" lon="3.907480">
						<ele>805</ele>
						<time>2026-09-03T12:25:36Z</time>
					</trkpt>
					<trkpt lat="45.011400" lon="3.907830">
						<ele>806</ele>
						<time>2026-09-03T12:25:54Z</time>
					</trkpt>
					<trkpt lat="45.010970" lon="3.908810">
						<ele>804</ele>
						<time>2026-09-03T12:26:35Z</time>
					</trkpt>
					<trkpt lat="45.010450" lon="3.910200">
						<ele>799</ele>
						<time>2026-09-03T12:27:31Z</time>
					</trkpt>
					<trkpt lat="45.010200" lon="3.910670">
						<ele>795</ele>
						<time>2026-09-03T12:27:52Z</time>
					</trkpt>
					<trkpt lat="45.010070" lon="3.910880">
						<ele>792</ele>
						<time>2026-09-03T12:28:01Z</time>
					</trkpt>
					<trkpt lat="45.009920" lon="3.911060">
						<ele>789</ele>
						<time>2026-09-03T12:28:11Z</time>
					</trkpt>
					<trkpt lat="45.009850" lon="3.911090">
						<ele>788</ele>
						<time>2026-09-03T12:28:15Z</time>
					</trkpt>
					<trkpt lat="45.009750" lon="3.911090">
						<ele>787</ele>
						<time>2026-09-03T12:28:20Z</time>
					</trkpt>
					<trkpt lat="45.009490" lon="3.910980">
						<ele>786</ele>
						<time>2026-09-03T12:28:34Z</time>
					</trkpt>
					<trkpt lat="45.009070" lon="3.910740">
						<ele>789</ele>
						<time>2026-09-03T12:28:56Z</time>
					</trkpt>
					<trkpt lat="45.008850" lon="3.910670">
						<ele>788</ele>
						<time>2026-09-03T12:29:08Z</time>
					</trkpt>
					<trkpt lat="45.008580" lon="3.910620">
						<ele>786</ele>
						<time>2026-09-03T12:29:21Z</time>
					</trkpt>
					<trkpt lat="45.008090" lon="3.910610">
						<ele>778</ele>
						<time>2026-09-03T12:29:46Z</time>
					</trkpt>
					<trkpt lat="45.007560" lon="3.910680">
						<ele>765</ele>
						<time>2026-09-03T12:30:12Z</time>
					</trkpt>
					<trkpt lat="45.007290" lon="3.910740">
						<ele>761</ele>
						<time>2026-09-03T12:30:26Z</time>
					</trkpt>
					<trkpt lat="45.006510" lon="3.911510">
						<ele>749</ele>
						<time>2026-09-03T12:31:14Z</time>
					</trkpt>
					<trkpt lat="45.006100" lon="3.911880">
						<ele>743</ele>
						<time>2026-09-03T12:31:38Z</time>
					</trkpt>
					<trkpt lat="45.006110" lon="3.912210">
						<ele>739</ele>
						<time>2026-09-03T12:31:50Z</time>
					</trkpt>
					<trkpt lat="45.006010" lon="3.912330">
						<ele>737</ele>
						<time>2026-09-03T12:31:56Z</time>
					</trkpt>
					<trkpt lat="45.005810" lon="3.912380">
						<ele>735</ele>
						<time>2026-09-03T12:32:06Z</time>
					</trkpt>
					<trkpt lat="45.005590" lon="3.912360">
						<ele>733</ele>
						<time>2026-09-03T12:32:17Z</time>
					</trkpt>
					<trkpt lat="45.005490" lon="3.912390">
						<ele>732</ele>
						<time>2026-09-03T12:32:22Z</time>
					</trkpt>
					<trkpt lat="45.005300" lon="3.912500">
						<ele>729</ele>
						<time>2026-09-03T12:32:33Z</time>
					</trkpt>
					<trkpt lat="45.005120" lon="3.912620">
						<ele>727</ele>
						<time>2026-09-03T12:32:43Z</time>
					</trkpt>
					<trkpt lat="45.004890" lon="3.912820">
						<ele>724</ele>
						<time>2026-09-03T12:32:56Z</time>
					</trkpt>
					<trkpt lat="45.004710" lon="3.913060">
						<ele>722</ele>
						<time>2026-09-03T12:33:09Z</time>
					</trkpt>
					<trkpt lat="45.004600" lon="3.913060">
						<ele>721</ele>
						<time>2026-09-03T12:33:14Z</time>
					</trkpt>
					<trkpt lat="45.004590" lon="3.913160">
						<ele>721</ele>
						<time>2026-09-03T12:33:18Z</time>
					</trkpt>
					<trkpt lat="45.004470" lon="3.913310">
						<ele>720</ele>
						<time>2026-09-03T12:33:26Z</time>
					</trkpt>
					<trkpt lat="45.004230" lon="3.913490">
						<ele>717</ele>
						<time>2026-09-03T12:33:39Z</time>
					</trkpt>
					<trkpt lat="45.004190" lon="3.913420">
						<ele>718</ele>
						<time>2026-09-03T12:33:42Z</time>
					</trkpt>
					<trkpt lat="45.003630" lon="3.913110">
						<ele>711</ele>
						<time>2026-09-03T12:34:13Z</time>
					</trkpt>
					<trkpt lat="45.003570" lon="3.913030">
						<ele>711</ele>
						<time>2026-09-03T12:34:17Z</time>
					</trkpt>
					<trkpt lat="45.003210" lon="3.912960">
						<ele>706</ele>
						<time>2026-09-03T12:34:35Z</time>
					</trkpt>
					<trkpt lat="45.003150" lon="3.912970">
						<ele>706</ele>
						<time>2026-09-03T12:34:38Z</time>
					</trkpt>
					<trkpt lat="45.003100" lon="3.913020">
						<ele>705</ele>
						<time>2026-09-03T12:34:41Z</time>
					</trkpt>
					<trkpt lat="45.003060" lon="3.913120">
						<ele>704</ele>
						<time>2026-09-03T12:34:45Z</time>
					</trkpt>
					<trkpt lat="45.003140" lon="3.914150">
						<ele>698</ele>
						<time>2026-09-03T12:35:22Z</time>
					</trkpt>
					<trkpt lat="45.003040" lon="3.914320">
						<ele>695</ele>
						<time>2026-09-03T12:35:30Z</time>
					</trkpt>
					<trkpt lat="45.002700" lon="3.914630">
						<ele>689</ele>
						<time>2026-09-03T12:35:50Z</time>
					</trkpt>
					<trkpt lat="45.001810" lon="3.915220">
						<ele>680</ele>
						<time>2026-09-03T12:36:39Z</time>
					</trkpt>
					<trkpt lat="45.001130" lon="3.915600">
						<ele>673</ele>
						<time>2026-09-03T12:37:16Z</time>
					</trkpt>
					<trkpt lat="45.000760" lon="3.915780">
						<ele>669</ele>
						<time>2026-09-03T12:37:35Z</time>
					</trkpt>
					<trkpt lat="45.000780" lon="3.915900">
						<ele>668</ele>
						<time>2026-09-03T12:37:39Z</time>
					</trkpt>
					<trkpt lat="45.001000" lon="3.916140">
						<ele>667</ele>
						<time>2026-09-03T12:37:53Z</time>
					</trkpt>
					<trkpt lat="45.001070" lon="3.916260">
						<ele>667</ele>
						<time>2026-09-03T12:37:59Z</time>
					</trkpt>
					<trkpt lat="45.001090" lon="3.916370">
						<ele>666</ele>
						<time>2026-09-03T12:38:03Z</time>
					</trkpt>
					<trkpt lat="45.001050" lon="3.916860">
						<ele>662</ele>
						<time>2026-09-03T12:38:20Z</time>
					</trkpt>
					<trkpt lat="45.001010" lon="3.917000">
						<ele>661</ele>
						<time>2026-09-03T12:38:26Z</time>
					</trkpt>
					<trkpt lat="44.999690" lon="3.917030">
						<ele>646</ele>
						<time>2026-09-03T12:39:32Z</time>
					</trkpt>
					<trkpt lat="44.999400" lon="3.917000">
						<ele>642</ele>
						<time>2026-09-03T12:39:46Z</time>
					</trkpt>
					<trkpt lat="44.999170" lon="3.917160">
						<ele>638</ele>
						<time>2026-09-03T12:39:59Z</time>
					</trkpt>
					<trkpt lat="44.998960" lon="3.917410">
						<ele>634</ele>
						<time>2026-09-03T12:40:13Z</time>
					</trkpt>
					<trkpt lat="44.998850" lon="3.917480">
						<ele>633</ele>
						<time>2026-09-03T12:40:19Z</time>
					</trkpt>
					<trkpt lat="44.998740" lon="3.916960">
						<ele>632</ele>
						<time>2026-09-03T12:40:38Z</time>
					</trkpt>
					<trkpt lat="44.997710" lon="3.917260">
						<ele>628</ele>
						<time>2026-09-03T12:41:31Z</time>
					</trkpt>
					<trkpt lat="44.997460" lon="3.917370">
						<ele>629</ele>
						<time>2026-09-03T12:41:44Z</time>
					</trkpt>
					<trkpt lat="44.997370" lon="3.917500">
						<ele>630</ele>
						<time>2026-09-03T12:41:50Z</time>
					</trkpt>
					<trkpt lat="44.997180" lon="3.918010">
						<ele>631</ele>
						<time>2026-09-03T12:42:11Z</time>
					</trkpt>
					<trkpt lat="44.996980" lon="3.918200">
						<ele>632</ele>
						<time>2026-09-03T12:42:23Z</time>
					</trkpt>
					<trkpt lat="44.996800" lon="3.918320">
						<ele>633</ele>
						<time>2026-09-03T12:42:33Z</time>
					</trkpt>
					<trkpt lat="44.996600" lon="3.918380">
						<ele>633</ele>
						<time>2026-09-03T12:42:43Z</time>
					</trkpt>
					<trkpt lat="44.996400" lon="3.918400">
						<ele>634</ele>
						<time>2026-09-03T12:42:53Z</time>
					</trkpt>
					<trkpt lat="44.996220" lon="3.918380">
						<ele>634</ele>
						<time>2026-09-03T12:43:02Z</time>
					</trkpt>
					<trkpt lat="44.995750" lon="3.918240">
						<ele>636</ele>
						<time>2026-09-03T12:43:26Z</time>
					</trkpt>
					<trkpt lat="44.995710" lon="3.918180">
						<ele>636</ele>
						<time>2026-09-03T12:43:29Z</time>
					</trkpt>
					<trkpt lat="44.995560" lon="3.918100">
						<ele>638</ele>
						<time>2026-09-03T12:43:37Z</time>
					</trkpt>
					<trkpt lat="44.994860" lon="3.917770">
						<ele>646</ele>
						<time>2026-09-03T12:44:14Z</time>
					</trkpt>
					<trkpt lat="44.994740" lon="3.917770">
						<ele>647</ele>
						<time>2026-09-03T12:44:20Z</time>
					</trkpt>
					<trkpt lat="44.994590" lon="3.917890">
						<ele>649</ele>
						<time>2026-09-03T12:44:29Z</time>
					</trkpt>
					<trkpt lat="44.994360" lon="3.918230">
						<ele>650</ele>
						<time>2026-09-03T12:44:45Z</time>
					</trkpt>
					<trkpt lat="44.993700" lon="3.918920">
						<ele>663</ele>
						<time>2026-09-03T12:45:26Z</time>
					</trkpt>
					<trkpt lat="44.993640" lon="3.919010">
						<ele>664</ele>
						<time>2026-09-03T12:45:31Z</time>
					</trkpt>
					<trkpt lat="44.993140" lon="3.920090">
						<ele>675</ele>
						<time>2026-09-03T12:46:16Z</time>
					</trkpt>
					<trkpt lat="44.992730" lon="3.920750">
						<ele>678</ele>
						<time>2026-09-03T12:46:47Z</time>
					</trkpt>
					<trkpt lat="44.991770" lon="3.920520">
						<ele>688</ele>
						<time>2026-09-03T12:47:36Z</time>
					</trkpt>
					<trkpt lat="44.991680" lon="3.920440">
						<ele>690</ele>
						<time>2026-09-03T12:47:41Z</time>
					</trkpt>
					<trkpt lat="44.991500" lon="3.920060">
						<ele>695</ele>
						<time>2026-09-03T12:47:58Z</time>
					</trkpt>
					<trkpt lat="44.991330" lon="3.919550">
						<ele>700</ele>
						<time>2026-09-03T12:48:18Z</time>
					</trkpt>
					<trkpt lat="44.990710" lon="3.918800">
						<ele>713</ele>
						<time>2026-09-03T12:48:58Z</time>
					</trkpt>
					<trkpt lat="44.990640" lon="3.918660">
						<ele>715</ele>
						<time>2026-09-03T12:49:04Z</time>
					</trkpt>
					<trkpt lat="44.990580" lon="3.918340">
						<ele>719</ele>
						<time>2026-09-03T12:49:16Z</time>
					</trkpt>
					<trkpt lat="44.990590" lon="3.918010">
						<ele>722</ele>
						<time>2026-09-03T12:49:28Z</time>
					</trkpt>
					<trkpt lat="44.990780" lon="3.917050">
						<ele>732</ele>
						<time>2026-09-03T12:50:03Z</time>
					</trkpt>
					<trkpt lat="44.990760" lon="3.916960">
						<ele>733</ele>
						<time>2026-09-03T12:50:07Z</time>
					</trkpt>
					<trkpt lat="44.990310" lon="3.916720">
						<ele>740</ele>
						<time>2026-09-03T12:50:31Z</time>
					</trkpt>
					<trkpt lat="44.990280" lon="3.916660">
						<ele>741</ele>
						<time>2026-09-03T12:50:33Z</time>
					</trkpt>
					<trkpt lat="44.990280" lon="3.916590">
						<ele>741</ele>
						<time>2026-09-03T12:50:36Z</time>
					</trkpt>
					<trkpt lat="44.990890" lon="3.915820">
						<ele>744</ele>
						<time>2026-09-03T12:51:17Z</time>
					</trkpt>
					<trkpt lat="44.990930" lon="3.915760">
						<ele>744</ele>
						<time>2026-09-03T12:51:20Z</time>
					</trkpt>
					<trkpt lat="44.990930" lon="3.915650">
						<ele>744</ele>
						<time>2026-09-03T12:51:23Z</time>
					</trkpt>
					<trkpt lat="44.990900" lon="3.915620">
						<ele>745</ele>
						<time>2026-09-03T12:51:25Z</time>
					</trkpt>
					<trkpt lat="44.990680" lon="3.915540">
						<ele>748</ele>
						<time>2026-09-03T12:51:37Z</time>
					</trkpt>
					<trkpt lat="44.990150" lon="3.915400">
						<ele>756</ele>
						<time>2026-09-03T12:52:04Z</time>
					</trkpt>
					<trkpt lat="44.989890" lon="3.915270">
						<ele>762</ele>
						<time>2026-09-03T12:52:17Z</time>
					</trkpt>
					<trkpt lat="44.989740" lon="3.915130">
						<ele>767</ele>
						<time>2026-09-03T12:52:26Z</time>
					</trkpt>
					<trkpt lat="44.989420" lon="3.914440">
						<ele>772</ele>
						<time>2026-09-03T12:52:56Z</time>
					</trkpt>
					<trkpt lat="44.989180" lon="3.914060">
						<ele>775</ele>
						<time>2026-09-03T12:53:14Z</time>
					</trkpt>
					<trkpt lat="44.989010" lon="3.913840">
						<ele>775</ele>
						<time>2026-09-03T12:53:25Z</time>
					</trkpt>
					<trkpt lat="44.988740" lon="3.913560">
						<ele>775</ele>
						<time>2026-09-03T12:53:42Z</time>
					</trkpt>
					<trkpt lat="44.988630" lon="3.913500">
						<ele>775</ele>
						<time>2026-09-03T12:53:48Z</time>
					</trkpt>
					<trkpt lat="44.988420" lon="3.913440">
						<ele>778</ele>
						<time>2026-09-03T12:53:59Z</time>
					</trkpt>
					<trkpt lat="44.988070" lon="3.913410">
						<ele>780</ele>
						<time>2026-09-03T12:54:16Z</time>
					</trkpt>
					<trkpt lat="44.987980" lon="3.913430">
						<ele>781</ele>
						<time>2026-09-03T12:54:21Z</time>
					</trkpt>
					<trkpt lat="44.987800" lon="3.913530">
						<ele>784</ele>
						<time>2026-09-03T12:54:30Z</time>
					</trkpt>
					<trkpt lat="44.987010" lon="3.913800">
						<ele>792</ele>
						<time>2026-09-03T12:55:11Z</time>
					</trkpt>
					<trkpt lat="44.986860" lon="3.913820">
						<ele>793</ele>
						<time>2026-09-03T12:55:19Z</time>
					</trkpt>
					<trkpt lat="44.986580" lon="3.913790">
						<ele>795</ele>
						<time>2026-09-03T12:55:33Z</time>
					</trkpt>
					<trkpt lat="44.986440" lon="3.913820">
						<ele>796</ele>
						<time>2026-09-03T12:55:40Z</time>
					</trkpt>
					<trkpt lat="44.986070" lon="3.913840">
						<ele>800</ele>
						<time>2026-09-03T12:55:58Z</time>
					</trkpt>
					<trkpt lat="44.985760" lon="3.914010">
						<ele>804</ele>
						<time>2026-09-03T12:56:15Z</time>
					</trkpt>
					<trkpt lat="44.985280" lon="3.914430">
						<ele>809</ele>
						<time>2026-09-03T12:56:43Z</time>
					</trkpt>
					<trkpt lat="44.985120" lon="3.914460">
						<ele>810</ele>
						<time>2026-09-03T12:56:51Z</time>
					</trkpt>
					<trkpt lat="44.984940" lon="3.914210">
						<ele>811</ele>
						<time>2026-09-03T12:57:04Z</time>
					</trkpt>
					<trkpt lat="44.984270" lon="3.913470">
						<ele>807</ele>
						<time>2026-09-03T12:57:46Z</time>
					</trkpt>
					<trkpt lat="44.984100" lon="3.913730">
						<ele>809</ele>
						<time>2026-09-03T12:57:59Z</time>
					</trkpt>
					<trkpt lat="44.984070" lon="3.913850">
						<ele>809</ele>
						<time>2026-09-03T12:58:03Z</time>
					</trkpt>
					<trkpt lat="44.984040" lon="3.914350">
						<ele>811</ele>
						<time>2026-09-03T12:58:21Z</time>
					</trkpt>
					<trkpt lat="44.984070" lon="3.914870">
						<ele>813</ele>
						<time>2026-09-03T12:58:40Z</time>
					</trkpt>
					<trkpt lat="44.983950" lon="3.915270">
						<ele>815</ele>
						<time>2026-09-03T12:58:55Z</time>
					</trkpt>
					<trkpt lat="44.983860" lon="3.915450">
						<ele>815</ele>
						<time>2026-09-03T12:59:03Z</time>
					</trkpt>
					<trkpt lat="44.983620" lon="3.915820">
						<ele>816</ele>
						<time>2026-09-03T12:59:21Z</time>
					</trkpt>
					<trkpt lat="44.983260" lon="3.916230">
						<ele>818</ele>
						<time>2026-09-03T12:59:44Z</time>
					</trkpt>
					<trkpt lat="44.982730" lon="3.916910">
						<ele>824</ele>
						<time>2026-09-03T13:00:19Z</time>
					</trkpt>
					<trkpt lat="44.982620" lon="3.916970">
						<ele>826</ele>
						<time>2026-09-03T13:00:25Z</time>
					</trkpt>
					<trkpt lat="44.982500" lon="3.917000">
						<ele>827</ele>
						<time>2026-09-03T13:00:31Z</time>
					</trkpt>
					<trkpt lat="44.982400" lon="3.916990">
						<ele>828</ele>
						<time>2026-09-03T13:00:37Z</time>
					</trkpt>
					<trkpt lat="44.982300" lon="3.916920">
						<ele>829</ele>
						<time>2026-09-03T13:00:42Z</time>
					</trkpt>
					<trkpt lat="44.982100" lon="3.916840">
						<ele>831</ele>
						<time>2026-09-03T13:00:52Z</time>
					</trkpt>
					<trkpt lat="44.981940" lon="3.916830">
						<ele>832</ele>
						<time>2026-09-03T13:01:01Z</time>
					</trkpt>
					<trkpt lat="44.981870" lon="3.916840">
						<ele>833</ele>
						<time>2026-09-03T13:01:04Z</time>
					</trkpt>
					<trkpt lat="44.981720" lon="3.916920">
						<ele>835</ele>
						<time>2026-09-03T13:01:12Z</time>
					</trkpt>
					<trkpt lat="44.981650" lon="3.917010">
						<ele>836</ele>
						<time>2026-09-03T13:01:17Z</time>
					</trkpt>
					<trkpt lat="44.981550" lon="3.917210">
						<ele>837</ele>
						<time>2026-09-03T13:01:25Z</time>
					</trkpt>
					<trkpt lat="44.981470" lon="3.917450">
						<ele>839</ele>
						<time>2026-09-03T13:01:35Z</time>
					</trkpt>
					<trkpt lat="44.981430" lon="3.917680">
						<ele>839</ele>
						<time>2026-09-03T13:01:43Z</time>
					</trkpt>
					<trkpt lat="44.981410" lon="3.917860">
						<ele>840</ele>
						<time>2026-09-03T13:01:50Z</time>
					</trkpt>
					<trkpt lat="44.981450" lon="3.918380">
						<ele>840</ele>
						<time>2026-09-03T13:02:08Z</time>
					</trkpt>
					<trkpt lat="44.981440" lon="3.918490">
						<ele>840</ele>
						<time>2026-09-03T13:02:12Z</time>
					</trkpt>
					<trkpt lat="44.981400" lon="3.918580">
						<ele>841</ele>
						<time>2026-09-03T13:02:16Z</time>
					</trkpt>
					<trkpt lat="44.980660" lon="3.919730">
						<ele>848</ele>
						<time>2026-09-03T13:03:11Z</time>
					</trkpt>
					<trkpt lat="44.980130" lon="3.920630">
						<ele>852</ele>
						<time>2026-09-03T13:03:52Z</time>
					</trkpt>
					<trkpt lat="44.979450" lon="3.921640">
						<ele>859</ele>
						<time>2026-09-03T13:04:42Z</time>
					</trkpt>
					<trkpt lat="44.978800" lon="3.923020">
						<ele>870</ele>
						<time>2026-09-03T13:05:40Z</time>
					</trkpt>
					<trkpt lat="44.977690" lon="3.924940">
						<ele>882</ele>
						<time>2026-09-03T13:07:08Z</time>
					</trkpt>
					<trkpt lat="44.977550" lon="3.925130">
						<ele>883</ele>
						<time>2026-09-03T13:07:18Z</time>
					</trkpt>
					<trkpt lat="44.977220" lon="3.925410">
						<ele>885</ele>
						<time>2026-09-03T13:07:37Z</time>
					</trkpt>
					<trkpt lat="44.976910" lon="3.925800">
						<ele>887</ele>
						<time>2026-09-03T13:07:58Z</time>
					</trkpt>
					<trkpt lat="44.976110" lon="3.927120">
						<ele>888</ele>
						<time>2026-09-03T13:08:59Z</time>
					</trkpt>
					<trkpt lat="44.975900" lon="3.927370">
						<ele>887</ele>
						<time>2026-09-03T13:09:13Z</time>
					</trkpt>
					<trkpt lat="44.975730" lon="3.927510">
						<ele>886</ele>
						<time>2026-09-03T13:09:23Z</time>
					</trkpt>
					<trkpt lat="44.975410" lon="3.927660">
						<ele>884</ele>
						<time>2026-09-03T13:09:40Z</time>
					</trkpt>
					<trkpt lat="44.975110" lon="3.927840">
						<ele>882</ele>
						<time>2026-09-03T13:09:56Z</time>
					</trkpt>
					<trkpt lat="44.974950" lon="3.927920">
						<ele>881</ele>
						<time>2026-09-03T13:10:05Z</time>
					</trkpt>
					<trkpt lat="44.974640" lon="3.927970">
						<ele>881</ele>
						<time>2026-09-03T13:10:20Z</time>
					</trkpt>
					<trkpt lat="44.974340" lon="3.928110">
						<ele>881</ele>
						<time>2026-09-03T13:10:36Z</time>
					</trkpt>
					<trkpt lat="44.974060" lon="3.928300">
						<ele>881</ele>
						<time>2026-09-03T13:10:52Z</time>
					</trkpt>
					<trkpt lat="44.973490" lon="3.929110">
						<ele>877</ele>
						<time>2026-09-03T13:11:32Z</time>
					</trkpt>
					<trkpt lat="44.973400" lon="3.929280">
						<ele>878</ele>
						<time>2026-09-03T13:11:40Z</time>
					</trkpt>
					<trkpt lat="44.973220" lon="3.929780">
						<ele>877</ele>
						<time>2026-09-03T13:12:00Z</time>
					</trkpt>
					<trkpt lat="44.973060" lon="3.930010">
						<ele>877</ele>
						<time>2026-09-03T13:12:11Z</time>
					</trkpt>
					<trkpt lat="44.972440" lon="3.931710">
						<ele>877</ele>
						<time>2026-09-03T13:13:19Z</time>
					</trkpt>
					<trkpt lat="44.971450" lon="3.934300">
						<ele>883</ele>
						<time>2026-09-03T13:15:03Z</time>
					</trkpt>
					<trkpt lat="44.971120" lon="3.934860">
						<ele>883</ele>
						<time>2026-09-03T13:15:29Z</time>
					</trkpt>
					<trkpt lat="44.970740" lon="3.935370">
						<ele>884</ele>
						<time>2026-09-03T13:15:55Z</time>
					</trkpt>
					<trkpt lat="44.970630" lon="3.935680">
						<ele>886</ele>
						<time>2026-09-03T13:16:07Z</time>
					</trkpt>
					<trkpt lat="44.970490" lon="3.935960">
						<ele>887</ele>
						<time>2026-09-03T13:16:19Z</time>
					</trkpt>
					<trkpt lat="44.970200" lon="3.936520">
						<ele>891</ele>
						<time>2026-09-03T13:16:44Z</time>
					</trkpt>
					<trkpt lat="44.969830" lon="3.937130">
						<ele>890</ele>
						<time>2026-09-03T13:17:12Z</time>
					</trkpt>
					<trkpt lat="44.969590" lon="3.937620">
						<ele>888</ele>
						<time>2026-09-03T13:17:33Z</time>
					</trkpt>
					<trkpt lat="44.969200" lon="3.938630">
						<ele>886</ele>
						<time>2026-09-03T13:18:14Z</time>
					</trkpt>
					<trkpt lat="44.968850" lon="3.939240">
						<ele>886</ele>
						<time>2026-09-03T13:18:42Z</time>
					</trkpt>
					<trkpt lat="44.968240" lon="3.940040">
						<ele>891</ele>
						<time>2026-09-03T13:19:24Z</time>
					</trkpt>
					<trkpt lat="44.967230" lon="3.941020">
						<ele>891</ele>
						<time>2026-09-03T13:20:25Z</time>
					</trkpt>
					<trkpt lat="44.966780" lon="3.941390">
						<ele>890</ele>
						<time>2026-09-03T13:20:51Z</time>
					</trkpt>
					<trkpt lat="44.966110" lon="3.942230">
						<ele>889</ele>
						<time>2026-09-03T13:21:36Z</time>
					</trkpt>
					<trkpt lat="44.965690" lon="3.942610">
						<ele>890</ele>
						<time>2026-09-03T13:22:01Z</time>
					</trkpt>
					<trkpt lat="44.965400" lon="3.942980">
						<ele>890</ele>
						<time>2026-09-03T13:22:20Z</time>
					</trkpt>
					<trkpt lat="44.964690" lon="3.944090">
						<ele>889</ele>
						<time>2026-09-03T13:23:13Z</time>
					</trkpt>
					<trkpt lat="44.964050" lon="3.945320">
						<ele>889</ele>
						<time>2026-09-03T13:24:07Z</time>
					</trkpt>
					<trkpt lat="44.963740" lon="3.945830">
						<ele>886</ele>
						<time>2026-09-03T13:24:31Z</time>
					</trkpt>
					<trkpt lat="44.962660" lon="3.947230">
						<ele>890</ele>
						<time>2026-09-03T13:25:44Z</time>
					</trkpt>
					<trkpt lat="44.962460" lon="3.947450">
						<ele>890</ele>
						<time>2026-09-03T13:25:57Z</time>
					</trkpt>
					<trkpt lat="44.962420" lon="3.947560">
						<ele>891</ele>
						<time>2026-09-03T13:26:02Z</time>
					</trkpt>
					<trkpt lat="44.962020" lon="3.948220">
						<ele>893</ele>
						<time>2026-09-03T13:26:32Z</time>
					</trkpt>
					<trkpt lat="44.961910" lon="3.948600">
						<ele>896</ele>
						<time>2026-09-03T13:26:47Z</time>
					</trkpt>
					<trkpt lat="44.961880" lon="3.949070">
						<ele>899</ele>
						<time>2026-09-03T13:27:04Z</time>
					</trkpt>
					<trkpt lat="44.962070" lon="3.950620">
						<ele>910</ele>
						<time>2026-09-03T13:27:59Z</time>
					</trkpt>
					<trkpt lat="44.962170" lon="3.952910">
						<ele>910</ele>
						<time>2026-09-03T13:29:20Z</time>
					</trkpt>
					<trkpt lat="44.962330" lon="3.955610">
						<ele>911</ele>
						<time>2026-09-03T13:30:56Z</time>
					</trkpt>
					<trkpt lat="44.962500" lon="3.957190">
						<ele>912</ele>
						<time>2026-09-03T13:31:53Z</time>
					</trkpt>
					<trkpt lat="44.962580" lon="3.958550">
						<ele>901</ele>
						<time>2026-09-03T13:32:41Z</time>
					</trkpt>
					<trkpt lat="44.962500" lon="3.958800">
						<ele>899</ele>
						<time>2026-09-03T13:32:51Z</time>
					</trkpt>
					<trkpt lat="44.961810" lon="3.960080">
						<ele>895</ele>
						<time>2026-09-03T13:33:48Z</time>
					</trkpt>
					<trkpt lat="44.961520" lon="3.960920">
						<ele>891</ele>
						<time>2026-09-03T13:34:21Z</time>
					</trkpt>
					<trkpt lat="44.961290" lon="3.961460">
						<ele>887</ele>
						<time>2026-09-03T13:34:43Z</time>
					</trkpt>
					<trkpt lat="44.961160" lon="3.961590">
						<ele>887</ele>
						<time>2026-09-03T13:34:51Z</time>
					</trkpt>
					<trkpt lat="44.960840" lon="3.961830">
						<ele>887</ele>
						<time>2026-09-03T13:35:10Z</time>
					</trkpt>
					<trkpt lat="44.960510" lon="3.961810">
						<ele>894</ele>
						<time>2026-09-03T13:35:26Z</time>
					</trkpt>
					<trkpt lat="44.960310" lon="3.961880">
						<ele>897</ele>
						<time>2026-09-03T13:35:36Z</time>
					</trkpt>
					<trkpt lat="44.960130" lon="3.962050">
						<ele>898</ele>
						<time>2026-09-03T13:35:47Z</time>
					</trkpt>
					<trkpt lat="44.959980" lon="3.962420">
						<ele>894</ele>
						<time>2026-09-03T13:36:02Z</time>
					</trkpt>
					<trkpt lat="44.959860" lon="3.962800">
						<ele>892</ele>
						<time>2026-09-03T13:36:17Z</time>
					</trkpt>
					<trkpt lat="44.959790" lon="3.962900">
						<ele>892</ele>
						<time>2026-09-03T13:36:22Z</time>
					</trkpt>
					<trkpt lat="44.959430" lon="3.963230">
						<ele>897</ele>
						<time>2026-09-03T13:36:44Z</time>
					</trkpt>
					<trkpt lat="44.959250" lon="3.963440">
						<ele>899</ele>
						<time>2026-09-03T13:36:55Z</time>
					</trkpt>
					<trkpt lat="44.959070" lon="3.963870">
						<ele>900</ele>
						<time>2026-09-03T13:37:13Z</time>
					</trkpt>
					<trkpt lat="44.958900" lon="3.964700">
						<ele>897</ele>
						<time>2026-09-03T13:37:43Z</time>
					</trkpt>
					<trkpt lat="44.958290" lon="3.965820">
						<ele>896</ele>
						<time>2026-09-03T13:38:34Z</time>
					</trkpt>
					<trkpt lat="44.958160" lon="3.965960">
						<ele>895</ele>
						<time>2026-09-03T13:38:42Z</time>
					</trkpt>
					<trkpt lat="44.957690" lon="3.966350">
						<ele>895</ele>
						<time>2026-09-03T13:39:09Z</time>
					</trkpt>
					<trkpt lat="44.957190" lon="3.966820">
						<ele>895</ele>
						<time>2026-09-03T13:39:39Z</time>
					</trkpt>
					<trkpt lat="44.956980" lon="3.967070">
						<ele>895</ele>
						<time>2026-09-03T13:39:53Z</time>
					</trkpt>
					<trkpt lat="44.955700" lon="3.969120">
						<ele>896</ele>
						<time>2026-09-03T13:41:30Z</time>
					</trkpt>
					<trkpt lat="44.955640" lon="3.969180">
						<ele>896</ele>
						<time>2026-09-03T13:41:33Z</time>
					</trkpt>
					<trkpt lat="44.955520" lon="3.969450">
						<ele>896</ele>
						<time>2026-09-03T13:41:45Z</time>
					</trkpt>
					<trkpt lat="44.955450" lon="3.970050">
						<ele>893</ele>
						<time>2026-09-03T13:42:06Z</time>
					</trkpt>
					<trkpt lat="44.955360" lon="3.970370">
						<ele>893</ele>
						<time>2026-09-03T13:42:18Z</time>
					</trkpt>
					<trkpt lat="44.955380" lon="3.970650">
						<ele>893</ele>
						<time>2026-09-03T13:42:28Z</time>
					</trkpt>
					<trkpt lat="44.954960" lon="3.970570">
						<ele>897</ele>
						<time>2026-09-03T13:42:49Z</time>
					</trkpt>
					<trkpt lat="44.954800" lon="3.970710">
						<ele>900</ele>
						<time>2026-09-03T13:42:59Z</time>
					</trkpt>
					<trkpt lat="44.954640" lon="3.970750">
						<ele>902</ele>
						<time>2026-09-03T13:43:07Z</time>
					</trkpt>
					<trkpt lat="44.954560" lon="3.970970">
						<ele>902</ele>
						<time>2026-09-03T13:43:16Z</time>
					</trkpt>
					<trkpt lat="44.954480" lon="3.971000">
						<ele>904</ele>
						<time>2026-09-03T13:43:20Z</time>
					</trkpt>
					<trkpt lat="44.954330" lon="3.970990">
						<ele>906</ele>
						<time>2026-09-03T13:43:27Z</time>
					</trkpt>
					<trkpt lat="44.953910" lon="3.971050">
						<ele>913</ele>
						<time>2026-09-03T13:43:49Z</time>
					</trkpt>
					<trkpt lat="44.953560" lon="3.971140">
						<ele>919</ele>
						<time>2026-09-03T13:44:06Z</time>
					</trkpt>
					<trkpt lat="44.953380" lon="3.971220">
						<ele>922</ele>
						<time>2026-09-03T13:44:16Z</time>
					</trkpt>
					<trkpt lat="44.953390" lon="3.970990">
						<ele>923</ele>
						<time>2026-09-03T13:44:24Z</time>
					</trkpt>
					<trkpt lat="44.953330" lon="3.970930">
						<ele>925</ele>
						<time>2026-09-03T13:44:28Z</time>
					</trkpt>
					<trkpt lat="44.952980" lon="3.970860">
						<ele>932</ele>
						<time>2026-09-03T13:44:45Z</time>
					</trkpt>
					<trkpt lat="44.952260" lon="3.970460">
						<ele>953</ele>
						<time>2026-09-03T13:45:24Z</time>
					</trkpt>
					<trkpt lat="44.951310" lon="3.970220">
						<ele>971</ele>
						<time>2026-09-03T13:46:12Z</time>
					</trkpt>
					<trkpt lat="44.951130" lon="3.970240">
						<ele>972</ele>
						<time>2026-09-03T13:46:21Z</time>
					</trkpt>
					<trkpt lat="44.950960" lon="3.970330">
						<ele>974</ele>
						<time>2026-09-03T13:46:30Z</time>
					</trkpt>
					<trkpt lat="44.950360" lon="3.970380">
						<ele>977</ele>
						<time>2026-09-03T13:47:01Z</time>
					</trkpt>
					<trkpt lat="44.949700" lon="3.970300">
						<ele>978</ele>
						<time>2026-09-03T13:47:34Z</time>
					</trkpt>
					<trkpt lat="44.949480" lon="3.970320">
						<ele>978</ele>
						<time>2026-09-03T13:47:45Z</time>
					</trkpt>
					<trkpt lat="44.949410" lon="3.970310">
						<ele>978</ele>
						<time>2026-09-03T13:47:48Z</time>
					</trkpt>
					<trkpt lat="44.949100" lon="3.970140">
						<ele>978</ele>
						<time>2026-09-03T13:48:05Z</time>
					</trkpt>
					<trkpt lat="44.948870" lon="3.970050">
						<ele>977</ele>
						<time>2026-09-03T13:48:17Z</time>
					</trkpt>
					<trkpt lat="44.948670" lon="3.970010">
						<ele>977</ele>
						<time>2026-09-03T13:48:27Z</time>
					</trkpt>
					<trkpt lat="44.948270" lon="3.970240">
						<ele>978</ele>
						<time>2026-09-03T13:48:49Z</time>
					</trkpt>
					<trkpt lat="44.948000" lon="3.970530">
						<ele>979</ele>
						<time>2026-09-03T13:49:06Z</time>
					</trkpt>
					<trkpt lat="44.947740" lon="3.970720">
						<ele>979</ele>
						<time>2026-09-03T13:49:20Z</time>
					</trkpt>
					<trkpt lat="44.947850" lon="3.971200">
						<ele>981</ele>
						<time>2026-09-03T13:49:38Z</time>
					</trkpt>
					<trkpt lat="44.947820" lon="3.971320">
						<ele>981</ele>
						<time>2026-09-03T13:49:43Z</time>
					</trkpt>
					<trkpt lat="44.947680" lon="3.971510">
						<ele>982</ele>
						<time>2026-09-03T13:49:52Z</time>
					</trkpt>
					<trkpt lat="44.947570" lon="3.971610">
						<ele>983</ele>
						<time>2026-09-03T13:49:59Z</time>
					</trkpt>
					<trkpt lat="44.947380" lon="3.971710">
						<ele>983</ele>
						<time>2026-09-03T13:50:09Z</time>
					</trkpt>
					<trkpt lat="44.947090" lon="3.971670">
						<ele>983</ele>
						<time>2026-09-03T13:50:24Z</time>
					</trkpt>
					<trkpt lat="44.947010" lon="3.971750">
						<ele>983</ele>
						<time>2026-09-03T13:50:28Z</time>
					</trkpt>
					<trkpt lat="44.946680" lon="3.971780">
						<ele>983</ele>
						<time>2026-09-03T13:50:45Z</time>
					</trkpt>
					<trkpt lat="44.946420" lon="3.971930">
						<ele>980</ele>
						<time>2026-09-03T13:50:59Z</time>
					</trkpt>
					<trkpt lat="44.946190" lon="3.972180">
						<ele>977</ele>
						<time>2026-09-03T13:51:14Z</time>
					</trkpt>
					<trkpt lat="44.946100" lon="3.972320">
						<ele>975</ele>
						<time>2026-09-03T13:51:20Z</time>
					</trkpt>
					<trkpt lat="44.946040" lon="3.972470">
						<ele>974</ele>
						<time>2026-09-03T13:51:26Z</time>
					</trkpt>
					<trkpt lat="44.945970" lon="3.972770">
						<ele>974</ele>
						<time>2026-09-03T13:51:38Z</time>
					</trkpt>
					<trkpt lat="44.945880" lon="3.973200">
						<ele>975</ele>
						<time>2026-09-03T13:51:53Z</time>
					</trkpt>
					<trkpt lat="44.945860" lon="3.973420">
						<ele>976</ele>
						<time>2026-09-03T13:52:01Z</time>
					</trkpt>
					<trkpt lat="44.945950" lon="3.973860">
						<ele>979</ele>
						<time>2026-09-03T13:52:17Z</time>
					</trkpt>
					<trkpt lat="44.945940" lon="3.974280">
						<ele>980</ele>
						<time>2026-09-03T13:52:32Z</time>
					</trkpt>
					<trkpt lat="44.946110" lon="3.975420">
						<ele>980</ele>
						<time>2026-09-03T13:53:14Z</time>
					</trkpt>
					<trkpt lat="44.946110" lon="3.975650">
						<ele>979</ele>
						<time>2026-09-03T13:53:22Z</time>
					</trkpt>
					<trkpt lat="44.946170" lon="3.976040">
						<ele>979</ele>
						<time>2026-09-03T13:53:36Z</time>
					</trkpt>
					<trkpt lat="44.946310" lon="3.977390">
						<ele>980</ele>
						<time>2026-09-03T13:54:24Z</time>
					</trkpt>
					<trkpt lat="44.946350" lon="3.977490">
						<ele>981</ele>
						<time>2026-09-03T13:54:28Z</time>
					</trkpt>
					<trkpt lat="44.946350" lon="3.977970">
						<ele>983</ele>
						<time>2026-09-03T13:54:45Z</time>
					</trkpt>
					<trkpt lat="44.946180" lon="3.979210">
						<ele>983</ele>
						<time>2026-09-03T13:55:30Z</time>
					</trkpt>
					<trkpt lat="44.946190" lon="3.979640">
						<ele>985</ele>
						<time>2026-09-03T13:55:45Z</time>
					</trkpt>
					<trkpt lat="44.946140" lon="3.980130">
						<ele>986</ele>
						<time>2026-09-03T13:56:03Z</time>
					</trkpt>
					<trkpt lat="44.946130" lon="3.980890">
						<ele>985</ele>
						<time>2026-09-03T13:56:30Z</time>
					</trkpt>
					<trkpt lat="44.946210" lon="3.981870">
						<ele>982</ele>
						<time>2026-09-03T13:57:05Z</time>
					</trkpt>
					<trkpt lat="44.946260" lon="3.982160">
						<ele>980</ele>
						<time>2026-09-03T13:57:15Z</time>
					</trkpt>
					<trkpt lat="44.946370" lon="3.982470">
						<ele>978</ele>
						<time>2026-09-03T13:57:28Z</time>
					</trkpt>
					<trkpt lat="44.946520" lon="3.982700">
						<ele>977</ele>
						<time>2026-09-03T13:57:39Z</time>
					</trkpt>
					<trkpt lat="44.946630" lon="3.982810">
						<ele>976</ele>
						<time>2026-09-03T13:57:45Z</time>
					</trkpt>
					<trkpt lat="44.946680" lon="3.983170">
						<ele>970</ele>
						<time>2026-09-03T13:57:58Z</time>
					</trkpt>
					<trkpt lat="44.946690" lon="3.983660">
						<ele>962</ele>
						<time>2026-09-03T13:58:16Z</time>
					</trkpt>
					<trkpt lat="44.946660" lon="3.984030">
						<ele>957</ele>
						<time>2026-09-03T13:58:29Z</time>
					</trkpt>
					<trkpt lat="44.946690" lon="3.984370">
						<ele>952</ele>
						<time>2026-09-03T13:58:41Z</time>
					</trkpt>
					<trkpt lat="44.946830" lon="3.984840">
						<ele>946</ele>
						<time>2026-09-03T13:58:59Z</time>
					</trkpt>
					<trkpt lat="44.946690" lon="3.985500">
						<ele>939</ele>
						<time>2026-09-03T13:59:24Z</time>
					</trkpt>
					<trkpt lat="44.946660" lon="3.985940">
						<ele>934</ele>
						<time>2026-09-03T13:59:39Z</time>
					</trkpt>
					<trkpt lat="44.946900" lon="3.987350">
						<ele>931</ele>
						<time>2026-09-03T14:00:31Z</time>
					</trkpt>
					<trkpt lat="44.946870" lon="3.987850">
						<ele>931</ele>
						<time>2026-09-03T14:00:48Z</time>
					</trkpt>
					<trkpt lat="44.946630" lon="3.988870">
						<ele>930</ele>
						<time>2026-09-03T14:01:26Z</time>
					</trkpt>
					<trkpt lat="44.946770" lon="3.989010">
						<ele>931</ele>
						<time>2026-09-03T14:01:35Z</time>
					</trkpt>
					<trkpt lat="44.946600" lon="3.989300">
						<ele>932</ele>
						<time>2026-09-03T14:01:48Z</time>
					</trkpt>
					<trkpt lat="44.946260" lon="3.989620">
						<ele>932</ele>
						<time>2026-09-03T14:02:09Z</time>
					</trkpt>
					<trkpt lat="44.944970" lon="3.990490">
						<ele>936</ele>
						<time>2026-09-03T14:03:20Z</time>
					</trkpt>
					<trkpt lat="44.944220" lon="3.990900">
						<ele>937</ele>
						<time>2026-09-03T14:04:01Z</time>
					</trkpt>
					<trkpt lat="44.943990" lon="3.991080">
						<ele>936</ele>
						<time>2026-09-03T14:04:14Z</time>
					</trkpt>
					<trkpt lat="44.943650" lon="3.991430">
						<ele>934</ele>
						<time>2026-09-03T14:04:35Z</time>
					</trkpt>
					<trkpt lat="44.943020" lon="3.992230">
						<ele>934</ele>
						<time>2026-09-03T14:05:17Z</time>
					</trkpt>
					<trkpt lat="44.941730" lon="3.993010">
						<ele>931</ele>
						<time>2026-09-03T14:06:27Z</time>
					</trkpt>
					<trkpt lat="44.941550" lon="3.993140">
						<ele>932</ele>
						<time>2026-09-03T14:06:37Z</time>
					</trkpt>
					<trkpt lat="44.941470" lon="3.993180">
						<ele>932</ele>
						<time>2026-09-03T14:06:42Z</time>
					</trkpt>
					<trkpt lat="44.941250" lon="3.993230">
						<ele>933</ele>
						<time>2026-09-03T14:06:53Z</time>
					</trkpt>
					<trkpt lat="44.941030" lon="3.993250">
						<ele>932</ele>
						<time>2026-09-03T14:07:04Z</time>
					</trkpt>
					<trkpt lat="44.940920" lon="3.993310">
						<ele>933</ele>
						<time>2026-09-03T14:07:10Z</time>
					</trkpt>
					<trkpt lat="44.940770" lon="3.993410">
						<ele>933</ele>
						<time>2026-09-03T14:07:18Z</time>
					</trkpt>
					<trkpt lat="44.940170" lon="3.993970">
						<ele>933</ele>
						<time>2026-09-03T14:07:54Z</time>
					</trkpt>
					<trkpt lat="44.940080" lon="3.994030">
						<ele>933</ele>
						<time>2026-09-03T14:07:59Z</time>
					</trkpt>
					<trkpt lat="44.940030" lon="3.994050">
						<ele>933</ele>
						<time>2026-09-03T14:08:02Z</time>
					</trkpt>
					<trkpt lat="44.939730" lon="3.994050">
						<ele>931</ele>
						<time>2026-09-03T14:08:17Z</time>
					</trkpt>
					<trkpt lat="44.939450" lon="3.994190">
						<ele>931</ele>
						<time>2026-09-03T14:08:32Z</time>
					</trkpt>
					<trkpt lat="44.939310" lon="3.994320">
						<ele>932</ele>
						<time>2026-09-03T14:08:40Z</time>
					</trkpt>
					<trkpt lat="44.939400" lon="3.994530">
						<ele>935</ele>
						<time>2026-09-03T14:08:49Z</time>
					</trkpt>
					<trkpt lat="44.939670" lon="3.994410">
						<ele>935</ele>
						<time>2026-09-03T14:09:03Z</time>
					</trkpt>
					<trkpt lat="44.939870" lon="3.994380">
						<ele>936</ele>
						<time>2026-09-03T14:09:13Z</time>
					</trkpt>
					<trkpt lat="44.940010" lon="3.994720">
						<ele>941</ele>
						<time>2026-09-03T14:09:27Z</time>
					</trkpt>
					<trkpt lat="44.940160" lon="3.994610">
						<ele>940</ele>
						<time>2026-09-03T14:09:35Z</time>
					</trkpt>
					<trkpt lat="44.940240" lon="3.994780">
						<ele>942</ele>
						<time>2026-09-03T14:09:42Z</time>
					</trkpt>
					<trkpt lat="44.940280" lon="3.994950">
						<ele>944</ele>
						<time>2026-09-03T14:09:49Z</time>
					</trkpt>
					<trkpt lat="44.940280" lon="3.995110">
						<ele>946</ele>
						<time>2026-09-03T14:09:54Z</time>
					</trkpt>
					<trkpt lat="44.940400" lon="3.995770">
						<ele>952</ele>
						<time>2026-09-03T14:10:19Z</time>
					</trkpt>
					<trkpt lat="44.940510" lon="3.995890">
						<ele>954</ele>
						<time>2026-09-03T14:10:26Z</time>
					</trkpt>
					<trkpt lat="44.940650" lon="3.995920">
						<ele>955</ele>
						<time>2026-09-03T14:10:33Z</time>
					</trkpt>
					<trkpt lat="44.940920" lon="3.995810">
						<ele>955</ele>
						<time>2026-09-03T14:10:47Z</time>
					</trkpt>
					<trkpt lat="44.941000" lon="3.995840">
						<ele>956</ele>
						<time>2026-09-03T14:10:51Z</time>
					</trkpt>
					<trkpt lat="44.941250" lon="3.995760">
						<ele>956</ele>
						<time>2026-09-03T14:11:04Z</time>
					</trkpt>
					<trkpt lat="44.941330" lon="3.995770">
						<ele>957</ele>
						<time>2026-09-03T14:11:08Z</time>
					</trkpt>
					<trkpt lat="44.941480" lon="3.995920">
						<ele>959</ele>
						<time>2026-09-03T14:11:17Z</time>
					</trkpt>
					<trkpt lat="44.941580" lon="3.995920">
						<ele>960</ele>
						<time>2026-09-03T14:11:22Z</time>
					</trkpt>
					<trkpt lat="44.942040" lon="3.995410">
						<ele>958</ele>
						<time>2026-09-03T14:11:51Z</time>
					</trkpt>
					<trkpt lat="44.942310" lon="3.995410">
						<ele>959</ele>
						<time>2026-09-03T14:12:05Z</time>
					</trkpt>
					<trkpt lat="44.943020" lon="3.995560">
						<ele>965</ele>
						<time>2026-09-03T14:12:41Z</time>
					</trkpt>
					<trkpt lat="44.943800" lon="3.995140">
						<ele>968</ele>
						<time>2026-09-03T14:13:22Z</time>
					</trkpt>
					<trkpt lat="44.943890" lon="3.995000">
						<ele>967</ele>
						<time>2026-09-03T14:13:29Z</time>
					</trkpt>
					<trkpt lat="44.944010" lon="3.994910">
						<ele>968</ele>
						<time>2026-09-03T14:13:36Z</time>
					</trkpt>
					<trkpt lat="44.944150" lon="3.994860">
						<ele>969</ele>
						<time>2026-09-03T14:13:43Z</time>
					</trkpt>
					<trkpt lat="44.944310" lon="3.994870">
						<ele>971</ele>
						<time>2026-09-03T14:13:51Z</time>
					</trkpt>
					<trkpt lat="44.944620" lon="3.994760">
						<ele>973</ele>
						<time>2026-09-03T14:14:07Z</time>
					</trkpt>
					<trkpt lat="44.944960" lon="3.994580">
						<ele>975</ele>
						<time>2026-09-03T14:14:25Z</time>
					</trkpt>
					<trkpt lat="44.945100" lon="3.994850">
						<ele>980</ele>
						<time>2026-09-03T14:14:37Z</time>
					</trkpt>
					<trkpt lat="44.945150" lon="3.994880">
						<ele>981</ele>
						<time>2026-09-03T14:14:40Z</time>
					</trkpt>
					<trkpt lat="44.945420" lon="3.994860">
						<ele>984</ele>
						<time>2026-09-03T14:14:53Z</time>
					</trkpt>
					<trkpt lat="44.945730" lon="3.994930">
						<ele>989</ele>
						<time>2026-09-03T14:15:09Z</time>
					</trkpt>
					<trkpt lat="44.945920" lon="3.995010">
						<ele>994</ele>
						<time>2026-09-03T14:15:19Z</time>
					</trkpt>
					<trkpt lat="44.946070" lon="3.995030">
						<ele>996</ele>
						<time>2026-09-03T14:15:27Z</time>
					</trkpt>
					<trkpt lat="44.946540" lon="3.994960">
						<ele>1002</ele>
						<time>2026-09-03T14:15:50Z</time>
					</trkpt>
					<trkpt lat="44.946620" lon="3.994980">
						<ele>1004</ele>
						<time>2026-09-03T14:15:54Z</time>
					</trkpt>
					<trkpt lat="44.946660" lon="3.995030">
						<ele>1005</ele>
						<time>2026-09-03T14:15:57Z</time>
					</trkpt>
					<trkpt lat="44.946660" lon="3.995140">
						<ele>1007</ele>
						<time>2026-09-03T14:16:01Z</time>
					</trkpt>
					<trkpt lat="44.946600" lon="3.995280">
						<ele>1008</ele>
						<time>2026-09-03T14:16:07Z</time>
					</trkpt>
					<trkpt lat="44.946220" lon="3.995740">
						<ele>1011</ele>
						<time>2026-09-03T14:16:32Z</time>
					</trkpt>
					<trkpt lat="44.945930" lon="3.996030">
						<ele>1013</ele>
						<time>2026-09-03T14:16:49Z</time>
					</trkpt>
					<trkpt lat="44.945790" lon="3.996200">
						<ele>1014</ele>
						<time>2026-09-03T14:16:59Z</time>
					</trkpt>
					<trkpt lat="44.945660" lon="3.996410">
						<ele>1015</ele>
						<time>2026-09-03T14:17:09Z</time>
					</trkpt>
					<trkpt lat="44.945380" lon="3.997010">
						<ele>1020</ele>
						<time>2026-09-03T14:17:34Z</time>
					</trkpt>
					<trkpt lat="44.945340" lon="3.997190">
						<ele>1021</ele>
						<time>2026-09-03T14:17:41Z</time>
					</trkpt>
					<trkpt lat="44.945340" lon="3.997340">
						<ele>1023</ele>
						<time>2026-09-03T14:17:46Z</time>
					</trkpt>
					<trkpt lat="44.945450" lon="3.998040">
						<ele>1025</ele>
						<time>2026-09-03T14:18:11Z</time>
					</trkpt>
					<trkpt lat="44.945510" lon="3.998750">
						<ele>1025</ele>
						<time>2026-09-03T14:18:37Z</time>
					</trkpt>
					<trkpt lat="44.945610" lon="3.999290">
						<ele>1024</ele>
						<time>2026-09-03T14:18:57Z</time>
					</trkpt>
					<trkpt lat="44.945610" lon="4.000080">
						<ele>1024</ele>
						<time>2026-09-03T14:19:24Z</time>
					</trkpt>
					<trkpt lat="44.945740" lon="4.001320">
						<ele>1024</ele>
						<time>2026-09-03T14:20:09Z</time>
					</trkpt>
					<trkpt lat="44.945850" lon="4.001820">
						<ele>1025</ele>
						<time>2026-09-03T14:20:27Z</time>
					</trkpt>
					<trkpt lat="44.945910" lon="4.001920">
						<ele>1026</ele>
						<time>2026-09-03T14:20:32Z</time>
					</trkpt>
					<trkpt lat="44.946080" lon="4.002080">
						<ele>1025</ele>
						<time>2026-09-03T14:20:42Z</time>
					</trkpt>
					<trkpt lat="44.946170" lon="4.002600">
						<ele>1028</ele>
						<time>2026-09-03T14:21:01Z</time>
					</trkpt>
					<trkpt lat="44.946270" lon="4.003510">
						<ele>1032</ele>
						<time>2026-09-03T14:21:34Z</time>
					</trkpt>
					<trkpt lat="44.946390" lon="4.004200">
						<ele>1034</ele>
						<time>2026-09-03T14:21:59Z</time>
					</trkpt>
					<trkpt lat="44.946400" lon="4.004690">
						<ele>1034</ele>
						<time>2026-09-03T14:22:16Z</time>
					</trkpt>
					<trkpt lat="44.946110" lon="4.005480">
						<ele>1037</ele>
						<time>2026-09-03T14:22:48Z</time>
					</trkpt>
					<trkpt lat="44.946040" lon="4.005530">
						<ele>1037</ele>
						<time>2026-09-03T14:22:52Z</time>
					</trkpt>
					<trkpt lat="44.946030" lon="4.005660">
						<ele>1037</ele>
						<time>2026-09-03T14:22:56Z</time>
					</trkpt>
					<trkpt lat="44.945840" lon="4.006530">
						<ele>1036</ele>
						<time>2026-09-03T14:23:29Z</time>
					</trkpt>
					<trkpt lat="44.945800" lon="4.006890">
						<ele>1036</ele>
						<time>2026-09-03T14:23:42Z</time>
					</trkpt>
					<trkpt lat="44.945780" lon="4.007250">
						<ele>1036</ele>
						<time>2026-09-03T14:23:54Z</time>
					</trkpt>
					<trkpt lat="44.945810" lon="4.008640">
						<ele>1037</ele>
						<time>2026-09-03T14:24:44Z</time>
					</trkpt>
					<trkpt lat="44.945890" lon="4.009450">
						<ele>1037</ele>
						<time>2026-09-03T14:25:13Z</time>
					</trkpt>
					<trkpt lat="44.945910" lon="4.010230">
						<ele>1038</ele>
						<time>2026-09-03T14:25:40Z</time>
					</trkpt>
					<trkpt lat="44.945890" lon="4.010360">
						<ele>1038</ele>
						<time>2026-09-03T14:25:45Z</time>
					</trkpt>
					<trkpt lat="44.945830" lon="4.010500">
						<ele>1038</ele>
						<time>2026-09-03T14:25:51Z</time>
					</trkpt>
					<trkpt lat="44.945490" lon="4.011060">
						<ele>1035</ele>
						<time>2026-09-03T14:26:17Z</time>
					</trkpt>
					<trkpt lat="44.945710" lon="4.012270">
						<ele>1038</ele>
						<time>2026-09-03T14:27:01Z</time>
					</trkpt>
					<trkpt lat="44.945930" lon="4.013030">
						<ele>1042</ele>
						<time>2026-09-03T14:27:30Z</time>
					</trkpt>
					<trkpt lat="44.946050" lon="4.013890">
						<ele>1046</ele>
						<time>2026-09-03T14:28:01Z</time>
					</trkpt>
					<trkpt lat="44.946060" lon="4.014440">
						<ele>1050</ele>
						<time>2026-09-03T14:28:21Z</time>
					</trkpt>
					<trkpt lat="44.945900" lon="4.015180">
						<ele>1054</ele>
						<time>2026-09-03T14:28:48Z</time>
					</trkpt>
					<trkpt lat="44.945780" lon="4.015610">
						<ele>1055</ele>
						<time>2026-09-03T14:29:05Z</time>
					</trkpt>
					<trkpt lat="44.945610" lon="4.016030">
						<ele>1055</ele>
						<time>2026-09-03T14:29:22Z</time>
					</trkpt>
					<trkpt lat="44.945560" lon="4.016280">
						<ele>1057</ele>
						<time>2026-09-03T14:29:31Z</time>
					</trkpt>
					<trkpt lat="44.945580" lon="4.016400">
						<ele>1058</ele>
						<time>2026-09-03T14:29:35Z</time>
					</trkpt>
					<trkpt lat="44.945520" lon="4.016490">
						<ele>1058</ele>
						<time>2026-09-03T14:29:40Z</time>
					</trkpt>
					<trkpt lat="44.945360" lon="4.017100">
						<ele>1061</ele>
						<time>2026-09-03T14:30:03Z</time>
					</trkpt>
					<trkpt lat="44.945160" lon="4.017730">
						<ele>1064</ele>
						<time>2026-09-03T14:30:27Z</time>
					</trkpt>
					<trkpt lat="44.945110" lon="4.018410">
						<ele>1067</ele>
						<time>2026-09-03T14:30:51Z</time>
					</trkpt>
					<trkpt lat="44.944960" lon="4.019060">
						<ele>1072</ele>
						<time>2026-09-03T14:31:16Z</time>
					</trkpt>
					<trkpt lat="44.944770" lon="4.020650">
						<ele>1078</ele>
						<time>2026-09-03T14:32:13Z</time>
					</trkpt>
					<trkpt lat="44.944700" lon="4.022000">
						<ele>1079</ele>
						<time>2026-09-03T14:33:01Z</time>
					</trkpt>
					<trkpt lat="44.944600" lon="4.022640">
						<ele>1079</ele>
						<time>2026-09-03T14:33:24Z</time>
					</trkpt>
					<trkpt lat="44.944530" lon="4.023370">
						<ele>1080</ele>
						<time>2026-09-03T14:33:50Z</time>
					</trkpt>
					<trkpt lat="44.944550" lon="4.024270">
						<ele>1081</ele>
						<time>2026-09-03T14:34:22Z</time>
					</trkpt>
					<trkpt lat="44.944510" lon="4.024480">
						<ele>1082</ele>
						<time>2026-09-03T14:34:30Z</time>
					</trkpt>
					<trkpt lat="44.944200" lon="4.025280">
						<ele>1084</ele>
						<time>2026-09-03T14:35:02Z</time>
					</trkpt>
					<trkpt lat="44.943800" lon="4.026490">
						<ele>1086</ele>
						<time>2026-09-03T14:35:49Z</time>
					</trkpt>
					<trkpt lat="44.943670" lon="4.026970">
						<ele>1086</ele>
						<time>2026-09-03T14:36:07Z</time>
					</trkpt>
					<trkpt lat="44.943560" lon="4.027620">
						<ele>1085</ele>
						<time>2026-09-03T14:36:31Z</time>
					</trkpt>
					<trkpt lat="44.943380" lon="4.028270">
						<ele>1086</ele>
						<time>2026-09-03T14:36:56Z</time>
					</trkpt>
					<trkpt lat="44.943220" lon="4.028620">
						<ele>1086</ele>
						<time>2026-09-03T14:37:11Z</time>
					</trkpt>
					<trkpt lat="44.942880" lon="4.029090">
						<ele>1088</ele>
						<time>2026-09-03T14:37:34Z</time>
					</trkpt>
					<trkpt lat="44.942630" lon="4.029970">
						<ele>1091</ele>
						<time>2026-09-03T14:38:08Z</time>
					</trkpt>
					<trkpt lat="44.942460" lon="4.030350">
						<ele>1093</ele>
						<time>2026-09-03T14:38:24Z</time>
					</trkpt>
					<trkpt lat="44.941910" lon="4.031210">
						<ele>1092</ele>
						<time>2026-09-03T14:39:05Z</time>
					</trkpt>
					<trkpt lat="44.941490" lon="4.032470">
						<ele>1091</ele>
						<time>2026-09-03T14:39:54Z</time>
					</trkpt>
					<trkpt lat="44.941410" lon="4.032770">
						<ele>1090</ele>
						<time>2026-09-03T14:40:06Z</time>
					</trkpt>
					<trkpt lat="44.941350" lon="4.033280">
						<ele>1087</ele>
						<time>2026-09-03T14:40:24Z</time>
					</trkpt>
					<trkpt lat="44.941290" lon="4.034930">
						<ele>1086</ele>
						<time>2026-09-03T14:41:22Z</time>
					</trkpt>
					<trkpt lat="44.941370" lon="4.036180">
						<ele>1088</ele>
						<time>2026-09-03T14:42:07Z</time>
					</trkpt>
					<trkpt lat="44.941350" lon="4.038320">
						<ele>1087</ele>
						<time>2026-09-03T14:43:23Z</time>
					</trkpt>
					<trkpt lat="44.941390" lon="4.038660">
						<ele>1088</ele>
						<time>2026-09-03T14:43:35Z</time>
					</trkpt>
					<trkpt lat="44.941760" lon="4.039440">
						<ele>1092</ele>
						<time>2026-09-03T14:44:08Z</time>
					</trkpt>
					<trkpt lat="44.941850" lon="4.039730">
						<ele>1093</ele>
						<time>2026-09-03T14:44:19Z</time>
					</trkpt>
					<trkpt lat="44.941880" lon="4.039940">
						<ele>1095</ele>
						<time>2026-09-03T14:44:27Z</time>
					</trkpt>
					<trkpt lat="44.941870" lon="4.040210">
						<ele>1095</ele>
						<time>2026-09-03T14:44:37Z</time>
					</trkpt>
					<trkpt lat="44.941890" lon="4.040270">
						<ele>1095</ele>
						<time>2026-09-03T14:44:39Z</time>
					</trkpt>
					<trkpt lat="44.942130" lon="4.040590">
						<ele>1097</ele>
						<time>2026-09-03T14:44:55Z</time>
					</trkpt>
					<trkpt lat="44.942340" lon="4.040730">
						<ele>1099</ele>
						<time>2026-09-03T14:45:07Z</time>
					</trkpt>
					<trkpt lat="44.942440" lon="4.040890">
						<ele>1100</ele>
						<time>2026-09-03T14:45:15Z</time>
					</trkpt>
					<trkpt lat="44.942650" lon="4.041680">
						<ele>1104</ele>
						<time>2026-09-03T14:45:44Z</time>
					</trkpt>
					<trkpt lat="44.943130" lon="4.042860">
						<ele>1109</ele>
						<time>2026-09-03T14:46:33Z</time>
					</trkpt>
					<trkpt lat="44.943240" lon="4.043350">
						<ele>1110</ele>
						<time>2026-09-03T14:46:51Z</time>
					</trkpt>
					<trkpt lat="44.943390" lon="4.043560">
						<ele>1111</ele>
						<time>2026-09-03T14:47:01Z</time>
					</trkpt>
					<trkpt lat="44.943840" lon="4.044000">
						<ele>1110</ele>
						<time>2026-09-03T14:47:29Z</time>
					</trkpt>
					<trkpt lat="44.944290" lon="4.044530">
						<ele>1108</ele>
						<time>2026-09-03T14:47:58Z</time>
					</trkpt>
					<trkpt lat="44.945260" lon="4.045440">
						<ele>1106</ele>
						<time>2026-09-03T14:48:56Z</time>
					</trkpt>
					<trkpt lat="44.945880" lon="4.046060">
						<ele>1103</ele>
						<time>2026-09-03T14:49:34Z</time>
					</trkpt>
					<trkpt lat="44.946470" lon="4.046690">
						<ele>1099</ele>
						<time>2026-09-03T14:50:11Z</time>
					</trkpt>
					<trkpt lat="44.946570" lon="4.046860">
						<ele>1099</ele>
						<time>2026-09-03T14:50:19Z</time>
					</trkpt>
					<trkpt lat="44.946290" lon="4.047100">
						<ele>1099</ele>
						<time>2026-09-03T14:50:36Z</time>
					</trkpt>
					<trkpt lat="44.946180" lon="4.047350">
						<ele>1097</ele>
						<time>2026-09-03T14:50:46Z</time>
					</trkpt>
					<trkpt lat="44.945830" lon="4.048910">
						<ele>1088</ele>
						<time>2026-09-03T14:51:44Z</time>
					</trkpt>
					<trkpt lat="44.945680" lon="4.049820">
						<ele>1083</ele>
						<time>2026-09-03T14:52:17Z</time>
					</trkpt>
					<trkpt lat="44.945590" lon="4.050200">
						<ele>1081</ele>
						<time>2026-09-03T14:52:31Z</time>
					</trkpt>
					<trkpt lat="44.945470" lon="4.050440">
						<ele>1080</ele>
						<time>2026-09-03T14:52:42Z</time>
					</trkpt>
					<trkpt lat="44.945000" lon="4.051020">
						<ele>1076</ele>
						<time>2026-09-03T14:53:13Z</time>
					</trkpt>
					<trkpt lat="44.944390" lon="4.051980">
						<ele>1075</ele>
						<time>2026-09-03T14:53:59Z</time>
					</trkpt>
					<trkpt lat="44.944220" lon="4.052180">
						<ele>1074</ele>
						<time>2026-09-03T14:54:10Z</time>
					</trkpt>
					<trkpt lat="44.943910" lon="4.052480">
						<ele>1073</ele>
						<time>2026-09-03T14:54:29Z</time>
					</trkpt>
					<trkpt lat="44.943830" lon="4.052590">
						<ele>1074</ele>
						<time>2026-09-03T14:54:34Z</time>
					</trkpt>
					<trkpt lat="44.943550" lon="4.053150">
						<ele>1077</ele>
						<time>2026-09-03T14:54:58Z</time>
					</trkpt>
					<trkpt lat="44.942940" lon="4.053480">
						<ele>1079</ele>
						<time>2026-09-03T14:55:31Z</time>
					</trkpt>
					<trkpt lat="44.942580" lon="4.053600">
						<ele>1080</ele>
						<time>2026-09-03T14:55:50Z</time>
					</trkpt>
					<trkpt lat="44.942280" lon="4.053770">
						<ele>1082</ele>
						<time>2026-09-03T14:56:06Z</time>
					</trkpt>
					<trkpt lat="44.941880" lon="4.053940">
						<ele>1083</ele>
						<time>2026-09-03T14:56:27Z</time>
					</trkpt>
					<trkpt lat="44.941580" lon="4.054180">
						<ele>1085</ele>
						<time>2026-09-03T14:56:44Z</time>
					</trkpt>
					<trkpt lat="44.941270" lon="4.054350">
						<ele>1084</ele>
						<time>2026-09-03T14:57:01Z</time>
					</trkpt>
					<trkpt lat="44.941050" lon="4.054630">
						<ele>1085</ele>
						<time>2026-09-03T14:57:15Z</time>
					</trkpt>
					<trkpt lat="44.941110" lon="4.054920">
						<ele>1089</ele>
						<time>2026-09-03T14:57:26Z</time>
					</trkpt>
					<trkpt lat="44.941090" lon="4.055160">
						<ele>1091</ele>
						<time>2026-09-03T14:57:35Z</time>
					</trkpt>
					<trkpt lat="44.940960" lon="4.055430">
						<ele>1092</ele>
						<time>2026-09-03T14:57:46Z</time>
					</trkpt>
					<trkpt lat="44.940530" lon="4.056140">
						<ele>1098</ele>
						<time>2026-09-03T14:58:19Z</time>
					</trkpt>
					<trkpt lat="44.940150" lon="4.056810">
						<ele>1105</ele>
						<time>2026-09-03T14:58:50Z</time>
					</trkpt>
					<trkpt lat="44.940070" lon="4.057000">
						<ele>1107</ele>
						<time>2026-09-03T14:58:58Z</time>
					</trkpt>
					<trkpt lat="44.939720" lon="4.057590">
						<ele>1111</ele>
						<time>2026-09-03T14:59:25Z</time>
					</trkpt>
					<trkpt lat="44.939630" lon="4.057810">
						<ele>1112</ele>
						<time>2026-09-03T14:59:34Z</time>
					</trkpt>
					<trkpt lat="44.939490" lon="4.058320">
						<ele>1117</ele>
						<time>2026-09-03T14:59:53Z</time>
					</trkpt>
					<trkpt lat="44.939470" lon="4.058640">
						<ele>1120</ele>
						<time>2026-09-03T15:00:05Z</time>
					</trkpt>
					<trkpt lat="44.939500" lon="4.059030">
						<ele>1125</ele>
						<time>2026-09-03T15:00:18Z</time>
					</trkpt>
					<trkpt lat="44.939450" lon="4.059300">
						<ele>1127</ele>
						<time>2026-09-03T15:00:28Z</time>
					</trkpt>
					<trkpt lat="44.939510" lon="4.059590">
						<ele>1129</ele>
						<time>2026-09-03T15:00:39Z</time>
					</trkpt>
					<trkpt lat="44.939420" lon="4.059760">
						<ele>1130</ele>
						<time>2026-09-03T15:00:47Z</time>
					</trkpt>
					<trkpt lat="44.939200" lon="4.059700">
						<ele>1127</ele>
						<time>2026-09-03T15:00:58Z</time>
					</trkpt>
					<trkpt lat="44.939060" lon="4.059720">
						<ele>1126</ele>
						<time>2026-09-03T15:01:05Z</time>
					</trkpt>
					<trkpt lat="44.938870" lon="4.059820">
						<ele>1125</ele>
						<time>2026-09-03T15:01:15Z</time>
					</trkpt>
					<trkpt lat="44.938490" lon="4.060180">
						<ele>1125</ele>
						<time>2026-09-03T15:01:38Z</time>
					</trkpt>
					<trkpt lat="44.938320" lon="4.060170">
						<ele>1123</ele>
						<time>2026-09-03T15:01:46Z</time>
					</trkpt>
					<trkpt lat="44.938110" lon="4.060750">
						<ele>1127</ele>
						<time>2026-09-03T15:02:09Z</time>
					</trkpt>
					<trkpt lat="44.938150" lon="4.060820">
						<ele>1128</ele>
						<time>2026-09-03T15:02:13Z</time>
					</trkpt>
					<trkpt lat="44.938170" lon="4.060950">
						<ele>1129</ele>
						<time>2026-09-03T15:02:17Z</time>
					</trkpt>
					<trkpt lat="44.938110" lon="4.061290">
						<ele>1131</ele>
						<time>2026-09-03T15:02:30Z</time>
					</trkpt>
					<trkpt lat="44.938090" lon="4.061350">
						<ele>1132</ele>
						<time>2026-09-03T15:02:32Z</time>
					</trkpt>
					<trkpt lat="44.938030" lon="4.061400">
						<ele>1131</ele>
						<time>2026-09-03T15:02:36Z</time>
					</trkpt>
					<trkpt lat="44.937960" lon="4.061510">
						<ele>1131</ele>
						<time>2026-09-03T15:02:41Z</time>
					</trkpt>
					<trkpt lat="44.937740" lon="4.062140">
						<ele>1133</ele>
						<time>2026-09-03T15:03:06Z</time>
					</trkpt>
					<trkpt lat="44.937510" lon="4.063330">
						<ele>1139</ele>
						<time>2026-09-03T15:03:49Z</time>
					</trkpt>
					<trkpt lat="44.937470" lon="4.063920">
						<ele>1141</ele>
						<time>2026-09-03T15:04:10Z</time>
					</trkpt>
					<trkpt lat="44.937590" lon="4.064870">
						<ele>1145</ele>
						<time>2026-09-03T15:04:45Z</time>
					</trkpt>
					<trkpt lat="44.937740" lon="4.065300">
						<ele>1147</ele>
						<time>2026-09-03T15:05:02Z</time>
					</trkpt>
					<trkpt lat="44.937870" lon="4.065870">
						<ele>1149</ele>
						<time>2026-09-03T15:05:23Z</time>
					</trkpt>
					<trkpt lat="44.937920" lon="4.066040">
						<ele>1150</ele>
						<time>2026-09-03T15:05:29Z</time>
					</trkpt>
					<trkpt lat="44.938170" lon="4.066530">
						<ele>1154</ele>
						<time>2026-09-03T15:05:51Z</time>
					</trkpt>
					<trkpt lat="44.938370" lon="4.067270">
						<ele>1158</ele>
						<time>2026-09-03T15:06:19Z</time>
					</trkpt>
					<trkpt lat="44.938460" lon="4.067840">
						<ele>1161</ele>
						<time>2026-09-03T15:06:39Z</time>
					</trkpt>
					<trkpt lat="44.938700" lon="4.068640">
						<ele>1167</ele>
						<time>2026-09-03T15:07:10Z</time>
					</trkpt>
					<trkpt lat="44.938770" lon="4.068700">
						<ele>1167</ele>
						<time>2026-09-03T15:07:14Z</time>
					</trkpt>
					<trkpt lat="44.938840" lon="4.068720">
						<ele>1168</ele>
						<time>2026-09-03T15:07:18Z</time>
					</trkpt>
					<trkpt lat="44.939130" lon="4.068590">
						<ele>1169</ele>
						<time>2026-09-03T15:07:33Z</time>
					</trkpt>
					<trkpt lat="44.939220" lon="4.068590">
						<ele>1170</ele>
						<time>2026-09-03T15:07:38Z</time>
					</trkpt>
					<trkpt lat="44.939270" lon="4.068640">
						<ele>1170</ele>
						<time>2026-09-03T15:07:41Z</time>
					</trkpt>
					<trkpt lat="44.939350" lon="4.068930">
						<ele>1173</ele>
						<time>2026-09-03T15:07:52Z</time>
					</trkpt>
					<trkpt lat="44.939900" lon="4.069970">
						<ele>1180</ele>
						<time>2026-09-03T15:08:38Z</time>
					</trkpt>
					<trkpt lat="44.939950" lon="4.070030">
						<ele>1180</ele>
						<time>2026-09-03T15:08:41Z</time>
					</trkpt>
					<trkpt lat="44.939860" lon="4.070120">
						<ele>1180</ele>
						<time>2026-09-03T15:08:47Z</time>
					</trkpt>
					<trkpt lat="44.939740" lon="4.070300">
						<ele>1181</ele>
						<time>2026-09-03T15:08:55Z</time>
					</trkpt>
					<trkpt lat="44.939400" lon="4.071120">
						<ele>1184</ele>
						<time>2026-09-03T15:09:29Z</time>
					</trkpt>
					<trkpt lat="44.939360" lon="4.071290">
						<ele>1185</ele>
						<time>2026-09-03T15:09:35Z</time>
					</trkpt>
					<trkpt lat="44.939450" lon="4.071880">
						<ele>1186</ele>
						<time>2026-09-03T15:09:57Z</time>
					</trkpt>
					<trkpt lat="44.939450" lon="4.072480">
						<ele>1188</ele>
						<time>2026-09-03T15:10:18Z</time>
					</trkpt>
					<trkpt lat="44.939710" lon="4.073990">
						<ele>1188</ele>
						<time>2026-09-03T15:11:13Z</time>
					</trkpt>
					<trkpt lat="44.939790" lon="4.074220">
						<ele>1188</ele>
						<time>2026-09-03T15:11:22Z</time>
					</trkpt>
					<trkpt lat="44.940010" lon="4.075220">
						<ele>1189</ele>
						<time>2026-09-03T15:11:59Z</time>
					</trkpt>
					<trkpt lat="44.940020" lon="4.075670">
						<ele>1188</ele>
						<time>2026-09-03T15:12:15Z</time>
					</trkpt>
					<trkpt lat="44.940110" lon="4.076710">
						<ele>1189</ele>
						<time>2026-09-03T15:12:52Z</time>
					</trkpt>
					<trkpt lat="44.940110" lon="4.077250">
						<ele>1190</ele>
						<time>2026-09-03T15:13:11Z</time>
					</trkpt>
					<trkpt lat="44.940150" lon="4.077740">
						<ele>1189</ele>
						<time>2026-09-03T15:13:29Z</time>
					</trkpt>
					<trkpt lat="44.940060" lon="4.078440">
						<ele>1188</ele>
						<time>2026-09-03T15:13:54Z</time>
					</trkpt>
					<trkpt lat="44.939830" lon="4.079210">
						<ele>1189</ele>
						<time>2026-09-03T15:14:24Z</time>
					</trkpt>
					<trkpt lat="44.939720" lon="4.079390">
						<ele>1189</ele>
						<time>2026-09-03T15:14:32Z</time>
					</trkpt>
					<trkpt lat="44.939510" lon="4.079640">
						<ele>1190</ele>
						<time>2026-09-03T15:14:46Z</time>
					</trkpt>
					<trkpt lat="44.939350" lon="4.079790">
						<ele>1189</ele>
						<time>2026-09-03T15:14:55Z</time>
					</trkpt>
					<trkpt lat="44.939170" lon="4.079640">
						<ele>1190</ele>
						<time>2026-09-03T15:15:06Z</time>
					</trkpt>
					<trkpt lat="44.939010" lon="4.079350">
						<ele>1191</ele>
						<time>2026-09-03T15:15:19Z</time>
					</trkpt>
					<trkpt lat="44.938860" lon="4.079330">
						<ele>1191</ele>
						<time>2026-09-03T15:15:26Z</time>
					</trkpt>
					<trkpt lat="44.938640" lon="4.079500">
						<ele>1191</ele>
						<time>2026-09-03T15:15:39Z</time>
					</trkpt>
					<trkpt lat="44.938410" lon="4.079410">
						<ele>1192</ele>
						<time>2026-09-03T15:15:51Z</time>
					</trkpt>
					<trkpt lat="44.938190" lon="4.079370">
						<ele>1192</ele>
						<time>2026-09-03T15:16:02Z</time>
					</trkpt>
					<trkpt lat="44.938090" lon="4.079290">
						<ele>1192</ele>
						<time>2026-09-03T15:16:08Z</time>
					</trkpt>
					<trkpt lat="44.938020" lon="4.079290">
						<ele>1192</ele>
						<time>2026-09-03T15:16:11Z</time>
					</trkpt>
					<trkpt lat="44.937970" lon="4.079190">
						<ele>1192</ele>
						<time>2026-09-03T15:16:16Z</time>
					</trkpt>
					<trkpt lat="44.937870" lon="4.079120">
						<ele>1191</ele>
						<time>2026-09-03T15:16:21Z</time>
					</trkpt>
					<trkpt lat="44.937760" lon="4.078970">
						<ele>1191</ele>
						<time>2026-09-03T15:16:29Z</time>
					</trkpt>
					<trkpt lat="44.937610" lon="4.078880">
						<ele>1190</ele>
						<time>2026-09-03T15:16:37Z</time>
					</trkpt>
					<trkpt lat="44.937440" lon="4.079890">
						<ele>1190</ele>
						<time>2026-09-03T15:17:14Z</time>
					</trkpt>
					<trkpt lat="44.937390" lon="4.080370">
						<ele>1190</ele>
						<time>2026-09-03T15:17:31Z</time>
					</trkpt>
					<trkpt lat="44.937360" lon="4.081560">
						<ele>1190</ele>
						<time>2026-09-03T15:18:13Z</time>
					</trkpt>
					<trkpt lat="44.937390" lon="4.081740">
						<ele>1191</ele>
						<time>2026-09-03T15:18:20Z</time>
					</trkpt>
					<trkpt lat="44.937310" lon="4.081900">
						<ele>1192</ele>
						<time>2026-09-03T15:18:27Z</time>
					</trkpt>
					<trkpt lat="44.937100" lon="4.081980">
						<ele>1191</ele>
						<time>2026-09-03T15:18:38Z</time>
					</trkpt>
					<trkpt lat="44.937050" lon="4.082060">
						<ele>1191</ele>
						<time>2026-09-03T15:18:41Z</time>
					</trkpt>
					<trkpt lat="44.936960" lon="4.082060">
						<ele>1191</ele>
						<time>2026-09-03T15:18:46Z</time>
					</trkpt>
					<trkpt lat="44.936940" lon="4.082100">
						<ele>1191</ele>
						<time>2026-09-03T15:18:48Z</time>
					</trkpt>
					<trkpt lat="44.936810" lon="4.082070">
						<ele>1191</ele>
						<time>2026-09-03T15:18:54Z</time>
					</trkpt>
					<trkpt lat="44.936010" lon="4.082370">
						<ele>1185</ele>
						<time>2026-09-03T15:19:36Z</time>
					</trkpt>
					<trkpt lat="44.935940" lon="4.082370">
						<ele>1184</ele>
						<time>2026-09-03T15:19:39Z</time>
					</trkpt>
					<trkpt lat="44.935770" lon="4.082490">
						<ele>1182</ele>
						<time>2026-09-03T15:19:49Z</time>
					</trkpt>
					<trkpt lat="44.935700" lon="4.082630">
						<ele>1181</ele>
						<time>2026-09-03T15:19:55Z</time>
					</trkpt>
					<trkpt lat="44.935660" lon="4.083110">
						<ele>1184</ele>
						<time>2026-09-03T15:20:12Z</time>
					</trkpt>
					<trkpt lat="44.935580" lon="4.083250">
						<ele>1184</ele>
						<time>2026-09-03T15:20:18Z</time>
					</trkpt>
					<trkpt lat="44.935440" lon="4.083300">
						<ele>1180</ele>
						<time>2026-09-03T15:20:25Z</time>
					</trkpt>
					<trkpt lat="44.935390" lon="4.083380">
						<ele>1179</ele>
						<time>2026-09-03T15:20:29Z</time>
					</trkpt>
					<trkpt lat="44.935590" lon="4.083910">
						<ele>1181</ele>
						<time>2026-09-03T15:20:50Z</time>
					</trkpt>
					<trkpt lat="44.935860" lon="4.084240">
						<ele>1186</ele>
						<time>2026-09-03T15:21:08Z</time>
					</trkpt>
					<trkpt lat="44.935970" lon="4.084680">
						<ele>1183</ele>
						<time>2026-09-03T15:21:25Z</time>
					</trkpt>
					<trkpt lat="44.936140" lon="4.085040">
						<ele>1184</ele>
						<time>2026-09-03T15:21:40Z</time>
					</trkpt>
					<trkpt lat="44.936340" lon="4.085180">
						<ele>1189</ele>
						<time>2026-09-03T15:21:51Z</time>
					</trkpt>
					<trkpt lat="44.936420" lon="4.085350">
						<ele>1192</ele>
						<time>2026-09-03T15:21:59Z</time>
					</trkpt>
					<trkpt lat="44.936360" lon="4.085500">
						<ele>1191</ele>
						<time>2026-09-03T15:22:05Z</time>
					</trkpt>
					<trkpt lat="44.936080" lon="4.085770">
						<ele>1186</ele>
						<time>2026-09-03T15:22:22Z</time>
					</trkpt>
					<trkpt lat="44.936030" lon="4.085940">
						<ele>1185</ele>
						<time>2026-09-03T15:22:28Z</time>
					</trkpt>
					<trkpt lat="44.936050" lon="4.086080">
						<ele>1186</ele>
						<time>2026-09-03T15:22:33Z</time>
					</trkpt>
					<trkpt lat="44.935960" lon="4.086310">
						<ele>1186</ele>
						<time>2026-09-03T15:22:42Z</time>
					</trkpt>
					<trkpt lat="44.935970" lon="4.086530">
						<ele>1187</ele>
						<time>2026-09-03T15:22:50Z</time>
					</trkpt>
					<trkpt lat="44.935930" lon="4.086680">
						<ele>1187</ele>
						<time>2026-09-03T15:22:56Z</time>
					</trkpt>
					<trkpt lat="44.935950" lon="4.086790">
						<ele>1188</ele>
						<time>2026-09-03T15:23:00Z</time>
					</trkpt>
					<trkpt lat="44.935910" lon="4.086880">
						<ele>1188</ele>
						<time>2026-09-03T15:23:04Z</time>
					</trkpt>
					<trkpt lat="44.935850" lon="4.087510">
						<ele>1189</ele>
						<time>2026-09-03T15:23:26Z</time>
					</trkpt>
					<trkpt lat="44.935970" lon="4.089190">
						<ele>1189</ele>
						<time>2026-09-03T15:24:26Z</time>
					</trkpt>
					<trkpt lat="44.936060" lon="4.089480">
						<ele>1190</ele>
						<time>2026-09-03T15:24:37Z</time>
					</trkpt>
					<trkpt lat="44.936160" lon="4.090090">
						<ele>1191</ele>
						<time>2026-09-03T15:24:59Z</time>
					</trkpt>
					<trkpt lat="44.936190" lon="4.090430">
						<ele>1190</ele>
						<time>2026-09-03T15:25:12Z</time>
					</trkpt>
					<trkpt lat="44.936270" lon="4.090610">
						<ele>1192</ele>
						<time>2026-09-03T15:25:19Z</time>
					</trkpt>
					<trkpt lat="44.936430" lon="4.090700">
						<ele>1197</ele>
						<time>2026-09-03T15:25:28Z</time>
					</trkpt>
					<trkpt lat="44.936690" lon="4.090720">
						<ele>1204</ele>
						<time>2026-09-03T15:25:41Z</time>
					</trkpt>
					<trkpt lat="44.936730" lon="4.090970">
						<ele>1205</ele>
						<time>2026-09-03T15:25:50Z</time>
					</trkpt>
					<trkpt lat="44.936830" lon="4.090930">
						<ele>1206</ele>
						<time>2026-09-03T15:25:55Z</time>
					</trkpt>
					<trkpt lat="44.937100" lon="4.090730">
						<ele>1208</ele>
						<time>2026-09-03T15:26:10Z</time>
					</trkpt>
					<trkpt lat="44.937330" lon="4.090700">
						<ele>1211</ele>
						<time>2026-09-03T15:26:22Z</time>
					</trkpt>
					<trkpt lat="44.937630" lon="4.090750">
						<ele>1213</ele>
						<time>2026-09-03T15:26:37Z</time>
					</trkpt>
					<trkpt lat="44.939870" lon="4.090630">
						<ele>1219</ele>
						<time>2026-09-03T15:28:29Z</time>
					</trkpt>
					<trkpt lat="44.940560" lon="4.090550">
						<ele>1219</ele>
						<time>2026-09-03T15:29:04Z</time>
					</trkpt>
					<trkpt lat="44.940810" lon="4.090640">
						<ele>1219</ele>
						<time>2026-09-03T15:29:17Z</time>
					</trkpt>
					<trkpt lat="44.940840" lon="4.090520">
						<ele>1219</ele>
						<time>2026-09-03T15:29:21Z</time>
					</trkpt>
					<trkpt lat="44.941600" lon="4.090810">
						<ele>1217</ele>
						<time>2026-09-03T15:30:01Z</time>
					</trkpt>
					<trkpt lat="44.942370" lon="4.090850">
						<ele>1216</ele>
						<time>2026-09-03T15:30:39Z</time>
					</trkpt>
					<trkpt lat="44.942930" lon="4.089960">
						<ele>1215</ele>
						<time>2026-09-03T15:31:21Z</time>
					</trkpt>
					<trkpt lat="44.943510" lon="4.089140">
						<ele>1209</ele>
						<time>2026-09-03T15:32:02Z</time>
					</trkpt>
					<trkpt lat="44.943780" lon="4.088710">
						<ele>1203</ele>
						<time>2026-09-03T15:32:23Z</time>
					</trkpt>
					<trkpt lat="44.944070" lon="4.088390">
						<ele>1195</ele>
						<time>2026-09-03T15:32:41Z</time>
					</trkpt>
					<trkpt lat="44.944170" lon="4.088390">
						<ele>1194</ele>
						<time>2026-09-03T15:32:46Z</time>
					</trkpt>
					<trkpt lat="44.944280" lon="4.088550">
						<ele>1193</ele>
						<time>2026-09-03T15:32:54Z</time>
					</trkpt>
					<trkpt lat="44.944430" lon="4.088920">
						<ele>1193</ele>
						<time>2026-09-03T15:33:09Z</time>
					</trkpt>
					<trkpt lat="44.944730" lon="4.089920">
						<ele>1196</ele>
						<time>2026-09-03T15:33:48Z</time>
					</trkpt>
					<trkpt lat="44.944850" lon="4.090120">
						<ele>1196</ele>
						<time>2026-09-03T15:33:57Z</time>
					</trkpt>
					<trkpt lat="44.945000" lon="4.090130">
						<ele>1193</ele>
						<time>2026-09-03T15:34:05Z</time>
					</trkpt>
					<trkpt lat="44.945700" lon="4.089400">
						<ele>1172</ele>
						<time>2026-09-03T15:34:48Z</time>
					</trkpt>
					<trkpt lat="44.945880" lon="4.088990">
						<ele>1166</ele>
						<time>2026-09-03T15:35:05Z</time>
					</trkpt>
					<trkpt lat="44.946980" lon="4.088370">
						<ele>1146</ele>
						<time>2026-09-03T15:36:04Z</time>
					</trkpt>
					<trkpt lat="44.947350" lon="4.088200">
						<ele>1137</ele>
						<time>2026-09-03T15:36:24Z</time>
					</trkpt>
					<trkpt lat="44.947370" lon="4.088300">
						<ele>1137</ele>
						<time>2026-09-03T15:36:28Z</time>
					</trkpt>
					<trkpt lat="44.947240" lon="4.089070">
						<ele>1142</ele>
						<time>2026-09-03T15:36:56Z</time>
					</trkpt>
					<trkpt lat="44.947270" lon="4.089480">
						<ele>1142</ele>
						<time>2026-09-03T15:37:10Z</time>
					</trkpt>
					<trkpt lat="44.947340" lon="4.089650">
						<ele>1139</ele>
						<time>2026-09-03T15:37:17Z</time>
					</trkpt>
					<trkpt lat="44.947410" lon="4.089940">
						<ele>1136</ele>
						<time>2026-09-03T15:37:28Z</time>
					</trkpt>
					<trkpt lat="44.947460" lon="4.090630">
						<ele>1134</ele>
						<time>2026-09-03T15:37:53Z</time>
					</trkpt>
					<trkpt lat="44.947510" lon="4.090790">
						<ele>1133</ele>
						<time>2026-09-03T15:37:59Z</time>
					</trkpt>
					<trkpt lat="44.947570" lon="4.091190">
						<ele>1132</ele>
						<time>2026-09-03T15:38:13Z</time>
					</trkpt>
					<trkpt lat="44.947630" lon="4.091320">
						<ele>1131</ele>
						<time>2026-09-03T15:38:19Z</time>
					</trkpt>
					<trkpt lat="44.947830" lon="4.091470">
						<ele>1131</ele>
						<time>2026-09-03T15:38:30Z</time>
					</trkpt>
					<trkpt lat="44.947980" lon="4.091470">
						<ele>1131</ele>
						<time>2026-09-03T15:38:38Z</time>
					</trkpt>
					<trkpt lat="44.948100" lon="4.091390">
						<ele>1131</ele>
						<time>2026-09-03T15:38:44Z</time>
					</trkpt>
					<trkpt lat="44.948600" lon="4.090820">
						<ele>1131</ele>
						<time>2026-09-03T15:39:16Z</time>
					</trkpt>
					<trkpt lat="44.948820" lon="4.090530">
						<ele>1133</ele>
						<time>2026-09-03T15:39:31Z</time>
					</trkpt>
					<trkpt lat="44.949410" lon="4.089520">
						<ele>1137</ele>
						<time>2026-09-03T15:40:18Z</time>
					</trkpt>
					<trkpt lat="44.949780" lon="4.088750">
						<ele>1140</ele>
						<time>2026-09-03T15:40:51Z</time>
					</trkpt>
					<trkpt lat="44.949850" lon="4.088570">
						<ele>1140</ele>
						<time>2026-09-03T15:40:58Z</time>
					</trkpt>
					<trkpt lat="44.949910" lon="4.088220">
						<ele>1139</ele>
						<time>2026-09-03T15:41:11Z</time>
					</trkpt>
					<trkpt lat="44.949950" lon="4.088130">
						<ele>1139</ele>
						<time>2026-09-03T15:41:15Z</time>
					</trkpt>
					<trkpt lat="44.950030" lon="4.088040">
						<ele>1140</ele>
						<time>2026-09-03T15:41:20Z</time>
					</trkpt>
					<trkpt lat="44.950370" lon="4.087770">
						<ele>1147</ele>
						<time>2026-09-03T15:41:39Z</time>
					</trkpt>
					<trkpt lat="44.950440" lon="4.087650">
						<ele>1148</ele>
						<time>2026-09-03T15:41:45Z</time>
					</trkpt>
					<trkpt lat="44.950520" lon="4.087650">
						<ele>1150</ele>
						<time>2026-09-03T15:41:49Z</time>
					</trkpt>
					<trkpt lat="44.950120" lon="4.089680">
						<ele>1160</ele>
						<time>2026-09-03T15:43:03Z</time>
					</trkpt>
					<trkpt lat="44.950050" lon="4.090300">
						<ele>1164</ele>
						<time>2026-09-03T15:43:26Z</time>
					</trkpt>
					<trkpt lat="44.950120" lon="4.090300">
						<ele>1165</ele>
						<time>2026-09-03T15:43:29Z</time>
					</trkpt>
					<trkpt lat="44.950150" lon="4.090260">
						<ele>1166</ele>
						<time>2026-09-03T15:43:31Z</time>
					</trkpt>
					<trkpt lat="44.950230" lon="4.089930">
						<ele>1165</ele>
						<time>2026-09-03T15:43:44Z</time>
					</trkpt>
					<trkpt lat="44.950290" lon="4.089840">
						<ele>1165</ele>
						<time>2026-09-03T15:43:48Z</time>
					</trkpt>
					<trkpt lat="44.950590" lon="4.089630">
						<ele>1170</ele>
						<time>2026-09-03T15:44:05Z</time>
					</trkpt>
					<trkpt lat="44.950930" lon="4.089530">
						<ele>1175</ele>
						<time>2026-09-03T15:44:22Z</time>
					</trkpt>
					<trkpt lat="44.951250" lon="4.089510">
						<ele>1176</ele>
						<time>2026-09-03T15:44:38Z</time>
					</trkpt>
					<trkpt lat="44.951310" lon="4.089640">
						<ele>1178</ele>
						<time>2026-09-03T15:44:44Z</time>
					</trkpt>
					<trkpt lat="44.951450" lon="4.089730">
						<ele>1179</ele>
						<time>2026-09-03T15:44:51Z</time>
					</trkpt>
					<trkpt lat="44.951670" lon="4.089780">
						<ele>1181</ele>
						<time>2026-09-03T15:45:02Z</time>
					</trkpt>
					<trkpt lat="44.951840" lon="4.089700">
						<ele>1181</ele>
						<time>2026-09-03T15:45:11Z</time>
					</trkpt>
					<trkpt lat="44.952400" lon="4.089100">
						<ele>1179</ele>
						<time>2026-09-03T15:45:47Z</time>
					</trkpt>
					<trkpt lat="44.952850" lon="4.088750">
						<ele>1178</ele>
						<time>2026-09-03T15:46:12Z</time>
					</trkpt>
					<trkpt lat="44.953360" lon="4.088520">
						<ele>1178</ele>
						<time>2026-09-03T15:46:39Z</time>
					</trkpt>
					<trkpt lat="44.953750" lon="4.088460">
						<ele>1179</ele>
						<time>2026-09-03T15:46:59Z</time>
					</trkpt>
					<trkpt lat="44.953800" lon="4.088480">
						<ele>1179</ele>
						<time>2026-09-03T15:47:01Z</time>
					</trkpt>
					<trkpt lat="44.954230" lon="4.088980">
						<ele>1182</ele>
						<time>2026-09-03T15:47:29Z</time>
					</trkpt>
					<trkpt lat="44.954870" lon="4.089640">
						<ele>1186</ele>
						<time>2026-09-03T15:48:09Z</time>
					</trkpt>
					<trkpt lat="44.952880" lon="4.092140">
						<ele>1181</ele>
						<time>2026-09-03T15:50:22Z</time>
					</trkpt>
					<trkpt lat="44.953050" lon="4.092230">
						<ele>1179</ele>
						<time>2026-09-03T15:50:31Z</time>
					</trkpt>
					<trkpt lat="44.953210" lon="4.092220">
						<ele>1178</ele>
						<time>2026-09-03T15:50:39Z</time>
					</trkpt>
					<trkpt lat="44.953990" lon="4.091960">
						<ele>1176</ele>
						<time>2026-09-03T15:51:19Z</time>
					</trkpt>
					<trkpt lat="44.954440" lon="4.091870">
						<ele>1176</ele>
						<time>2026-09-03T15:51:42Z</time>
					</trkpt>
					<trkpt lat="44.954800" lon="4.092290">
						<ele>1172</ele>
						<time>2026-09-03T15:52:05Z</time>
					</trkpt>
					<trkpt lat="44.954700" lon="4.092950">
						<ele>1166</ele>
						<time>2026-09-03T15:52:29Z</time>
					</trkpt>
					<trkpt lat="44.954690" lon="4.094720">
						<ele>1158</ele>
						<time>2026-09-03T15:53:32Z</time>
					</trkpt>
					<trkpt lat="44.954710" lon="4.094970">
						<ele>1158</ele>
						<time>2026-09-03T15:53:41Z</time>
					</trkpt>
					<trkpt lat="44.954310" lon="4.095750">
						<ele>1160</ele>
						<time>2026-09-03T15:54:15Z</time>
					</trkpt>
					<trkpt lat="44.954020" lon="4.096590">
						<ele>1162</ele>
						<time>2026-09-03T15:54:48Z</time>
					</trkpt>
					<trkpt lat="44.953980" lon="4.096930">
						<ele>1163</ele>
						<time>2026-09-03T15:55:00Z</time>
					</trkpt>
					<trkpt lat="44.953990" lon="4.097040">
						<ele>1163</ele>
						<time>2026-09-03T15:55:04Z</time>
					</trkpt>
					<trkpt lat="44.954070" lon="4.097240">
						<ele>1162</ele>
						<time>2026-09-03T15:55:12Z</time>
					</trkpt>
					<trkpt lat="44.954870" lon="4.098870">
						<ele>1163</ele>
						<time>2026-09-03T15:56:23Z</time>
					</trkpt>
					<trkpt lat="44.954950" lon="4.099260">
						<ele>1164</ele>
						<time>2026-09-03T15:56:37Z</time>
					</trkpt>
					<trkpt lat="44.955020" lon="4.099910">
						<ele>1167</ele>
						<time>2026-09-03T15:57:00Z</time>
					</trkpt>
					<trkpt lat="44.954960" lon="4.100170">
						<ele>1168</ele>
						<time>2026-09-03T15:57:10Z</time>
					</trkpt>
					<trkpt lat="44.954860" lon="4.100240">
						<ele>1168</ele>
						<time>2026-09-03T15:57:15Z</time>
					</trkpt>
					<trkpt lat="44.954940" lon="4.100570">
						<ele>1169</ele>
						<time>2026-09-03T15:57:28Z</time>
					</trkpt>
					<trkpt lat="44.954880" lon="4.100660">
						<ele>1169</ele>
						<time>2026-09-03T15:57:32Z</time>
					</trkpt>
					<trkpt lat="44.954750" lon="4.101100">
						<ele>1170</ele>
						<time>2026-09-03T15:57:49Z</time>
					</trkpt>
					<trkpt lat="44.954510" lon="4.101410">
						<ele>1171</ele>
						<time>2026-09-03T15:58:05Z</time>
					</trkpt>
					<trkpt lat="44.954310" lon="4.101920">
						<ele>1174</ele>
						<time>2026-09-03T15:58:26Z</time>
					</trkpt>
					<trkpt lat="44.954140" lon="4.102150">
						<ele>1176</ele>
						<time>2026-09-03T15:58:38Z</time>
					</trkpt>
					<trkpt lat="44.953860" lon="4.102400">
						<ele>1178</ele>
						<time>2026-09-03T15:58:54Z</time>
					</trkpt>
					<trkpt lat="44.953210" lon="4.103130">
						<ele>1184</ele>
						<time>2026-09-03T15:59:36Z</time>
					</trkpt>
					<trkpt lat="44.952970" lon="4.103360">
						<ele>1187</ele>
						<time>2026-09-03T15:59:50Z</time>
					</trkpt>
					<trkpt lat="44.951800" lon="4.104100">
						<ele>1197</ele>
						<time>2026-09-03T16:00:55Z</time>
					</trkpt>
					<trkpt lat="44.951640" lon="4.104230">
						<ele>1199</ele>
						<time>2026-09-03T16:01:04Z</time>
					</trkpt>
					<trkpt lat="44.951470" lon="4.104420">
						<ele>1203</ele>
						<time>2026-09-03T16:01:15Z</time>
					</trkpt>
					<trkpt lat="44.951340" lon="4.104820">
						<ele>1205</ele>
						<time>2026-09-03T16:01:30Z</time>
					</trkpt>
					<trkpt lat="44.950840" lon="4.107180">
						<ele>1207</ele>
						<time>2026-09-03T16:02:57Z</time>
					</trkpt>
					<trkpt lat="44.950670" lon="4.107520">
						<ele>1206</ele>
						<time>2026-09-03T16:03:12Z</time>
					</trkpt>
					<trkpt lat="44.950270" lon="4.107940">
						<ele>1203</ele>
						<time>2026-09-03T16:03:37Z</time>
					</trkpt>
					<trkpt lat="44.950040" lon="4.108120">
						<ele>1200</ele>
						<time>2026-09-03T16:03:50Z</time>
					</trkpt>
					<trkpt lat="44.949800" lon="4.108210">
						<ele>1197</ele>
						<time>2026-09-03T16:04:03Z</time>
					</trkpt>
					<trkpt lat="44.949560" lon="4.108250">
						<ele>1194</ele>
						<time>2026-09-03T16:04:15Z</time>
					</trkpt>
					<trkpt lat="44.949350" lon="4.108210">
						<ele>1192</ele>
						<time>2026-09-03T16:04:25Z</time>
					</trkpt>
					<trkpt lat="44.948930" lon="4.107990">
						<ele>1191</ele>
						<time>2026-09-03T16:04:48Z</time>
					</trkpt>
					<trkpt lat="44.948650" lon="4.107900">
						<ele>1188</ele>
						<time>2026-09-03T16:05:02Z</time>
					</trkpt>
					<trkpt lat="44.948350" lon="4.107860">
						<ele>1184</ele>
						<time>2026-09-03T16:05:17Z</time>
					</trkpt>
					<trkpt lat="44.948100" lon="4.107890">
						<ele>1182</ele>
						<time>2026-09-03T16:05:30Z</time>
					</trkpt>
					<trkpt lat="44.947560" lon="4.108100">
						<ele>1174</ele>
						<time>2026-09-03T16:05:58Z</time>
					</trkpt>
					<trkpt lat="44.947380" lon="4.108210">
						<ele>1173</ele>
						<time>2026-09-03T16:06:08Z</time>
					</trkpt>
					<trkpt lat="44.947240" lon="4.108330">
						<ele>1172</ele>
						<time>2026-09-03T16:06:16Z</time>
					</trkpt>
					<trkpt lat="44.946590" lon="4.109590">
						<ele>1160</ele>
						<time>2026-09-03T16:07:11Z</time>
					</trkpt>
					<trkpt lat="44.946440" lon="4.109800">
						<ele>1159</ele>
						<time>2026-09-03T16:07:22Z</time>
					</trkpt>
					<trkpt lat="44.946010" lon="4.110260">
						<ele>1158</ele>
						<time>2026-09-03T16:07:49Z</time>
					</trkpt>
					<trkpt lat="44.945840" lon="4.110480">
						<ele>1157</ele>
						<time>2026-09-03T16:08:00Z</time>
					</trkpt>
					<trkpt lat="44.945480" lon="4.111050">
						<ele>1156</ele>
						<time>2026-09-03T16:08:27Z</time>
					</trkpt>
					<trkpt lat="44.945230" lon="4.111570">
						<ele>1153</ele>
						<time>2026-09-03T16:08:50Z</time>
					</trkpt>
					<trkpt lat="44.945040" lon="4.111890">
						<ele>1152</ele>
						<time>2026-09-03T16:09:04Z</time>
					</trkpt>
					<trkpt lat="44.944690" lon="4.112380">
						<ele>1149</ele>
						<time>2026-09-03T16:09:29Z</time>
					</trkpt>
					<trkpt lat="44.944290" lon="4.112800">
						<ele>1147</ele>
						<time>2026-09-03T16:09:54Z</time>
					</trkpt>
					<trkpt lat="44.944230" lon="4.113030">
						<ele>1145</ele>
						<time>2026-09-03T16:10:03Z</time>
					</trkpt>
					<trkpt lat="44.944230" lon="4.113250">
						<ele>1144</ele>
						<time>2026-09-03T16:10:10Z</time>
					</trkpt>
					<trkpt lat="44.944280" lon="4.113520">
						<ele>1143</ele>
						<time>2026-09-03T16:10:20Z</time>
					</trkpt>
					<trkpt lat="44.944350" lon="4.113710">
						<ele>1142</ele>
						<time>2026-09-03T16:10:28Z</time>
					</trkpt>
					<trkpt lat="44.944430" lon="4.114200">
						<ele>1140</ele>
						<time>2026-09-03T16:10:46Z</time>
					</trkpt>
					<trkpt lat="44.944600" lon="4.115590">
						<ele>1139</ele>
						<time>2026-09-03T16:11:36Z</time>
					</trkpt>
					<trkpt lat="44.944600" lon="4.115870">
						<ele>1141</ele>
						<time>2026-09-03T16:11:46Z</time>
					</trkpt>
					<trkpt lat="44.944520" lon="4.116780">
						<ele>1146</ele>
						<time>2026-09-03T16:12:18Z</time>
					</trkpt>
					<trkpt lat="44.944310" lon="4.117700">
						<ele>1153</ele>
						<time>2026-09-03T16:12:52Z</time>
					</trkpt>
					<trkpt lat="44.944130" lon="4.118950">
						<ele>1163</ele>
						<time>2026-09-03T16:13:37Z</time>
					</trkpt>
					<trkpt lat="44.944160" lon="4.119690">
						<ele>1169</ele>
						<time>2026-09-03T16:14:04Z</time>
					</trkpt>
					<trkpt lat="44.944250" lon="4.119990">
						<ele>1172</ele>
						<time>2026-09-03T16:14:15Z</time>
					</trkpt>
					<trkpt lat="44.944500" lon="4.120320">
						<ele>1177</ele>
						<time>2026-09-03T16:14:32Z</time>
					</trkpt>
					<trkpt lat="44.944550" lon="4.120350">
						<ele>1178</ele>
						<time>2026-09-03T16:14:35Z</time>
					</trkpt>
					<trkpt lat="44.944600" lon="4.120350">
						<ele>1178</ele>
						<time>2026-09-03T16:14:38Z</time>
					</trkpt>
					<trkpt lat="44.944890" lon="4.120240">
						<ele>1179</ele>
						<time>2026-09-03T16:14:53Z</time>
					</trkpt>
					<trkpt lat="44.945020" lon="4.120220">
						<ele>1180</ele>
						<time>2026-09-03T16:14:59Z</time>
					</trkpt>
					<trkpt lat="44.945190" lon="4.120240">
						<ele>1181</ele>
						<time>2026-09-03T16:15:08Z</time>
					</trkpt>
					<trkpt lat="44.945520" lon="4.120230">
						<ele>1183</ele>
						<time>2026-09-03T16:15:24Z</time>
					</trkpt>
					<trkpt lat="44.946180" lon="4.120150">
						<ele>1188</ele>
						<time>2026-09-03T16:15:57Z</time>
					</trkpt>
					<trkpt lat="44.946390" lon="4.120090">
						<ele>1189</ele>
						<time>2026-09-03T16:16:08Z</time>
					</trkpt>
					<trkpt lat="44.946550" lon="4.120000">
						<ele>1189</ele>
						<time>2026-09-03T16:16:17Z</time>
					</trkpt>
					<trkpt lat="44.947120" lon="4.119610">
						<ele>1188</ele>
						<time>2026-09-03T16:16:48Z</time>
					</trkpt>
					<trkpt lat="44.947620" lon="4.119360">
						<ele>1188</ele>
						<time>2026-09-03T16:17:15Z</time>
					</trkpt>
					<trkpt lat="44.948290" lon="4.118940">
						<ele>1187</ele>
						<time>2026-09-03T16:17:52Z</time>
					</trkpt>
					<trkpt lat="44.948940" lon="4.118660">
						<ele>1187</ele>
						<time>2026-09-03T16:18:26Z</time>
					</trkpt>
					<trkpt lat="44.949090" lon="4.118620">
						<ele>1187</ele>
						<time>2026-09-03T16:18:33Z</time>
					</trkpt>
					<trkpt lat="44.949250" lon="4.118630">
						<ele>1188</ele>
						<time>2026-09-03T16:18:41Z</time>
					</trkpt>
					<trkpt lat="44.949500" lon="4.118740">
						<ele>1190</ele>
						<time>2026-09-03T16:18:54Z</time>
					</trkpt>
					<trkpt lat="44.949760" lon="4.118940">
						<ele>1192</ele>
						<time>2026-09-03T16:19:09Z</time>
					</trkpt>
					<trkpt lat="44.949980" lon="4.119300">
						<ele>1195</ele>
						<time>2026-09-03T16:19:26Z</time>
					</trkpt>
					<trkpt lat="44.950040" lon="4.119450">
						<ele>1195</ele>
						<time>2026-09-03T16:19:32Z</time>
					</trkpt>
					<trkpt lat="44.950160" lon="4.119980">
						<ele>1196</ele>
						<time>2026-09-03T16:19:52Z</time>
					</trkpt>
					<trkpt lat="44.950360" lon="4.121320">
						<ele>1196</ele>
						<time>2026-09-03T16:20:40Z</time>
					</trkpt>
					<trkpt lat="44.950410" lon="4.121530">
						<ele>1196</ele>
						<time>2026-09-03T16:20:48Z</time>
					</trkpt>
					<trkpt lat="44.950860" lon="4.122810">
						<ele>1197</ele>
						<time>2026-09-03T16:21:39Z</time>
					</trkpt>
					<trkpt lat="44.951030" lon="4.123380">
						<ele>1203</ele>
						<time>2026-09-03T16:22:01Z</time>
					</trkpt>
					<trkpt lat="44.951130" lon="4.123550">
						<ele>1202</ele>
						<time>2026-09-03T16:22:09Z</time>
					</trkpt>
					<trkpt lat="44.951310" lon="4.123710">
						<ele>1201</ele>
						<time>2026-09-03T16:22:19Z</time>
					</trkpt>
					<trkpt lat="44.951490" lon="4.123800">
						<ele>1199</ele>
						<time>2026-09-03T16:22:29Z</time>
					</trkpt>
					<trkpt lat="44.952500" lon="4.123830">
						<ele>1199</ele>
						<time>2026-09-03T16:23:19Z</time>
					</trkpt>
					<trkpt lat="44.952800" lon="4.123810">
						<ele>1201</ele>
						<time>2026-09-03T16:23:34Z</time>
					</trkpt>
					<trkpt lat="44.953320" lon="4.123690">
						<ele>1204</ele>
						<time>2026-09-03T16:24:01Z</time>
					</trkpt>
					<trkpt lat="44.953450" lon="4.123740">
						<ele>1204</ele>
						<time>2026-09-03T16:24:07Z</time>
					</trkpt>
					<trkpt lat="44.953520" lon="4.123840">
						<ele>1205</ele>
						<time>2026-09-03T16:24:12Z</time>
					</trkpt>
					<trkpt lat="44.953540" lon="4.123970">
						<ele>1206</ele>
						<time>2026-09-03T16:24:17Z</time>
					</trkpt>
					<trkpt lat="44.953500" lon="4.124370">
						<ele>1208</ele>
						<time>2026-09-03T16:24:31Z</time>
					</trkpt>
					<trkpt lat="44.953140" lon="4.126050">
						<ele>1217</ele>
						<time>2026-09-03T16:25:34Z</time>
					</trkpt>
					<trkpt lat="44.953050" lon="4.126320">
						<ele>1219</ele>
						<time>2026-09-03T16:25:44Z</time>
					</trkpt>
					<trkpt lat="44.952530" lon="4.127400">
						<ele>1233</ele>
						<time>2026-09-03T16:26:30Z</time>
					</trkpt>
					<trkpt lat="44.952470" lon="4.127580">
						<ele>1234</ele>
						<time>2026-09-03T16:26:38Z</time>
					</trkpt>
					<trkpt lat="44.952460" lon="4.127810">
						<ele>1235</ele>
						<time>2026-09-03T16:26:46Z</time>
					</trkpt>
					<trkpt lat="44.952480" lon="4.128020">
						<ele>1236</ele>
						<time>2026-09-03T16:26:53Z</time>
					</trkpt>
					<trkpt lat="44.952680" lon="4.128960">
						<ele>1240</ele>
						<time>2026-09-03T16:27:28Z</time>
					</trkpt>
					<trkpt lat="44.953310" lon="4.130450">
						<ele>1240</ele>
						<time>2026-09-03T16:28:29Z</time>
					</trkpt>
					<trkpt lat="44.953640" lon="4.131350">
						<ele>1238</ele>
						<time>2026-09-03T16:29:05Z</time>
					</trkpt>
					<trkpt lat="44.953810" lon="4.131940">
						<ele>1237</ele>
						<time>2026-09-03T16:29:28Z</time>
					</trkpt>
					<trkpt lat="44.954220" lon="4.133650">
						<ele>1237</ele>
						<time>2026-09-03T16:30:32Z</time>
					</trkpt>
					<trkpt lat="44.954340" lon="4.133990">
						<ele>1236</ele>
						<time>2026-09-03T16:30:45Z</time>
					</trkpt>
					<trkpt lat="44.954540" lon="4.134370">
						<ele>1235</ele>
						<time>2026-09-03T16:31:02Z</time>
					</trkpt>
					<trkpt lat="44.954870" lon="4.134860">
						<ele>1235</ele>
						<time>2026-09-03T16:31:26Z</time>
					</trkpt>
					<trkpt lat="44.955850" lon="4.136120">
						<ele>1233</ele>
						<time>2026-09-03T16:32:32Z</time>
					</trkpt>
					<trkpt lat="44.956170" lon="4.136270">
						<ele>1235</ele>
						<time>2026-09-03T16:32:49Z</time>
					</trkpt>
					<trkpt lat="44.956890" lon="4.136190">
						<ele>1238</ele>
						<time>2026-09-03T16:33:25Z</time>
					</trkpt>
					<trkpt lat="44.957190" lon="4.136260">
						<ele>1241</ele>
						<time>2026-09-03T16:33:41Z</time>
					</trkpt>
					<trkpt lat="44.957330" lon="4.136340">
						<ele>1242</ele>
						<time>2026-09-03T16:33:48Z</time>
					</trkpt>
					<trkpt lat="44.957750" lon="4.136700">
						<ele>1244</ele>
						<time>2026-09-03T16:34:13Z</time>
					</trkpt>
					<trkpt lat="44.958040" lon="4.137040">
						<ele>1245</ele>
						<time>2026-09-03T16:34:32Z</time>
					</trkpt>
					<trkpt lat="44.958450" lon="4.137580">
						<ele>1246</ele>
						<time>2026-09-03T16:35:00Z</time>
					</trkpt>
					<trkpt lat="44.958620" lon="4.137770">
						<ele>1247</ele>
						<time>2026-09-03T16:35:10Z</time>
					</trkpt>
					<trkpt lat="44.958750" lon="4.137870">
						<ele>1247</ele>
						<time>2026-09-03T16:35:18Z</time>
					</trkpt>
					<trkpt lat="44.959680" lon="4.138250">
						<ele>1250</ele>
						<time>2026-09-03T16:36:06Z</time>
					</trkpt>
					<trkpt lat="44.959910" lon="4.138320">
						<ele>1250</ele>
						<time>2026-09-03T16:36:18Z</time>
					</trkpt>
					<trkpt lat="44.960290" lon="4.138350">
						<ele>1250</ele>
						<time>2026-09-03T16:36:37Z</time>
					</trkpt>
					<trkpt lat="44.960480" lon="4.138330">
						<ele>1251</ele>
						<time>2026-09-03T16:36:47Z</time>
					</trkpt>
					<trkpt lat="44.960510" lon="4.138360">
						<ele>1251</ele>
						<time>2026-09-03T16:36:48Z</time>
					</trkpt>
					<trkpt lat="44.960610" lon="4.138820">
						<ele>1251</ele>
						<time>2026-09-03T16:37:05Z</time>
					</trkpt>
					<trkpt lat="44.960840" lon="4.140180">
						<ele>1253</ele>
						<time>2026-09-03T16:37:55Z</time>
					</trkpt>
					<trkpt lat="44.960930" lon="4.140370">
						<ele>1253</ele>
						<time>2026-09-03T16:38:03Z</time>
					</trkpt>
					<trkpt lat="44.961450" lon="4.141230">
						<ele>1253</ele>
						<time>2026-09-03T16:38:43Z</time>
					</trkpt>
					<trkpt lat="44.961720" lon="4.141760">
						<ele>1253</ele>
						<time>2026-09-03T16:39:06Z</time>
					</trkpt>
					<trkpt lat="44.961830" lon="4.141920">
						<ele>1253</ele>
						<time>2026-09-03T16:39:14Z</time>
					</trkpt>
					<trkpt lat="44.961980" lon="4.142070">
						<ele>1252</ele>
						<time>2026-09-03T16:39:23Z</time>
					</trkpt>
					<trkpt lat="44.962230" lon="4.142480">
						<ele>1252</ele>
						<time>2026-09-03T16:39:43Z</time>
					</trkpt>
					<trkpt lat="44.962330" lon="4.142590">
						<ele>1252</ele>
						<time>2026-09-03T16:39:49Z</time>
					</trkpt>
					<trkpt lat="44.962460" lon="4.142660">
						<ele>1252</ele>
						<time>2026-09-03T16:39:56Z</time>
					</trkpt>
					<trkpt lat="44.962600" lon="4.142680">
						<ele>1252</ele>
						<time>2026-09-03T16:40:03Z</time>
					</trkpt>
					<trkpt lat="44.963380" lon="4.142420">
						<ele>1247</ele>
						<time>2026-09-03T16:40:43Z</time>
					</trkpt>
					<trkpt lat="44.963490" lon="4.142420">
						<ele>1247</ele>
						<time>2026-09-03T16:40:48Z</time>
					</trkpt>
					<trkpt lat="44.963850" lon="4.142540">
						<ele>1249</ele>
						<time>2026-09-03T16:41:07Z</time>
					</trkpt>
					<trkpt lat="44.964090" lon="4.142550">
						<ele>1250</ele>
						<time>2026-09-03T16:41:19Z</time>
					</trkpt>
					<trkpt lat="44.964260" lon="4.142510">
						<ele>1250</ele>
						<time>2026-09-03T16:41:28Z</time>
					</trkpt>
					<trkpt lat="44.964730" lon="4.142320">
						<ele>1249</ele>
						<time>2026-09-03T16:41:52Z</time>
					</trkpt>
					<trkpt lat="44.965060" lon="4.142310">
						<ele>1250</ele>
						<time>2026-09-03T16:42:09Z</time>
					</trkpt>
					<trkpt lat="44.965820" lon="4.142320">
						<ele>1250</ele>
						<time>2026-09-03T16:42:47Z</time>
					</trkpt>
					<trkpt lat="44.966430" lon="4.142400">
						<ele>1250</ele>
						<time>2026-09-03T16:43:17Z</time>
					</trkpt>
					<trkpt lat="44.967840" lon="4.142370">
						<ele>1246</ele>
						<time>2026-09-03T16:44:28Z</time>
					</trkpt>
					<trkpt lat="44.969050" lon="4.142290">
						<ele>1244</ele>
						<time>2026-09-03T16:45:28Z</time>
					</trkpt>
					<trkpt lat="44.969500" lon="4.142300">
						<ele>1244</ele>
						<time>2026-09-03T16:45:51Z</time>
					</trkpt>
					<trkpt lat="44.969950" lon="4.142360">
						<ele>1244</ele>
						<time>2026-09-03T16:46:14Z</time>
					</trkpt>
					<trkpt lat="44.970550" lon="4.142340">
						<ele>1242</ele>
						<time>2026-09-03T16:46:44Z</time>
					</trkpt>
					<trkpt lat="44.971030" lon="4.142450">
						<ele>1238</ele>
						<time>2026-09-03T16:47:08Z</time>
					</trkpt>
					<trkpt lat="44.971370" lon="4.142450">
						<ele>1234</ele>
						<time>2026-09-03T16:47:25Z</time>
					</trkpt>
					<trkpt lat="44.971550" lon="4.142380">
						<ele>1233</ele>
						<time>2026-09-03T16:47:34Z</time>
					</trkpt>
					<trkpt lat="44.972500" lon="4.141880">
						<ele>1230</ele>
						<time>2026-09-03T16:48:25Z</time>
					</trkpt>
					<trkpt lat="44.972750" lon="4.141810">
						<ele>1228</ele>
						<time>2026-09-03T16:48:38Z</time>
					</trkpt>
					<trkpt lat="44.973330" lon="4.141750">
						<ele>1223</ele>
						<time>2026-09-03T16:49:07Z</time>
					</trkpt>
					<trkpt lat="44.974320" lon="4.141780">
						<ele>1218</ele>
						<time>2026-09-03T16:49:56Z</time>
					</trkpt>
					<trkpt lat="44.974800" lon="4.141680">
						<ele>1220</ele>
						<time>2026-09-03T16:50:21Z</time>
					</trkpt>
					<trkpt lat="44.975010" lon="4.141570">
						<ele>1222</ele>
						<time>2026-09-03T16:50:32Z</time>
					</trkpt>
					<trkpt lat="44.975160" lon="4.141450">
						<ele>1225</ele>
						<time>2026-09-03T16:50:41Z</time>
					</trkpt>
					<trkpt lat="44.975580" lon="4.141900">
						<ele>1221</ele>
						<time>2026-09-03T16:51:07Z</time>
					</trkpt>
					<trkpt lat="44.976070" lon="4.142490">
						<ele>1215</ele>
						<time>2026-09-03T16:51:39Z</time>
					</trkpt>
					<trkpt lat="44.976250" lon="4.142840">
						<ele>1212</ele>
						<time>2026-09-03T16:51:55Z</time>
					</trkpt>
					<trkpt lat="44.976270" lon="4.143020">
						<ele>1210</ele>
						<time>2026-09-03T16:52:01Z</time>
					</trkpt>
					<trkpt lat="44.976230" lon="4.143180">
						<ele>1208</ele>
						<time>2026-09-03T16:52:07Z</time>
					</trkpt>
					<trkpt lat="44.975440" lon="4.144290">
						<ele>1203</ele>
						<time>2026-09-03T16:53:03Z</time>
					</trkpt>
					<trkpt lat="44.975490" lon="4.144450">
						<ele>1204</ele>
						<time>2026-09-03T16:53:09Z</time>
					</trkpt>
					<trkpt lat="44.975560" lon="4.144950">
						<ele>1206</ele>
						<time>2026-09-03T16:53:27Z</time>
					</trkpt>
					<trkpt lat="44.975630" lon="4.145230">
						<ele>1209</ele>
						<time>2026-09-03T16:53:37Z</time>
					</trkpt>
					<trkpt lat="44.975710" lon="4.145440">
						<ele>1211</ele>
						<time>2026-09-03T16:53:46Z</time>
					</trkpt>
					<trkpt lat="44.975560" lon="4.146070">
						<ele>1220</ele>
						<time>2026-09-03T16:54:09Z</time>
					</trkpt>
					<trkpt lat="44.975450" lon="4.146230">
						<ele>1223</ele>
						<time>2026-09-03T16:54:17Z</time>
					</trkpt>
					<trkpt lat="44.975540" lon="4.147170">
						<ele>1234</ele>
						<time>2026-09-03T16:54:51Z</time>
					</trkpt>
					<trkpt lat="44.975520" lon="4.147680">
						<ele>1238</ele>
						<time>2026-09-03T16:55:09Z</time>
					</trkpt>
					<trkpt lat="44.975410" lon="4.148350">
						<ele>1241</ele>
						<time>2026-09-03T16:55:33Z</time>
					</trkpt>
					<trkpt lat="44.975250" lon="4.149020">
						<ele>1243</ele>
						<time>2026-09-03T16:55:58Z</time>
					</trkpt>
					<trkpt lat="44.975220" lon="4.149440">
						<ele>1245</ele>
						<time>2026-09-03T16:56:13Z</time>
					</trkpt>
					<trkpt lat="44.975040" lon="4.150390">
						<ele>1247</ele>
						<time>2026-09-03T16:56:48Z</time>
					</trkpt>
					<trkpt lat="44.974870" lon="4.151130">
						<ele>1249</ele>
						<time>2026-09-03T16:57:16Z</time>
					</trkpt>
					<trkpt lat="44.974770" lon="4.151360">
						<ele>1249</ele>
						<time>2026-09-03T16:57:25Z</time>
					</trkpt>
					<trkpt lat="44.974580" lon="4.153080">
						<ele>1250</ele>
						<time>2026-09-03T16:58:27Z</time>
					</trkpt>
					<trkpt lat="44.974490" lon="4.155330">
						<ele>1249</ele>
						<time>2026-09-03T16:59:47Z</time>
					</trkpt>
					<trkpt lat="44.974570" lon="4.155570">
						<ele>1250</ele>
						<time>2026-09-03T16:59:56Z</time>
					</trkpt>
					<trkpt lat="44.974930" lon="4.155840">
						<ele>1252</ele>
						<time>2026-09-03T17:00:16Z</time>
					</trkpt>
					<trkpt lat="44.975030" lon="4.155940">
						<ele>1252</ele>
						<time>2026-09-03T17:00:23Z</time>
					</trkpt>
					<trkpt lat="44.975080" lon="4.156030">
						<ele>1253</ele>
						<time>2026-09-03T17:00:27Z</time>
					</trkpt>
					<trkpt lat="44.975140" lon="4.157270">
						<ele>1257</ele>
						<time>2026-09-03T17:01:11Z</time>
					</trkpt>
					<trkpt lat="44.975170" lon="4.157390">
						<ele>1257</ele>
						<time>2026-09-03T17:01:15Z</time>
					</trkpt>
					<trkpt lat="44.975300" lon="4.157590">
						<ele>1258</ele>
						<time>2026-09-03T17:01:25Z</time>
					</trkpt>
					<trkpt lat="44.975350" lon="4.158960">
						<ele>1266</ele>
						<time>2026-09-03T17:02:13Z</time>
					</trkpt>
					<trkpt lat="44.975250" lon="4.159370">
						<ele>1269</ele>
						<time>2026-09-03T17:02:29Z</time>
					</trkpt>
					<trkpt lat="44.975250" lon="4.159930">
						<ele>1272</ele>
						<time>2026-09-03T17:02:48Z</time>
					</trkpt>
					<trkpt lat="44.975350" lon="4.160780">
						<ele>1280</ele>
						<time>2026-09-03T17:03:19Z</time>
					</trkpt>
					<trkpt lat="44.975360" lon="4.161950">
						<ele>1286</ele>
						<time>2026-09-03T17:04:00Z</time>
					</trkpt>
					<trkpt lat="44.975430" lon="4.162010">
						<ele>1287</ele>
						<time>2026-09-03T17:04:04Z</time>
					</trkpt>
					<trkpt lat="44.976560" lon="4.161250">
						<ele>1285</ele>
						<time>2026-09-03T17:05:07Z</time>
					</trkpt>
					<trkpt lat="44.976580" lon="4.161430">
						<ele>1286</ele>
						<time>2026-09-03T17:05:14Z</time>
					</trkpt>
					<trkpt lat="44.976440" lon="4.162130">
						<ele>1288</ele>
						<time>2026-09-03T17:05:39Z</time>
					</trkpt>
					<trkpt lat="44.976330" lon="4.163620">
						<ele>1289</ele>
						<time>2026-09-03T17:06:32Z</time>
					</trkpt>
					<trkpt lat="44.976130" lon="4.164610">
						<ele>1290</ele>
						<time>2026-09-03T17:07:09Z</time>
					</trkpt>
					<trkpt lat="44.975990" lon="4.165790">
						<ele>1290</ele>
						<time>2026-09-03T17:07:51Z</time>
					</trkpt>
					<trkpt lat="44.975930" lon="4.165990">
						<ele>1290</ele>
						<time>2026-09-03T17:07:59Z</time>
					</trkpt>
					<trkpt lat="44.975670" lon="4.166410">
						<ele>1289</ele>
						<time>2026-09-03T17:08:19Z</time>
					</trkpt>
					<trkpt lat="44.975580" lon="4.166480">
						<ele>1289</ele>
						<time>2026-09-03T17:08:24Z</time>
					</trkpt>
					<trkpt lat="44.975530" lon="4.166470">
						<ele>1290</ele>
						<time>2026-09-03T17:08:26Z</time>
					</trkpt>
					<trkpt lat="44.975420" lon="4.166370">
						<ele>1291</ele>
						<time>2026-09-03T17:08:33Z</time>
					</trkpt>
					<trkpt lat="44.975330" lon="4.166380">
						<ele>1291</ele>
						<time>2026-09-03T17:08:37Z</time>
					</trkpt>
					<trkpt lat="44.975180" lon="4.166500">
						<ele>1292</ele>
						<time>2026-09-03T17:08:46Z</time>
					</trkpt>
					<trkpt lat="44.974360" lon="4.166850">
						<ele>1297</ele>
						<time>2026-09-03T17:09:29Z</time>
					</trkpt>
					<trkpt lat="44.974350" lon="4.167030">
						<ele>1296</ele>
						<time>2026-09-03T17:09:35Z</time>
					</trkpt>
					<trkpt lat="44.974680" lon="4.168800">
						<ele>1287</ele>
						<time>2026-09-03T17:10:40Z</time>
					</trkpt>
					<trkpt lat="44.975290" lon="4.168620">
						<ele>1279</ele>
						<time>2026-09-03T17:11:11Z</time>
					</trkpt>
					<trkpt lat="44.975500" lon="4.168640">
						<ele>1277</ele>
						<time>2026-09-03T17:11:22Z</time>
					</trkpt>
					<trkpt lat="44.976010" lon="4.168800">
						<ele>1271</ele>
						<time>2026-09-03T17:11:48Z</time>
					</trkpt>
					<trkpt lat="44.976210" lon="4.168970">
						<ele>1268</ele>
						<time>2026-09-03T17:12:00Z</time>
					</trkpt>
					<trkpt lat="44.976300" lon="4.169240">
						<ele>1266</ele>
						<time>2026-09-03T17:12:10Z</time>
					</trkpt>
					<trkpt lat="44.976410" lon="4.169830">
						<ele>1264</ele>
						<time>2026-09-03T17:12:32Z</time>
					</trkpt>
					<trkpt lat="44.976510" lon="4.170050">
						<ele>1263</ele>
						<time>2026-09-03T17:12:41Z</time>
					</trkpt>
					<trkpt lat="44.976890" lon="4.170620">
						<ele>1261</ele>
						<time>2026-09-03T17:13:09Z</time>
					</trkpt>
					<trkpt lat="44.977660" lon="4.171320">
						<ele>1257</ele>
						<time>2026-09-03T17:13:55Z</time>
					</trkpt>
					<trkpt lat="44.978280" lon="4.171840">
						<ele>1248</ele>
						<time>2026-09-03T17:14:31Z</time>
					</trkpt>
					<trkpt lat="44.978430" lon="4.171910">
						<ele>1247</ele>
						<time>2026-09-03T17:14:38Z</time>
					</trkpt>
					<trkpt lat="44.978650" lon="4.171930">
						<ele>1245</ele>
						<time>2026-09-03T17:14:50Z</time>
					</trkpt>
					<trkpt lat="44.978760" lon="4.171890">
						<ele>1243</ele>
						<time>2026-09-03T17:14:55Z</time>
					</trkpt>
					<trkpt lat="44.978820" lon="4.171820">
						<ele>1242</ele>
						<time>2026-09-03T17:14:59Z</time>
					</trkpt>
					<trkpt lat="44.978950" lon="4.171930">
						<ele>1241</ele>
						<time>2026-09-03T17:15:07Z</time>
					</trkpt>
					<trkpt lat="44.979000" lon="4.172150">
						<ele>1241</ele>
						<time>2026-09-03T17:15:15Z</time>
					</trkpt>
					<trkpt lat="44.979040" lon="4.172660">
						<ele>1242</ele>
						<time>2026-09-03T17:15:33Z</time>
					</trkpt>
					<trkpt lat="44.979430" lon="4.173360">
						<ele>1241</ele>
						<time>2026-09-03T17:16:05Z</time>
					</trkpt>
					<trkpt lat="44.979810" lon="4.174430">
						<ele>1248</ele>
						<time>2026-09-03T17:16:47Z</time>
					</trkpt>
					<trkpt lat="44.979820" lon="4.174590">
						<ele>1250</ele>
						<time>2026-09-03T17:16:53Z</time>
					</trkpt>
					<trkpt lat="44.979540" lon="4.175130">
						<ele>1255</ele>
						<time>2026-09-03T17:17:16Z</time>
					</trkpt>
					<trkpt lat="44.979380" lon="4.175530">
						<ele>1260</ele>
						<time>2026-09-03T17:17:33Z</time>
					</trkpt>
					<trkpt lat="44.979200" lon="4.176200">
						<ele>1265</ele>
						<time>2026-09-03T17:17:58Z</time>
					</trkpt>
					<trkpt lat="44.979080" lon="4.176540">
						<ele>1267</ele>
						<time>2026-09-03T17:18:11Z</time>
					</trkpt>
					<trkpt lat="44.978990" lon="4.178460">
						<ele>1281</ele>
						<time>2026-09-03T17:19:20Z</time>
					</trkpt>
					<trkpt lat="44.979010" lon="4.178830">
						<ele>1284</ele>
						<time>2026-09-03T17:19:33Z</time>
					</trkpt>
					<trkpt lat="44.979140" lon="4.179110">
						<ele>1287</ele>
						<time>2026-09-03T17:19:45Z</time>
					</trkpt>
					<trkpt lat="44.979290" lon="4.179280">
						<ele>1290</ele>
						<time>2026-09-03T17:19:54Z</time>
					</trkpt>
					<trkpt lat="44.979690" lon="4.180010">
						<ele>1296</ele>
						<time>2026-09-03T17:20:27Z</time>
					</trkpt>
					<trkpt lat="44.979820" lon="4.180870">
						<ele>1299</ele>
						<time>2026-09-03T17:20:58Z</time>
					</trkpt>
					<trkpt lat="44.979740" lon="4.180930">
						<ele>1298</ele>
						<time>2026-09-03T17:21:02Z</time>
					</trkpt>
					<trkpt lat="44.979540" lon="4.180610">
						<ele>1295</ele>
						<time>2026-09-03T17:21:18Z</time>
					</trkpt>
					<trkpt lat="44.979440" lon="4.180380">
						<ele>1293</ele>
						<time>2026-09-03T17:21:27Z</time>
					</trkpt>
					<trkpt lat="44.979310" lon="4.180220">
						<ele>1291</ele>
						<time>2026-09-03T17:21:36Z</time>
					</trkpt>
					<trkpt lat="44.978870" lon="4.179890">
						<ele>1285</ele>
						<time>2026-09-03T17:22:01Z</time>
					</trkpt>
					<trkpt lat="44.977800" lon="4.178960">
						<ele>1277</ele>
						<time>2026-09-03T17:23:04Z</time>
					</trkpt>
					<trkpt lat="44.976880" lon="4.177990">
						<ele>1279</ele>
						<time>2026-09-03T17:24:01Z</time>
					</trkpt>
					<trkpt lat="44.976690" lon="4.177900">
						<ele>1280</ele>
						<time>2026-09-03T17:24:11Z</time>
					</trkpt>
					<trkpt lat="44.976300" lon="4.177820">
						<ele>1280</ele>
						<time>2026-09-03T17:24:31Z</time>
					</trkpt>
					<trkpt lat="44.975440" lon="4.177430">
						<ele>1282</ele>
						<time>2026-09-03T17:25:16Z</time>
					</trkpt>
					<trkpt lat="44.976060" lon="4.179680">
						<ele>1281</ele>
						<time>2026-09-03T17:26:41Z</time>
					</trkpt>
					<trkpt lat="44.976250" lon="4.180500">
						<ele>1277</ele>
						<time>2026-09-03T17:27:12Z</time>
					</trkpt>
					<trkpt lat="44.976310" lon="4.180660">
						<ele>1275</ele>
						<time>2026-09-03T17:27:18Z</time>
					</trkpt>
					<trkpt lat="44.976590" lon="4.182060">
						<ele>1268</ele>
						<time>2026-09-03T17:28:10Z</time>
					</trkpt>
					<trkpt lat="44.976670" lon="4.182750">
						<ele>1267</ele>
						<time>2026-09-03T17:28:35Z</time>
					</trkpt>
					<trkpt lat="44.976410" lon="4.183760">
						<ele>1265</ele>
						<time>2026-09-03T17:29:13Z</time>
					</trkpt>
					<trkpt lat="44.975930" lon="4.186340">
						<ele>1260</ele>
						<time>2026-09-03T17:30:47Z</time>
					</trkpt>
					<trkpt lat="44.975030" lon="4.189440">
						<ele>1243</ele>
						<time>2026-09-03T17:32:46Z</time>
					</trkpt>
					<trkpt lat="44.974890" lon="4.190090">
						<ele>1241</ele>
						<time>2026-09-03T17:33:10Z</time>
					</trkpt>
					<trkpt lat="44.974860" lon="4.190560">
						<ele>1238</ele>
						<time>2026-09-03T17:33:27Z</time>
					</trkpt>
					<trkpt lat="44.974890" lon="4.190800">
						<ele>1237</ele>
						<time>2026-09-03T17:33:35Z</time>
					</trkpt>
					<trkpt lat="44.974860" lon="4.191350">
						<ele>1232</ele>
						<time>2026-09-03T17:33:55Z</time>
					</trkpt>
					<trkpt lat="44.974990" lon="4.191560">
						<ele>1231</ele>
						<time>2026-09-03T17:34:05Z</time>
					</trkpt>
					<trkpt lat="44.975230" lon="4.191820">
						<ele>1230</ele>
						<time>2026-09-03T17:34:20Z</time>
					</trkpt>
					<trkpt lat="44.975440" lon="4.192110">
						<ele>1228</ele>
						<time>2026-09-03T17:34:34Z</time>
					</trkpt>
					<trkpt lat="44.975490" lon="4.192280">
						<ele>1227</ele>
						<time>2026-09-03T17:34:41Z</time>
					</trkpt>
					<trkpt lat="44.975540" lon="4.193070">
						<ele>1221</ele>
						<time>2026-09-03T17:35:09Z</time>
					</trkpt>
					<trkpt lat="44.975530" lon="4.193250">
						<ele>1220</ele>
						<time>2026-09-03T17:35:15Z</time>
					</trkpt>
					<trkpt lat="44.975360" lon="4.194130">
						<ele>1214</ele>
						<time>2026-09-03T17:35:48Z</time>
					</trkpt>
					<trkpt lat="44.975310" lon="4.194600">
						<ele>1212</ele>
						<time>2026-09-03T17:36:04Z</time>
					</trkpt>
					<trkpt lat="44.975040" lon="4.195240">
						<ele>1208</ele>
						<time>2026-09-03T17:36:31Z</time>
					</trkpt>
					<trkpt lat="44.975050" lon="4.195420">
						<ele>1207</ele>
						<time>2026-09-03T17:36:37Z</time>
					</trkpt>
					<trkpt lat="44.975140" lon="4.195910">
						<ele>1207</ele>
						<time>2026-09-03T17:36:55Z</time>
					</trkpt>
					<trkpt lat="44.974860" lon="4.196100">
						<ele>1204</ele>
						<time>2026-09-03T17:37:11Z</time>
					</trkpt>
					<trkpt lat="44.974550" lon="4.196910">
						<ele>1200</ele>
						<time>2026-09-03T17:37:43Z</time>
					</trkpt>
					<trkpt lat="44.974540" lon="4.197040">
						<ele>1200</ele>
						<time>2026-09-03T17:37:48Z</time>
					</trkpt>
					<trkpt lat="44.974670" lon="4.197370">
						<ele>1202</ele>
						<time>2026-09-03T17:38:01Z</time>
					</trkpt>
					<trkpt lat="44.974620" lon="4.197720">
						<ele>1201</ele>
						<time>2026-09-03T17:38:14Z</time>
					</trkpt>
					<trkpt lat="44.974570" lon="4.198530">
						<ele>1199</ele>
						<time>2026-09-03T17:38:43Z</time>
					</trkpt>
					<trkpt lat="44.974520" lon="4.198820">
						<ele>1196</ele>
						<time>2026-09-03T17:38:53Z</time>
					</trkpt>
					<trkpt lat="44.974520" lon="4.199590">
						<ele>1191</ele>
						<time>2026-09-03T17:39:21Z</time>
					</trkpt>
					<trkpt lat="44.974600" lon="4.201140">
						<ele>1180</ele>
						<time>2026-09-03T17:40:16Z</time>
					</trkpt>
					<trkpt lat="44.974900" lon="4.202580">
						<ele>1176</ele>
						<time>2026-09-03T17:41:09Z</time>
					</trkpt>
					<trkpt lat="44.974850" lon="4.202890">
						<ele>1173</ele>
						<time>2026-09-03T17:41:20Z</time>
					</trkpt>
					<trkpt lat="44.974860" lon="4.203490">
						<ele>1169</ele>
						<time>2026-09-03T17:41:41Z</time>
					</trkpt>
					<trkpt lat="44.975090" lon="4.204950">
						<ele>1164</ele>
						<time>2026-09-03T17:42:34Z</time>
					</trkpt>
					<trkpt lat="44.975120" lon="4.205420">
						<ele>1162</ele>
						<time>2026-09-03T17:42:51Z</time>
					</trkpt>
					<trkpt lat="44.975160" lon="4.205660">
						<ele>1161</ele>
						<time>2026-09-03T17:43:00Z</time>
					</trkpt>
					<trkpt lat="44.975410" lon="4.206270">
						<ele>1160</ele>
						<time>2026-09-03T17:43:25Z</time>
					</trkpt>
					<trkpt lat="44.975430" lon="4.206580">
						<ele>1159</ele>
						<time>2026-09-03T17:43:36Z</time>
					</trkpt>
					<trkpt lat="44.975380" lon="4.206760">
						<ele>1159</ele>
						<time>2026-09-03T17:43:42Z</time>
					</trkpt>
					<trkpt lat="44.975680" lon="4.207810">
						<ele>1162</ele>
						<time>2026-09-03T17:44:23Z</time>
					</trkpt>
					<trkpt lat="44.975790" lon="4.208540">
						<ele>1165</ele>
						<time>2026-09-03T17:44:49Z</time>
					</trkpt>
					<trkpt lat="44.975800" lon="4.208940">
						<ele>1166</ele>
						<time>2026-09-03T17:45:03Z</time>
					</trkpt>
					<trkpt lat="44.975750" lon="4.209790">
						<ele>1167</ele>
						<time>2026-09-03T17:45:33Z</time>
					</trkpt>
					<trkpt lat="44.975750" lon="4.210340">
						<ele>1166</ele>
						<time>2026-09-03T17:45:53Z</time>
					</trkpt>
					<trkpt lat="44.975780" lon="4.210510">
						<ele>1167</ele>
						<time>2026-09-03T17:45:59Z</time>
					</trkpt>
					<trkpt lat="44.975860" lon="4.210660">
						<ele>1168</ele>
						<time>2026-09-03T17:46:06Z</time>
					</trkpt>
					<trkpt lat="44.975910" lon="4.211020">
						<ele>1168</ele>
						<time>2026-09-03T17:46:19Z</time>
					</trkpt>
					<trkpt lat="44.975890" lon="4.211250">
						<ele>1168</ele>
						<time>2026-09-03T17:46:27Z</time>
					</trkpt>
					<trkpt lat="44.975910" lon="4.211360">
						<ele>1168</ele>
						<time>2026-09-03T17:46:31Z</time>
					</trkpt>
					<trkpt lat="44.976030" lon="4.211730">
						<ele>1170</ele>
						<time>2026-09-03T17:46:45Z</time>
					</trkpt>
					<trkpt lat="44.976350" lon="4.212520">
						<ele>1170</ele>
						<time>2026-09-03T17:47:17Z</time>
					</trkpt>
					<trkpt lat="44.976660" lon="4.213030">
						<ele>1169</ele>
						<time>2026-09-03T17:47:41Z</time>
					</trkpt>
					<trkpt lat="44.976820" lon="4.213110">
						<ele>1168</ele>
						<time>2026-09-03T17:47:50Z</time>
					</trkpt>
					<trkpt lat="44.976990" lon="4.213430">
						<ele>1165</ele>
						<time>2026-09-03T17:48:04Z</time>
					</trkpt>
					<trkpt lat="44.977210" lon="4.214120">
						<ele>1158</ele>
						<time>2026-09-03T17:48:31Z</time>
					</trkpt>
					<trkpt lat="44.977260" lon="4.214470">
						<ele>1154</ele>
						<time>2026-09-03T17:48:43Z</time>
					</trkpt>
					<trkpt lat="44.977320" lon="4.214560">
						<ele>1153</ele>
						<time>2026-09-03T17:48:48Z</time>
					</trkpt>
					<trkpt lat="44.977070" lon="4.215220">
						<ele>1144</ele>
						<time>2026-09-03T17:49:14Z</time>
					</trkpt>
					<trkpt lat="44.977000" lon="4.215520">
						<ele>1140</ele>
						<time>2026-09-03T17:49:25Z</time>
					</trkpt>
					<trkpt lat="44.976930" lon="4.215940">
						<ele>1135</ele>
						<time>2026-09-03T17:49:41Z</time>
					</trkpt>
					<trkpt lat="44.976930" lon="4.216290">
						<ele>1131</ele>
						<time>2026-09-03T17:49:53Z</time>
					</trkpt>
					<trkpt lat="44.977020" lon="4.216700">
						<ele>1127</ele>
						<time>2026-09-03T17:50:08Z</time>
					</trkpt>
					<trkpt lat="44.977180" lon="4.217110">
						<ele>1124</ele>
						<time>2026-09-03T17:50:25Z</time>
					</trkpt>
					<trkpt lat="44.977780" lon="4.217610">
						<ele>1120</ele>
						<time>2026-09-03T17:51:00Z</time>
					</trkpt>
					<trkpt lat="44.977820" lon="4.219370">
						<ele>1125</ele>
						<time>2026-09-03T17:52:02Z</time>
					</trkpt>
					<trkpt lat="44.977890" lon="4.219640">
						<ele>1127</ele>
						<time>2026-09-03T17:52:12Z</time>
					</trkpt>
					<trkpt lat="44.978110" lon="4.219840">
						<ele>1128</ele>
						<time>2026-09-03T17:52:25Z</time>
					</trkpt>
					<trkpt lat="44.979180" lon="4.220280">
						<ele>1135</ele>
						<time>2026-09-03T17:53:21Z</time>
					</trkpt>
					<trkpt lat="44.979230" lon="4.220400">
						<ele>1138</ele>
						<time>2026-09-03T17:53:26Z</time>
					</trkpt>
					<trkpt lat="44.979500" lon="4.220470">
						<ele>1141</ele>
						<time>2026-09-03T17:53:40Z</time>
					</trkpt>
					<trkpt lat="44.979750" lon="4.220660">
						<ele>1147</ele>
						<time>2026-09-03T17:53:54Z</time>
					</trkpt>
					<trkpt lat="44.980720" lon="4.221060">
						<ele>1157</ele>
						<time>2026-09-03T17:54:45Z</time>
					</trkpt>
					<trkpt lat="44.981170" lon="4.221460">
						<ele>1164</ele>
						<time>2026-09-03T17:55:11Z</time>
					</trkpt>
					<trkpt lat="44.981610" lon="4.221800">
						<ele>1167</ele>
						<time>2026-09-03T17:55:36Z</time>
					</trkpt>
					<trkpt lat="44.981900" lon="4.222180">
						<ele>1169</ele>
						<time>2026-09-03T17:55:56Z</time>
					</trkpt>
					<trkpt lat="44.982070" lon="4.222260">
						<ele>1167</ele>
						<time>2026-09-03T17:56:05Z</time>
					</trkpt>
					<trkpt lat="44.982410" lon="4.222850">
						<ele>1172</ele>
						<time>2026-09-03T17:56:32Z</time>
					</trkpt>
					<trkpt lat="44.983150" lon="4.224310">
						<ele>1179</ele>
						<time>2026-09-03T17:57:35Z</time>
					</trkpt>
					<trkpt lat="44.984070" lon="4.225180">
						<ele>1181</ele>
						<time>2026-09-03T17:58:31Z</time>
					</trkpt>
					<trkpt lat="44.984340" lon="4.225540">
						<ele>1184</ele>
						<time>2026-09-03T17:58:49Z</time>
					</trkpt>
					<trkpt lat="44.984590" lon="4.225770">
						<ele>1184</ele>
						<time>2026-09-03T17:59:04Z</time>
					</trkpt>
					<trkpt lat="44.984960" lon="4.226190">
						<ele>1183</ele>
						<time>2026-09-03T17:59:28Z</time>
					</trkpt>
					<trkpt lat="44.984960" lon="4.226370">
						<ele>1184</ele>
						<time>2026-09-03T17:59:34Z</time>
					</trkpt>
					<trkpt lat="44.985730" lon="4.226070">
						<ele>1182</ele>
						<time>2026-09-03T18:00:14Z</time>
					</trkpt>
					<trkpt lat="44.986150" lon="4.226050">
						<ele>1181</ele>
						<time>2026-09-03T18:00:35Z</time>
					</trkpt>
					<trkpt lat="44.986310" lon="4.226120">
						<ele>1180</ele>
						<time>2026-09-03T18:00:44Z</time>
					</trkpt>
					<trkpt lat="44.986300" lon="4.226210">
						<ele>1180</ele>
						<time>2026-09-03T18:00:47Z</time>
					</trkpt>
					<trkpt lat="44.986360" lon="4.226220">
						<ele>1180</ele>
						<time>2026-09-03T18:00:50Z</time>
					</trkpt>
					<trkpt lat="44.986410" lon="4.226870">
						<ele>1179</ele>
						<time>2026-09-03T18:01:13Z</time>
					</trkpt>
					<trkpt lat="44.986620" lon="4.227060">
						<ele>1179</ele>
						<time>2026-09-03T18:01:26Z</time>
					</trkpt>
					<trkpt lat="44.986940" lon="4.227510">
						<ele>1177</ele>
						<time>2026-09-03T18:01:48Z</time>
					</trkpt>
					<trkpt lat="44.987290" lon="4.228330">
						<ele>1174</ele>
						<time>2026-09-03T18:02:22Z</time>
					</trkpt>
					<trkpt lat="44.987170" lon="4.228430">
						<ele>1170</ele>
						<time>2026-09-03T18:02:29Z</time>
					</trkpt>
					<trkpt lat="44.986890" lon="4.228320">
						<ele>1170</ele>
						<time>2026-09-03T18:02:44Z</time>
					</trkpt>
					<trkpt lat="44.986590" lon="4.228380">
						<ele>1165</ele>
						<time>2026-09-03T18:02:59Z</time>
					</trkpt>
					<trkpt lat="44.986840" lon="4.229450">
						<ele>1148</ele>
						<time>2026-09-03T18:03:39Z</time>
					</trkpt>
					<trkpt lat="44.987010" lon="4.229710">
						<ele>1143</ele>
						<time>2026-09-03T18:03:51Z</time>
					</trkpt>
					<trkpt lat="44.987140" lon="4.230090">
						<ele>1136</ele>
						<time>2026-09-03T18:04:06Z</time>
					</trkpt>
					<trkpt lat="44.987040" lon="4.230110">
						<ele>1135</ele>
						<time>2026-09-03T18:04:11Z</time>
					</trkpt>
					<trkpt lat="44.986960" lon="4.230200">
						<ele>1134</ele>
						<time>2026-09-03T18:04:16Z</time>
					</trkpt>
					<trkpt lat="44.986960" lon="4.230500">
						<ele>1130</ele>
						<time>2026-09-03T18:04:27Z</time>
					</trkpt>
					<trkpt lat="44.987010" lon="4.230890">
						<ele>1124</ele>
						<time>2026-09-03T18:04:41Z</time>
					</trkpt>
					<trkpt lat="44.987000" lon="4.231530">
						<ele>1117</ele>
						<time>2026-09-03T18:05:04Z</time>
					</trkpt>
					<trkpt lat="44.987060" lon="4.231930">
						<ele>1114</ele>
						<time>2026-09-03T18:05:18Z</time>
					</trkpt>
					<trkpt lat="44.987090" lon="4.232420">
						<ele>1110</ele>
						<time>2026-09-03T18:05:36Z</time>
					</trkpt>
					<trkpt lat="44.987410" lon="4.234240">
						<ele>1098</ele>
						<time>2026-09-03T18:06:42Z</time>
					</trkpt>
					<trkpt lat="44.987520" lon="4.234380">
						<ele>1097</ele>
						<time>2026-09-03T18:06:49Z</time>
					</trkpt>
					<trkpt lat="44.987630" lon="4.234470">
						<ele>1096</ele>
						<time>2026-09-03T18:06:56Z</time>
					</trkpt>
					<trkpt lat="44.987860" lon="4.234480">
						<ele>1095</ele>
						<time>2026-09-03T18:07:07Z</time>
					</trkpt>
					<trkpt lat="44.987920" lon="4.234520">
						<ele>1094</ele>
						<time>2026-09-03T18:07:11Z</time>
					</trkpt>
					<trkpt lat="44.987820" lon="4.236080">
						<ele>1089</ele>
						<time>2026-09-03T18:08:06Z</time>
					</trkpt>
					<trkpt lat="44.987860" lon="4.237360">
						<ele>1085</ele>
						<time>2026-09-03T18:08:51Z</time>
					</trkpt>
					<trkpt lat="44.987730" lon="4.238220">
						<ele>1086</ele>
						<time>2026-09-03T18:09:22Z</time>
					</trkpt>
					<trkpt lat="44.987720" lon="4.238430">
						<ele>1087</ele>
						<time>2026-09-03T18:09:30Z</time>
					</trkpt>
					<trkpt lat="44.987620" lon="4.239000">
						<ele>1091</ele>
						<time>2026-09-03T18:09:51Z</time>
					</trkpt>
					<trkpt lat="44.987570" lon="4.239810">
						<ele>1097</ele>
						<time>2026-09-03T18:10:20Z</time>
					</trkpt>
					<trkpt lat="44.987510" lon="4.240060">
						<ele>1100</ele>
						<time>2026-09-03T18:10:29Z</time>
					</trkpt>
					<trkpt lat="44.987500" lon="4.240460">
						<ele>1106</ele>
						<time>2026-09-03T18:10:43Z</time>
					</trkpt>
					<trkpt lat="44.987810" lon="4.241290">
						<ele>1114</ele>
						<time>2026-09-03T18:11:16Z</time>
					</trkpt>
					<trkpt lat="44.987910" lon="4.241800">
						<ele>1120</ele>
						<time>2026-09-03T18:11:35Z</time>
					</trkpt>
					<trkpt lat="44.987910" lon="4.242120">
						<ele>1125</ele>
						<time>2026-09-03T18:11:46Z</time>
					</trkpt>
					<trkpt lat="44.987950" lon="4.242590">
						<ele>1132</ele>
						<time>2026-09-03T18:12:03Z</time>
					</trkpt>
					<trkpt lat="44.987870" lon="4.242720">
						<ele>1135</ele>
						<time>2026-09-03T18:12:09Z</time>
					</trkpt>
					<trkpt lat="44.987840" lon="4.242840">
						<ele>1137</ele>
						<time>2026-09-03T18:12:14Z</time>
					</trkpt>
					<trkpt lat="44.987850" lon="4.243150">
						<ele>1142</ele>
						<time>2026-09-03T18:12:25Z</time>
					</trkpt>
					<trkpt lat="44.987790" lon="4.243740">
						<ele>1149</ele>
						<time>2026-09-03T18:12:46Z</time>
					</trkpt>
					<trkpt lat="44.987830" lon="4.244320">
						<ele>1152</ele>
						<time>2026-09-03T18:13:06Z</time>
					</trkpt>
					<trkpt lat="44.987940" lon="4.245250">
						<ele>1156</ele>
						<time>2026-09-03T18:13:40Z</time>
					</trkpt>
					<trkpt lat="44.988270" lon="4.246280">
						<ele>1156</ele>
						<time>2026-09-03T18:14:20Z</time>
					</trkpt>
					<trkpt lat="44.988330" lon="4.246540">
						<ele>1155</ele>
						<time>2026-09-03T18:14:29Z</time>
					</trkpt>
					<trkpt lat="44.988340" lon="4.247040">
						<ele>1155</ele>
						<time>2026-09-03T18:14:47Z</time>
					</trkpt>
					<trkpt lat="44.988300" lon="4.247360">
						<ele>1154</ele>
						<time>2026-09-03T18:14:59Z</time>
					</trkpt>
					<trkpt lat="44.988290" lon="4.248090">
						<ele>1153</ele>
						<time>2026-09-03T18:15:24Z</time>
					</trkpt>
					<trkpt lat="44.988260" lon="4.248510">
						<ele>1152</ele>
						<time>2026-09-03T18:15:39Z</time>
					</trkpt>
					<trkpt lat="44.988300" lon="4.248670">
						<ele>1151</ele>
						<time>2026-09-03T18:15:45Z</time>
					</trkpt>
					<trkpt lat="44.988380" lon="4.249350">
						<ele>1147</ele>
						<time>2026-09-03T18:16:10Z</time>
					</trkpt>
					<trkpt lat="44.988450" lon="4.250610">
						<ele>1143</ele>
						<time>2026-09-03T18:16:55Z</time>
					</trkpt>
					<trkpt lat="44.988640" lon="4.250660">
						<ele>1142</ele>
						<time>2026-09-03T18:17:04Z</time>
					</trkpt>
					<trkpt lat="44.988860" lon="4.250800">
						<ele>1141</ele>
						<time>2026-09-03T18:17:16Z</time>
					</trkpt>
					<trkpt lat="44.988940" lon="4.250930">
						<ele>1140</ele>
						<time>2026-09-03T18:17:22Z</time>
					</trkpt>
					<trkpt lat="44.988960" lon="4.251070">
						<ele>1140</ele>
						<time>2026-09-03T18:17:27Z</time>
					</trkpt>
					<trkpt lat="44.988880" lon="4.251140">
						<ele>1139</ele>
						<time>2026-09-03T18:17:32Z</time>
					</trkpt>
					<trkpt lat="44.988800" lon="4.251340">
						<ele>1139</ele>
						<time>2026-09-03T18:17:40Z</time>
					</trkpt>
					<trkpt lat="44.988700" lon="4.251740">
						<ele>1138</ele>
						<time>2026-09-03T18:17:55Z</time>
					</trkpt>
					<trkpt lat="44.988450" lon="4.252040">
						<ele>1137</ele>
						<time>2026-09-03T18:18:12Z</time>
					</trkpt>
					<trkpt lat="44.987910" lon="4.253730">
						<ele>1128</ele>
						<time>2026-09-03T18:19:17Z</time>
					</trkpt>
					<trkpt lat="44.987820" lon="4.254350">
						<ele>1125</ele>
						<time>2026-09-03T18:19:40Z</time>
					</trkpt>
					<trkpt lat="44.987830" lon="4.256760">
						<ele>1114</ele>
						<time>2026-09-03T18:21:05Z</time>
					</trkpt>
					<trkpt lat="44.987760" lon="4.257160">
						<ele>1112</ele>
						<time>2026-09-03T18:21:20Z</time>
					</trkpt>
					<trkpt lat="44.987540" lon="4.257810">
						<ele>1111</ele>
						<time>2026-09-03T18:21:45Z</time>
					</trkpt>
					<trkpt lat="44.987360" lon="4.258480">
						<ele>1114</ele>
						<time>2026-09-03T18:22:10Z</time>
					</trkpt>
					<trkpt lat="44.987270" lon="4.259390">
						<ele>1118</ele>
						<time>2026-09-03T18:22:43Z</time>
					</trkpt>
					<trkpt lat="44.988230" lon="4.260340">
						<ele>1119</ele>
						<time>2026-09-03T18:23:42Z</time>
					</trkpt>
					<trkpt lat="44.988430" lon="4.260610">
						<ele>1120</ele>
						<time>2026-09-03T18:23:55Z</time>
					</trkpt>
					<trkpt lat="44.989050" lon="4.261790">
						<ele>1125</ele>
						<time>2026-09-03T18:24:48Z</time>
					</trkpt>
					<trkpt lat="44.989150" lon="4.261930">
						<ele>1124</ele>
						<time>2026-09-03T18:24:55Z</time>
					</trkpt>
					<trkpt lat="44.989090" lon="4.261980">
						<ele>1125</ele>
						<time>2026-09-03T18:24:58Z</time>
					</trkpt>
					<trkpt lat="44.988560" lon="4.262150">
						<ele>1127</ele>
						<time>2026-09-03T18:25:25Z</time>
					</trkpt>
					<trkpt lat="44.988290" lon="4.262850">
						<ele>1130</ele>
						<time>2026-09-03T18:25:53Z</time>
					</trkpt>
					<trkpt lat="44.988120" lon="4.263790">
						<ele>1132</ele>
						<time>2026-09-03T18:26:28Z</time>
					</trkpt>
					<trkpt lat="44.988000" lon="4.264300">
						<ele>1134</ele>
						<time>2026-09-03T18:26:47Z</time>
					</trkpt>
					<trkpt lat="44.988010" lon="4.264590">
						<ele>1135</ele>
						<time>2026-09-03T18:26:57Z</time>
					</trkpt>
					<trkpt lat="44.987830" lon="4.265450">
						<ele>1137</ele>
						<time>2026-09-03T18:27:29Z</time>
					</trkpt>
					<trkpt lat="44.987720" lon="4.267010">
						<ele>1137</ele>
						<time>2026-09-03T18:28:24Z</time>
					</trkpt>
					<trkpt lat="44.987630" lon="4.267940">
						<ele>1135</ele>
						<time>2026-09-03T18:28:58Z</time>
					</trkpt>
					<trkpt lat="44.987520" lon="4.268360">
						<ele>1135</ele>
						<time>2026-09-03T18:29:13Z</time>
					</trkpt>
					<trkpt lat="44.987110" lon="4.269220">
						<ele>1135</ele>
						<time>2026-09-03T18:29:50Z</time>
					</trkpt>
					<trkpt lat="44.986760" lon="4.270110">
						<ele>1135</ele>
						<time>2026-09-03T18:30:26Z</time>
					</trkpt>
					<trkpt lat="44.986690" lon="4.270180">
						<ele>1135</ele>
						<time>2026-09-03T18:30:30Z</time>
					</trkpt>
					<trkpt lat="44.986570" lon="4.270220">
						<ele>1135</ele>
						<time>2026-09-03T18:30:37Z</time>
					</trkpt>
					<trkpt lat="44.986490" lon="4.270290">
						<ele>1136</ele>
						<time>2026-09-03T18:30:41Z</time>
					</trkpt>
					<trkpt lat="44.985850" lon="4.271400">
						<ele>1135</ele>
						<time>2026-09-03T18:31:32Z</time>
					</trkpt>
					<trkpt lat="44.985320" lon="4.272200">
						<ele>1135</ele>
						<time>2026-09-03T18:32:11Z</time>
					</trkpt>
					<trkpt lat="44.985220" lon="4.272290">
						<ele>1136</ele>
						<time>2026-09-03T18:32:17Z</time>
					</trkpt>
					<trkpt lat="44.985020" lon="4.272400">
						<ele>1137</ele>
						<time>2026-09-03T18:32:27Z</time>
					</trkpt>
					<trkpt lat="44.984230" lon="4.273480">
						<ele>1137</ele>
						<time>2026-09-03T18:33:22Z</time>
					</trkpt>
					<trkpt lat="44.983920" lon="4.273780">
						<ele>1136</ele>
						<time>2026-09-03T18:33:41Z</time>
					</trkpt>
					<trkpt lat="44.983450" lon="4.274670">
						<ele>1136</ele>
						<time>2026-09-03T18:34:21Z</time>
					</trkpt>
					<trkpt lat="44.983410" lon="4.274850">
						<ele>1136</ele>
						<time>2026-09-03T18:34:27Z</time>
					</trkpt>
					<trkpt lat="44.983430" lon="4.275350">
						<ele>1136</ele>
						<time>2026-09-03T18:34:45Z</time>
					</trkpt>
					<trkpt lat="44.983420" lon="4.275940">
						<ele>1137</ele>
						<time>2026-09-03T18:35:06Z</time>
					</trkpt>
					<trkpt lat="44.983390" lon="4.276230">
						<ele>1138</ele>
						<time>2026-09-03T18:35:16Z</time>
					</trkpt>
					<trkpt lat="44.983400" lon="4.276670">
						<ele>1139</ele>
						<time>2026-09-03T18:35:32Z</time>
					</trkpt>
					<trkpt lat="44.983090" lon="4.278090">
						<ele>1139</ele>
						<time>2026-09-03T18:36:24Z</time>
					</trkpt>
					<trkpt lat="44.983070" lon="4.278520">
						<ele>1138</ele>
						<time>2026-09-03T18:36:40Z</time>
					</trkpt>
					<trkpt lat="44.982960" lon="4.279510">
						<ele>1133</ele>
						<time>2026-09-03T18:37:15Z</time>
					</trkpt>
					<trkpt lat="44.982930" lon="4.279550">
						<ele>1133</ele>
						<time>2026-09-03T18:37:17Z</time>
					</trkpt>
					<trkpt lat="44.982960" lon="4.279890">
						<ele>1132</ele>
						<time>2026-09-03T18:37:29Z</time>
					</trkpt>
					<trkpt lat="44.982990" lon="4.280020">
						<ele>1131</ele>
						<time>2026-09-03T18:37:34Z</time>
					</trkpt>
					<trkpt lat="44.983060" lon="4.280150">
						<ele>1131</ele>
						<time>2026-09-03T18:37:40Z</time>
					</trkpt>
					<trkpt lat="44.983480" lon="4.281280">
						<ele>1128</ele>
						<time>2026-09-03T18:38:25Z</time>
					</trkpt>
					<trkpt lat="44.983920" lon="4.282300">
						<ele>1127</ele>
						<time>2026-09-03T18:39:07Z</time>
					</trkpt>
					<trkpt lat="44.984350" lon="4.282990">
						<ele>1128</ele>
						<time>2026-09-03T18:39:40Z</time>
					</trkpt>
					<trkpt lat="44.984770" lon="4.283920">
						<ele>1131</ele>
						<time>2026-09-03T18:40:19Z</time>
					</trkpt>
					<trkpt lat="44.985140" lon="4.284600">
						<ele>1130</ele>
						<time>2026-09-03T18:40:49Z</time>
					</trkpt>
					<trkpt lat="44.985310" lon="4.284980">
						<ele>1129</ele>
						<time>2026-09-03T18:41:05Z</time>
					</trkpt>
					<trkpt lat="44.985600" lon="4.285770">
						<ele>1128</ele>
						<time>2026-09-03T18:41:37Z</time>
					</trkpt>
					<trkpt lat="44.985870" lon="4.286370">
						<ele>1130</ele>
						<time>2026-09-03T18:42:02Z</time>
					</trkpt>
					<trkpt lat="44.986200" lon="4.286820">
						<ele>1131</ele>
						<time>2026-09-03T18:42:25Z</time>
					</trkpt>
					<trkpt lat="44.986480" lon="4.287430">
						<ele>1130</ele>
						<time>2026-09-03T18:42:51Z</time>
					</trkpt>
					<trkpt lat="44.986770" lon="4.287970">
						<ele>1127</ele>
						<time>2026-09-03T18:43:15Z</time>
					</trkpt>
					<trkpt lat="44.987170" lon="4.288590">
						<ele>1126</ele>
						<time>2026-09-03T18:43:44Z</time>
					</trkpt>
					<trkpt lat="44.987700" lon="4.289310">
						<ele>1129</ele>
						<time>2026-09-03T18:44:21Z</time>
					</trkpt>
					<trkpt lat="44.988230" lon="4.290130">
						<ele>1129</ele>
						<time>2026-09-03T18:45:00Z</time>
					</trkpt>
					<trkpt lat="44.988990" lon="4.291130">
						<ele>1130</ele>
						<time>2026-09-03T18:45:52Z</time>
					</trkpt>
					<trkpt lat="44.989680" lon="4.292380">
						<ele>1127</ele>
						<time>2026-09-03T18:46:49Z</time>
					</trkpt>
					<trkpt lat="44.989920" lon="4.292660">
						<ele>1126</ele>
						<time>2026-09-03T18:47:04Z</time>
					</trkpt>
					<trkpt lat="44.990150" lon="4.292820">
						<ele>1124</ele>
						<time>2026-09-03T18:47:17Z</time>
					</trkpt>
					<trkpt lat="44.990730" lon="4.293410">
						<ele>1120</ele>
						<time>2026-09-03T18:47:53Z</time>
					</trkpt>
					<trkpt lat="44.990840" lon="4.293480">
						<ele>1119</ele>
						<time>2026-09-03T18:47:59Z</time>
					</trkpt>
					<trkpt lat="44.991200" lon="4.293870">
						<ele>1117</ele>
						<time>2026-09-03T18:48:21Z</time>
					</trkpt>
					<trkpt lat="44.991440" lon="4.294010">
						<ele>1116</ele>
						<time>2026-09-03T18:48:34Z</time>
					</trkpt>
					<trkpt lat="44.991790" lon="4.294490">
						<ele>1116</ele>
						<time>2026-09-03T18:48:59Z</time>
					</trkpt>
					<trkpt lat="44.992120" lon="4.295070">
						<ele>1116</ele>
						<time>2026-09-03T18:49:25Z</time>
					</trkpt>
					<trkpt lat="44.992810" lon="4.296130">
						<ele>1118</ele>
						<time>2026-09-03T18:50:16Z</time>
					</trkpt>
					<trkpt lat="44.993270" lon="4.296760">
						<ele>1120</ele>
						<time>2026-09-03T18:50:48Z</time>
					</trkpt>
					<trkpt lat="44.993430" lon="4.297110">
						<ele>1121</ele>
						<time>2026-09-03T18:51:03Z</time>
					</trkpt>
					<trkpt lat="44.993700" lon="4.297970">
						<ele>1126</ele>
						<time>2026-09-03T18:51:36Z</time>
					</trkpt>
					<trkpt lat="44.993760" lon="4.298040">
						<ele>1127</ele>
						<time>2026-09-03T18:51:40Z</time>
					</trkpt>
					<trkpt lat="44.993840" lon="4.298080">
						<ele>1128</ele>
						<time>2026-09-03T18:51:44Z</time>
					</trkpt>
					<trkpt lat="44.993960" lon="4.298090">
						<ele>1129</ele>
						<time>2026-09-03T18:51:50Z</time>
					</trkpt>
					<trkpt lat="44.994150" lon="4.297930">
						<ele>1129</ele>
						<time>2026-09-03T18:52:01Z</time>
					</trkpt>
					<trkpt lat="44.994260" lon="4.297910">
						<ele>1129</ele>
						<time>2026-09-03T18:52:07Z</time>
					</trkpt>
					<trkpt lat="44.994470" lon="4.297970">
						<ele>1130</ele>
						<time>2026-09-03T18:52:18Z</time>
					</trkpt>
					<trkpt lat="44.994660" lon="4.298140">
						<ele>1132</ele>
						<time>2026-09-03T18:52:29Z</time>
					</trkpt>
					<trkpt lat="44.994820" lon="4.298410">
						<ele>1135</ele>
						<time>2026-09-03T18:52:41Z</time>
					</trkpt>
					<trkpt lat="44.994920" lon="4.298530">
						<ele>1136</ele>
						<time>2026-09-03T18:52:48Z</time>
					</trkpt>
					<trkpt lat="44.995080" lon="4.298910">
						<ele>1137</ele>
						<time>2026-09-03T18:53:04Z</time>
					</trkpt>
					<trkpt lat="44.995150" lon="4.299240">
						<ele>1137</ele>
						<time>2026-09-03T18:53:16Z</time>
					</trkpt>
					<trkpt lat="44.995140" lon="4.299480">
						<ele>1138</ele>
						<time>2026-09-03T18:53:24Z</time>
					</trkpt>
					<trkpt lat="44.995050" lon="4.299740">
						<ele>1139</ele>
						<time>2026-09-03T18:53:35Z</time>
					</trkpt>
					<trkpt lat="44.995150" lon="4.300180">
						<ele>1139</ele>
						<time>2026-09-03T18:53:51Z</time>
					</trkpt>
					<trkpt lat="44.995340" lon="4.300600">
						<ele>1138</ele>
						<time>2026-09-03T18:54:09Z</time>
					</trkpt>
					<trkpt lat="44.995630" lon="4.300920">
						<ele>1138</ele>
						<time>2026-09-03T18:54:27Z</time>
					</trkpt>
					<trkpt lat="44.996350" lon="4.301470">
						<ele>1134</ele>
						<time>2026-09-03T18:55:08Z</time>
					</trkpt>
					<trkpt lat="44.996520" lon="4.301500">
						<ele>1133</ele>
						<time>2026-09-03T18:55:17Z</time>
					</trkpt>
					<trkpt lat="44.996760" lon="4.301500">
						<ele>1131</ele>
						<time>2026-09-03T18:55:29Z</time>
					</trkpt>
					<trkpt lat="44.996820" lon="4.301550">
						<ele>1130</ele>
						<time>2026-09-03T18:55:32Z</time>
					</trkpt>
					<trkpt lat="44.996890" lon="4.301660">
						<ele>1129</ele>
						<time>2026-09-03T18:55:37Z</time>
					</trkpt>
					<trkpt lat="44.997110" lon="4.302210">
						<ele>1128</ele>
						<time>2026-09-03T18:56:00Z</time>
					</trkpt>
					<trkpt lat="44.997750" lon="4.304130">
						<ele>1114</ele>
						<time>2026-09-03T18:57:15Z</time>
					</trkpt>
					<trkpt lat="44.997940" lon="4.304330">
						<ele>1113</ele>
						<time>2026-09-03T18:57:27Z</time>
					</trkpt>
					<trkpt lat="44.998350" lon="4.304470">
						<ele>1111</ele>
						<time>2026-09-03T18:57:48Z</time>
					</trkpt>
					<trkpt lat="44.998470" lon="4.304560">
						<ele>1110</ele>
						<time>2026-09-03T18:57:55Z</time>
					</trkpt>
					<trkpt lat="44.998640" lon="4.304800">
						<ele>1108</ele>
						<time>2026-09-03T18:58:07Z</time>
					</trkpt>
					<trkpt lat="44.998800" lon="4.305180">
						<ele>1106</ele>
						<time>2026-09-03T18:58:22Z</time>
					</trkpt>
					<trkpt lat="44.998850" lon="4.305880">
						<ele>1104</ele>
						<time>2026-09-03T18:58:47Z</time>
					</trkpt>
					<trkpt lat="44.998910" lon="4.306090">
						<ele>1103</ele>
						<time>2026-09-03T18:58:55Z</time>
					</trkpt>
					<trkpt lat="44.999680" lon="4.307320">
						<ele>1098</ele>
						<time>2026-09-03T18:59:53Z</time>
					</trkpt>
					<trkpt lat="44.999990" lon="4.307110">
						<ele>1099</ele>
						<time>2026-09-03T19:00:10Z</time>
					</trkpt>
					<trkpt lat="45.000160" lon="4.307060">
						<ele>1099</ele>
						<time>2026-09-03T19:00:19Z</time>
					</trkpt>
					<trkpt lat="45.000530" lon="4.307000">
						<ele>1098</ele>
						<time>2026-09-03T19:00:38Z</time>
					</trkpt>
					<trkpt lat="45.000650" lon="4.307020">
						<ele>1098</ele>
						<time>2026-09-03T19:00:44Z</time>
					</trkpt>
					<trkpt lat="45.000760" lon="4.307100">
						<ele>1098</ele>
						<time>2026-09-03T19:00:50Z</time>
					</trkpt>
					<trkpt lat="45.001050" lon="4.307400">
						<ele>1097</ele>
						<time>2026-09-03T19:01:08Z</time>
					</trkpt>
					<trkpt lat="45.001230" lon="4.307550">
						<ele>1097</ele>
						<time>2026-09-03T19:01:18Z</time>
					</trkpt>
					<trkpt lat="45.001940" lon="4.307960">
						<ele>1096</ele>
						<time>2026-09-03T19:01:57Z</time>
					</trkpt>
					<trkpt lat="45.002380" lon="4.308190">
						<ele>1097</ele>
						<time>2026-09-03T19:02:20Z</time>
					</trkpt>
					<trkpt lat="45.003060" lon="4.308400">
						<ele>1097</ele>
						<time>2026-09-03T19:02:55Z</time>
					</trkpt>
					<trkpt lat="45.003450" lon="4.308430">
						<ele>1096</ele>
						<time>2026-09-03T19:03:15Z</time>
					</trkpt>
					<trkpt lat="45.004420" lon="4.308430">
						<ele>1094</ele>
						<time>2026-09-03T19:04:03Z</time>
					</trkpt>
					<trkpt lat="45.005210" lon="4.308340">
						<ele>1093</ele>
						<time>2026-09-03T19:04:43Z</time>
					</trkpt>
					<trkpt lat="45.006140" lon="4.308140">
						<ele>1090</ele>
						<time>2026-09-03T19:05:30Z</time>
					</trkpt>
					<trkpt lat="45.006370" lon="4.308150">
						<ele>1089</ele>
						<time>2026-09-03T19:05:41Z</time>
					</trkpt>
					<trkpt lat="45.006840" lon="4.308280">
						<ele>1089</ele>
						<time>2026-09-03T19:06:05Z</time>
					</trkpt>
					<trkpt lat="45.006990" lon="4.308370">
						<ele>1088</ele>
						<time>2026-09-03T19:06:14Z</time>
					</trkpt>
					<trkpt lat="45.007120" lon="4.308560">
						<ele>1088</ele>
						<time>2026-09-03T19:06:23Z</time>
					</trkpt>
					<trkpt lat="45.007240" lon="4.308820">
						<ele>1087</ele>
						<time>2026-09-03T19:06:34Z</time>
					</trkpt>
					<trkpt lat="45.007520" lon="4.309780">
						<ele>1084</ele>
						<time>2026-09-03T19:07:11Z</time>
					</trkpt>
					<trkpt lat="45.007750" lon="4.310470">
						<ele>1083</ele>
						<time>2026-09-03T19:07:38Z</time>
					</trkpt>
					<trkpt lat="45.007780" lon="4.310670">
						<ele>1083</ele>
						<time>2026-09-03T19:07:45Z</time>
					</trkpt>
					<trkpt lat="45.007770" lon="4.310850">
						<ele>1083</ele>
						<time>2026-09-03T19:07:51Z</time>
					</trkpt>
					<trkpt lat="45.007600" lon="4.311570">
						<ele>1079</ele>
						<time>2026-09-03T19:08:18Z</time>
					</trkpt>
					<trkpt lat="45.007520" lon="4.312090">
						<ele>1075</ele>
						<time>2026-09-03T19:08:37Z</time>
					</trkpt>
					<trkpt lat="45.007350" lon="4.312730">
						<ele>1073</ele>
						<time>2026-09-03T19:09:01Z</time>
					</trkpt>
					<trkpt lat="45.007330" lon="4.312880">
						<ele>1073</ele>
						<time>2026-09-03T19:09:07Z</time>
					</trkpt>
					<trkpt lat="45.007370" lon="4.314110">
						<ele>1067</ele>
						<time>2026-09-03T19:09:50Z</time>
					</trkpt>
					<trkpt lat="45.007470" lon="4.314900">
						<ele>1067</ele>
						<time>2026-09-03T19:10:19Z</time>
					</trkpt>
					<trkpt lat="45.007510" lon="4.315110">
						<ele>1067</ele>
						<time>2026-09-03T19:10:26Z</time>
					</trkpt>
					<trkpt lat="45.007860" lon="4.316120">
						<ele>1067</ele>
						<time>2026-09-03T19:11:06Z</time>
					</trkpt>
					<trkpt lat="45.007950" lon="4.316540">
						<ele>1068</ele>
						<time>2026-09-03T19:11:22Z</time>
					</trkpt>
					<trkpt lat="45.007960" lon="4.316730">
						<ele>1068</ele>
						<time>2026-09-03T19:11:28Z</time>
					</trkpt>
					<trkpt lat="45.007940" lon="4.316910">
						<ele>1069</ele>
						<time>2026-09-03T19:11:35Z</time>
					</trkpt>
					<trkpt lat="45.007770" lon="4.317640">
						<ele>1070</ele>
						<time>2026-09-03T19:12:02Z</time>
					</trkpt>
					<trkpt lat="45.007680" lon="4.318340">
						<ele>1070</ele>
						<time>2026-09-03T19:12:27Z</time>
					</trkpt>
					<trkpt lat="45.007680" lon="4.318840">
						<ele>1071</ele>
						<time>2026-09-03T19:12:45Z</time>
					</trkpt>
					<trkpt lat="45.007490" lon="4.319850">
						<ele>1074</ele>
						<time>2026-09-03T19:13:22Z</time>
					</trkpt>
					<trkpt lat="45.007480" lon="4.320020">
						<ele>1074</ele>
						<time>2026-09-03T19:13:28Z</time>
					</trkpt>
					<trkpt lat="45.007520" lon="4.320200">
						<ele>1075</ele>
						<time>2026-09-03T19:13:34Z</time>
					</trkpt>
					<trkpt lat="45.007680" lon="4.320450">
						<ele>1076</ele>
						<time>2026-09-03T19:13:46Z</time>
					</trkpt>
					<trkpt lat="45.008040" lon="4.320910">
						<ele>1079</ele>
						<time>2026-09-03T19:14:11Z</time>
					</trkpt>
					<trkpt lat="45.008970" lon="4.322300">
						<ele>1084</ele>
						<time>2026-09-03T19:15:18Z</time>
					</trkpt>
					<trkpt lat="45.009400" lon="4.322870">
						<ele>1085</ele>
						<time>2026-09-03T19:15:48Z</time>
					</trkpt>
					<trkpt lat="45.009550" lon="4.323130">
						<ele>1084</ele>
						<time>2026-09-03T19:16:00Z</time>
					</trkpt>
					<trkpt lat="45.010580" lon="4.327260">
						<ele>1083</ele>
						<time>2026-09-03T19:18:35Z</time>
					</trkpt>
					<trkpt lat="45.010720" lon="4.328090">
						<ele>1081</ele>
						<time>2026-09-03T19:19:05Z</time>
					</trkpt>
					<trkpt lat="45.010750" lon="4.328440">
						<ele>1080</ele>
						<time>2026-09-03T19:19:17Z</time>
					</trkpt>
					<trkpt lat="45.010320" lon="4.328840">
						<ele>1080</ele>
						<time>2026-09-03T19:19:43Z</time>
					</trkpt>
					<trkpt lat="45.010060" lon="4.329130">
						<ele>1082</ele>
						<time>2026-09-03T19:20:00Z</time>
					</trkpt>
					<trkpt lat="45.009500" lon="4.329910">
						<ele>1083</ele>
						<time>2026-09-03T19:20:39Z</time>
					</trkpt>
					<trkpt lat="45.008880" lon="4.330690">
						<ele>1082</ele>
						<time>2026-09-03T19:21:21Z</time>
					</trkpt>
					<trkpt lat="45.008770" lon="4.330990">
						<ele>1082</ele>
						<time>2026-09-03T19:21:32Z</time>
					</trkpt>
					<trkpt lat="45.009360" lon="4.331850">
						<ele>1083</ele>
						<time>2026-09-03T19:22:15Z</time>
					</trkpt>
					<trkpt lat="45.009820" lon="4.332260">
						<ele>1079</ele>
						<time>2026-09-03T19:22:42Z</time>
					</trkpt>
					<trkpt lat="45.010290" lon="4.332290">
						<ele>1075</ele>
						<time>2026-09-03T19:23:06Z</time>
					</trkpt>
					<trkpt lat="45.010630" lon="4.332450">
						<ele>1072</ele>
						<time>2026-09-03T19:23:24Z</time>
					</trkpt>
					<trkpt lat="45.010920" lon="4.332730">
						<ele>1067</ele>
						<time>2026-09-03T19:23:41Z</time>
					</trkpt>
					<trkpt lat="45.011140" lon="4.333450">
						<ele>1059</ele>
						<time>2026-09-03T19:24:09Z</time>
					</trkpt>
					<trkpt lat="45.011380" lon="4.334010">
						<ele>1052</ele>
						<time>2026-09-03T19:24:32Z</time>
					</trkpt>
					<trkpt lat="45.011410" lon="4.334130">
						<ele>1051</ele>
						<time>2026-09-03T19:24:37Z</time>
					</trkpt>
					<trkpt lat="45.011410" lon="4.334600">
						<ele>1048</ele>
						<time>2026-09-03T19:24:53Z</time>
					</trkpt>
					<trkpt lat="45.011440" lon="4.334790">
						<ele>1047</ele>
						<time>2026-09-03T19:25:00Z</time>
					</trkpt>
					<trkpt lat="45.011630" lon="4.335160">
						<ele>1043</ele>
						<time>2026-09-03T19:25:16Z</time>
					</trkpt>
					<trkpt lat="45.012010" lon="4.335790">
						<ele>1041</ele>
						<time>2026-09-03T19:25:46Z</time>
					</trkpt>
					<trkpt lat="45.012060" lon="4.336010">
						<ele>1041</ele>
						<time>2026-09-03T19:25:54Z</time>
					</trkpt>
					<trkpt lat="45.012080" lon="4.336370">
						<ele>1041</ele>
						<time>2026-09-03T19:26:06Z</time>
					</trkpt>
					<trkpt lat="45.012150" lon="4.336720">
						<ele>1041</ele>
						<time>2026-09-03T19:26:19Z</time>
					</trkpt>
					<trkpt lat="45.012460" lon="4.337580">
						<ele>1043</ele>
						<time>2026-09-03T19:26:54Z</time>
					</trkpt>
					<trkpt lat="45.012630" lon="4.338400">
						<ele>1042</ele>
						<time>2026-09-03T19:27:24Z</time>
					</trkpt>
					<trkpt lat="45.012730" lon="4.338660">
						<ele>1043</ele>
						<time>2026-09-03T19:27:34Z</time>
					</trkpt>
					<trkpt lat="45.013020" lon="4.339190">
						<ele>1044</ele>
						<time>2026-09-03T19:27:58Z</time>
					</trkpt>
					<trkpt lat="45.013200" lon="4.339430">
						<ele>1044</ele>
						<time>2026-09-03T19:28:10Z</time>
					</trkpt>
					<trkpt lat="45.013790" lon="4.340070">
						<ele>1046</ele>
						<time>2026-09-03T19:28:48Z</time>
					</trkpt>
					<trkpt lat="45.014030" lon="4.340450">
						<ele>1046</ele>
						<time>2026-09-03T19:29:06Z</time>
					</trkpt>
					<trkpt lat="45.014150" lon="4.340760">
						<ele>1047</ele>
						<time>2026-09-03T19:29:18Z</time>
					</trkpt>
					<trkpt lat="45.014170" lon="4.340900">
						<ele>1047</ele>
						<time>2026-09-03T19:29:23Z</time>
					</trkpt>
					<trkpt lat="45.014300" lon="4.341290">
						<ele>1045</ele>
						<time>2026-09-03T19:29:38Z</time>
					</trkpt>
					<trkpt lat="45.014320" lon="4.341510">
						<ele>1044</ele>
						<time>2026-09-03T19:29:46Z</time>
					</trkpt>
					<trkpt lat="45.014910" lon="4.343390">
						<ele>1042</ele>
						<time>2026-09-03T19:30:59Z</time>
					</trkpt>
					<trkpt lat="45.015360" lon="4.344470">
						<ele>1036</ele>
						<time>2026-09-03T19:31:43Z</time>
					</trkpt>
					<trkpt lat="45.015440" lon="4.345030">
						<ele>1034</ele>
						<time>2026-09-03T19:32:04Z</time>
					</trkpt>
					<trkpt lat="45.015450" lon="4.345500">
						<ele>1031</ele>
						<time>2026-09-03T19:32:20Z</time>
					</trkpt>
					<trkpt lat="45.015310" lon="4.346260">
						<ele>1029</ele>
						<time>2026-09-03T19:32:48Z</time>
					</trkpt>
					<trkpt lat="45.015670" lon="4.346940">
						<ele>1020</ele>
						<time>2026-09-03T19:33:18Z</time>
					</trkpt>
					<trkpt lat="45.015730" lon="4.347160">
						<ele>1018</ele>
						<time>2026-09-03T19:33:26Z</time>
					</trkpt>
					<trkpt lat="45.015760" lon="4.347460">
						<ele>1016</ele>
						<time>2026-09-03T19:33:37Z</time>
					</trkpt>
					<trkpt lat="45.015700" lon="4.347620">
						<ele>1016</ele>
						<time>2026-09-03T19:33:43Z</time>
					</trkpt>
					<trkpt lat="45.015710" lon="4.347690">
						<ele>1016</ele>
						<time>2026-09-03T19:33:46Z</time>
					</trkpt>
					<trkpt lat="45.015800" lon="4.347720">
						<ele>1015</ele>
						<time>2026-09-03T19:33:51Z</time>
					</trkpt>
					<trkpt lat="45.015980" lon="4.348060">
						<ele>1015</ele>
						<time>2026-09-03T19:34:06Z</time>
					</trkpt>
					<trkpt lat="45.016480" lon="4.349410">
						<ele>1023</ele>
						<time>2026-09-03T19:35:00Z</time>
					</trkpt>
					<trkpt lat="45.017360" lon="4.351480">
						<ele>1028</ele>
						<time>2026-09-03T19:36:25Z</time>
					</trkpt>
					<trkpt lat="45.017870" lon="4.352370">
						<ele>1032</ele>
						<time>2026-09-03T19:37:06Z</time>
					</trkpt>
					<trkpt lat="45.018440" lon="4.353300">
						<ele>1040</ele>
						<time>2026-09-03T19:37:49Z</time>
					</trkpt>
					<trkpt lat="45.018530" lon="4.353490">
						<ele>1040</ele>
						<time>2026-09-03T19:37:57Z</time>
					</trkpt>
					<trkpt lat="45.018900" lon="4.354590">
						<ele>1040</ele>
						<time>2026-09-03T19:38:40Z</time>
					</trkpt>
					<trkpt lat="45.019140" lon="4.355000">
						<ele>1038</ele>
						<time>2026-09-03T19:38:59Z</time>
					</trkpt>
					<trkpt lat="45.019290" lon="4.355180">
						<ele>1037</ele>
						<time>2026-09-03T19:39:09Z</time>
					</trkpt>
					<trkpt lat="45.019310" lon="4.355470">
						<ele>1036</ele>
						<time>2026-09-03T19:39:19Z</time>
					</trkpt>
					<trkpt lat="45.018640" lon="4.355750">
						<ele>1037</ele>
						<time>2026-09-03T19:39:54Z</time>
					</trkpt>
					<trkpt lat="45.016970" lon="4.356690">
						<ele>1029</ele>
						<time>2026-09-03T19:41:24Z</time>
					</trkpt>
					<trkpt lat="45.016850" lon="4.356730">
						<ele>1028</ele>
						<time>2026-09-03T19:41:30Z</time>
					</trkpt>
					<trkpt lat="45.016490" lon="4.356780">
						<ele>1026</ele>
						<time>2026-09-03T19:41:48Z</time>
					</trkpt>
					<trkpt lat="45.016380" lon="4.356820">
						<ele>1026</ele>
						<time>2026-09-03T19:41:54Z</time>
					</trkpt>
					<trkpt lat="45.016240" lon="4.356910">
						<ele>1025</ele>
						<time>2026-09-03T19:42:02Z</time>
					</trkpt>
					<trkpt lat="45.016530" lon="4.357390">
						<ele>1028</ele>
						<time>2026-09-03T19:42:24Z</time>
					</trkpt>
					<trkpt lat="45.016730" lon="4.357810">
						<ele>1029</ele>
						<time>2026-09-03T19:42:42Z</time>
					</trkpt>
					<trkpt lat="45.017070" lon="4.358890">
						<ele>1028</ele>
						<time>2026-09-03T19:43:24Z</time>
					</trkpt>
					<trkpt lat="45.017560" lon="4.360290">
						<ele>1029</ele>
						<time>2026-09-03T19:44:19Z</time>
					</trkpt>
					<trkpt lat="45.017780" lon="4.361070">
						<ele>1029</ele>
						<time>2026-09-03T19:44:49Z</time>
					</trkpt>
					<trkpt lat="45.017890" lon="4.361620">
						<ele>1032</ele>
						<time>2026-09-03T19:45:09Z</time>
					</trkpt>
					<trkpt lat="45.017950" lon="4.362160">
						<ele>1033</ele>
						<time>2026-09-03T19:45:28Z</time>
					</trkpt>
					<trkpt lat="45.017930" lon="4.362360">
						<ele>1034</ele>
						<time>2026-09-03T19:45:36Z</time>
					</trkpt>
					<trkpt lat="45.017940" lon="4.362660">
						<ele>1035</ele>
						<time>2026-09-03T19:45:46Z</time>
					</trkpt>
					<trkpt lat="45.018220" lon="4.362830">
						<ele>1033</ele>
						<time>2026-09-03T19:46:01Z</time>
					</trkpt>
					<trkpt lat="45.018470" lon="4.362820">
						<ele>1033</ele>
						<time>2026-09-03T19:46:14Z</time>
					</trkpt>
					<trkpt lat="45.018560" lon="4.362850">
						<ele>1033</ele>
						<time>2026-09-03T19:46:19Z</time>
					</trkpt>
					<trkpt lat="45.018660" lon="4.363030">
						<ele>1033</ele>
						<time>2026-09-03T19:46:27Z</time>
					</trkpt>
					<trkpt lat="45.018430" lon="4.363570">
						<ele>1032</ele>
						<time>2026-09-03T19:46:49Z</time>
					</trkpt>
					<trkpt lat="45.018280" lon="4.364110">
						<ele>1031</ele>
						<time>2026-09-03T19:47:09Z</time>
					</trkpt>
					<trkpt lat="45.017350" lon="4.365460">
						<ele>1023</ele>
						<time>2026-09-03T19:48:16Z</time>
					</trkpt>
					<trkpt lat="45.017290" lon="4.365530">
						<ele>1023</ele>
						<time>2026-09-03T19:48:20Z</time>
					</trkpt>
					<trkpt lat="45.017000" lon="4.365690">
						<ele>1024</ele>
						<time>2026-09-03T19:48:36Z</time>
					</trkpt>
					<trkpt lat="45.016890" lon="4.365810">
						<ele>1024</ele>
						<time>2026-09-03T19:48:43Z</time>
					</trkpt>
					<trkpt lat="45.016740" lon="4.366290">
						<ele>1018</ele>
						<time>2026-09-03T19:49:01Z</time>
					</trkpt>
					<trkpt lat="45.016630" lon="4.366500">
						<ele>1016</ele>
						<time>2026-09-03T19:49:10Z</time>
					</trkpt>
					<trkpt lat="45.016620" lon="4.366630">
						<ele>1014</ele>
						<time>2026-09-03T19:49:15Z</time>
					</trkpt>
					<trkpt lat="45.016740" lon="4.366860">
						<ele>1011</ele>
						<time>2026-09-03T19:49:25Z</time>
					</trkpt>
					<trkpt lat="45.016770" lon="4.366970">
						<ele>1011</ele>
						<time>2026-09-03T19:49:29Z</time>
					</trkpt>
					<trkpt lat="45.016820" lon="4.367550">
						<ele>1008</ele>
						<time>2026-09-03T19:49:50Z</time>
					</trkpt>
					<trkpt lat="45.016770" lon="4.368070">
						<ele>1009</ele>
						<time>2026-09-03T19:50:09Z</time>
					</trkpt>
					<trkpt lat="45.016710" lon="4.368340">
						<ele>1009</ele>
						<time>2026-09-03T19:50:19Z</time>
					</trkpt>
					<trkpt lat="45.016710" lon="4.368470">
						<ele>1009</ele>
						<time>2026-09-03T19:50:23Z</time>
					</trkpt>
					<trkpt lat="45.016770" lon="4.368720">
						<ele>1010</ele>
						<time>2026-09-03T19:50:32Z</time>
					</trkpt>
					<trkpt lat="45.017650" lon="4.369270">
						<ele>1016</ele>
						<time>2026-09-03T19:51:21Z</time>
					</trkpt>
					<trkpt lat="45.017810" lon="4.369410">
						<ele>1018</ele>
						<time>2026-09-03T19:51:30Z</time>
					</trkpt>
					<trkpt lat="45.019340" lon="4.370930">
						<ele>1022</ele>
						<time>2026-09-03T19:53:04Z</time>
					</trkpt>
					<trkpt lat="45.019840" lon="4.371480">
						<ele>1025</ele>
						<time>2026-09-03T19:53:35Z</time>
					</trkpt>
					<trkpt lat="45.020090" lon="4.371850">
						<ele>1027</ele>
						<time>2026-09-03T19:53:53Z</time>
					</trkpt>
					<trkpt lat="45.020190" lon="4.371950">
						<ele>1027</ele>
						<time>2026-09-03T19:54:00Z</time>
					</trkpt>
					<trkpt lat="45.020290" lon="4.372010">
						<ele>1027</ele>
						<time>2026-09-03T19:54:05Z</time>
					</trkpt>
					<trkpt lat="45.020450" lon="4.371990">
						<ele>1027</ele>
						<time>2026-09-03T19:54:13Z</time>
					</trkpt>
					<trkpt lat="45.020290" lon="4.372610">
						<ele>1027</ele>
						<time>2026-09-03T19:54:36Z</time>
					</trkpt>
					<trkpt lat="45.020110" lon="4.373130">
						<ele>1023</ele>
						<time>2026-09-03T19:54:57Z</time>
					</trkpt>
					<trkpt lat="45.019840" lon="4.373720">
						<ele>1022</ele>
						<time>2026-09-03T19:55:22Z</time>
					</trkpt>
					<trkpt lat="45.019340" lon="4.374640">
						<ele>1021</ele>
						<time>2026-09-03T19:56:03Z</time>
					</trkpt>
					<trkpt lat="45.019030" lon="4.375280">
						<ele>1019</ele>
						<time>2026-09-03T19:56:30Z</time>
					</trkpt>
					<trkpt lat="45.018800" lon="4.375820">
						<ele>1021</ele>
						<time>2026-09-03T19:56:52Z</time>
					</trkpt>
					<trkpt lat="45.018650" lon="4.376330">
						<ele>1020</ele>
						<time>2026-09-03T19:57:12Z</time>
					</trkpt>
					<trkpt lat="45.018400" lon="4.376830">
						<ele>1020</ele>
						<time>2026-09-03T19:57:34Z</time>
					</trkpt>
					<trkpt lat="45.018350" lon="4.377010">
						<ele>1019</ele>
						<time>2026-09-03T19:57:41Z</time>
					</trkpt>
					<trkpt lat="45.018390" lon="4.377100">
						<ele>1019</ele>
						<time>2026-09-03T19:57:44Z</time>
					</trkpt>
					<trkpt lat="45.018390" lon="4.377380">
						<ele>1018</ele>
						<time>2026-09-03T19:57:54Z</time>
					</trkpt>
					<trkpt lat="45.018360" lon="4.377530">
						<ele>1017</ele>
						<time>2026-09-03T19:58:00Z</time>
					</trkpt>
					<trkpt lat="45.018170" lon="4.377760">
						<ele>1018</ele>
						<time>2026-09-03T19:58:12Z</time>
					</trkpt>
					<trkpt lat="45.017390" lon="4.379150">
						<ele>1023</ele>
						<time>2026-09-03T19:59:15Z</time>
					</trkpt>
					<trkpt lat="45.017280" lon="4.379460">
						<ele>1019</ele>
						<time>2026-09-03T19:59:27Z</time>
					</trkpt>
					<trkpt lat="45.017270" lon="4.379620">
						<ele>1017</ele>
						<time>2026-09-03T19:59:33Z</time>
					</trkpt>
					<trkpt lat="45.017290" lon="4.379730">
						<ele>1016</ele>
						<time>2026-09-03T19:59:37Z</time>
					</trkpt>
					<trkpt lat="45.017510" lon="4.380030">
						<ele>1015</ele>
						<time>2026-09-03T19:59:52Z</time>
					</trkpt>
					<trkpt lat="45.017630" lon="4.380250">
						<ele>1014</ele>
						<time>2026-09-03T20:00:02Z</time>
					</trkpt>
					<trkpt lat="45.017710" lon="4.380500">
						<ele>1012</ele>
						<time>2026-09-03T20:00:12Z</time>
					</trkpt>
					<trkpt lat="45.017810" lon="4.380650">
						<ele>1012</ele>
						<time>2026-09-03T20:00:19Z</time>
					</trkpt>
					<trkpt lat="45.018260" lon="4.381090">
						<ele>1016</ele>
						<time>2026-09-03T20:00:46Z</time>
					</trkpt>
					<trkpt lat="45.018580" lon="4.381590">
						<ele>1018</ele>
						<time>2026-09-03T20:01:10Z</time>
					</trkpt>
					<trkpt lat="45.018670" lon="4.382000">
						<ele>1020</ele>
						<time>2026-09-03T20:01:26Z</time>
					</trkpt>
					<trkpt lat="45.018800" lon="4.383410">
						<ele>1019</ele>
						<time>2026-09-03T20:02:16Z</time>
					</trkpt>
					<trkpt lat="45.018870" lon="4.383750">
						<ele>1016</ele>
						<time>2026-09-03T20:02:28Z</time>
					</trkpt>
					<trkpt lat="45.018910" lon="4.383820">
						<ele>1015</ele>
						<time>2026-09-03T20:02:32Z</time>
					</trkpt>
					<trkpt lat="45.019110" lon="4.383900">
						<ele>1016</ele>
						<time>2026-09-03T20:02:42Z</time>
					</trkpt>
					<trkpt lat="45.019690" lon="4.383940">
						<ele>1019</ele>
						<time>2026-09-03T20:03:11Z</time>
					</trkpt>
					<trkpt lat="45.019840" lon="4.384000">
						<ele>1019</ele>
						<time>2026-09-03T20:03:19Z</time>
					</trkpt>
					<trkpt lat="45.020030" lon="4.384150">
						<ele>1018</ele>
						<time>2026-09-03T20:03:30Z</time>
					</trkpt>
					<trkpt lat="45.020110" lon="4.384180">
						<ele>1018</ele>
						<time>2026-09-03T20:03:34Z</time>
					</trkpt>
					<trkpt lat="45.020090" lon="4.384560">
						<ele>1015</ele>
						<time>2026-09-03T20:03:47Z</time>
					</trkpt>
					<trkpt lat="45.020170" lon="4.385070">
						<ele>1013</ele>
						<time>2026-09-03T20:04:06Z</time>
					</trkpt>
					<trkpt lat="45.020240" lon="4.385310">
						<ele>1012</ele>
						<time>2026-09-03T20:04:15Z</time>
					</trkpt>
					<trkpt lat="45.020680" lon="4.386400">
						<ele>1009</ele>
						<time>2026-09-03T20:04:59Z</time>
					</trkpt>
					<trkpt lat="45.020460" lon="4.386590">
						<ele>1006</ele>
						<time>2026-09-03T20:05:12Z</time>
					</trkpt>
					<trkpt lat="45.020330" lon="4.386760">
						<ele>1005</ele>
						<time>2026-09-03T20:05:21Z</time>
					</trkpt>
					<trkpt lat="45.020190" lon="4.386790">
						<ele>1005</ele>
						<time>2026-09-03T20:05:28Z</time>
					</trkpt>
					<trkpt lat="45.020100" lon="4.386770">
						<ele>1004</ele>
						<time>2026-09-03T20:05:33Z</time>
					</trkpt>
					<trkpt lat="45.020000" lon="4.386700">
						<ele>1004</ele>
						<time>2026-09-03T20:05:38Z</time>
					</trkpt>
					<trkpt lat="45.019840" lon="4.386490">
						<ele>1006</ele>
						<time>2026-09-03T20:05:49Z</time>
					</trkpt>
					<trkpt lat="45.019670" lon="4.386200">
						<ele>1007</ele>
						<time>2026-09-03T20:06:03Z</time>
					</trkpt>
					<trkpt lat="45.019370" lon="4.385960">
						<ele>1008</ele>
						<time>2026-09-03T20:06:20Z</time>
					</trkpt>
					<trkpt lat="45.017960" lon="4.385290">
						<ele>1019</ele>
						<time>2026-09-03T20:07:34Z</time>
					</trkpt>
					<trkpt lat="45.017870" lon="4.385280">
						<ele>1020</ele>
						<time>2026-09-03T20:07:39Z</time>
					</trkpt>
					<trkpt lat="45.017820" lon="4.385300">
						<ele>1021</ele>
						<time>2026-09-03T20:07:41Z</time>
					</trkpt>
					<trkpt lat="45.017640" lon="4.385570">
						<ele>1024</ele>
						<time>2026-09-03T20:07:55Z</time>
					</trkpt>
					<trkpt lat="45.017560" lon="4.385650">
						<ele>1025</ele>
						<time>2026-09-03T20:07:59Z</time>
					</trkpt>
					<trkpt lat="45.017440" lon="4.385720">
						<ele>1027</ele>
						<time>2026-09-03T20:08:06Z</time>
					</trkpt>
					<trkpt lat="45.016950" lon="4.385830">
						<ele>1031</ele>
						<time>2026-09-03T20:08:31Z</time>
					</trkpt>
					<trkpt lat="45.016800" lon="4.385880">
						<ele>1032</ele>
						<time>2026-09-03T20:08:38Z</time>
					</trkpt>
					<trkpt lat="45.016640" lon="4.385970">
						<ele>1034</ele>
						<time>2026-09-03T20:08:47Z</time>
					</trkpt>
					<trkpt lat="45.015670" lon="4.386890">
						<ele>1044</ele>
						<time>2026-09-03T20:09:46Z</time>
					</trkpt>
					<trkpt lat="45.015590" lon="4.386700">
						<ele>1044</ele>
						<time>2026-09-03T20:09:53Z</time>
					</trkpt>
					<trkpt lat="45.015490" lon="4.386560">
						<ele>1044</ele>
						<time>2026-09-03T20:10:00Z</time>
					</trkpt>
					<trkpt lat="45.015280" lon="4.386390">
						<ele>1045</ele>
						<time>2026-09-03T20:10:12Z</time>
					</trkpt>
					<trkpt lat="45.015030" lon="4.386270">
						<ele>1046</ele>
						<time>2026-09-03T20:10:26Z</time>
					</trkpt>
					<trkpt lat="45.014890" lon="4.387060">
						<ele>1049</ele>
						<time>2026-09-03T20:10:55Z</time>
					</trkpt>
					<trkpt lat="45.014710" lon="4.387860">
						<ele>1051</ele>
						<time>2026-09-03T20:11:24Z</time>
					</trkpt>
					<trkpt lat="45.014670" lon="4.387900">
						<ele>1051</ele>
						<time>2026-09-03T20:11:27Z</time>
					</trkpt>
					<trkpt lat="45.014630" lon="4.387890">
						<ele>1051</ele>
						<time>2026-09-03T20:11:29Z</time>
					</trkpt>
					<trkpt lat="45.014150" lon="4.388600">
						<ele>1054</ele>
						<time>2026-09-03T20:12:03Z</time>
					</trkpt>
					<trkpt lat="45.013980" lon="4.388890">
						<ele>1054</ele>
						<time>2026-09-03T20:12:17Z</time>
					</trkpt>
					<trkpt lat="45.013840" lon="4.389190">
						<ele>1054</ele>
						<time>2026-09-03T20:12:29Z</time>
					</trkpt>
					<trkpt lat="45.013570" lon="4.389940">
						<ele>1055</ele>
						<time>2026-09-03T20:12:59Z</time>
					</trkpt>
					<trkpt lat="45.013350" lon="4.390340">
						<ele>1056</ele>
						<time>2026-09-03T20:13:17Z</time>
					</trkpt>
					<trkpt lat="45.013230" lon="4.390510">
						<ele>1056</ele>
						<time>2026-09-03T20:13:26Z</time>
					</trkpt>
					<trkpt lat="45.013090" lon="4.390650">
						<ele>1057</ele>
						<time>2026-09-03T20:13:34Z</time>
					</trkpt>
					<trkpt lat="45.012160" lon="4.391450">
						<ele>1059</ele>
						<time>2026-09-03T20:14:29Z</time>
					</trkpt>
					<trkpt lat="45.011680" lon="4.391920">
						<ele>1060</ele>
						<time>2026-09-03T20:14:58Z</time>
					</trkpt>
					<trkpt lat="45.011500" lon="4.392150">
						<ele>1060</ele>
						<time>2026-09-03T20:15:10Z</time>
					</trkpt>
					<trkpt lat="45.011130" lon="4.392860">
						<ele>1062</ele>
						<time>2026-09-03T20:15:41Z</time>
					</trkpt>
					<trkpt lat="45.011010" lon="4.393170">
						<ele>1062</ele>
						<time>2026-09-03T20:15:54Z</time>
					</trkpt>
					<trkpt lat="45.010890" lon="4.393360">
						<ele>1061</ele>
						<time>2026-09-03T20:16:03Z</time>
					</trkpt>
					<trkpt lat="45.010680" lon="4.393880">
						<ele>1064</ele>
						<time>2026-09-03T20:16:24Z</time>
					</trkpt>
					<trkpt lat="45.010260" lon="4.394760">
						<ele>1067</ele>
						<time>2026-09-03T20:17:02Z</time>
					</trkpt>
					<trkpt lat="45.010020" lon="4.395660">
						<ele>1067</ele>
						<time>2026-09-03T20:17:36Z</time>
					</trkpt>
					<trkpt lat="45.009620" lon="4.396370">
						<ele>1067</ele>
						<time>2026-09-03T20:18:08Z</time>
					</trkpt>
					<trkpt lat="45.009190" lon="4.398140">
						<ele>1067</ele>
						<time>2026-09-03T20:19:14Z</time>
					</trkpt>
					<trkpt lat="45.009230" lon="4.398220">
						<ele>1068</ele>
						<time>2026-09-03T20:19:17Z</time>
					</trkpt>
					<trkpt lat="45.009230" lon="4.398360">
						<ele>1067</ele>
						<time>2026-09-03T20:19:22Z</time>
					</trkpt>
					<trkpt lat="45.009310" lon="4.398660">
						<ele>1066</ele>
						<time>2026-09-03T20:19:34Z</time>
					</trkpt>
					<trkpt lat="45.009380" lon="4.398610">
						<ele>1067</ele>
						<time>2026-09-03T20:19:38Z</time>
					</trkpt>
					<trkpt lat="45.009510" lon="4.398600">
						<ele>1068</ele>
						<time>2026-09-03T20:19:44Z</time>
					</trkpt>
					<trkpt lat="45.009550" lon="4.398460">
						<ele>1070</ele>
						<time>2026-09-03T20:19:49Z</time>
					</trkpt>
					<trkpt lat="45.009460" lon="4.398020">
						<ele>1070</ele>
						<time>2026-09-03T20:20:06Z</time>
					</trkpt>
					<trkpt lat="45.009450" lon="4.397850">
						<ele>1070</ele>
						<time>2026-09-03T20:20:12Z</time>
					</trkpt>
					<trkpt lat="45.009810" lon="4.397740">
						<ele>1074</ele>
						<time>2026-09-03T20:20:30Z</time>
					</trkpt>
					<trkpt lat="45.009960" lon="4.397610">
						<ele>1075</ele>
						<time>2026-09-03T20:20:39Z</time>
					</trkpt>
					<trkpt lat="45.009990" lon="4.397540">
						<ele>1076</ele>
						<time>2026-09-03T20:20:42Z</time>
					</trkpt>
					<trkpt lat="45.010250" lon="4.397380">
						<ele>1079</ele>
						<time>2026-09-03T20:20:56Z</time>
					</trkpt>
					<trkpt lat="45.010470" lon="4.397290">
						<ele>1081</ele>
						<time>2026-09-03T20:21:07Z</time>
					</trkpt>
					<trkpt lat="45.010830" lon="4.397060">
						<ele>1084</ele>
						<time>2026-09-03T20:21:27Z</time>
					</trkpt>
					<trkpt lat="45.011160" lon="4.396960">
						<ele>1088</ele>
						<time>2026-09-03T20:21:44Z</time>
					</trkpt>
					<trkpt lat="45.011440" lon="4.396950">
						<ele>1092</ele>
						<time>2026-09-03T20:21:58Z</time>
					</trkpt>
					<trkpt lat="45.011550" lon="4.396920">
						<ele>1094</ele>
						<time>2026-09-03T20:22:04Z</time>
					</trkpt>
					<trkpt lat="45.011780" lon="4.396740">
						<ele>1099</ele>
						<time>2026-09-03T20:22:17Z</time>
					</trkpt>
					<trkpt lat="45.011830" lon="4.396640">
						<ele>1100</ele>
						<time>2026-09-03T20:22:21Z</time>
					</trkpt>
					<trkpt lat="45.011960" lon="4.396510">
						<ele>1102</ele>
						<time>2026-09-03T20:22:29Z</time>
					</trkpt>
					<trkpt lat="45.012090" lon="4.396310">
						<ele>1104</ele>
						<time>2026-09-03T20:22:39Z</time>
					</trkpt>
					<trkpt lat="45.012350" lon="4.396040">
						<ele>1111</ele>
						<time>2026-09-03T20:22:55Z</time>
					</trkpt>
					<trkpt lat="45.012300" lon="4.395900">
						<ele>1110</ele>
						<time>2026-09-03T20:23:01Z</time>
					</trkpt>
					<trkpt lat="45.012290" lon="4.395690">
						<ele>1110</ele>
						<time>2026-09-03T20:23:08Z</time>
					</trkpt>
					<trkpt lat="45.012350" lon="4.395500">
						<ele>1111</ele>
						<time>2026-09-03T20:23:15Z</time>
					</trkpt>
					<trkpt lat="45.012550" lon="4.395190">
						<ele>1114</ele>
						<time>2026-09-03T20:23:30Z</time>
					</trkpt>
					<trkpt lat="45.012800" lon="4.394620">
						<ele>1111</ele>
						<time>2026-09-03T20:23:54Z</time>
					</trkpt>
					<trkpt lat="45.013090" lon="4.394450">
						<ele>1112</ele>
						<time>2026-09-03T20:24:10Z</time>
					</trkpt>
					<trkpt lat="45.013360" lon="4.394420">
						<ele>1114</ele>
						<time>2026-09-03T20:24:23Z</time>
					</trkpt>
					<trkpt lat="45.013490" lon="4.394430">
						<ele>1113</ele>
						<time>2026-09-03T20:24:30Z</time>
					</trkpt>
					<trkpt lat="45.013660" lon="4.394500">
						<ele>1112</ele>
						<time>2026-09-03T20:24:39Z</time>
					</trkpt>
					<trkpt lat="45.013840" lon="4.394650">
						<ele>1113</ele>
						<time>2026-09-03T20:24:49Z</time>
					</trkpt>
					<trkpt lat="45.013920" lon="4.394760">
						<ele>1114</ele>
						<time>2026-09-03T20:24:55Z</time>
					</trkpt>
					<trkpt lat="45.013990" lon="4.395130">
						<ele>1117</ele>
						<time>2026-09-03T20:25:08Z</time>
					</trkpt>
					<trkpt lat="45.013990" lon="4.395480">
						<ele>1116</ele>
						<time>2026-09-03T20:25:21Z</time>
					</trkpt>
					<trkpt lat="45.013880" lon="4.395890">
						<ele>1116</ele>
						<time>2026-09-03T20:25:36Z</time>
					</trkpt>
					<trkpt lat="45.013780" lon="4.396110">
						<ele>1114</ele>
						<time>2026-09-03T20:25:45Z</time>
					</trkpt>
					<trkpt lat="45.013280" lon="4.396660">
						<ele>1111</ele>
						<time>2026-09-03T20:26:17Z</time>
					</trkpt>
					<trkpt lat="45.013170" lon="4.396730">
						<ele>1109</ele>
						<time>2026-09-03T20:26:23Z</time>
					</trkpt>
					<trkpt lat="45.013190" lon="4.396780">
						<ele>1108</ele>
						<time>2026-09-03T20:26:25Z</time>
					</trkpt>
					<trkpt lat="45.014000" lon="4.396960">
						<ele>1099</ele>
						<time>2026-09-03T20:27:06Z</time>
					</trkpt>
					<trkpt lat="45.014540" lon="4.397050">
						<ele>1092</ele>
						<time>2026-09-03T20:27:33Z</time>
					</trkpt>
					<trkpt lat="45.014870" lon="4.397080">
						<ele>1088</ele>
						<time>2026-09-03T20:27:50Z</time>
					</trkpt>
					<trkpt lat="45.015000" lon="4.397200">
						<ele>1086</ele>
						<time>2026-09-03T20:27:58Z</time>
					</trkpt>
					<trkpt lat="45.015080" lon="4.397340">
						<ele>1085</ele>
						<time>2026-09-03T20:28:04Z</time>
					</trkpt>
					<trkpt lat="45.015080" lon="4.397410">
						<ele>1085</ele>
						<time>2026-09-03T20:28:06Z</time>
					</trkpt>
					<trkpt lat="45.015180" lon="4.397610">
						<ele>1083</ele>
						<time>2026-09-03T20:28:15Z</time>
					</trkpt>
					<trkpt lat="45.015590" lon="4.398170">
						<ele>1084</ele>
						<time>2026-09-03T20:28:44Z</time>
					</trkpt>
					<trkpt lat="45.016000" lon="4.398390">
						<ele>1083</ele>
						<time>2026-09-03T20:29:06Z</time>
					</trkpt>
					<trkpt lat="45.016310" lon="4.398520">
						<ele>1080</ele>
						<time>2026-09-03T20:29:22Z</time>
					</trkpt>
					<trkpt lat="45.016420" lon="4.398640">
						<ele>1079</ele>
						<time>2026-09-03T20:29:29Z</time>
					</trkpt>
					<trkpt lat="45.016540" lon="4.398720">
						<ele>1077</ele>
						<time>2026-09-03T20:29:35Z</time>
					</trkpt>
					<trkpt lat="45.016820" lon="4.398760">
						<ele>1075</ele>
						<time>2026-09-03T20:29:49Z</time>
					</trkpt>
					<trkpt lat="45.017650" lon="4.398500">
						<ele>1072</ele>
						<time>2026-09-03T20:30:32Z</time>
					</trkpt>
					<trkpt lat="45.017950" lon="4.398560">
						<ele>1075</ele>
						<time>2026-09-03T20:30:47Z</time>
					</trkpt>
					<trkpt lat="45.018200" lon="4.398440">
						<ele>1076</ele>
						<time>2026-09-03T20:31:00Z</time>
					</trkpt>
					<trkpt lat="45.018540" lon="4.398220">
						<ele>1075</ele>
						<time>2026-09-03T20:31:19Z</time>
					</trkpt>
					<trkpt lat="45.019000" lon="4.398040">
						<ele>1073</ele>
						<time>2026-09-03T20:31:43Z</time>
					</trkpt>
					<trkpt lat="45.019140" lon="4.398010">
						<ele>1073</ele>
						<time>2026-09-03T20:31:50Z</time>
					</trkpt>
					<trkpt lat="45.019410" lon="4.398050">
						<ele>1070</ele>
						<time>2026-09-03T20:32:04Z</time>
					</trkpt>
					<trkpt lat="45.019530" lon="4.398130">
						<ele>1068</ele>
						<time>2026-09-03T20:32:10Z</time>
					</trkpt>
					<trkpt lat="45.019630" lon="4.398270">
						<ele>1068</ele>
						<time>2026-09-03T20:32:17Z</time>
					</trkpt>
					<trkpt lat="45.020070" lon="4.399380">
						<ele>1070</ele>
						<time>2026-09-03T20:33:02Z</time>
					</trkpt>
					<trkpt lat="45.020450" lon="4.400580">
						<ele>1069</ele>
						<time>2026-09-03T20:33:49Z</time>
					</trkpt>
					<trkpt lat="45.020680" lon="4.401080">
						<ele>1065</ele>
						<time>2026-09-03T20:34:10Z</time>
					</trkpt>
					<trkpt lat="45.021120" lon="4.401540">
						<ele>1056</ele>
						<time>2026-09-03T20:34:37Z</time>
					</trkpt>
					<trkpt lat="45.021440" lon="4.401550">
						<ele>1049</ele>
						<time>2026-09-03T20:34:53Z</time>
					</trkpt>
					<trkpt lat="45.021630" lon="4.401580">
						<ele>1045</ele>
						<time>2026-09-03T20:35:03Z</time>
					</trkpt>
					<trkpt lat="45.021690" lon="4.401630">
						<ele>1045</ele>
						<time>2026-09-03T20:35:06Z</time>
					</trkpt>
					<trkpt lat="45.021780" lon="4.401850">
						<ele>1045</ele>
						<time>2026-09-03T20:35:15Z</time>
					</trkpt>
					<trkpt lat="45.021890" lon="4.402350">
						<ele>1045</ele>
						<time>2026-09-03T20:35:34Z</time>
					</trkpt>
					<trkpt lat="45.022020" lon="4.402590">
						<ele>1045</ele>
						<time>2026-09-03T20:35:45Z</time>
					</trkpt>
					<trkpt lat="45.022170" lon="4.402690">
						<ele>1044</ele>
						<time>2026-09-03T20:35:53Z</time>
					</trkpt>
					<trkpt lat="45.022300" lon="4.402720">
						<ele>1044</ele>
						<time>2026-09-03T20:35:59Z</time>
					</trkpt>
					<trkpt lat="45.022480" lon="4.402720">
						<ele>1044</ele>
						<time>2026-09-03T20:36:08Z</time>
					</trkpt>
					<trkpt lat="45.022530" lon="4.402690">
						<ele>1044</ele>
						<time>2026-09-03T20:36:11Z</time>
					</trkpt>
					<trkpt lat="45.022620" lon="4.402560">
						<ele>1046</ele>
						<time>2026-09-03T20:36:18Z</time>
					</trkpt>
					<trkpt lat="45.022700" lon="4.402380">
						<ele>1047</ele>
						<time>2026-09-03T20:36:25Z</time>
					</trkpt>
					<trkpt lat="45.022760" lon="4.402130">
						<ele>1048</ele>
						<time>2026-09-03T20:36:35Z</time>
					</trkpt>
					<trkpt lat="45.022790" lon="4.401830">
						<ele>1048</ele>
						<time>2026-09-03T20:36:45Z</time>
					</trkpt>
					<trkpt lat="45.022830" lon="4.401690">
						<ele>1048</ele>
						<time>2026-09-03T20:36:51Z</time>
					</trkpt>
					<trkpt lat="45.022890" lon="4.401600">
						<ele>1049</ele>
						<time>2026-09-03T20:36:55Z</time>
					</trkpt>
					<trkpt lat="45.023010" lon="4.401540">
						<ele>1051</ele>
						<time>2026-09-03T20:37:01Z</time>
					</trkpt>
					<trkpt lat="45.023120" lon="4.401530">
						<ele>1053</ele>
						<time>2026-09-03T20:37:07Z</time>
					</trkpt>
					<trkpt lat="45.023380" lon="4.401630">
						<ele>1058</ele>
						<time>2026-09-03T20:37:20Z</time>
					</trkpt>
					<trkpt lat="45.023800" lon="4.402020">
						<ele>1061</ele>
						<time>2026-09-03T20:37:45Z</time>
					</trkpt>
					<trkpt lat="45.025350" lon="4.403080">
						<ele>1063</ele>
						<time>2026-09-03T20:39:12Z</time>
					</trkpt>
					<trkpt lat="45.026800" lon="4.404200">
						<ele>1061</ele>
						<time>2026-09-03T20:40:34Z</time>
					</trkpt>
					<trkpt lat="45.029470" lon="4.406200">
						<ele>1068</ele>
						<time>2026-09-03T20:43:05Z</time>
					</trkpt>
					<trkpt lat="45.029710" lon="4.406350">
						<ele>1069</ele>
						<time>2026-09-03T20:43:19Z</time>
					</trkpt>
					<trkpt lat="45.030260" lon="4.406610">
						<ele>1072</ele>
						<time>2026-09-03T20:43:48Z</time>
					</trkpt>
					<trkpt lat="45.030360" lon="4.406640">
						<ele>1072</ele>
						<time>2026-09-03T20:43:53Z</time>
					</trkpt>
					<trkpt lat="45.030700" lon="4.406660">
						<ele>1073</ele>
						<time>2026-09-03T20:44:10Z</time>
					</trkpt>
					<trkpt lat="45.030910" lon="4.406750">
						<ele>1075</ele>
						<time>2026-09-03T20:44:21Z</time>
					</trkpt>
					<trkpt lat="45.031130" lon="4.406770">
						<ele>1076</ele>
						<time>2026-09-03T20:44:32Z</time>
					</trkpt>
					<trkpt lat="45.032510" lon="4.406580">
						<ele>1085</ele>
						<time>2026-09-03T20:45:41Z</time>
					</trkpt>
					<trkpt lat="45.033510" lon="4.406480">
						<ele>1092</ele>
						<time>2026-09-03T20:46:31Z</time>
					</trkpt>
					<trkpt lat="45.033760" lon="4.406500">
						<ele>1095</ele>
						<time>2026-09-03T20:46:44Z</time>
					</trkpt>
					<trkpt lat="45.034020" lon="4.406490">
						<ele>1097</ele>
						<time>2026-09-03T20:46:57Z</time>
					</trkpt>
					<trkpt lat="45.035250" lon="4.406330">
						<ele>1102</ele>
						<time>2026-09-03T20:47:59Z</time>
					</trkpt>
					<trkpt lat="45.035470" lon="4.406320">
						<ele>1103</ele>
						<time>2026-09-03T20:48:10Z</time>
					</trkpt>
					<trkpt lat="45.035700" lon="4.406340">
						<ele>1102</ele>
						<time>2026-09-03T20:48:21Z</time>
					</trkpt>
					<trkpt lat="45.036920" lon="4.406630">
						<ele>1107</ele>
						<time>2026-09-03T20:49:23Z</time>
					</trkpt>
					<trkpt lat="45.037410" lon="4.406690">
						<ele>1109</ele>
						<time>2026-09-03T20:49:48Z</time>
					</trkpt>
					<trkpt lat="45.037740" lon="4.406760">
						<ele>1110</ele>
						<time>2026-09-03T20:50:04Z</time>
					</trkpt>
					<trkpt lat="45.038160" lon="4.406790">
						<ele>1112</ele>
						<time>2026-09-03T20:50:25Z</time>
					</trkpt>
					<trkpt lat="45.038590" lon="4.406790">
						<ele>1113</ele>
						<time>2026-09-03T20:50:47Z</time>
					</trkpt>
					<trkpt lat="45.040890" lon="4.406710">
						<ele>1108</ele>
						<time>2026-09-03T20:52:42Z</time>
					</trkpt>
					<trkpt lat="45.041110" lon="4.406670">
						<ele>1105</ele>
						<time>2026-09-03T20:52:53Z</time>
					</trkpt>
					<trkpt lat="45.043360" lon="4.405780">
						<ele>1101</ele>
						<time>2026-09-03T20:54:50Z</time>
					</trkpt>
					<trkpt lat="45.043510" lon="4.405780">
						<ele>1102</ele>
						<time>2026-09-03T20:54:58Z</time>
					</trkpt>
					<trkpt lat="45.043740" lon="4.405940">
						<ele>1102</ele>
						<time>2026-09-03T20:55:10Z</time>
					</trkpt>
					<trkpt lat="45.043860" lon="4.405960">
						<ele>1102</ele>
						<time>2026-09-03T20:55:17Z</time>
					</trkpt>
					<trkpt lat="45.043850" lon="4.405710">
						<ele>1104</ele>
						<time>2026-09-03T20:55:25Z</time>
					</trkpt>
					<trkpt lat="45.044090" lon="4.405620">
						<ele>1105</ele>
						<time>2026-09-03T20:55:38Z</time>
					</trkpt>
					<trkpt lat="45.044180" lon="4.405220">
						<ele>1107</ele>
						<time>2026-09-03T20:55:53Z</time>
					</trkpt>
					<trkpt lat="45.044560" lon="4.404040">
						<ele>1104</ele>
						<time>2026-09-03T20:56:38Z</time>
					</trkpt>
					<trkpt lat="45.044870" lon="4.403330">
						<ele>1104</ele>
						<time>2026-09-03T20:57:08Z</time>
					</trkpt>
					<trkpt lat="45.045580" lon="4.401390">
						<ele>1097</ele>
						<time>2026-09-03T20:58:25Z</time>
					</trkpt>
					<trkpt lat="45.045880" lon="4.400880">
						<ele>1098</ele>
						<time>2026-09-03T20:58:49Z</time>
					</trkpt>
					<trkpt lat="45.046720" lon="4.399730">
						<ele>1102</ele>
						<time>2026-09-03T20:59:47Z</time>
					</trkpt>
					<trkpt lat="45.047360" lon="4.398720">
						<ele>1105</ele>
						<time>2026-09-03T21:00:35Z</time>
					</trkpt>
					<trkpt lat="45.047800" lon="4.397970">
						<ele>1104</ele>
						<time>2026-09-03T21:01:10Z</time>
					</trkpt>
					<trkpt lat="45.047950" lon="4.397590">
						<ele>1103</ele>
						<time>2026-09-03T21:01:25Z</time>
					</trkpt>
					<trkpt lat="45.048180" lon="4.396740">
						<ele>1100</ele>
						<time>2026-09-03T21:01:57Z</time>
					</trkpt>
					<trkpt lat="45.048270" lon="4.396510">
						<ele>1099</ele>
						<time>2026-09-03T21:02:06Z</time>
					</trkpt>
					<trkpt lat="45.048430" lon="4.396290">
						<ele>1097</ele>
						<time>2026-09-03T21:02:18Z</time>
					</trkpt>
					<trkpt lat="45.048550" lon="4.395810">
						<ele>1095</ele>
						<time>2026-09-03T21:02:36Z</time>
					</trkpt>
					<trkpt lat="45.048720" lon="4.395460">
						<ele>1092</ele>
						<time>2026-09-03T21:02:51Z</time>
					</trkpt>
					<trkpt lat="45.048890" lon="4.395350">
						<ele>1090</ele>
						<time>2026-09-03T21:03:00Z</time>
					</trkpt>
					<trkpt lat="45.048970" lon="4.395380">
						<ele>1089</ele>
						<time>2026-09-03T21:03:04Z</time>
					</trkpt>
					<trkpt lat="45.049490" lon="4.395880">
						<ele>1083</ele>
						<time>2026-09-03T21:03:36Z</time>
					</trkpt>
					<trkpt lat="45.049480" lon="4.396490">
						<ele>1084</ele>
						<time>2026-09-03T21:03:57Z</time>
					</trkpt>
					<trkpt lat="45.049590" lon="4.396700">
						<ele>1083</ele>
						<time>2026-09-03T21:04:06Z</time>
					</trkpt>
					<trkpt lat="45.049830" lon="4.396880">
						<ele>1082</ele>
						<time>2026-09-03T21:04:20Z</time>
					</trkpt>
					<trkpt lat="45.049960" lon="4.396880">
						<ele>1081</ele>
						<time>2026-09-03T21:04:27Z</time>
					</trkpt>
					<trkpt lat="45.050080" lon="4.396810">
						<ele>1080</ele>
						<time>2026-09-03T21:04:33Z</time>
					</trkpt>
					<trkpt lat="45.051140" lon="4.395930">
						<ele>1078</ele>
						<time>2026-09-03T21:05:35Z</time>
					</trkpt>
					<trkpt lat="45.051600" lon="4.395680">
						<ele>1081</ele>
						<time>2026-09-03T21:05:59Z</time>
					</trkpt>
					<trkpt lat="45.051740" lon="4.395560">
						<ele>1083</ele>
						<time>2026-09-03T21:06:07Z</time>
					</trkpt>
					<trkpt lat="45.051980" lon="4.395280">
						<ele>1085</ele>
						<time>2026-09-03T21:06:23Z</time>
					</trkpt>
					<trkpt lat="45.052080" lon="4.395240">
						<ele>1086</ele>
						<time>2026-09-03T21:06:28Z</time>
					</trkpt>
					<trkpt lat="45.052150" lon="4.395270">
						<ele>1087</ele>
						<time>2026-09-03T21:06:32Z</time>
					</trkpt>
					<trkpt lat="45.053030" lon="4.396070">
						<ele>1095</ele>
						<time>2026-09-03T21:07:24Z</time>
					</trkpt>
					<trkpt lat="45.053270" lon="4.396160">
						<ele>1098</ele>
						<time>2026-09-03T21:07:37Z</time>
					</trkpt>
					<trkpt lat="45.053350" lon="4.396230">
						<ele>1099</ele>
						<time>2026-09-03T21:07:41Z</time>
					</trkpt>
					<trkpt lat="45.053720" lon="4.397360">
						<ele>1102</ele>
						<time>2026-09-03T21:08:25Z</time>
					</trkpt>
					<trkpt lat="45.054160" lon="4.398390">
						<ele>1103</ele>
						<time>2026-09-03T21:09:08Z</time>
					</trkpt>
					<trkpt lat="45.054480" lon="4.399020">
						<ele>1100</ele>
						<time>2026-09-03T21:09:35Z</time>
					</trkpt>
					<trkpt lat="45.054570" lon="4.399270">
						<ele>1099</ele>
						<time>2026-09-03T21:09:45Z</time>
					</trkpt>
					<trkpt lat="45.054670" lon="4.400720">
						<ele>1095</ele>
						<time>2026-09-03T21:10:37Z</time>
					</trkpt>
					<trkpt lat="45.054760" lon="4.400840">
						<ele>1095</ele>
						<time>2026-09-03T21:10:43Z</time>
					</trkpt>
					<trkpt lat="45.055120" lon="4.401160">
						<ele>1096</ele>
						<time>2026-09-03T21:11:04Z</time>
					</trkpt>
					<trkpt lat="45.055240" lon="4.401170">
						<ele>1096</ele>
						<time>2026-09-03T21:11:10Z</time>
					</trkpt>
					<trkpt lat="45.055270" lon="4.401530">
						<ele>1093</ele>
						<time>2026-09-03T21:11:23Z</time>
					</trkpt>
					<trkpt lat="45.055970" lon="4.402200">
						<ele>1085</ele>
						<time>2026-09-03T21:12:05Z</time>
					</trkpt>
					<trkpt lat="45.056380" lon="4.402620">
						<ele>1076</ele>
						<time>2026-09-03T21:12:31Z</time>
					</trkpt>
					<trkpt lat="45.056530" lon="4.402820">
						<ele>1072</ele>
						<time>2026-09-03T21:12:41Z</time>
					</trkpt>
					<trkpt lat="45.056770" lon="4.403240">
						<ele>1066</ele>
						<time>2026-09-03T21:13:00Z</time>
					</trkpt>
					<trkpt lat="45.057100" lon="4.403980">
						<ele>1054</ele>
						<time>2026-09-03T21:13:31Z</time>
					</trkpt>
					<trkpt lat="45.057240" lon="4.404130">
						<ele>1052</ele>
						<time>2026-09-03T21:13:40Z</time>
					</trkpt>
					<trkpt lat="45.057290" lon="4.404260">
						<ele>1051</ele>
						<time>2026-09-03T21:13:45Z</time>
					</trkpt>
					<trkpt lat="45.057470" lon="4.405130">
						<ele>1049</ele>
						<time>2026-09-03T21:14:17Z</time>
					</trkpt>
					<trkpt lat="45.057440" lon="4.406000">
						<ele>1046</ele>
						<time>2026-09-03T21:14:48Z</time>
					</trkpt>
					<trkpt lat="45.057390" lon="4.406350">
						<ele>1043</ele>
						<time>2026-09-03T21:15:00Z</time>
					</trkpt>
					<trkpt lat="45.057430" lon="4.407000">
						<ele>1038</ele>
						<time>2026-09-03T21:15:23Z</time>
					</trkpt>
					<trkpt lat="45.057520" lon="4.407470">
						<ele>1035</ele>
						<time>2026-09-03T21:15:41Z</time>
					</trkpt>
					<trkpt lat="45.057530" lon="4.407750">
						<ele>1031</ele>
						<time>2026-09-03T21:15:51Z</time>
					</trkpt>
					<trkpt lat="45.057510" lon="4.408540">
						<ele>1020</ele>
						<time>2026-09-03T21:16:19Z</time>
					</trkpt>
					<trkpt lat="45.057330" lon="4.409320">
						<ele>1006</ele>
						<time>2026-09-03T21:16:48Z</time>
					</trkpt>
					<trkpt lat="45.057290" lon="4.409760">
						<ele>1000</ele>
						<time>2026-09-03T21:17:03Z</time>
					</trkpt>
					<trkpt lat="45.057340" lon="4.411010">
						<ele>986</ele>
						<time>2026-09-03T21:17:48Z</time>
					</trkpt>
					<trkpt lat="45.057300" lon="4.411690">
						<ele>979</ele>
						<time>2026-09-03T21:18:12Z</time>
					</trkpt>
					<trkpt lat="45.057180" lon="4.412300">
						<ele>971</ele>
						<time>2026-09-03T21:18:34Z</time>
					</trkpt>
					<trkpt lat="45.057280" lon="4.412680">
						<ele>967</ele>
						<time>2026-09-03T21:18:48Z</time>
					</trkpt>
					<trkpt lat="45.057410" lon="4.412810">
						<ele>967</ele>
						<time>2026-09-03T21:18:56Z</time>
					</trkpt>
					<trkpt lat="45.057590" lon="4.412790">
						<ele>966</ele>
						<time>2026-09-03T21:19:05Z</time>
					</trkpt>
					<trkpt lat="45.057680" lon="4.412730">
						<ele>964</ele>
						<time>2026-09-03T21:19:10Z</time>
					</trkpt>
					<trkpt lat="45.057820" lon="4.412620">
						<ele>961</ele>
						<time>2026-09-03T21:19:18Z</time>
					</trkpt>
					<trkpt lat="45.058510" lon="4.411930">
						<ele>950</ele>
						<time>2026-09-03T21:20:01Z</time>
					</trkpt>
					<trkpt lat="45.058900" lon="4.411580">
						<ele>944</ele>
						<time>2026-09-03T21:20:24Z</time>
					</trkpt>
					<trkpt lat="45.059130" lon="4.411430">
						<ele>942</ele>
						<time>2026-09-03T21:20:36Z</time>
					</trkpt>
					<trkpt lat="45.059210" lon="4.411410">
						<ele>941</ele>
						<time>2026-09-03T21:20:40Z</time>
					</trkpt>
					<trkpt lat="45.059290" lon="4.411440">
						<ele>939</ele>
						<time>2026-09-03T21:20:45Z</time>
					</trkpt>
					<trkpt lat="45.059500" lon="4.411620">
						<ele>932</ele>
						<time>2026-09-03T21:20:57Z</time>
					</trkpt>
					<trkpt lat="45.059750" lon="4.412000">
						<ele>923</ele>
						<time>2026-09-03T21:21:15Z</time>
					</trkpt>
					<trkpt lat="45.059820" lon="4.412150">
						<ele>920</ele>
						<time>2026-09-03T21:21:22Z</time>
					</trkpt>
					<trkpt lat="45.060140" lon="4.413200">
						<ele>902</ele>
						<time>2026-09-03T21:22:02Z</time>
					</trkpt>
					<trkpt lat="45.060270" lon="4.413520">
						<ele>899</ele>
						<time>2026-09-03T21:22:15Z</time>
					</trkpt>
					<trkpt lat="45.060430" lon="4.414490">
						<ele>901</ele>
						<time>2026-09-03T21:22:50Z</time>
					</trkpt>
					<trkpt lat="45.060600" lon="4.415100">
						<ele>901</ele>
						<time>2026-09-03T21:23:13Z</time>
					</trkpt>
					<trkpt lat="45.061210" lon="4.416470">
						<ele>902</ele>
						<time>2026-09-03T21:24:11Z</time>
					</trkpt>
					<trkpt lat="45.061490" lon="4.416900">
						<ele>905</ele>
						<time>2026-09-03T21:24:31Z</time>
					</trkpt>
					<trkpt lat="45.061660" lon="4.417080">
						<ele>906</ele>
						<time>2026-09-03T21:24:42Z</time>
					</trkpt>
					<trkpt lat="45.061860" lon="4.417230">
						<ele>902</ele>
						<time>2026-09-03T21:24:53Z</time>
					</trkpt>
					<trkpt lat="45.062310" lon="4.417870">
						<ele>896</ele>
						<time>2026-09-03T21:25:25Z</time>
					</trkpt>
					<trkpt lat="45.063040" lon="4.419400">
						<ele>888</ele>
						<time>2026-09-03T21:26:31Z</time>
					</trkpt>
					<trkpt lat="45.063170" lon="4.419580">
						<ele>889</ele>
						<time>2026-09-03T21:26:40Z</time>
					</trkpt>
					<trkpt lat="45.063260" lon="4.419650">
						<ele>890</ele>
						<time>2026-09-03T21:26:45Z</time>
					</trkpt>
					<trkpt lat="45.063430" lon="4.419730">
						<ele>889</ele>
						<time>2026-09-03T21:26:54Z</time>
					</trkpt>
					<trkpt lat="45.063520" lon="4.419820">
						<ele>887</ele>
						<time>2026-09-03T21:26:59Z</time>
					</trkpt>
					<trkpt lat="45.063770" lon="4.420140">
						<ele>883</ele>
						<time>2026-09-03T21:27:16Z</time>
					</trkpt>
					<trkpt lat="45.063860" lon="4.420300">
						<ele>882</ele>
						<time>2026-09-03T21:27:23Z</time>
					</trkpt>
					<trkpt lat="45.063940" lon="4.420490">
						<ele>881</ele>
						<time>2026-09-03T21:27:31Z</time>
					</trkpt>
					<trkpt lat="45.063990" lon="4.420820">
						<ele>880</ele>
						<time>2026-09-03T21:27:43Z</time>
					</trkpt>
					<trkpt lat="45.063990" lon="4.421000">
						<ele>878</ele>
						<time>2026-09-03T21:27:49Z</time>
					</trkpt>
					<trkpt lat="45.063940" lon="4.421360">
						<ele>873</ele>
						<time>2026-09-03T21:28:02Z</time>
					</trkpt>
					<trkpt lat="45.063840" lon="4.421520">
						<ele>870</ele>
						<time>2026-09-03T21:28:10Z</time>
					</trkpt>
					<trkpt lat="45.063840" lon="4.421620">
						<ele>869</ele>
						<time>2026-09-03T21:28:13Z</time>
					</trkpt>
					<trkpt lat="45.063880" lon="4.421680">
						<ele>869</ele>
						<time>2026-09-03T21:28:16Z</time>
					</trkpt>
					<trkpt lat="45.063940" lon="4.421710">
						<ele>869</ele>
						<time>2026-09-03T21:28:20Z</time>
					</trkpt>
					<trkpt lat="45.063980" lon="4.421700">
						<ele>870</ele>
						<time>2026-09-03T21:28:22Z</time>
					</trkpt>
					<trkpt lat="45.064090" lon="4.421580">
						<ele>872</ele>
						<time>2026-09-03T21:28:29Z</time>
					</trkpt>
					<trkpt lat="45.064160" lon="4.421460">
						<ele>874</ele>
						<time>2026-09-03T21:28:34Z</time>
					</trkpt>
					<trkpt lat="45.064350" lon="4.420910">
						<ele>875</ele>
						<time>2026-09-03T21:28:56Z</time>
					</trkpt>
					<trkpt lat="45.064410" lon="4.420470">
						<ele>872</ele>
						<time>2026-09-03T21:29:12Z</time>
					</trkpt>
					<trkpt lat="45.064450" lon="4.419800">
						<ele>866</ele>
						<time>2026-09-03T21:29:35Z</time>
					</trkpt>
					<trkpt lat="45.064430" lon="4.419620">
						<ele>864</ele>
						<time>2026-09-03T21:29:42Z</time>
					</trkpt>
					<trkpt lat="45.064350" lon="4.419310">
						<ele>862</ele>
						<time>2026-09-03T21:29:53Z</time>
					</trkpt>
					<trkpt lat="45.064300" lon="4.419200">
						<ele>862</ele>
						<time>2026-09-03T21:29:58Z</time>
					</trkpt>
					<trkpt lat="45.064020" lon="4.418860">
						<ele>864</ele>
						<time>2026-09-03T21:30:17Z</time>
					</trkpt>
					<trkpt lat="45.063940" lon="4.418720">
						<ele>863</ele>
						<time>2026-09-03T21:30:23Z</time>
					</trkpt>
					<trkpt lat="45.063830" lon="4.418190">
						<ele>856</ele>
						<time>2026-09-03T21:30:42Z</time>
					</trkpt>
					<trkpt lat="45.063650" lon="4.417730">
						<ele>852</ele>
						<time>2026-09-03T21:31:01Z</time>
					</trkpt>
					<trkpt lat="45.063460" lon="4.417380">
						<ele>852</ele>
						<time>2026-09-03T21:31:17Z</time>
					</trkpt>
					<trkpt lat="45.063370" lon="4.417000">
						<ele>846</ele>
						<time>2026-09-03T21:31:31Z</time>
					</trkpt>
					<trkpt lat="45.063190" lon="4.416590">
						<ele>844</ele>
						<time>2026-09-03T21:31:48Z</time>
					</trkpt>
					<trkpt lat="45.063090" lon="4.416270">
						<ele>842</ele>
						<time>2026-09-03T21:32:00Z</time>
					</trkpt>
					<trkpt lat="45.062970" lon="4.415530">
						<ele>837</ele>
						<time>2026-09-03T21:32:27Z</time>
					</trkpt>
					<trkpt lat="45.062750" lon="4.414970">
						<ele>837</ele>
						<time>2026-09-03T21:32:50Z</time>
					</trkpt>
					<trkpt lat="45.062680" lon="4.414630">
						<ele>837</ele>
						<time>2026-09-03T21:33:02Z</time>
					</trkpt>
					<trkpt lat="45.062580" lon="4.414430">
						<ele>836</ele>
						<time>2026-09-03T21:33:11Z</time>
					</trkpt>
					<trkpt lat="45.062430" lon="4.414240">
						<ele>836</ele>
						<time>2026-09-03T21:33:21Z</time>
					</trkpt>
					<trkpt lat="45.062130" lon="4.413990">
						<ele>847</ele>
						<time>2026-09-03T21:33:38Z</time>
					</trkpt>
					<trkpt lat="45.062040" lon="4.413810">
						<ele>850</ele>
						<time>2026-09-03T21:33:46Z</time>
					</trkpt>
					<trkpt lat="45.062000" lon="4.413700">
						<ele>850</ele>
						<time>2026-09-03T21:33:51Z</time>
					</trkpt>
					<trkpt lat="45.062010" lon="4.413580">
						<ele>850</ele>
						<time>2026-09-03T21:33:55Z</time>
					</trkpt>
					<trkpt lat="45.062090" lon="4.413480">
						<ele>849</ele>
						<time>2026-09-03T21:34:00Z</time>
					</trkpt>
					<trkpt lat="45.062170" lon="4.413460">
						<ele>849</ele>
						<time>2026-09-03T21:34:04Z</time>
					</trkpt>
					<trkpt lat="45.062280" lon="4.413510">
						<ele>847</ele>
						<time>2026-09-03T21:34:10Z</time>
					</trkpt>
					<trkpt lat="45.062590" lon="4.413740">
						<ele>843</ele>
						<time>2026-09-03T21:34:27Z</time>
					</trkpt>
					<trkpt lat="45.062860" lon="4.413850">
						<ele>845</ele>
						<time>2026-09-03T21:34:42Z</time>
					</trkpt>
					<trkpt lat="45.063000" lon="4.413940">
						<ele>846</ele>
						<time>2026-09-03T21:34:49Z</time>
					</trkpt>
					<trkpt lat="45.063800" lon="4.414630">
						<ele>843</ele>
						<time>2026-09-03T21:35:36Z</time>
					</trkpt>
					<trkpt lat="45.064270" lon="4.415200">
						<ele>836</ele>
						<time>2026-09-03T21:36:07Z</time>
					</trkpt>
					<trkpt lat="45.064390" lon="4.415320">
						<ele>833</ele>
						<time>2026-09-03T21:36:14Z</time>
					</trkpt>
					<trkpt lat="45.064510" lon="4.415400">
						<ele>832</ele>
						<time>2026-09-03T21:36:21Z</time>
					</trkpt>
					<trkpt lat="45.064610" lon="4.415370">
						<ele>833</ele>
						<time>2026-09-03T21:36:26Z</time>
					</trkpt>
					<trkpt lat="45.064720" lon="4.415180">
						<ele>837</ele>
						<time>2026-09-03T21:36:35Z</time>
					</trkpt>
					<trkpt lat="45.065270" lon="4.413420">
						<ele>862</ele>
						<time>2026-09-03T21:37:43Z</time>
					</trkpt>
					<trkpt lat="45.065390" lon="4.413080">
						<ele>866</ele>
						<time>2026-09-03T21:37:56Z</time>
					</trkpt>
					<trkpt lat="45.065520" lon="4.412860">
						<ele>869</ele>
						<time>2026-09-03T21:38:06Z</time>
					</trkpt>
					<trkpt lat="45.065570" lon="4.412810">
						<ele>870</ele>
						<time>2026-09-03T21:38:10Z</time>
					</trkpt>
					<trkpt lat="45.065670" lon="4.412780">
						<ele>869</ele>
						<time>2026-09-03T21:38:15Z</time>
					</trkpt>
					<trkpt lat="45.065760" lon="4.412810">
						<ele>868</ele>
						<time>2026-09-03T21:38:19Z</time>
					</trkpt>
					<trkpt lat="45.065970" lon="4.413250">
						<ele>861</ele>
						<time>2026-09-03T21:38:38Z</time>
					</trkpt>
					<trkpt lat="45.066040" lon="4.413300">
						<ele>862</ele>
						<time>2026-09-03T21:38:42Z</time>
					</trkpt>
					<trkpt lat="45.066240" lon="4.413350">
						<ele>867</ele>
						<time>2026-09-03T21:38:52Z</time>
					</trkpt>
					<trkpt lat="45.066340" lon="4.413410">
						<ele>870</ele>
						<time>2026-09-03T21:38:58Z</time>
					</trkpt>
					<trkpt lat="45.066390" lon="4.413470">
						<ele>871</ele>
						<time>2026-09-03T21:39:01Z</time>
					</trkpt>
					<trkpt lat="45.066420" lon="4.413570">
						<ele>870</ele>
						<time>2026-09-03T21:39:05Z</time>
					</trkpt>
					<trkpt lat="45.066460" lon="4.414470">
						<ele>860</ele>
						<time>2026-09-03T21:39:37Z</time>
					</trkpt>
					<trkpt lat="45.066540" lon="4.414780">
						<ele>859</ele>
						<time>2026-09-03T21:39:48Z</time>
					</trkpt>
					<trkpt lat="45.066630" lon="4.414820">
						<ele>861</ele>
						<time>2026-09-03T21:39:53Z</time>
					</trkpt>
					<trkpt lat="45.066740" lon="4.414830">
						<ele>865</ele>
						<time>2026-09-03T21:39:58Z</time>
					</trkpt>
					<trkpt lat="45.066840" lon="4.414790">
						<ele>869</ele>
						<time>2026-09-03T21:40:04Z</time>
					</trkpt>
					<trkpt lat="45.066930" lon="4.414790">
						<ele>873</ele>
						<time>2026-09-03T21:40:08Z</time>
					</trkpt>
					<trkpt lat="45.067020" lon="4.414840">
						<ele>875</ele>
						<time>2026-09-03T21:40:13Z</time>
					</trkpt>
					<trkpt lat="45.067100" lon="4.414950">
						<ele>876</ele>
						<time>2026-09-03T21:40:19Z</time>
					</trkpt>
					<trkpt lat="45.067220" lon="4.415200">
						<ele>875</ele>
						<time>2026-09-03T21:40:29Z</time>
					</trkpt>
					<trkpt lat="45.067340" lon="4.415310">
						<ele>876</ele>
						<time>2026-09-03T21:40:36Z</time>
					</trkpt>
					<trkpt lat="45.067510" lon="4.415410">
						<ele>879</ele>
						<time>2026-09-03T21:40:46Z</time>
					</trkpt>
					<trkpt lat="45.067730" lon="4.415750">
						<ele>876</ele>
						<time>2026-09-03T21:41:02Z</time>
					</trkpt>
					<trkpt lat="45.067850" lon="4.415820">
						<ele>877</ele>
						<time>2026-09-03T21:41:08Z</time>
					</trkpt>
					<trkpt lat="45.068030" lon="4.415840">
						<ele>882</ele>
						<time>2026-09-03T21:41:17Z</time>
					</trkpt>
					<trkpt lat="45.068120" lon="4.415900">
						<ele>884</ele>
						<time>2026-09-03T21:41:22Z</time>
					</trkpt>
					<trkpt lat="45.068440" lon="4.416280">
						<ele>888</ele>
						<time>2026-09-03T21:41:43Z</time>
					</trkpt>
					<trkpt lat="45.068430" lon="4.416680">
						<ele>880</ele>
						<time>2026-09-03T21:41:57Z</time>
					</trkpt>
					<trkpt lat="45.068450" lon="4.416860">
						<ele>878</ele>
						<time>2026-09-03T21:42:04Z</time>
					</trkpt>
					<trkpt lat="45.068490" lon="4.417030">
						<ele>878</ele>
						<time>2026-09-03T21:42:10Z</time>
					</trkpt>
					<trkpt lat="45.068550" lon="4.417140">
						<ele>879</ele>
						<time>2026-09-03T21:42:15Z</time>
					</trkpt>
					<trkpt lat="45.069150" lon="4.417680">
						<ele>897</ele>
						<time>2026-09-03T21:42:51Z</time>
					</trkpt>
					<trkpt lat="45.069260" lon="4.417980">
						<ele>898</ele>
						<time>2026-09-03T21:43:03Z</time>
					</trkpt>
					<trkpt lat="45.069320" lon="4.418290">
						<ele>897</ele>
						<time>2026-09-03T21:43:14Z</time>
					</trkpt>
					<trkpt lat="45.069290" lon="4.418440">
						<ele>895</ele>
						<time>2026-09-03T21:43:20Z</time>
					</trkpt>
					<trkpt lat="45.069140" lon="4.418720">
						<ele>888</ele>
						<time>2026-09-03T21:43:32Z</time>
					</trkpt>
					<trkpt lat="45.069100" lon="4.419050">
						<ele>886</ele>
						<time>2026-09-03T21:43:44Z</time>
					</trkpt>
					<trkpt lat="45.069480" lon="4.420150">
						<ele>893</ele>
						<time>2026-09-03T21:44:27Z</time>
					</trkpt>
					<trkpt lat="45.069530" lon="4.420430">
						<ele>894</ele>
						<time>2026-09-03T21:44:37Z</time>
					</trkpt>
					<trkpt lat="45.069560" lon="4.420730">
						<ele>893</ele>
						<time>2026-09-03T21:44:48Z</time>
					</trkpt>
					<trkpt lat="45.069510" lon="4.421150">
						<ele>891</ele>
						<time>2026-09-03T21:45:03Z</time>
					</trkpt>
					<trkpt lat="45.069510" lon="4.421390">
						<ele>891</ele>
						<time>2026-09-03T21:45:12Z</time>
					</trkpt>
					<trkpt lat="45.069600" lon="4.421700">
						<ele>893</ele>
						<time>2026-09-03T21:45:23Z</time>
					</trkpt>
					<trkpt lat="45.069750" lon="4.421980">
						<ele>895</ele>
						<time>2026-09-03T21:45:36Z</time>
					</trkpt>
					<trkpt lat="45.069930" lon="4.422230">
						<ele>898</ele>
						<time>2026-09-03T21:45:48Z</time>
					</trkpt>
					<trkpt lat="45.070220" lon="4.422460">
						<ele>900</ele>
						<time>2026-09-03T21:46:05Z</time>
					</trkpt>
					<trkpt lat="45.070370" lon="4.422450">
						<ele>901</ele>
						<time>2026-09-03T21:46:13Z</time>
					</trkpt>
					<trkpt lat="45.070460" lon="4.422400">
						<ele>903</ele>
						<time>2026-09-03T21:46:17Z</time>
					</trkpt>
					<trkpt lat="45.070560" lon="4.422340">
						<ele>904</ele>
						<time>2026-09-03T21:46:23Z</time>
					</trkpt>
					<trkpt lat="45.070640" lon="4.422220">
						<ele>906</ele>
						<time>2026-09-03T21:46:29Z</time>
					</trkpt>
					<trkpt lat="45.070630" lon="4.421730">
						<ele>909</ele>
						<time>2026-09-03T21:46:46Z</time>
					</trkpt>
					<trkpt lat="45.070550" lon="4.421110">
						<ele>909</ele>
						<time>2026-09-03T21:47:08Z</time>
					</trkpt>
					<trkpt lat="45.070600" lon="4.420930">
						<ele>909</ele>
						<time>2026-09-03T21:47:15Z</time>
					</trkpt>
					<trkpt lat="45.070610" lon="4.420360">
						<ele>910</ele>
						<time>2026-09-03T21:47:35Z</time>
					</trkpt>
					<trkpt lat="45.070700" lon="4.420010">
						<ele>910</ele>
						<time>2026-09-03T21:47:48Z</time>
					</trkpt>
					<trkpt lat="45.070800" lon="4.419860">
						<ele>912</ele>
						<time>2026-09-03T21:47:56Z</time>
					</trkpt>
					<trkpt lat="45.071070" lon="4.419650">
						<ele>909</ele>
						<time>2026-09-03T21:48:11Z</time>
					</trkpt>
					<trkpt lat="45.071660" lon="4.419310">
						<ele>898</ele>
						<time>2026-09-03T21:48:43Z</time>
					</trkpt>
					<trkpt lat="45.071940" lon="4.418820">
						<ele>896</ele>
						<time>2026-09-03T21:49:05Z</time>
					</trkpt>
					<trkpt lat="45.072490" lon="4.417570">
						<ele>886</ele>
						<time>2026-09-03T21:49:57Z</time>
					</trkpt>
					<trkpt lat="45.072660" lon="4.416970">
						<ele>882</ele>
						<time>2026-09-03T21:50:20Z</time>
					</trkpt>
					<trkpt lat="45.072760" lon="4.416430">
						<ele>880</ele>
						<time>2026-09-03T21:50:40Z</time>
					</trkpt>
					<trkpt lat="45.073190" lon="4.414710">
						<ele>879</ele>
						<time>2026-09-03T21:51:44Z</time>
					</trkpt>
					<trkpt lat="45.073330" lon="4.414500">
						<ele>879</ele>
						<time>2026-09-03T21:51:55Z</time>
					</trkpt>
					<trkpt lat="45.073460" lon="4.414490">
						<ele>882</ele>
						<time>2026-09-03T21:52:01Z</time>
					</trkpt>
					<trkpt lat="45.073570" lon="4.414600">
						<ele>883</ele>
						<time>2026-09-03T21:52:08Z</time>
					</trkpt>
					<trkpt lat="45.073700" lon="4.415010">
						<ele>879</ele>
						<time>2026-09-03T21:52:24Z</time>
					</trkpt>
					<trkpt lat="45.073780" lon="4.415910">
						<ele>870</ele>
						<time>2026-09-03T21:52:56Z</time>
					</trkpt>
					<trkpt lat="45.073820" lon="4.416130">
						<ele>870</ele>
						<time>2026-09-03T21:53:04Z</time>
					</trkpt>
					<trkpt lat="45.074040" lon="4.416630">
						<ele>871</ele>
						<time>2026-09-03T21:53:25Z</time>
					</trkpt>
					<trkpt lat="45.074110" lon="4.416930">
						<ele>869</ele>
						<time>2026-09-03T21:53:36Z</time>
					</trkpt>
					<trkpt lat="45.074290" lon="4.418050">
						<ele>860</ele>
						<time>2026-09-03T21:54:16Z</time>
					</trkpt>
					<trkpt lat="45.074300" lon="4.418280">
						<ele>857</ele>
						<time>2026-09-03T21:54:25Z</time>
					</trkpt>
					<trkpt lat="45.074240" lon="4.418530">
						<ele>852</ele>
						<time>2026-09-03T21:54:34Z</time>
					</trkpt>
					<trkpt lat="45.074280" lon="4.418770">
						<ele>851</ele>
						<time>2026-09-03T21:54:43Z</time>
					</trkpt>
					<trkpt lat="45.074550" lon="4.419150">
						<ele>856</ele>
						<time>2026-09-03T21:55:02Z</time>
					</trkpt>
					<trkpt lat="45.074530" lon="4.419300">
						<ele>855</ele>
						<time>2026-09-03T21:55:07Z</time>
					</trkpt>
					<trkpt lat="45.074360" lon="4.419520">
						<ele>848</ele>
						<time>2026-09-03T21:55:19Z</time>
					</trkpt>
					<trkpt lat="45.074330" lon="4.419630">
						<ele>847</ele>
						<time>2026-09-03T21:55:23Z</time>
					</trkpt>
					<trkpt lat="45.074310" lon="4.419740">
						<ele>846</ele>
						<time>2026-09-03T21:55:27Z</time>
					</trkpt>
					<trkpt lat="45.074310" lon="4.420090">
						<ele>844</ele>
						<time>2026-09-03T21:55:39Z</time>
					</trkpt>
					<trkpt lat="45.074430" lon="4.420670">
						<ele>844</ele>
						<time>2026-09-03T21:56:00Z</time>
					</trkpt>
					<trkpt lat="45.074500" lon="4.420890">
						<ele>846</ele>
						<time>2026-09-03T21:56:09Z</time>
					</trkpt>
					<trkpt lat="45.074730" lon="4.421130">
						<ele>855</ele>
						<time>2026-09-03T21:56:23Z</time>
					</trkpt>
					<trkpt lat="45.074750" lon="4.421190">
						<ele>855</ele>
						<time>2026-09-03T21:56:26Z</time>
					</trkpt>
					<trkpt lat="45.074730" lon="4.421380">
						<ele>854</ele>
						<time>2026-09-03T21:56:32Z</time>
					</trkpt>
					<trkpt lat="45.074580" lon="4.421620">
						<ele>848</ele>
						<time>2026-09-03T21:56:44Z</time>
					</trkpt>
					<trkpt lat="45.074530" lon="4.421750">
						<ele>846</ele>
						<time>2026-09-03T21:56:49Z</time>
					</trkpt>
					<trkpt lat="45.074500" lon="4.422160">
						<ele>845</ele>
						<time>2026-09-03T21:57:04Z</time>
					</trkpt>
					<trkpt lat="45.074590" lon="4.422730">
						<ele>848</ele>
						<time>2026-09-03T21:57:24Z</time>
					</trkpt>
					<trkpt lat="45.074630" lon="4.423700">
						<ele>841</ele>
						<time>2026-09-03T21:57:59Z</time>
					</trkpt>
					<trkpt lat="45.074710" lon="4.424020">
						<ele>841</ele>
						<time>2026-09-03T21:58:11Z</time>
					</trkpt>
					<trkpt lat="45.074920" lon="4.424390">
						<ele>847</ele>
						<time>2026-09-03T21:58:27Z</time>
					</trkpt>
					<trkpt lat="45.074950" lon="4.424510">
						<ele>848</ele>
						<time>2026-09-03T21:58:32Z</time>
					</trkpt>
					<trkpt lat="45.074940" lon="4.424600">
						<ele>847</ele>
						<time>2026-09-03T21:58:35Z</time>
					</trkpt>
					<trkpt lat="45.074910" lon="4.424710">
						<ele>844</ele>
						<time>2026-09-03T21:58:39Z</time>
					</trkpt>
					<trkpt lat="45.074780" lon="4.424900">
						<ele>836</ele>
						<time>2026-09-03T21:58:49Z</time>
					</trkpt>
					<trkpt lat="45.074730" lon="4.425150">
						<ele>833</ele>
						<time>2026-09-03T21:58:58Z</time>
					</trkpt>
					<trkpt lat="45.074720" lon="4.425660">
						<ele>835</ele>
						<time>2026-09-03T21:59:16Z</time>
					</trkpt>
					<trkpt lat="45.074570" lon="4.425980">
						<ele>829</ele>
						<time>2026-09-03T21:59:29Z</time>
					</trkpt>
					<trkpt lat="45.074310" lon="4.426930">
						<ele>825</ele>
						<time>2026-09-03T22:00:05Z</time>
					</trkpt>
					<trkpt lat="45.074160" lon="4.427310">
						<ele>824</ele>
						<time>2026-09-03T22:00:21Z</time>
					</trkpt>
					<trkpt lat="45.073970" lon="4.427690">
						<ele>821</ele>
						<time>2026-09-03T22:00:37Z</time>
					</trkpt>
					<trkpt lat="45.073630" lon="4.428210">
						<ele>816</ele>
						<time>2026-09-03T22:01:02Z</time>
					</trkpt>
					<trkpt lat="45.073390" lon="4.428490">
						<ele>812</ele>
						<time>2026-09-03T22:01:18Z</time>
					</trkpt>
					<trkpt lat="45.073150" lon="4.428590">
						<ele>806</ele>
						<time>2026-09-03T22:01:30Z</time>
					</trkpt>
					<trkpt lat="45.072920" lon="4.428760">
						<ele>802</ele>
						<time>2026-09-03T22:01:43Z</time>
					</trkpt>
					<trkpt lat="45.072610" lon="4.429210">
						<ele>800</ele>
						<time>2026-09-03T22:02:05Z</time>
					</trkpt>
					<trkpt lat="45.072060" lon="4.429830">
						<ele>792</ele>
						<time>2026-09-03T22:02:41Z</time>
					</trkpt>
					<trkpt lat="45.071900" lon="4.430150">
						<ele>789</ele>
						<time>2026-09-03T22:02:55Z</time>
					</trkpt>
					<trkpt lat="45.071720" lon="4.430800">
						<ele>787</ele>
						<time>2026-09-03T22:03:19Z</time>
					</trkpt>
					<trkpt lat="45.071880" lon="4.431260">
						<ele>791</ele>
						<time>2026-09-03T22:03:37Z</time>
					</trkpt>
					<trkpt lat="45.072150" lon="4.431610">
						<ele>797</ele>
						<time>2026-09-03T22:03:56Z</time>
					</trkpt>
					<trkpt lat="45.072260" lon="4.431690">
						<ele>799</ele>
						<time>2026-09-03T22:04:02Z</time>
					</trkpt>
					<trkpt lat="45.072470" lon="4.431740">
						<ele>805</ele>
						<time>2026-09-03T22:04:12Z</time>
					</trkpt>
					<trkpt lat="45.072830" lon="4.432120">
						<ele>795</ele>
						<time>2026-09-03T22:04:35Z</time>
					</trkpt>
					<trkpt lat="45.073110" lon="4.432100">
						<ele>799</ele>
						<time>2026-09-03T22:04:49Z</time>
					</trkpt>
					<trkpt lat="45.074320" lon="4.431870">
						<ele>795</ele>
						<time>2026-09-03T22:05:50Z</time>
					</trkpt>
					<trkpt lat="45.074630" lon="4.431720">
						<ele>796</ele>
						<time>2026-09-03T22:06:06Z</time>
					</trkpt>
					<trkpt lat="45.074700" lon="4.431660">
						<ele>797</ele>
						<time>2026-09-03T22:06:11Z</time>
					</trkpt>
					<trkpt lat="45.075020" lon="4.431490">
						<ele>799</ele>
						<time>2026-09-03T22:06:28Z</time>
					</trkpt>
					<trkpt lat="45.075440" lon="4.431190">
						<ele>800</ele>
						<time>2026-09-03T22:06:51Z</time>
					</trkpt>
					<trkpt lat="45.075540" lon="4.431070">
						<ele>800</ele>
						<time>2026-09-03T22:06:58Z</time>
					</trkpt>
					<trkpt lat="45.075830" lon="4.430460">
						<ele>807</ele>
						<time>2026-09-03T22:07:24Z</time>
					</trkpt>
					<trkpt lat="45.075970" lon="4.430230">
						<ele>809</ele>
						<time>2026-09-03T22:07:34Z</time>
					</trkpt>
					<trkpt lat="45.076450" lon="4.429820">
						<ele>805</ele>
						<time>2026-09-03T22:08:03Z</time>
					</trkpt>
					<trkpt lat="45.076590" lon="4.429760">
						<ele>803</ele>
						<time>2026-09-03T22:08:10Z</time>
					</trkpt>
					<trkpt lat="45.076760" lon="4.429780">
						<ele>800</ele>
						<time>2026-09-03T22:08:18Z</time>
					</trkpt>
					<trkpt lat="45.076790" lon="4.429860">
						<ele>798</ele>
						<time>2026-09-03T22:08:22Z</time>
					</trkpt>
					<trkpt lat="45.076770" lon="4.429900">
						<ele>797</ele>
						<time>2026-09-03T22:08:23Z</time>
					</trkpt>
					<trkpt lat="45.076640" lon="4.429990">
						<ele>793</ele>
						<time>2026-09-03T22:08:31Z</time>
					</trkpt>
					<trkpt lat="45.076530" lon="4.430230">
						<ele>794</ele>
						<time>2026-09-03T22:08:41Z</time>
					</trkpt>
					<trkpt lat="45.076550" lon="4.430510">
						<ele>791</ele>
						<time>2026-09-03T22:08:51Z</time>
					</trkpt>
					<trkpt lat="45.076610" lon="4.430790">
						<ele>787</ele>
						<time>2026-09-03T22:09:01Z</time>
					</trkpt>
					<trkpt lat="45.076630" lon="4.431010">
						<ele>787</ele>
						<time>2026-09-03T22:09:09Z</time>
					</trkpt>
					<trkpt lat="45.076600" lon="4.431470">
						<ele>789</ele>
						<time>2026-09-03T22:09:25Z</time>
					</trkpt>
					<trkpt lat="45.076450" lon="4.432060">
						<ele>790</ele>
						<time>2026-09-03T22:09:47Z</time>
					</trkpt>
					<trkpt lat="45.076410" lon="4.432500">
						<ele>790</ele>
						<time>2026-09-03T22:10:03Z</time>
					</trkpt>
					<trkpt lat="45.076440" lon="4.432830">
						<ele>793</ele>
						<time>2026-09-03T22:10:15Z</time>
					</trkpt>
					<trkpt lat="45.076330" lon="4.433180">
						<ele>793</ele>
						<time>2026-09-03T22:10:28Z</time>
					</trkpt>
					<trkpt lat="45.076190" lon="4.433290">
						<ele>791</ele>
						<time>2026-09-03T22:10:36Z</time>
					</trkpt>
					<trkpt lat="45.076190" lon="4.433350">
						<ele>792</ele>
						<time>2026-09-03T22:10:38Z</time>
					</trkpt>
					<trkpt lat="45.076220" lon="4.433400">
						<ele>794</ele>
						<time>2026-09-03T22:10:41Z</time>
					</trkpt>
					<trkpt lat="45.076460" lon="4.433450">
						<ele>800</ele>
						<time>2026-09-03T22:10:53Z</time>
					</trkpt>
					<trkpt lat="45.076520" lon="4.433510">
						<ele>802</ele>
						<time>2026-09-03T22:10:57Z</time>
					</trkpt>
					<trkpt lat="45.076550" lon="4.433590">
						<ele>805</ele>
						<time>2026-09-03T22:11:00Z</time>
					</trkpt>
					<trkpt lat="45.076540" lon="4.433660">
						<ele>807</ele>
						<time>2026-09-03T22:11:02Z</time>
					</trkpt>
					<trkpt lat="45.076510" lon="4.433720">
						<ele>808</ele>
						<time>2026-09-03T22:11:05Z</time>
					</trkpt>
					<trkpt lat="45.076290" lon="4.433690">
						<ele>803</ele>
						<time>2026-09-03T22:11:16Z</time>
					</trkpt>
					<trkpt lat="45.076180" lon="4.433710">
						<ele>801</ele>
						<time>2026-09-03T22:11:21Z</time>
					</trkpt>
					<trkpt lat="45.076030" lon="4.433780">
						<ele>801</ele>
						<time>2026-09-03T22:11:29Z</time>
					</trkpt>
					<trkpt lat="45.075230" lon="4.434560">
						<ele>806</ele>
						<time>2026-09-03T22:12:18Z</time>
					</trkpt>
					<trkpt lat="45.074750" lon="4.435220">
						<ele>811</ele>
						<time>2026-09-03T22:12:51Z</time>
					</trkpt>
					<trkpt lat="45.074590" lon="4.435590">
						<ele>813</ele>
						<time>2026-09-03T22:13:07Z</time>
					</trkpt>
					<trkpt lat="45.074490" lon="4.435930">
						<ele>815</ele>
						<time>2026-09-03T22:13:20Z</time>
					</trkpt>
					<trkpt lat="45.074430" lon="4.436260">
						<ele>816</ele>
						<time>2026-09-03T22:13:32Z</time>
					</trkpt>
					<trkpt lat="45.074460" lon="4.436320">
						<ele>818</ele>
						<time>2026-09-03T22:13:34Z</time>
					</trkpt>
					<trkpt lat="45.074430" lon="4.436430">
						<ele>818</ele>
						<time>2026-09-03T22:13:39Z</time>
					</trkpt>
					<trkpt lat="45.074480" lon="4.436900">
						<ele>822</ele>
						<time>2026-09-03T22:13:55Z</time>
					</trkpt>
					<trkpt lat="45.074680" lon="4.437760">
						<ele>829</ele>
						<time>2026-09-03T22:14:27Z</time>
					</trkpt>
					<trkpt lat="45.074990" lon="4.438250">
						<ele>838</ele>
						<time>2026-09-03T22:14:51Z</time>
					</trkpt>
					<trkpt lat="45.074990" lon="4.438610">
						<ele>839</ele>
						<time>2026-09-03T22:15:03Z</time>
					</trkpt>
					<trkpt lat="45.075050" lon="4.438870">
						<ele>843</ele>
						<time>2026-09-03T22:15:13Z</time>
					</trkpt>
					<trkpt lat="45.075300" lon="4.439200">
						<ele>854</ele>
						<time>2026-09-03T22:15:30Z</time>
					</trkpt>
					<trkpt lat="45.075340" lon="4.439290">
						<ele>857</ele>
						<time>2026-09-03T22:15:34Z</time>
					</trkpt>
					<trkpt lat="45.075340" lon="4.439350">
						<ele>858</ele>
						<time>2026-09-03T22:15:36Z</time>
					</trkpt>
					<trkpt lat="45.075320" lon="4.439400">
						<ele>858</ele>
						<time>2026-09-03T22:15:38Z</time>
					</trkpt>
					<trkpt lat="45.075090" lon="4.439610">
						<ele>854</ele>
						<time>2026-09-03T22:15:52Z</time>
					</trkpt>
					<trkpt lat="45.074690" lon="4.440110">
						<ele>856</ele>
						<time>2026-09-03T22:16:18Z</time>
					</trkpt>
					<trkpt lat="45.074440" lon="4.440570">
						<ele>860</ele>
						<time>2026-09-03T22:16:39Z</time>
					</trkpt>
					<trkpt lat="45.074290" lon="4.440930">
						<ele>863</ele>
						<time>2026-09-03T22:16:54Z</time>
					</trkpt>
					<trkpt lat="45.074270" lon="4.441090">
						<ele>864</ele>
						<time>2026-09-03T22:16:59Z</time>
					</trkpt>
					<trkpt lat="45.074410" lon="4.441790">
						<ele>868</ele>
						<time>2026-09-03T22:17:25Z</time>
					</trkpt>
					<trkpt lat="45.074660" lon="4.441990">
						<ele>867</ele>
						<time>2026-09-03T22:17:40Z</time>
					</trkpt>
					<trkpt lat="45.075560" lon="4.442550">
						<ele>871</ele>
						<time>2026-09-03T22:18:29Z</time>
					</trkpt>
					<trkpt lat="45.076230" lon="4.443490">
						<ele>855</ele>
						<time>2026-09-03T22:19:16Z</time>
					</trkpt>
					<trkpt lat="45.076660" lon="4.443770">
						<ele>854</ele>
						<time>2026-09-03T22:19:40Z</time>
					</trkpt>
					<trkpt lat="45.076910" lon="4.443980">
						<ele>848</ele>
						<time>2026-09-03T22:19:54Z</time>
					</trkpt>
					<trkpt lat="45.077040" lon="4.443990">
						<ele>849</ele>
						<time>2026-09-03T22:20:01Z</time>
					</trkpt>
					<trkpt lat="45.077750" lon="4.443850">
						<ele>863</ele>
						<time>2026-09-03T22:20:37Z</time>
					</trkpt>
					<trkpt lat="45.077880" lon="4.443930">
						<ele>861</ele>
						<time>2026-09-03T22:20:44Z</time>
					</trkpt>
					<trkpt lat="45.078120" lon="4.443890">
						<ele>865</ele>
						<time>2026-09-03T22:20:56Z</time>
					</trkpt>
					<trkpt lat="45.078200" lon="4.443910">
						<ele>866</ele>
						<time>2026-09-03T22:21:00Z</time>
					</trkpt>
					<trkpt lat="45.078290" lon="4.443950">
						<ele>865</ele>
						<time>2026-09-03T22:21:05Z</time>
					</trkpt>
					<trkpt lat="45.078410" lon="4.444110">
						<ele>863</ele>
						<time>2026-09-03T22:21:13Z</time>
					</trkpt>
					<trkpt lat="45.078410" lon="4.444280">
						<ele>862</ele>
						<time>2026-09-03T22:21:19Z</time>
					</trkpt>
					<trkpt lat="45.078010" lon="4.444980">
						<ele>852</ele>
						<time>2026-09-03T22:21:51Z</time>
					</trkpt>
					<trkpt lat="45.077890" lon="4.445270">
						<ele>854</ele>
						<time>2026-09-03T22:22:02Z</time>
					</trkpt>
					<trkpt lat="45.077330" lon="4.447030">
						<ele>861</ele>
						<time>2026-09-03T22:23:11Z</time>
					</trkpt>
					<trkpt lat="45.077090" lon="4.448510">
						<ele>868</ele>
						<time>2026-09-03T22:24:04Z</time>
					</trkpt>
					<trkpt lat="45.077070" lon="4.448970">
						<ele>873</ele>
						<time>2026-09-03T22:24:21Z</time>
					</trkpt>
					<trkpt lat="45.076950" lon="4.449830">
						<ele>873</ele>
						<time>2026-09-03T22:24:52Z</time>
					</trkpt>
					<trkpt lat="45.076980" lon="4.450250">
						<ele>874</ele>
						<time>2026-09-03T22:25:07Z</time>
					</trkpt>
					<trkpt lat="45.077250" lon="4.451730">
						<ele>887</ele>
						<time>2026-09-03T22:26:01Z</time>
					</trkpt>
					<trkpt lat="45.077160" lon="4.453540">
						<ele>892</ele>
						<time>2026-09-03T22:27:05Z</time>
					</trkpt>
					<trkpt lat="45.077170" lon="4.454270">
						<ele>893</ele>
						<time>2026-09-03T22:27:30Z</time>
					</trkpt>
					<trkpt lat="45.077130" lon="4.454530">
						<ele>893</ele>
						<time>2026-09-03T22:27:40Z</time>
					</trkpt>
					<trkpt lat="45.077200" lon="4.455000">
						<ele>896</ele>
						<time>2026-09-03T22:27:57Z</time>
					</trkpt>
					<trkpt lat="45.077150" lon="4.455550">
						<ele>895</ele>
						<time>2026-09-03T22:28:16Z</time>
					</trkpt>
					<trkpt lat="45.077160" lon="4.455910">
						<ele>895</ele>
						<time>2026-09-03T22:28:29Z</time>
					</trkpt>
					<trkpt lat="45.077260" lon="4.456360">
						<ele>892</ele>
						<time>2026-09-03T22:28:46Z</time>
					</trkpt>
					<trkpt lat="45.077590" lon="4.456610">
						<ele>888</ele>
						<time>2026-09-03T22:29:05Z</time>
					</trkpt>
					<trkpt lat="45.077730" lon="4.456660">
						<ele>887</ele>
						<time>2026-09-03T22:29:12Z</time>
					</trkpt>
					<trkpt lat="45.077950" lon="4.456540">
						<ele>890</ele>
						<time>2026-09-03T22:29:24Z</time>
					</trkpt>
					<trkpt lat="45.078130" lon="4.456490">
						<ele>891</ele>
						<time>2026-09-03T22:29:33Z</time>
					</trkpt>
					<trkpt lat="45.078260" lon="4.456520">
						<ele>891</ele>
						<time>2026-09-03T22:29:39Z</time>
					</trkpt>
					<trkpt lat="45.078320" lon="4.456580">
						<ele>889</ele>
						<time>2026-09-03T22:29:43Z</time>
					</trkpt>
					<trkpt lat="45.078600" lon="4.457150">
						<ele>885</ele>
						<time>2026-09-03T22:30:08Z</time>
					</trkpt>
					<trkpt lat="45.078900" lon="4.457320">
						<ele>889</ele>
						<time>2026-09-03T22:30:24Z</time>
					</trkpt>
					<trkpt lat="45.078950" lon="4.457450">
						<ele>887</ele>
						<time>2026-09-03T22:30:29Z</time>
					</trkpt>
					<trkpt lat="45.078950" lon="4.457540">
						<ele>885</ele>
						<time>2026-09-03T22:30:32Z</time>
					</trkpt>
					<trkpt lat="45.079150" lon="4.458380">
						<ele>863</ele>
						<time>2026-09-03T22:31:04Z</time>
					</trkpt>
					<trkpt lat="45.079590" lon="4.459360">
						<ele>846</ele>
						<time>2026-09-03T22:31:45Z</time>
					</trkpt>
					<trkpt lat="45.079790" lon="4.459690">
						<ele>840</ele>
						<time>2026-09-03T22:32:00Z</time>
					</trkpt>
					<trkpt lat="45.079940" lon="4.459790">
						<ele>840</ele>
						<time>2026-09-03T22:32:08Z</time>
					</trkpt>
					<trkpt lat="45.080270" lon="4.459840">
						<ele>846</ele>
						<time>2026-09-03T22:32:25Z</time>
					</trkpt>
					<trkpt lat="45.080330" lon="4.459890">
						<ele>846</ele>
						<time>2026-09-03T22:32:28Z</time>
					</trkpt>
					<trkpt lat="45.080350" lon="4.460010">
						<ele>843</ele>
						<time>2026-09-03T22:32:33Z</time>
					</trkpt>
					<trkpt lat="45.080180" lon="4.460210">
						<ele>835</ele>
						<time>2026-09-03T22:32:44Z</time>
					</trkpt>
					<trkpt lat="45.080140" lon="4.460330">
						<ele>831</ele>
						<time>2026-09-03T22:32:48Z</time>
					</trkpt>
					<trkpt lat="45.080100" lon="4.460730">
						<ele>822</ele>
						<time>2026-09-03T22:33:03Z</time>
					</trkpt>
					<trkpt lat="45.080100" lon="4.461160">
						<ele>815</ele>
						<time>2026-09-03T22:33:18Z</time>
					</trkpt>
					<trkpt lat="45.080410" lon="4.462590">
						<ele>798</ele>
						<time>2026-09-03T22:34:11Z</time>
					</trkpt>
					<trkpt lat="45.080470" lon="4.462760">
						<ele>796</ele>
						<time>2026-09-03T22:34:17Z</time>
					</trkpt>
					<trkpt lat="45.080790" lon="4.463460">
						<ele>788</ele>
						<time>2026-09-03T22:34:47Z</time>
					</trkpt>
					<trkpt lat="45.080850" lon="4.463500">
						<ele>788</ele>
						<time>2026-09-03T22:34:50Z</time>
					</trkpt>
					<trkpt lat="45.081050" lon="4.463550">
						<ele>793</ele>
						<time>2026-09-03T22:35:00Z</time>
					</trkpt>
					<trkpt lat="45.081130" lon="4.463600">
						<ele>794</ele>
						<time>2026-09-03T22:35:05Z</time>
					</trkpt>
					<trkpt lat="45.081160" lon="4.464380">
						<ele>778</ele>
						<time>2026-09-03T22:35:32Z</time>
					</trkpt>
					<trkpt lat="45.081100" lon="4.464760">
						<ele>771</ele>
						<time>2026-09-03T22:35:46Z</time>
					</trkpt>
					<trkpt lat="45.081050" lon="4.465350">
						<ele>760</ele>
						<time>2026-09-03T22:36:07Z</time>
					</trkpt>
					<trkpt lat="45.081110" lon="4.465710">
						<ele>756</ele>
						<time>2026-09-03T22:36:20Z</time>
					</trkpt>
					<trkpt lat="45.081260" lon="4.465970">
						<ele>757</ele>
						<time>2026-09-03T22:36:32Z</time>
					</trkpt>
					<trkpt lat="45.081330" lon="4.466040">
						<ele>758</ele>
						<time>2026-09-03T22:36:36Z</time>
					</trkpt>
					<trkpt lat="45.081390" lon="4.466210">
						<ele>756</ele>
						<time>2026-09-03T22:36:43Z</time>
					</trkpt>
					<trkpt lat="45.081400" lon="4.466600">
						<ele>749</ele>
						<time>2026-09-03T22:36:57Z</time>
					</trkpt>
					<trkpt lat="45.081600" lon="4.466900">
						<ele>748</ele>
						<time>2026-09-03T22:37:11Z</time>
					</trkpt>
					<trkpt lat="45.081630" lon="4.467130">
						<ele>744</ele>
						<time>2026-09-03T22:37:20Z</time>
					</trkpt>
					<trkpt lat="45.081720" lon="4.467410">
						<ele>741</ele>
						<time>2026-09-03T22:37:31Z</time>
					</trkpt>
					<trkpt lat="45.081740" lon="4.467920">
						<ele>733</ele>
						<time>2026-09-03T22:37:49Z</time>
					</trkpt>
					<trkpt lat="45.081820" lon="4.468250">
						<ele>731</ele>
						<time>2026-09-03T22:38:01Z</time>
					</trkpt>
					<trkpt lat="45.082640" lon="4.470110">
						<ele>716</ele>
						<time>2026-09-03T22:39:18Z</time>
					</trkpt>
					<trkpt lat="45.082930" lon="4.471040">
						<ele>708</ele>
						<time>2026-09-03T22:39:54Z</time>
					</trkpt>
					<trkpt lat="45.083210" lon="4.472600">
						<ele>694</ele>
						<time>2026-09-03T22:40:51Z</time>
					</trkpt>
					<trkpt lat="45.083270" lon="4.473380">
						<ele>683</ele>
						<time>2026-09-03T22:41:19Z</time>
					</trkpt>
					<trkpt lat="45.083340" lon="4.473740">
						<ele>680</ele>
						<time>2026-09-03T22:41:32Z</time>
					</trkpt>
					<trkpt lat="45.083380" lon="4.475480">
						<ele>663</ele>
						<time>2026-09-03T22:42:34Z</time>
					</trkpt>
					<trkpt lat="45.083450" lon="4.475860">
						<ele>662</ele>
						<time>2026-09-03T22:42:48Z</time>
					</trkpt>
					<trkpt lat="45.083950" lon="4.477170">
						<ele>661</ele>
						<time>2026-09-03T22:43:40Z</time>
					</trkpt>
					<trkpt lat="45.084140" lon="4.478910">
						<ele>635</ele>
						<time>2026-09-03T22:44:42Z</time>
					</trkpt>
					<trkpt lat="45.084090" lon="4.478870">
						<ele>636</ele>
						<time>2026-09-03T22:44:45Z</time>
					</trkpt>
					<trkpt lat="45.084010" lon="4.478850">
						<ele>636</ele>
						<time>2026-09-03T22:44:49Z</time>
					</trkpt>
					<trkpt lat="45.083800" lon="4.478870">
						<ele>637</ele>
						<time>2026-09-03T22:45:00Z</time>
					</trkpt>
					<trkpt lat="45.083650" lon="4.478990">
						<ele>637</ele>
						<time>2026-09-03T22:45:08Z</time>
					</trkpt>
					<trkpt lat="45.083590" lon="4.479090">
						<ele>636</ele>
						<time>2026-09-03T22:45:13Z</time>
					</trkpt>
					<trkpt lat="45.083550" lon="4.479250">
						<ele>636</ele>
						<time>2026-09-03T22:45:19Z</time>
					</trkpt>
					<trkpt lat="45.083480" lon="4.479820">
						<ele>631</ele>
						<time>2026-09-03T22:45:40Z</time>
					</trkpt>
					<trkpt lat="45.083110" lon="4.480620">
						<ele>632</ele>
						<time>2026-09-03T22:46:13Z</time>
					</trkpt>
					<trkpt lat="45.083200" lon="4.480570">
						<ele>630</ele>
						<time>2026-09-03T22:46:18Z</time>
					</trkpt>
					<trkpt lat="45.083470" lon="4.480270">
						<ele>628</ele>
						<time>2026-09-03T22:46:35Z</time>
					</trkpt>
					<trkpt lat="45.083940" lon="4.480070">
						<ele>626</ele>
						<time>2026-09-03T22:47:00Z</time>
					</trkpt>
					<trkpt lat="45.084020" lon="4.480070">
						<ele>626</ele>
						<time>2026-09-03T22:47:04Z</time>
					</trkpt>
					<trkpt lat="45.084110" lon="4.480150">
						<ele>625</ele>
						<time>2026-09-03T22:47:09Z</time>
					</trkpt>
					<trkpt lat="45.084150" lon="4.480470">
						<ele>622</ele>
						<time>2026-09-03T22:47:21Z</time>
					</trkpt>
					<trkpt lat="45.084130" lon="4.480770">
						<ele>621</ele>
						<time>2026-09-03T22:47:31Z</time>
					</trkpt>
					<trkpt lat="45.084050" lon="4.480960">
						<ele>620</ele>
						<time>2026-09-03T22:47:39Z</time>
					</trkpt>
					<trkpt lat="45.083950" lon="4.481100">
						<ele>621</ele>
						<time>2026-09-03T22:47:46Z</time>
					</trkpt>
					<trkpt lat="45.083850" lon="4.481350">
						<ele>620</ele>
						<time>2026-09-03T22:47:56Z</time>
					</trkpt>
					<trkpt lat="45.083870" lon="4.481470">
						<ele>619</ele>
						<time>2026-09-03T22:48:01Z</time>
					</trkpt>
					<trkpt lat="45.083910" lon="4.481550">
						<ele>619</ele>
						<time>2026-09-03T22:48:04Z</time>
					</trkpt>
					<trkpt lat="45.084160" lon="4.481870">
						<ele>620</ele>
						<time>2026-09-03T22:48:21Z</time>
					</trkpt>
					<trkpt lat="45.084220" lon="4.482010">
						<ele>623</ele>
						<time>2026-09-03T22:48:27Z</time>
					</trkpt>
					<trkpt lat="45.084140" lon="4.482320">
						<ele>625</ele>
						<time>2026-09-03T22:48:38Z</time>
					</trkpt>
					<trkpt lat="45.083980" lon="4.482710">
						<ele>628</ele>
						<time>2026-09-03T22:48:54Z</time>
					</trkpt>
					<trkpt lat="45.083790" lon="4.483330">
						<ele>631</ele>
						<time>2026-09-03T22:49:18Z</time>
					</trkpt>
					<trkpt lat="45.083740" lon="4.483710">
						<ele>633</ele>
						<time>2026-09-03T22:49:32Z</time>
					</trkpt>
					<trkpt lat="45.083690" lon="4.483900">
						<ele>633</ele>
						<time>2026-09-03T22:49:39Z</time>
					</trkpt>
					<trkpt lat="45.083520" lon="4.484300">
						<ele>630</ele>
						<time>2026-09-03T22:49:56Z</time>
					</trkpt>
					<trkpt lat="45.083170" lon="4.484930">
						<ele>624</ele>
						<time>2026-09-03T22:50:24Z</time>
					</trkpt>
					<trkpt lat="45.083070" lon="4.485370">
						<ele>624</ele>
						<time>2026-09-03T22:50:40Z</time>
					</trkpt>
					<trkpt lat="45.082930" lon="4.486920">
						<ele>625</ele>
						<time>2026-09-03T22:51:35Z</time>
					</trkpt>
					<trkpt lat="45.083000" lon="4.487550">
						<ele>628</ele>
						<time>2026-09-03T22:51:58Z</time>
					</trkpt>
					<trkpt lat="45.082980" lon="4.487610">
						<ele>628</ele>
						<time>2026-09-03T22:52:00Z</time>
					</trkpt>
					<trkpt lat="45.082670" lon="4.487960">
						<ele>623</ele>
						<time>2026-09-03T22:52:20Z</time>
					</trkpt>
					<trkpt lat="45.082620" lon="4.488100">
						<ele>623</ele>
						<time>2026-09-03T22:52:26Z</time>
					</trkpt>
					<trkpt lat="45.082600" lon="4.488250">
						<ele>623</ele>
						<time>2026-09-03T22:52:31Z</time>
					</trkpt>
					<trkpt lat="45.082620" lon="4.488390">
						<ele>625</ele>
						<time>2026-09-03T22:52:36Z</time>
					</trkpt>
					<trkpt lat="45.082530" lon="4.488750">
						<ele>624</ele>
						<time>2026-09-03T22:52:50Z</time>
					</trkpt>
					<trkpt lat="45.082580" lon="4.489200">
						<ele>628</ele>
						<time>2026-09-03T22:53:06Z</time>
					</trkpt>
					<trkpt lat="45.082570" lon="4.489540">
						<ele>630</ele>
						<time>2026-09-03T22:53:18Z</time>
					</trkpt>
					<trkpt lat="45.082490" lon="4.490150">
						<ele>630</ele>
						<time>2026-09-03T22:53:40Z</time>
					</trkpt>
					<trkpt lat="45.082540" lon="4.490330">
						<ele>631</ele>
						<time>2026-09-03T22:53:47Z</time>
					</trkpt>
					<trkpt lat="45.082600" lon="4.490390">
						<ele>632</ele>
						<time>2026-09-03T22:53:50Z</time>
					</trkpt>
					<trkpt lat="45.083040" lon="4.490560">
						<ele>642</ele>
						<time>2026-09-03T22:54:13Z</time>
					</trkpt>
					<trkpt lat="45.083320" lon="4.490720">
						<ele>647</ele>
						<time>2026-09-03T22:54:28Z</time>
					</trkpt>
					<trkpt lat="45.083640" lon="4.490950">
						<ele>659</ele>
						<time>2026-09-03T22:54:46Z</time>
					</trkpt>
					<trkpt lat="45.083800" lon="4.491200">
						<ele>663</ele>
						<time>2026-09-03T22:54:58Z</time>
					</trkpt>
					<trkpt lat="45.083900" lon="4.491490">
						<ele>664</ele>
						<time>2026-09-03T22:55:09Z</time>
					</trkpt>
					<trkpt lat="45.084360" lon="4.492010">
						<ele>675</ele>
						<time>2026-09-03T22:55:39Z</time>
					</trkpt>
					<trkpt lat="45.084520" lon="4.492420">
						<ele>674</ele>
						<time>2026-09-03T22:55:55Z</time>
					</trkpt>
					<trkpt lat="45.084550" lon="4.492590">
						<ele>673</ele>
						<time>2026-09-03T22:56:02Z</time>
					</trkpt>
					<trkpt lat="45.084600" lon="4.492710">
						<ele>673</ele>
						<time>2026-09-03T22:56:07Z</time>
					</trkpt>
					<trkpt lat="45.084780" lon="4.492890">
						<ele>678</ele>
						<time>2026-09-03T22:56:18Z</time>
					</trkpt>
					<trkpt lat="45.084970" lon="4.492950">
						<ele>685</ele>
						<time>2026-09-03T22:56:27Z</time>
					</trkpt>
					<trkpt lat="45.085010" lon="4.492990">
						<ele>686</ele>
						<time>2026-09-03T22:56:30Z</time>
					</trkpt>
					<trkpt lat="45.085100" lon="4.493370">
						<ele>684</ele>
						<time>2026-09-03T22:56:44Z</time>
					</trkpt>
					<trkpt lat="45.085230" lon="4.493660">
						<ele>687</ele>
						<time>2026-09-03T22:56:56Z</time>
					</trkpt>
					<trkpt lat="45.085250" lon="4.493830">
						<ele>686</ele>
						<time>2026-09-03T22:57:02Z</time>
					</trkpt>
					<trkpt lat="45.085240" lon="4.494110">
						<ele>683</ele>
						<time>2026-09-03T22:57:12Z</time>
					</trkpt>
					<trkpt lat="45.085290" lon="4.494360">
						<ele>683</ele>
						<time>2026-09-03T22:57:21Z</time>
					</trkpt>
					<trkpt lat="45.085400" lon="4.494600">
						<ele>684</ele>
						<time>2026-09-03T22:57:31Z</time>
					</trkpt>
					<trkpt lat="45.085610" lon="4.494890">
						<ele>685</ele>
						<time>2026-09-03T22:57:46Z</time>
					</trkpt>
					<trkpt lat="45.085810" lon="4.495100">
						<ele>687</ele>
						<time>2026-09-03T22:57:59Z</time>
					</trkpt>
					<trkpt lat="45.086110" lon="4.495280">
						<ele>691</ele>
						<time>2026-09-03T22:58:15Z</time>
					</trkpt>
					<trkpt lat="45.086860" lon="4.495560">
						<ele>699</ele>
						<time>2026-09-03T22:58:54Z</time>
					</trkpt>
					<trkpt lat="45.086920" lon="4.496010">
						<ele>695</ele>
						<time>2026-09-03T22:59:10Z</time>
					</trkpt>
					<trkpt lat="45.086990" lon="4.496210">
						<ele>697</ele>
						<time>2026-09-03T22:59:18Z</time>
					</trkpt>
					<trkpt lat="45.086970" lon="4.496270">
						<ele>697</ele>
						<time>2026-09-03T22:59:20Z</time>
					</trkpt>
					<trkpt lat="45.086870" lon="4.496290">
						<ele>696</ele>
						<time>2026-09-03T22:59:25Z</time>
					</trkpt>
					<trkpt lat="45.086410" lon="4.496210">
						<ele>690</ele>
						<time>2026-09-03T22:59:48Z</time>
					</trkpt>
					<trkpt lat="45.086250" lon="4.496250">
						<ele>687</ele>
						<time>2026-09-03T22:59:56Z</time>
					</trkpt>
					<trkpt lat="45.086130" lon="4.496320">
						<ele>686</ele>
						<time>2026-09-03T23:00:03Z</time>
					</trkpt>
					<trkpt lat="45.086020" lon="4.496430">
						<ele>686</ele>
						<time>2026-09-03T23:00:10Z</time>
					</trkpt>
					<trkpt lat="45.085940" lon="4.496690">
						<ele>688</ele>
						<time>2026-09-03T23:00:20Z</time>
					</trkpt>
					<trkpt lat="45.085900" lon="4.496760">
						<ele>689</ele>
						<time>2026-09-03T23:00:23Z</time>
					</trkpt>
					<trkpt lat="45.085850" lon="4.496790">
						<ele>689</ele>
						<time>2026-09-03T23:00:26Z</time>
					</trkpt>
					<trkpt lat="45.085470" lon="4.496690">
						<ele>686</ele>
						<time>2026-09-03T23:00:45Z</time>
					</trkpt>
					<trkpt lat="45.085320" lon="4.496730">
						<ele>686</ele>
						<time>2026-09-03T23:00:53Z</time>
					</trkpt>
					<trkpt lat="45.084980" lon="4.496930">
						<ele>689</ele>
						<time>2026-09-03T23:01:11Z</time>
					</trkpt>
					<trkpt lat="45.084910" lon="4.497060">
						<ele>690</ele>
						<time>2026-09-03T23:01:17Z</time>
					</trkpt>
					<trkpt lat="45.084830" lon="4.497300">
						<ele>693</ele>
						<time>2026-09-03T23:01:26Z</time>
					</trkpt>
					<trkpt lat="45.084760" lon="4.497840">
						<ele>695</ele>
						<time>2026-09-03T23:01:46Z</time>
					</trkpt>
					<trkpt lat="45.084770" lon="4.498060">
						<ele>695</ele>
						<time>2026-09-03T23:01:53Z</time>
					</trkpt>
					<trkpt lat="45.084900" lon="4.498370">
						<ele>699</ele>
						<time>2026-09-03T23:02:06Z</time>
					</trkpt>
					<trkpt lat="45.085020" lon="4.498540">
						<ele>700</ele>
						<time>2026-09-03T23:02:15Z</time>
					</trkpt>
					<trkpt lat="45.085160" lon="4.498580">
						<ele>701</ele>
						<time>2026-09-03T23:02:22Z</time>
					</trkpt>
					<trkpt lat="45.085330" lon="4.498540">
						<ele>701</ele>
						<time>2026-09-03T23:02:30Z</time>
					</trkpt>
					<trkpt lat="45.085760" lon="4.498360">
						<ele>704</ele>
						<time>2026-09-03T23:02:53Z</time>
					</trkpt>
					<trkpt lat="45.086080" lon="4.498310">
						<ele>705</ele>
						<time>2026-09-03T23:03:09Z</time>
					</trkpt>
					<trkpt lat="45.086200" lon="4.498250">
						<ele>706</ele>
						<time>2026-09-03T23:03:15Z</time>
					</trkpt>
					<trkpt lat="45.086470" lon="4.498200">
						<ele>708</ele>
						<time>2026-09-03T23:03:29Z</time>
					</trkpt>
					<trkpt lat="45.086670" lon="4.498220">
						<ele>709</ele>
						<time>2026-09-03T23:03:39Z</time>
					</trkpt>
					<trkpt lat="45.087230" lon="4.498410">
						<ele>717</ele>
						<time>2026-09-03T23:04:08Z</time>
					</trkpt>
					<trkpt lat="45.087330" lon="4.498480">
						<ele>718</ele>
						<time>2026-09-03T23:04:13Z</time>
					</trkpt>
					<trkpt lat="45.087730" lon="4.499190">
						<ele>722</ele>
						<time>2026-09-03T23:04:45Z</time>
					</trkpt>
					<trkpt lat="45.088120" lon="4.500030">
						<ele>725</ele>
						<time>2026-09-03T23:05:21Z</time>
					</trkpt>
					<trkpt lat="45.088470" lon="4.500630">
						<ele>725</ele>
						<time>2026-09-03T23:05:48Z</time>
					</trkpt>
					<trkpt lat="45.088650" lon="4.500870">
						<ele>726</ele>
						<time>2026-09-03T23:06:01Z</time>
					</trkpt>
					<trkpt lat="45.088810" lon="4.501000">
						<ele>729</ele>
						<time>2026-09-03T23:06:10Z</time>
					</trkpt>
					<trkpt lat="45.089030" lon="4.501730">
						<ele>730</ele>
						<time>2026-09-03T23:06:38Z</time>
					</trkpt>
					<trkpt lat="45.089380" lon="4.502630">
						<ele>738</ele>
						<time>2026-09-03T23:07:14Z</time>
					</trkpt>
					<trkpt lat="45.089640" lon="4.503030">
						<ele>745</ele>
						<time>2026-09-03T23:07:34Z</time>
					</trkpt>
					<trkpt lat="45.089830" lon="4.503630">
						<ele>748</ele>
						<time>2026-09-03T23:07:57Z</time>
					</trkpt>
					<trkpt lat="45.090010" lon="4.504020">
						<ele>748</ele>
						<time>2026-09-03T23:08:13Z</time>
					</trkpt>
					<trkpt lat="45.090220" lon="4.504300">
						<ele>754</ele>
						<time>2026-09-03T23:08:28Z</time>
					</trkpt>
					<trkpt lat="45.090330" lon="4.504370">
						<ele>757</ele>
						<time>2026-09-03T23:08:34Z</time>
					</trkpt>
					<trkpt lat="45.090400" lon="4.504380">
						<ele>759</ele>
						<time>2026-09-03T23:08:37Z</time>
					</trkpt>
					<trkpt lat="45.090460" lon="4.504820">
						<ele>760</ele>
						<time>2026-09-03T23:08:53Z</time>
					</trkpt>
					<trkpt lat="45.090790" lon="4.505520">
						<ele>759</ele>
						<time>2026-09-03T23:09:23Z</time>
					</trkpt>
					<trkpt lat="45.091060" lon="4.505820">
						<ele>763</ele>
						<time>2026-09-03T23:09:40Z</time>
					</trkpt>
					<trkpt lat="45.091250" lon="4.505970">
						<ele>764</ele>
						<time>2026-09-03T23:09:51Z</time>
					</trkpt>
					<trkpt lat="45.091350" lon="4.506030">
						<ele>766</ele>
						<time>2026-09-03T23:09:56Z</time>
					</trkpt>
					<trkpt lat="45.091680" lon="4.506140">
						<ele>772</ele>
						<time>2026-09-03T23:10:13Z</time>
					</trkpt>
					<trkpt lat="45.091970" lon="4.506370">
						<ele>774</ele>
						<time>2026-09-03T23:10:30Z</time>
					</trkpt>
					<trkpt lat="45.092040" lon="4.506380">
						<ele>775</ele>
						<time>2026-09-03T23:10:33Z</time>
					</trkpt>
					<trkpt lat="45.092250" lon="4.506340">
						<ele>782</ele>
						<time>2026-09-03T23:10:44Z</time>
					</trkpt>
					<trkpt lat="45.092330" lon="4.506340">
						<ele>785</ele>
						<time>2026-09-03T23:10:48Z</time>
					</trkpt>
					<trkpt lat="45.092350" lon="4.506370">
						<ele>785</ele>
						<time>2026-09-03T23:10:49Z</time>
					</trkpt>
					<trkpt lat="45.092340" lon="4.506480">
						<ele>783</ele>
						<time>2026-09-03T23:10:53Z</time>
					</trkpt>
					<trkpt lat="45.092250" lon="4.506610">
						<ele>777</ele>
						<time>2026-09-03T23:11:00Z</time>
					</trkpt>
					<trkpt lat="45.092080" lon="4.507070">
						<ele>770</ele>
						<time>2026-09-03T23:11:18Z</time>
					</trkpt>
					<trkpt lat="45.092070" lon="4.507680">
						<ele>768</ele>
						<time>2026-09-03T23:11:40Z</time>
					</trkpt>
					<trkpt lat="45.092090" lon="4.507800">
						<ele>768</ele>
						<time>2026-09-03T23:11:44Z</time>
					</trkpt>
					<trkpt lat="45.092180" lon="4.508050">
						<ele>769</ele>
						<time>2026-09-03T23:11:54Z</time>
					</trkpt>
					<trkpt lat="45.092520" lon="4.508570">
						<ele>775</ele>
						<time>2026-09-03T23:12:19Z</time>
					</trkpt>
					<trkpt lat="45.093270" lon="4.509490">
						<ele>776</ele>
						<time>2026-09-03T23:13:09Z</time>
					</trkpt>
					<trkpt lat="45.093620" lon="4.509780">
						<ele>775</ele>
						<time>2026-09-03T23:13:29Z</time>
					</trkpt>
					<trkpt lat="45.093970" lon="4.509930">
						<ele>777</ele>
						<time>2026-09-03T23:13:47Z</time>
					</trkpt>
					<trkpt lat="45.094240" lon="4.510010">
						<ele>781</ele>
						<time>2026-09-03T23:14:01Z</time>
					</trkpt>
					<trkpt lat="45.094270" lon="4.510050">
						<ele>782</ele>
						<time>2026-09-03T23:14:03Z</time>
					</trkpt>
					<trkpt lat="45.094300" lon="4.510100">
						<ele>783</ele>
						<time>2026-09-03T23:14:05Z</time>
					</trkpt>
					<trkpt lat="45.094350" lon="4.510760">
						<ele>776</ele>
						<time>2026-09-03T23:14:29Z</time>
					</trkpt>
					<trkpt lat="45.094410" lon="4.510990">
						<ele>775</ele>
						<time>2026-09-03T23:14:38Z</time>
					</trkpt>
					<trkpt lat="45.094650" lon="4.511610">
						<ele>774</ele>
						<time>2026-09-03T23:15:03Z</time>
					</trkpt>
					<trkpt lat="45.094730" lon="4.511720">
						<ele>774</ele>
						<time>2026-09-03T23:15:08Z</time>
					</trkpt>
					<trkpt lat="45.094840" lon="4.511780">
						<ele>776</ele>
						<time>2026-09-03T23:15:14Z</time>
					</trkpt>
					<trkpt lat="45.095120" lon="4.511790">
						<ele>783</ele>
						<time>2026-09-03T23:15:28Z</time>
					</trkpt>
					<trkpt lat="45.095410" lon="4.511700">
						<ele>788</ele>
						<time>2026-09-03T23:15:43Z</time>
					</trkpt>
					<trkpt lat="45.096220" lon="4.511570">
						<ele>793</ele>
						<time>2026-09-03T23:16:24Z</time>
					</trkpt>
					<trkpt lat="45.096630" lon="4.511450">
						<ele>793</ele>
						<time>2026-09-03T23:16:45Z</time>
					</trkpt>
					<trkpt lat="45.096800" lon="4.511310">
						<ele>798</ele>
						<time>2026-09-03T23:16:54Z</time>
					</trkpt>
					<trkpt lat="45.096860" lon="4.511290">
						<ele>799</ele>
						<time>2026-09-03T23:16:58Z</time>
					</trkpt>
					<trkpt lat="45.097280" lon="4.511440">
						<ele>792</ele>
						<time>2026-09-03T23:17:19Z</time>
					</trkpt>
					<trkpt lat="45.097470" lon="4.511440">
						<ele>791</ele>
						<time>2026-09-03T23:17:29Z</time>
					</trkpt>
					<trkpt lat="45.097570" lon="4.511470">
						<ele>792</ele>
						<time>2026-09-03T23:17:34Z</time>
					</trkpt>
					<trkpt lat="45.097760" lon="4.511450">
						<ele>798</ele>
						<time>2026-09-03T23:17:43Z</time>
					</trkpt>
					<trkpt lat="45.098050" lon="4.511190">
						<ele>810</ele>
						<time>2026-09-03T23:18:01Z</time>
					</trkpt>
					<trkpt lat="45.098110" lon="4.511160">
						<ele>812</ele>
						<time>2026-09-03T23:18:04Z</time>
					</trkpt>
					<trkpt lat="45.098180" lon="4.511160">
						<ele>813</ele>
						<time>2026-09-03T23:18:07Z</time>
					</trkpt>
					<trkpt lat="45.098220" lon="4.511210">
						<ele>813</ele>
						<time>2026-09-03T23:18:10Z</time>
					</trkpt>
					<trkpt lat="45.098220" lon="4.511310">
						<ele>811</ele>
						<time>2026-09-03T23:18:13Z</time>
					</trkpt>
					<trkpt lat="45.098080" lon="4.511970">
						<ele>799</ele>
						<time>2026-09-03T23:18:38Z</time>
					</trkpt>
					<trkpt lat="45.098000" lon="4.512150">
						<ele>795</ele>
						<time>2026-09-03T23:18:45Z</time>
					</trkpt>
					<trkpt lat="45.097750" lon="4.512530">
						<ele>782</ele>
						<time>2026-09-03T23:19:04Z</time>
					</trkpt>
					<trkpt lat="45.097720" lon="4.512660">
						<ele>780</ele>
						<time>2026-09-03T23:19:09Z</time>
					</trkpt>
					<trkpt lat="45.097830" lon="4.513550">
						<ele>779</ele>
						<time>2026-09-03T23:19:40Z</time>
					</trkpt>
					<trkpt lat="45.097890" lon="4.513640">
						<ele>781</ele>
						<time>2026-09-03T23:19:45Z</time>
					</trkpt>
					<trkpt lat="45.097960" lon="4.513670">
						<ele>782</ele>
						<time>2026-09-03T23:19:48Z</time>
					</trkpt>
					<trkpt lat="45.098040" lon="4.513660">
						<ele>784</ele>
						<time>2026-09-03T23:19:52Z</time>
					</trkpt>
					<trkpt lat="45.098170" lon="4.513600">
						<ele>788</ele>
						<time>2026-09-03T23:19:59Z</time>
					</trkpt>
					<trkpt lat="45.098390" lon="4.513630">
						<ele>794</ele>
						<time>2026-09-03T23:20:10Z</time>
					</trkpt>
					<trkpt lat="45.098520" lon="4.513620">
						<ele>797</ele>
						<time>2026-09-03T23:20:17Z</time>
					</trkpt>
					<trkpt lat="45.098960" lon="4.513990">
						<ele>801</ele>
						<time>2026-09-03T23:20:43Z</time>
					</trkpt>
					<trkpt lat="45.099140" lon="4.514080">
						<ele>803</ele>
						<time>2026-09-03T23:20:52Z</time>
					</trkpt>
					<trkpt lat="45.099160" lon="4.514140">
						<ele>802</ele>
						<time>2026-09-03T23:20:54Z</time>
					</trkpt>
					<trkpt lat="45.099130" lon="4.514260">
						<ele>803</ele>
						<time>2026-09-03T23:20:59Z</time>
					</trkpt>
					<trkpt lat="45.098930" lon="4.514460">
						<ele>804</ele>
						<time>2026-09-03T23:21:11Z</time>
					</trkpt>
					<trkpt lat="45.098650" lon="4.514610">
						<ele>801</ele>
						<time>2026-09-03T23:21:26Z</time>
					</trkpt>
					<trkpt lat="45.098380" lon="4.514950">
						<ele>803</ele>
						<time>2026-09-03T23:21:44Z</time>
					</trkpt>
					<trkpt lat="45.098030" lon="4.515250">
						<ele>807</ele>
						<time>2026-09-03T23:22:05Z</time>
					</trkpt>
					<trkpt lat="45.097230" lon="4.515540">
						<ele>805</ele>
						<time>2026-09-03T23:22:46Z</time>
					</trkpt>
					<trkpt lat="45.097170" lon="4.515620">
						<ele>806</ele>
						<time>2026-09-03T23:22:50Z</time>
					</trkpt>
					<trkpt lat="45.097130" lon="4.515740">
						<ele>808</ele>
						<time>2026-09-03T23:22:55Z</time>
					</trkpt>
					<trkpt lat="45.097080" lon="4.516020">
						<ele>811</ele>
						<time>2026-09-03T23:23:05Z</time>
					</trkpt>
					<trkpt lat="45.097150" lon="4.516580">
						<ele>821</ele>
						<time>2026-09-03T23:23:25Z</time>
					</trkpt>
					<trkpt lat="45.097190" lon="4.516500">
						<ele>821</ele>
						<time>2026-09-03T23:23:29Z</time>
					</trkpt>
					<trkpt lat="45.097260" lon="4.516450">
						<ele>823</ele>
						<time>2026-09-03T23:23:32Z</time>
					</trkpt>
					<trkpt lat="45.097420" lon="4.516410">
						<ele>827</ele>
						<time>2026-09-03T23:23:41Z</time>
					</trkpt>
					<trkpt lat="45.097550" lon="4.516420">
						<ele>831</ele>
						<time>2026-09-03T23:23:47Z</time>
					</trkpt>
					<trkpt lat="45.097720" lon="4.516390">
						<ele>833</ele>
						<time>2026-09-03T23:23:56Z</time>
					</trkpt>
					<trkpt lat="45.097820" lon="4.516330">
						<ele>834</ele>
						<time>2026-09-03T23:24:01Z</time>
					</trkpt>
					<trkpt lat="45.098080" lon="4.516320">
						<ele>838</ele>
						<time>2026-09-03T23:24:14Z</time>
					</trkpt>
					<trkpt lat="45.098900" lon="4.516000">
						<ele>847</ele>
						<time>2026-09-03T23:24:57Z</time>
					</trkpt>
					<trkpt lat="45.099610" lon="4.515670">
						<ele>850</ele>
						<time>2026-09-03T23:25:34Z</time>
					</trkpt>
					<trkpt lat="45.099830" lon="4.515650">
						<ele>852</ele>
						<time>2026-09-03T23:25:45Z</time>
					</trkpt>
					<trkpt lat="45.100200" lon="4.515700">
						<ele>852</ele>
						<time>2026-09-03T23:26:04Z</time>
					</trkpt>
					<trkpt lat="45.100370" lon="4.515760">
						<ele>851</ele>
						<time>2026-09-03T23:26:13Z</time>
					</trkpt>
					<trkpt lat="45.100480" lon="4.515870">
						<ele>853</ele>
						<time>2026-09-03T23:26:19Z</time>
					</trkpt>
					<trkpt lat="45.100780" lon="4.516450">
						<ele>872</ele>
						<time>2026-09-03T23:26:45Z</time>
					</trkpt>
					<trkpt lat="45.100880" lon="4.516600">
						<ele>877</ele>
						<time>2026-09-03T23:26:52Z</time>
					</trkpt>
					<trkpt lat="45.101360" lon="4.516990">
						<ele>883</ele>
						<time>2026-09-03T23:27:20Z</time>
					</trkpt>
					<trkpt lat="45.101500" lon="4.517060">
						<ele>884</ele>
						<time>2026-09-03T23:27:27Z</time>
					</trkpt>
					<trkpt lat="45.101860" lon="4.517080">
						<ele>885</ele>
						<time>2026-09-03T23:27:45Z</time>
					</trkpt>
					<trkpt lat="45.102120" lon="4.517040">
						<ele>888</ele>
						<time>2026-09-03T23:27:58Z</time>
					</trkpt>
					<trkpt lat="45.102410" lon="4.516960">
						<ele>889</ele>
						<time>2026-09-03T23:28:13Z</time>
					</trkpt>
					<trkpt lat="45.102520" lon="4.516890">
						<ele>889</ele>
						<time>2026-09-03T23:28:19Z</time>
					</trkpt>
					<trkpt lat="45.102820" lon="4.516610">
						<ele>890</ele>
						<time>2026-09-03T23:28:37Z</time>
					</trkpt>
					<trkpt lat="45.103060" lon="4.516300">
						<ele>890</ele>
						<time>2026-09-03T23:28:53Z</time>
					</trkpt>
					<trkpt lat="45.103580" lon="4.515730">
						<ele>889</ele>
						<time>2026-09-03T23:29:26Z</time>
					</trkpt>
					<trkpt lat="45.103750" lon="4.515670">
						<ele>892</ele>
						<time>2026-09-03T23:29:35Z</time>
					</trkpt>
					<trkpt lat="45.103130" lon="4.517150">
						<ele>918</ele>
						<time>2026-09-03T23:30:36Z</time>
					</trkpt>
					<trkpt lat="45.102910" lon="4.517560">
						<ele>925</ele>
						<time>2026-09-03T23:30:54Z</time>
					</trkpt>
					<trkpt lat="45.102760" lon="4.517770">
						<ele>927</ele>
						<time>2026-09-03T23:31:04Z</time>
					</trkpt>
					<trkpt lat="45.102590" lon="4.517950">
						<ele>929</ele>
						<time>2026-09-03T23:31:15Z</time>
					</trkpt>
					<trkpt lat="45.102320" lon="4.518140">
						<ele>930</ele>
						<time>2026-09-03T23:31:30Z</time>
					</trkpt>
					<trkpt lat="45.101900" lon="4.518300">
						<ele>929</ele>
						<time>2026-09-03T23:31:52Z</time>
					</trkpt>
					<trkpt lat="45.101700" lon="4.518430">
						<ele>927</ele>
						<time>2026-09-03T23:32:03Z</time>
					</trkpt>
					<trkpt lat="45.101570" lon="4.518660">
						<ele>928</ele>
						<time>2026-09-03T23:32:13Z</time>
					</trkpt>
					<trkpt lat="45.101540" lon="4.518760">
						<ele>928</ele>
						<time>2026-09-03T23:32:17Z</time>
					</trkpt>
					<trkpt lat="45.101530" lon="4.518960">
						<ele>930</ele>
						<time>2026-09-03T23:32:24Z</time>
					</trkpt>
					<trkpt lat="45.101570" lon="4.519220">
						<ele>932</ele>
						<time>2026-09-03T23:32:34Z</time>
					</trkpt>
					<trkpt lat="45.101650" lon="4.519430">
						<ele>932</ele>
						<time>2026-09-03T23:32:42Z</time>
					</trkpt>
					<trkpt lat="45.102020" lon="4.519960">
						<ele>939</ele>
						<time>2026-09-03T23:33:08Z</time>
					</trkpt>
					<trkpt lat="45.102280" lon="4.520250">
						<ele>943</ele>
						<time>2026-09-03T23:33:25Z</time>
					</trkpt>
					<trkpt lat="45.102520" lon="4.520620">
						<ele>946</ele>
						<time>2026-09-03T23:33:43Z</time>
					</trkpt>
					<trkpt lat="45.102680" lon="4.520800">
						<ele>948</ele>
						<time>2026-09-03T23:33:53Z</time>
					</trkpt>
					<trkpt lat="45.102930" lon="4.521000">
						<ele>951</ele>
						<time>2026-09-03T23:34:07Z</time>
					</trkpt>
					<trkpt lat="45.103190" lon="4.521130">
						<ele>954</ele>
						<time>2026-09-03T23:34:21Z</time>
					</trkpt>
					<trkpt lat="45.103670" lon="4.521050">
						<ele>966</ele>
						<time>2026-09-03T23:34:45Z</time>
					</trkpt>
					<trkpt lat="45.103830" lon="4.521110">
						<ele>968</ele>
						<time>2026-09-03T23:34:54Z</time>
					</trkpt>
					<trkpt lat="45.103940" lon="4.521210">
						<ele>969</ele>
						<time>2026-09-03T23:35:00Z</time>
					</trkpt>
					<trkpt lat="45.104150" lon="4.521600">
						<ele>970</ele>
						<time>2026-09-03T23:35:17Z</time>
					</trkpt>
					<trkpt lat="45.104450" lon="4.522040">
						<ele>978</ele>
						<time>2026-09-03T23:35:39Z</time>
					</trkpt>
					<trkpt lat="45.104510" lon="4.522420">
						<ele>980</ele>
						<time>2026-09-03T23:35:53Z</time>
					</trkpt>
					<trkpt lat="45.104580" lon="4.522380">
						<ele>983</ele>
						<time>2026-09-03T23:35:57Z</time>
					</trkpt>
					<trkpt lat="45.104670" lon="4.522220">
						<ele>986</ele>
						<time>2026-09-03T23:36:04Z</time>
					</trkpt>
					<trkpt lat="45.104680" lon="4.521950">
						<ele>986</ele>
						<time>2026-09-03T23:36:13Z</time>
					</trkpt>
					<trkpt lat="45.104610" lon="4.521830">
						<ele>983</ele>
						<time>2026-09-03T23:36:19Z</time>
					</trkpt>
					<trkpt lat="45.104630" lon="4.521440">
						<ele>986</ele>
						<time>2026-09-03T23:36:33Z</time>
					</trkpt>
					<trkpt lat="45.104600" lon="4.521310">
						<ele>986</ele>
						<time>2026-09-03T23:36:37Z</time>
					</trkpt>
					<trkpt lat="45.104650" lon="4.520700">
						<ele>991</ele>
						<time>2026-09-03T23:36:59Z</time>
					</trkpt>
					<trkpt lat="45.104700" lon="4.520550">
						<ele>992</ele>
						<time>2026-09-03T23:37:05Z</time>
					</trkpt>
					<trkpt lat="45.104880" lon="4.520340">
						<ele>996</ele>
						<time>2026-09-03T23:37:17Z</time>
					</trkpt>
					<trkpt lat="45.105010" lon="4.520290">
						<ele>998</ele>
						<time>2026-09-03T23:37:23Z</time>
					</trkpt>
					<trkpt lat="45.105280" lon="4.520250">
						<ele>1000</ele>
						<time>2026-09-03T23:37:37Z</time>
					</trkpt>
					<trkpt lat="45.105920" lon="4.520290">
						<ele>1007</ele>
						<time>2026-09-03T23:38:09Z</time>
					</trkpt>
					<trkpt lat="45.106160" lon="4.520320">
						<ele>1010</ele>
						<time>2026-09-03T23:38:21Z</time>
					</trkpt>
					<trkpt lat="45.106460" lon="4.520410">
						<ele>1014</ele>
						<time>2026-09-03T23:38:36Z</time>
					</trkpt>
					<trkpt lat="45.106900" lon="4.520400">
						<ele>1016</ele>
						<time>2026-09-03T23:38:59Z</time>
					</trkpt>
					<trkpt lat="45.107120" lon="4.520430">
						<ele>1018</ele>
						<time>2026-09-03T23:39:10Z</time>
					</trkpt>
					<trkpt lat="45.107220" lon="4.520470">
						<ele>1019</ele>
						<time>2026-09-03T23:39:15Z</time>
					</trkpt>
					<trkpt lat="45.107440" lon="4.520630">
						<ele>1024</ele>
						<time>2026-09-03T23:39:27Z</time>
					</trkpt>
					<trkpt lat="45.107550" lon="4.520830">
						<ele>1027</ele>
						<time>2026-09-03T23:39:36Z</time>
					</trkpt>
					<trkpt lat="45.107890" lon="4.521700">
						<ele>1040</ele>
						<time>2026-09-03T23:40:11Z</time>
					</trkpt>
					<trkpt lat="45.107990" lon="4.521830">
						<ele>1043</ele>
						<time>2026-09-03T23:40:18Z</time>
					</trkpt>
					<trkpt lat="45.108130" lon="4.521940">
						<ele>1044</ele>
						<time>2026-09-03T23:40:26Z</time>
					</trkpt>
					<trkpt lat="45.108280" lon="4.521630">
						<ele>1036</ele>
						<time>2026-09-03T23:40:39Z</time>
					</trkpt>
					<trkpt lat="45.108690" lon="4.521180">
						<ele>1031</ele>
						<time>2026-09-03T23:41:05Z</time>
					</trkpt>
					<trkpt lat="45.109250" lon="4.520830">
						<ele>1032</ele>
						<time>2026-09-03T23:41:36Z</time>
					</trkpt>
					<trkpt lat="45.109650" lon="4.520700">
						<ele>1033</ele>
						<time>2026-09-03T23:41:56Z</time>
					</trkpt>
					<trkpt lat="45.109780" lon="4.520690">
						<ele>1034</ele>
						<time>2026-09-03T23:42:03Z</time>
					</trkpt>
					<trkpt lat="45.110150" lon="4.520580">
						<ele>1035</ele>
						<time>2026-09-03T23:42:22Z</time>
					</trkpt>
					<trkpt lat="45.110450" lon="4.520580">
						<ele>1036</ele>
						<time>2026-09-03T23:42:37Z</time>
					</trkpt>
					<trkpt lat="45.110540" lon="4.520610">
						<ele>1038</ele>
						<time>2026-09-03T23:42:41Z</time>
					</trkpt>
					<trkpt lat="45.110660" lon="4.520700">
						<ele>1041</ele>
						<time>2026-09-03T23:42:48Z</time>
					</trkpt>
					<trkpt lat="45.110820" lon="4.520760">
						<ele>1044</ele>
						<time>2026-09-03T23:42:57Z</time>
					</trkpt>
					<trkpt lat="45.110990" lon="4.520930">
						<ele>1044</ele>
						<time>2026-09-03T23:43:07Z</time>
					</trkpt>
					<trkpt lat="45.111150" lon="4.521170">
						<ele>1046</ele>
						<time>2026-09-03T23:43:19Z</time>
					</trkpt>
					<trkpt lat="45.111320" lon="4.521680">
						<ele>1053</ele>
						<time>2026-09-03T23:43:39Z</time>
					</trkpt>
					<trkpt lat="45.111570" lon="4.522570">
						<ele>1058</ele>
						<time>2026-09-03T23:44:12Z</time>
					</trkpt>
					<trkpt lat="45.111650" lon="4.522750">
						<ele>1057</ele>
						<time>2026-09-03T23:44:20Z</time>
					</trkpt>
					<trkpt lat="45.112250" lon="4.523620">
						<ele>1054</ele>
						<time>2026-09-03T23:45:03Z</time>
					</trkpt>
					<trkpt lat="45.112520" lon="4.524070">
						<ele>1056</ele>
						<time>2026-09-03T23:45:24Z</time>
					</trkpt>
					<trkpt lat="45.112650" lon="4.524200">
						<ele>1056</ele>
						<time>2026-09-03T23:45:32Z</time>
					</trkpt>
					<trkpt lat="45.112790" lon="4.524280">
						<ele>1055</ele>
						<time>2026-09-03T23:45:39Z</time>
					</trkpt>
					<trkpt lat="45.113220" lon="4.524810">
						<ele>1054</ele>
						<time>2026-09-03T23:46:08Z</time>
					</trkpt>
					<trkpt lat="45.113750" lon="4.525150">
						<ele>1049</ele>
						<time>2026-09-03T23:46:37Z</time>
					</trkpt>
					<trkpt lat="45.114030" lon="4.525500">
						<ele>1049</ele>
						<time>2026-09-03T23:46:56Z</time>
					</trkpt>
					<trkpt lat="45.114230" lon="4.525900">
						<ele>1051</ele>
						<time>2026-09-03T23:47:13Z</time>
					</trkpt>
					<trkpt lat="45.114380" lon="4.526410">
						<ele>1055</ele>
						<time>2026-09-03T23:47:32Z</time>
					</trkpt>
					<trkpt lat="45.115150" lon="4.527610">
						<ele>1055</ele>
						<time>2026-09-03T23:48:30Z</time>
					</trkpt>
					<trkpt lat="45.115330" lon="4.527970">
						<ele>1057</ele>
						<time>2026-09-03T23:48:45Z</time>
					</trkpt>
					<trkpt lat="45.115820" lon="4.529290">
						<ele>1065</ele>
						<time>2026-09-03T23:49:38Z</time>
					</trkpt>
					<trkpt lat="45.116080" lon="4.530370">
						<ele>1069</ele>
						<time>2026-09-03T23:50:18Z</time>
					</trkpt>
					<trkpt lat="45.116150" lon="4.530540">
						<ele>1070</ele>
						<time>2026-09-03T23:50:25Z</time>
					</trkpt>
					<trkpt lat="45.116970" lon="4.531950">
						<ele>1074</ele>
						<time>2026-09-03T23:51:30Z</time>
					</trkpt>
					<trkpt lat="45.117630" lon="4.533170">
						<ele>1077</ele>
						<time>2026-09-03T23:52:24Z</time>
					</trkpt>
					<trkpt lat="45.117660" lon="4.533330">
						<ele>1079</ele>
						<time>2026-09-03T23:52:30Z</time>
					</trkpt>
					<trkpt lat="45.118020" lon="4.534400">
						<ele>1085</ele>
						<time>2026-09-03T23:53:12Z</time>
					</trkpt>
					<trkpt lat="45.118250" lon="4.536040">
						<ele>1083</ele>
						<time>2026-09-03T23:54:11Z</time>
					</trkpt>
					<trkpt lat="45.119120" lon="4.535710">
						<ele>1084</ele>
						<time>2026-09-03T23:54:56Z</time>
					</trkpt>
					<trkpt lat="45.119210" lon="4.535760">
						<ele>1084</ele>
						<time>2026-09-03T23:55:01Z</time>
					</trkpt>
					<trkpt lat="45.119440" lon="4.535800">
						<ele>1085</ele>
						<time>2026-09-03T23:55:12Z</time>
					</trkpt>
					<trkpt lat="45.119700" lon="4.535800">
						<ele>1086</ele>
						<time>2026-09-03T23:55:25Z</time>
					</trkpt>
					<trkpt lat="45.120600" lon="4.535490">
						<ele>1092</ele>
						<time>2026-09-03T23:56:12Z</time>
					</trkpt>
					<trkpt lat="45.121320" lon="4.535430">
						<ele>1099</ele>
						<time>2026-09-03T23:56:48Z</time>
					</trkpt>
					<trkpt lat="45.122360" lon="4.535510">
						<ele>1104</ele>
						<time>2026-09-03T23:57:40Z</time>
					</trkpt>
					<trkpt lat="45.122740" lon="4.535490">
						<ele>1104</ele>
						<time>2026-09-03T23:57:59Z</time>
					</trkpt>
					<trkpt lat="45.122930" lon="4.535530">
						<ele>1104</ele>
						<time>2026-09-03T23:58:08Z</time>
					</trkpt>
					<trkpt lat="45.123410" lon="4.535690">
						<ele>1104</ele>
						<time>2026-09-03T23:58:33Z</time>
					</trkpt>
					<trkpt lat="45.123670" lon="4.535710">
						<ele>1104</ele>
						<time>2026-09-03T23:58:46Z</time>
					</trkpt>
					<trkpt lat="45.124200" lon="4.535810">
						<ele>1104</ele>
						<time>2026-09-03T23:59:13Z</time>
					</trkpt>
					<trkpt lat="45.124510" lon="4.535920">
						<ele>1107</ele>
						<time>2026-09-03T23:59:29Z</time>
					</trkpt>
					<trkpt lat="45.124610" lon="4.535900">
						<ele>1108</ele>
						<time>2026-09-03T23:59:34Z</time>
					</trkpt>
					<trkpt lat="45.124810" lon="4.535910">
						<ele>1110</ele>
						<time>2026-09-03T23:59:44Z</time>
					</trkpt>
					<trkpt lat="45.125130" lon="4.535960">
						<ele>1114</ele>
						<time>2026-09-04T00:00:00Z</time>
					</trkpt>
					<trkpt lat="45.125580" lon="4.536110">
						<ele>1120</ele>
						<time>2026-09-04T00:00:23Z</time>
					</trkpt>
					<trkpt lat="45.125810" lon="4.536140">
						<ele>1123</ele>
						<time>2026-09-04T00:00:35Z</time>
					</trkpt>
					<trkpt lat="45.126510" lon="4.536170">
						<ele>1136</ele>
						<time>2026-09-04T00:01:10Z</time>
					</trkpt>
					<trkpt lat="45.126980" lon="4.536140">
						<ele>1144</ele>
						<time>2026-09-04T00:01:33Z</time>
					</trkpt>
					<trkpt lat="45.127270" lon="4.536180">
						<ele>1149</ele>
						<time>2026-09-04T00:01:48Z</time>
					</trkpt>
					<trkpt lat="45.127770" lon="4.535980">
						<ele>1155</ele>
						<time>2026-09-04T00:02:14Z</time>
					</trkpt>
					<trkpt lat="45.128320" lon="4.535660">
						<ele>1163</ele>
						<time>2026-09-04T00:02:44Z</time>
					</trkpt>
					<trkpt lat="45.129040" lon="4.535440">
						<ele>1172</ele>
						<time>2026-09-04T00:03:21Z</time>
					</trkpt>
					<trkpt lat="45.129750" lon="4.535300">
						<ele>1178</ele>
						<time>2026-09-04T00:03:56Z</time>
					</trkpt>
					<trkpt lat="45.130050" lon="4.535390">
						<ele>1180</ele>
						<time>2026-09-04T00:04:12Z</time>
					</trkpt>
					<trkpt lat="45.130480" lon="4.535410">
						<ele>1181</ele>
						<time>2026-09-04T00:04:33Z</time>
					</trkpt>
					<trkpt lat="45.130480" lon="4.535290">
						<ele>1181</ele>
						<time>2026-09-04T00:04:38Z</time>
					</trkpt>
					<trkpt lat="45.130520" lon="4.535150">
						<ele>1181</ele>
						<time>2026-09-04T00:04:43Z</time>
					</trkpt>
					<trkpt lat="45.130630" lon="4.534920">
						<ele>1182</ele>
						<time>2026-09-04T00:04:53Z</time>
					</trkpt>
					<trkpt lat="45.130820" lon="4.534190">
						<ele>1190</ele>
						<time>2026-09-04T00:05:20Z</time>
					</trkpt>
					<trkpt lat="45.130830" lon="4.533090">
						<ele>1195</ele>
						<time>2026-09-04T00:05:59Z</time>
					</trkpt>
					<trkpt lat="45.130790" lon="4.532060">
						<ele>1200</ele>
						<time>2026-09-04T00:06:35Z</time>
					</trkpt>
					<trkpt lat="45.130800" lon="4.531420">
						<ele>1203</ele>
						<time>2026-09-04T00:06:58Z</time>
					</trkpt>
					<trkpt lat="45.130860" lon="4.530620">
						<ele>1202</ele>
						<time>2026-09-04T00:07:26Z</time>
					</trkpt>
					<trkpt lat="45.130990" lon="4.529870">
						<ele>1196</ele>
						<time>2026-09-04T00:07:54Z</time>
					</trkpt>
					<trkpt lat="45.131120" lon="4.529400">
						<ele>1191</ele>
						<time>2026-09-04T00:08:11Z</time>
					</trkpt>
					<trkpt lat="45.131240" lon="4.528740">
						<ele>1187</ele>
						<time>2026-09-04T00:08:36Z</time>
					</trkpt>
					<trkpt lat="45.131300" lon="4.528550">
						<ele>1186</ele>
						<time>2026-09-04T00:08:43Z</time>
					</trkpt>
					<trkpt lat="45.131460" lon="4.528300">
						<ele>1185</ele>
						<time>2026-09-04T00:08:55Z</time>
					</trkpt>
					<trkpt lat="45.131530" lon="4.528140">
						<ele>1186</ele>
						<time>2026-09-04T00:09:01Z</time>
					</trkpt>
					<trkpt lat="45.131530" lon="4.527780">
						<ele>1185</ele>
						<time>2026-09-04T00:09:14Z</time>
					</trkpt>
					<trkpt lat="45.131560" lon="4.527640">
						<ele>1186</ele>
						<time>2026-09-04T00:09:19Z</time>
					</trkpt>
					<trkpt lat="45.131870" lon="4.526930">
						<ele>1185</ele>
						<time>2026-09-04T00:09:49Z</time>
					</trkpt>
					<trkpt lat="45.132010" lon="4.526730">
						<ele>1186</ele>
						<time>2026-09-04T00:09:59Z</time>
					</trkpt>
					<trkpt lat="45.132200" lon="4.526590">
						<ele>1188</ele>
						<time>2026-09-04T00:10:09Z</time>
					</trkpt>
					<trkpt lat="45.132570" lon="4.526520">
						<ele>1193</ele>
						<time>2026-09-04T00:10:28Z</time>
					</trkpt>
					<trkpt lat="45.132710" lon="4.526310">
						<ele>1191</ele>
						<time>2026-09-04T00:10:38Z</time>
					</trkpt>
					<trkpt lat="45.132750" lon="4.526210">
						<ele>1191</ele>
						<time>2026-09-04T00:10:42Z</time>
					</trkpt>
					<trkpt lat="45.132750" lon="4.526150">
						<ele>1190</ele>
						<time>2026-09-04T00:10:45Z</time>
					</trkpt>
					<trkpt lat="45.132470" lon="4.525360">
						<ele>1186</ele>
						<time>2026-09-04T00:11:16Z</time>
					</trkpt>
					<trkpt lat="45.132400" lon="4.525060">
						<ele>1185</ele>
						<time>2026-09-04T00:11:27Z</time>
					</trkpt>
					<trkpt lat="45.132080" lon="4.524160">
						<ele>1174</ele>
						<time>2026-09-04T00:12:02Z</time>
					</trkpt>
					<trkpt lat="45.131870" lon="4.523800">
						<ele>1167</ele>
						<time>2026-09-04T00:12:19Z</time>
					</trkpt>
					<trkpt lat="45.131910" lon="4.523770">
						<ele>1167</ele>
						<time>2026-09-04T00:12:21Z</time>
					</trkpt>
					<trkpt lat="45.131960" lon="4.523630">
						<ele>1167</ele>
						<time>2026-09-04T00:12:27Z</time>
					</trkpt>
					<trkpt lat="45.132050" lon="4.523530">
						<ele>1167</ele>
						<time>2026-09-04T00:12:33Z</time>
					</trkpt>
					<trkpt lat="45.132420" lon="4.523360">
						<ele>1170</ele>
						<time>2026-09-04T00:12:52Z</time>
					</trkpt>
					<trkpt lat="45.132700" lon="4.523260">
						<ele>1170</ele>
						<time>2026-09-04T00:13:06Z</time>
					</trkpt>
					<trkpt lat="45.132980" lon="4.523190">
						<ele>1169</ele>
						<time>2026-09-04T00:13:21Z</time>
					</trkpt>
					<trkpt lat="45.133270" lon="4.523170">
						<ele>1169</ele>
						<time>2026-09-04T00:13:35Z</time>
					</trkpt>
					<trkpt lat="45.133380" lon="4.523200">
						<ele>1169</ele>
						<time>2026-09-04T00:13:41Z</time>
					</trkpt>
					<trkpt lat="45.134400" lon="4.523840">
						<ele>1168</ele>
						<time>2026-09-04T00:14:37Z</time>
					</trkpt>
					<trkpt lat="45.135230" lon="4.524100">
						<ele>1164</ele>
						<time>2026-09-04T00:15:19Z</time>
					</trkpt>
					<trkpt lat="45.136000" lon="4.524160">
						<ele>1168</ele>
						<time>2026-09-04T00:15:58Z</time>
					</trkpt>
					<trkpt lat="45.136360" lon="4.524020">
						<ele>1170</ele>
						<time>2026-09-04T00:16:16Z</time>
					</trkpt>
					<trkpt lat="45.136390" lon="4.523970">
						<ele>1169</ele>
						<time>2026-09-04T00:16:19Z</time>
					</trkpt>
					<trkpt lat="45.136380" lon="4.523610">
						<ele>1166</ele>
						<time>2026-09-04T00:16:31Z</time>
					</trkpt>
					<trkpt lat="45.136300" lon="4.523250">
						<ele>1163</ele>
						<time>2026-09-04T00:16:45Z</time>
					</trkpt>
					<trkpt lat="45.135760" lon="4.522640">
						<ele>1159</ele>
						<time>2026-09-04T00:17:19Z</time>
					</trkpt>
					<trkpt lat="45.135680" lon="4.522520">
						<ele>1158</ele>
						<time>2026-09-04T00:17:25Z</time>
					</trkpt>
					<trkpt lat="45.135290" lon="4.521610">
						<ele>1154</ele>
						<time>2026-09-04T00:18:03Z</time>
					</trkpt>
					<trkpt lat="45.135000" lon="4.520740">
						<ele>1151</ele>
						<time>2026-09-04T00:18:37Z</time>
					</trkpt>
					<trkpt lat="45.134960" lon="4.520520">
						<ele>1149</ele>
						<time>2026-09-04T00:18:45Z</time>
					</trkpt>
					<trkpt lat="45.134990" lon="4.520200">
						<ele>1148</ele>
						<time>2026-09-04T00:18:56Z</time>
					</trkpt>
					<trkpt lat="45.135090" lon="4.519940">
						<ele>1148</ele>
						<time>2026-09-04T00:19:07Z</time>
					</trkpt>
					<trkpt lat="45.135400" lon="4.519360">
						<ele>1151</ele>
						<time>2026-09-04T00:19:32Z</time>
					</trkpt>
					<trkpt lat="45.135450" lon="4.519160">
						<ele>1151</ele>
						<time>2026-09-04T00:19:40Z</time>
					</trkpt>
					<trkpt lat="45.135360" lon="4.518510">
						<ele>1149</ele>
						<time>2026-09-04T00:20:03Z</time>
					</trkpt>
					<trkpt lat="45.135270" lon="4.518290">
						<ele>1148</ele>
						<time>2026-09-04T00:20:12Z</time>
					</trkpt>
					<trkpt lat="45.135110" lon="4.518130">
						<ele>1146</ele>
						<time>2026-09-04T00:20:22Z</time>
					</trkpt>
					<trkpt lat="45.134900" lon="4.517970">
						<ele>1144</ele>
						<time>2026-09-04T00:20:34Z</time>
					</trkpt>
					<trkpt lat="45.134680" lon="4.517860">
						<ele>1142</ele>
						<time>2026-09-04T00:20:46Z</time>
					</trkpt>
					<trkpt lat="45.134440" lon="4.517810">
						<ele>1139</ele>
						<time>2026-09-04T00:20:58Z</time>
					</trkpt>
					<trkpt lat="45.134330" lon="4.517740">
						<ele>1138</ele>
						<time>2026-09-04T00:21:04Z</time>
					</trkpt>
					<trkpt lat="45.134190" lon="4.517510">
						<ele>1139</ele>
						<time>2026-09-04T00:21:14Z</time>
					</trkpt>
					<trkpt lat="45.134120" lon="4.516680">
						<ele>1141</ele>
						<time>2026-09-04T00:21:44Z</time>
					</trkpt>
					<trkpt lat="45.133900" lon="4.515770">
						<ele>1144</ele>
						<time>2026-09-04T00:22:18Z</time>
					</trkpt>
					<trkpt lat="45.133760" lon="4.515530">
						<ele>1143</ele>
						<time>2026-09-04T00:22:29Z</time>
					</trkpt>
					<trkpt lat="45.133500" lon="4.515320">
						<ele>1139</ele>
						<time>2026-09-04T00:22:44Z</time>
					</trkpt>
					<trkpt lat="45.133250" lon="4.515070">
						<ele>1136</ele>
						<time>2026-09-04T00:22:59Z</time>
					</trkpt>
					<trkpt lat="45.132880" lon="4.514570">
						<ele>1133</ele>
						<time>2026-09-04T00:23:25Z</time>
					</trkpt>
					<trkpt lat="45.132530" lon="4.513990">
						<ele>1131</ele>
						<time>2026-09-04T00:23:52Z</time>
					</trkpt>
					<trkpt lat="45.132070" lon="4.513600">
						<ele>1132</ele>
						<time>2026-09-04T00:24:19Z</time>
					</trkpt>
					<trkpt lat="45.131090" lon="4.512610">
						<ele>1131</ele>
						<time>2026-09-04T00:25:19Z</time>
					</trkpt>
					<trkpt lat="45.130830" lon="4.512210">
						<ele>1130</ele>
						<time>2026-09-04T00:25:38Z</time>
					</trkpt>
					<trkpt lat="45.130530" lon="4.511030">
						<ele>1131</ele>
						<time>2026-09-04T00:26:22Z</time>
					</trkpt>
					<trkpt lat="45.130450" lon="4.510860">
						<ele>1132</ele>
						<time>2026-09-04T00:26:29Z</time>
					</trkpt>
					<trkpt lat="45.130380" lon="4.510800">
						<ele>1132</ele>
						<time>2026-09-04T00:26:34Z</time>
					</trkpt>
					<trkpt lat="45.130180" lon="4.510800">
						<ele>1131</ele>
						<time>2026-09-04T00:26:44Z</time>
					</trkpt>
					<trkpt lat="45.129320" lon="4.511010">
						<ele>1126</ele>
						<time>2026-09-04T00:27:27Z</time>
					</trkpt>
					<trkpt lat="45.129060" lon="4.511010">
						<ele>1125</ele>
						<time>2026-09-04T00:27:40Z</time>
					</trkpt>
					<trkpt lat="45.128930" lon="4.510970">
						<ele>1124</ele>
						<time>2026-09-04T00:27:47Z</time>
					</trkpt>
					<trkpt lat="45.128720" lon="4.510850">
						<ele>1124</ele>
						<time>2026-09-04T00:27:58Z</time>
					</trkpt>
					<trkpt lat="45.128530" lon="4.510670">
						<ele>1125</ele>
						<time>2026-09-04T00:28:10Z</time>
					</trkpt>
					<trkpt lat="45.128380" lon="4.510470">
						<ele>1126</ele>
						<time>2026-09-04T00:28:20Z</time>
					</trkpt>
					<trkpt lat="45.127950" lon="4.509530">
						<ele>1126</ele>
						<time>2026-09-04T00:29:00Z</time>
					</trkpt>
					<trkpt lat="45.127840" lon="4.509430">
						<ele>1124</ele>
						<time>2026-09-04T00:29:06Z</time>
					</trkpt>
					<trkpt lat="45.127660" lon="4.509360">
						<ele>1121</ele>
						<time>2026-09-04T00:29:15Z</time>
					</trkpt>
					<trkpt lat="45.126640" lon="4.509270">
						<ele>1108</ele>
						<time>2026-09-04T00:30:07Z</time>
					</trkpt>
					<trkpt lat="45.126520" lon="4.509210">
						<ele>1109</ele>
						<time>2026-09-04T00:30:13Z</time>
					</trkpt>
					<trkpt lat="45.126300" lon="4.509040">
						<ele>1109</ele>
						<time>2026-09-04T00:30:25Z</time>
					</trkpt>
					<trkpt lat="45.126050" lon="4.508790">
						<ele>1106</ele>
						<time>2026-09-04T00:30:41Z</time>
					</trkpt>
					<trkpt lat="45.125730" lon="4.508570">
						<ele>1103</ele>
						<time>2026-09-04T00:30:59Z</time>
					</trkpt>
					<trkpt lat="45.125610" lon="4.508510">
						<ele>1102</ele>
						<time>2026-09-04T00:31:05Z</time>
					</trkpt>
					<trkpt lat="45.125460" lon="4.508480">
						<ele>1102</ele>
						<time>2026-09-04T00:31:12Z</time>
					</trkpt>
					<trkpt lat="45.124850" lon="4.508420">
						<ele>1101</ele>
						<time>2026-09-04T00:31:43Z</time>
					</trkpt>
					<trkpt lat="45.124590" lon="4.508290">
						<ele>1100</ele>
						<time>2026-09-04T00:31:57Z</time>
					</trkpt>
					<trkpt lat="45.124010" lon="4.507870">
						<ele>1099</ele>
						<time>2026-09-04T00:32:29Z</time>
					</trkpt>
					<trkpt lat="45.123610" lon="4.507340">
						<ele>1097</ele>
						<time>2026-09-04T00:32:57Z</time>
					</trkpt>
					<trkpt lat="45.123270" lon="4.506810">
						<ele>1094</ele>
						<time>2026-09-04T00:33:22Z</time>
					</trkpt>
					<trkpt lat="45.122700" lon="4.505380">
						<ele>1074</ele>
						<time>2026-09-04T00:34:20Z</time>
					</trkpt>
					<trkpt lat="45.122340" lon="4.504720">
						<ele>1067</ele>
						<time>2026-09-04T00:34:50Z</time>
					</trkpt>
					<trkpt lat="45.122170" lon="4.504270">
						<ele>1063</ele>
						<time>2026-09-04T00:35:08Z</time>
					</trkpt>
					<trkpt lat="45.122100" lon="4.504170">
						<ele>1062</ele>
						<time>2026-09-04T00:35:13Z</time>
					</trkpt>
					<trkpt lat="45.121630" lon="4.503690">
						<ele>1057</ele>
						<time>2026-09-04T00:35:42Z</time>
					</trkpt>
					<trkpt lat="45.121300" lon="4.503210">
						<ele>1055</ele>
						<time>2026-09-04T00:36:05Z</time>
					</trkpt>
					<trkpt lat="45.121140" lon="4.503080">
						<ele>1053</ele>
						<time>2026-09-04T00:36:15Z</time>
					</trkpt>
					<trkpt lat="45.120980" lon="4.502900">
						<ele>1052</ele>
						<time>2026-09-04T00:36:25Z</time>
					</trkpt>
					<trkpt lat="45.120680" lon="4.502430">
						<ele>1046</ele>
						<time>2026-09-04T00:36:47Z</time>
					</trkpt>
					<trkpt lat="45.120560" lon="4.502310">
						<ele>1044</ele>
						<time>2026-09-04T00:36:54Z</time>
					</trkpt>
					<trkpt lat="45.120140" lon="4.502020">
						<ele>1039</ele>
						<time>2026-09-04T00:37:18Z</time>
					</trkpt>
					<trkpt lat="45.120010" lon="4.501900">
						<ele>1039</ele>
						<time>2026-09-04T00:37:26Z</time>
					</trkpt>
					<trkpt lat="45.119310" lon="4.501070">
						<ele>1021</ele>
						<time>2026-09-04T00:38:11Z</time>
					</trkpt>
					<trkpt lat="45.119220" lon="4.500830">
						<ele>1020</ele>
						<time>2026-09-04T00:38:21Z</time>
					</trkpt>
					<trkpt lat="45.119210" lon="4.500730">
						<ele>1019</ele>
						<time>2026-09-04T00:38:24Z</time>
					</trkpt>
					<trkpt lat="45.119270" lon="4.500230">
						<ele>1018</ele>
						<time>2026-09-04T00:38:42Z</time>
					</trkpt>
					<trkpt lat="45.119370" lon="4.499850">
						<ele>1015</ele>
						<time>2026-09-04T00:38:57Z</time>
					</trkpt>
					<trkpt lat="45.119440" lon="4.499190">
						<ele>1005</ele>
						<time>2026-09-04T00:39:20Z</time>
					</trkpt>
					<trkpt lat="45.119420" lon="4.499040">
						<ele>1003</ele>
						<time>2026-09-04T00:39:26Z</time>
					</trkpt>
					<trkpt lat="45.118710" lon="4.498220">
						<ele>990</ele>
						<time>2026-09-04T00:40:11Z</time>
					</trkpt>
					<trkpt lat="45.118520" lon="4.498080">
						<ele>988</ele>
						<time>2026-09-04T00:40:22Z</time>
					</trkpt>
					<trkpt lat="45.118270" lon="4.497720">
						<ele>986</ele>
						<time>2026-09-04T00:40:40Z</time>
					</trkpt>
					<trkpt lat="45.118370" lon="4.497690">
						<ele>986</ele>
						<time>2026-09-04T00:40:45Z</time>
					</trkpt>
					<trkpt lat="45.118500" lon="4.497710">
						<ele>987</ele>
						<time>2026-09-04T00:40:52Z</time>
					</trkpt>
					<trkpt lat="45.119280" lon="4.498040">
						<ele>988</ele>
						<time>2026-09-04T00:41:32Z</time>
					</trkpt>
					<trkpt lat="45.119610" lon="4.498230">
						<ele>985</ele>
						<time>2026-09-04T00:41:50Z</time>
					</trkpt>
					<trkpt lat="45.119930" lon="4.498480">
						<ele>986</ele>
						<time>2026-09-04T00:42:09Z</time>
					</trkpt>
					<trkpt lat="45.120150" lon="4.498720">
						<ele>990</ele>
						<time>2026-09-04T00:42:22Z</time>
					</trkpt>
					<trkpt lat="45.120250" lon="4.498750">
						<ele>990</ele>
						<time>2026-09-04T00:42:28Z</time>
					</trkpt>
					<trkpt lat="45.120470" lon="4.498710">
						<ele>987</ele>
						<time>2026-09-04T00:42:39Z</time>
					</trkpt>
					<trkpt lat="45.120750" lon="4.498570">
						<ele>979</ele>
						<time>2026-09-04T00:42:53Z</time>
					</trkpt>
					<trkpt lat="45.121160" lon="4.498420">
						<ele>970</ele>
						<time>2026-09-04T00:43:15Z</time>
					</trkpt>
					<trkpt lat="45.121380" lon="4.498460">
						<ele>968</ele>
						<time>2026-09-04T00:43:26Z</time>
					</trkpt>
					<trkpt lat="45.121620" lon="4.498590">
						<ele>968</ele>
						<time>2026-09-04T00:43:39Z</time>
					</trkpt>
					<trkpt lat="45.122400" lon="4.499160">
						<ele>953</ele>
						<time>2026-09-04T00:44:23Z</time>
					</trkpt>
					<trkpt lat="45.122470" lon="4.499300">
						<ele>953</ele>
						<time>2026-09-04T00:44:29Z</time>
					</trkpt>
					<trkpt lat="45.122590" lon="4.499770">
						<ele>959</ele>
						<time>2026-09-04T00:44:46Z</time>
					</trkpt>
					<trkpt lat="45.122610" lon="4.500340">
						<ele>970</ele>
						<time>2026-09-04T00:45:06Z</time>
					</trkpt>
					<trkpt lat="45.122640" lon="4.500400">
						<ele>971</ele>
						<time>2026-09-04T00:45:09Z</time>
					</trkpt>
					<trkpt lat="45.122700" lon="4.500460">
						<ele>971</ele>
						<time>2026-09-04T00:45:13Z</time>
					</trkpt>
					<trkpt lat="45.123330" lon="4.500650">
						<ele>962</ele>
						<time>2026-09-04T00:45:45Z</time>
					</trkpt>
					<trkpt lat="45.123480" lon="4.500770">
						<ele>965</ele>
						<time>2026-09-04T00:45:54Z</time>
					</trkpt>
					<trkpt lat="45.123630" lon="4.500950">
						<ele>969</ele>
						<time>2026-09-04T00:46:03Z</time>
					</trkpt>
					<trkpt lat="45.123690" lon="4.500960">
						<ele>969</ele>
						<time>2026-09-04T00:46:06Z</time>
					</trkpt>
					<trkpt lat="45.123710" lon="4.500860">
						<ele>968</ele>
						<time>2026-09-04T00:46:10Z</time>
					</trkpt>
					<trkpt lat="45.123700" lon="4.500740">
						<ele>967</ele>
						<time>2026-09-04T00:46:14Z</time>
					</trkpt>
					<trkpt lat="45.123640" lon="4.500550">
						<ele>965</ele>
						<time>2026-09-04T00:46:22Z</time>
					</trkpt>
					<trkpt lat="45.123430" lon="4.500170">
						<ele>958</ele>
						<time>2026-09-04T00:46:39Z</time>
					</trkpt>
					<trkpt lat="45.123310" lon="4.499890">
						<ele>953</ele>
						<time>2026-09-04T00:46:50Z</time>
					</trkpt>
					<trkpt lat="45.123310" lon="4.499670">
						<ele>950</ele>
						<time>2026-09-04T00:46:58Z</time>
					</trkpt>
					<trkpt lat="45.123400" lon="4.499410">
						<ele>949</ele>
						<time>2026-09-04T00:47:08Z</time>
					</trkpt>
					<trkpt lat="45.123520" lon="4.499250">
						<ele>950</ele>
						<time>2026-09-04T00:47:17Z</time>
					</trkpt>
					<trkpt lat="45.123600" lon="4.499220">
						<ele>952</ele>
						<time>2026-09-04T00:47:21Z</time>
					</trkpt>
					<trkpt lat="45.124180" lon="4.499090">
						<ele>968</ele>
						<time>2026-09-04T00:47:50Z</time>
					</trkpt>
					<trkpt lat="45.124610" lon="4.499040">
						<ele>980</ele>
						<time>2026-09-04T00:48:12Z</time>
					</trkpt>
					<trkpt lat="45.124710" lon="4.498980">
						<ele>983</ele>
						<time>2026-09-04T00:48:17Z</time>
					</trkpt>
					<trkpt lat="45.124740" lon="4.498890">
						<ele>985</ele>
						<time>2026-09-04T00:48:21Z</time>
					</trkpt>
					<trkpt lat="45.124720" lon="4.498800">
						<ele>985</ele>
						<time>2026-09-04T00:48:24Z</time>
					</trkpt>
					<trkpt lat="45.124580" lon="4.498600">
						<ele>981</ele>
						<time>2026-09-04T00:48:34Z</time>
					</trkpt>
					<trkpt lat="45.124420" lon="4.498300">
						<ele>976</ele>
						<time>2026-09-04T00:48:47Z</time>
					</trkpt>
					<trkpt lat="45.124370" lon="4.498080">
						<ele>977</ele>
						<time>2026-09-04T00:48:55Z</time>
					</trkpt>
					<trkpt lat="45.124370" lon="4.497930">
						<ele>979</ele>
						<time>2026-09-04T00:49:01Z</time>
					</trkpt>
					<trkpt lat="45.124410" lon="4.497610">
						<ele>985</ele>
						<time>2026-09-04T00:49:12Z</time>
					</trkpt>
					<trkpt lat="45.124490" lon="4.497240">
						<ele>992</ele>
						<time>2026-09-04T00:49:26Z</time>
					</trkpt>
					<trkpt lat="45.124510" lon="4.496890">
						<ele>995</ele>
						<time>2026-09-04T00:49:38Z</time>
					</trkpt>
					<trkpt lat="45.124620" lon="4.496170">
						<ele>1002</ele>
						<time>2026-09-04T00:50:04Z</time>
					</trkpt>
					<trkpt lat="45.124640" lon="4.495860">
						<ele>1003</ele>
						<time>2026-09-04T00:50:15Z</time>
					</trkpt>
					<trkpt lat="45.124600" lon="4.495720">
						<ele>1002</ele>
						<time>2026-09-04T00:50:20Z</time>
					</trkpt>
					<trkpt lat="45.124230" lon="4.495130">
						<ele>995</ele>
						<time>2026-09-04T00:50:48Z</time>
					</trkpt>
					<trkpt lat="45.124180" lon="4.494980">
						<ele>995</ele>
						<time>2026-09-04T00:50:54Z</time>
					</trkpt>
					<trkpt lat="45.124180" lon="4.494850">
						<ele>995</ele>
						<time>2026-09-04T00:50:59Z</time>
					</trkpt>
					<trkpt lat="45.124200" lon="4.494690">
						<ele>996</ele>
						<time>2026-09-04T00:51:05Z</time>
					</trkpt>
					<trkpt lat="45.124270" lon="4.494560">
						<ele>997</ele>
						<time>2026-09-04T00:51:10Z</time>
					</trkpt>
					<trkpt lat="45.124420" lon="4.494380">
						<ele>1001</ele>
						<time>2026-09-04T00:51:20Z</time>
					</trkpt>
					<trkpt lat="45.124750" lon="4.494130">
						<ele>1007</ele>
						<time>2026-09-04T00:51:39Z</time>
					</trkpt>
					<trkpt lat="45.125070" lon="4.494000">
						<ele>1015</ele>
						<time>2026-09-04T00:51:56Z</time>
					</trkpt>
					<trkpt lat="45.125120" lon="4.493950">
						<ele>1017</ele>
						<time>2026-09-04T00:51:59Z</time>
					</trkpt>
					<trkpt lat="45.125180" lon="4.493680">
						<ele>1018</ele>
						<time>2026-09-04T00:52:09Z</time>
					</trkpt>
					<trkpt lat="45.125230" lon="4.493200">
						<ele>1019</ele>
						<time>2026-09-04T00:52:26Z</time>
					</trkpt>
					<trkpt lat="45.125410" lon="4.492450">
						<ele>1027</ele>
						<time>2026-09-04T00:52:54Z</time>
					</trkpt>
					<trkpt lat="45.125510" lon="4.491800">
						<ele>1028</ele>
						<time>2026-09-04T00:53:17Z</time>
					</trkpt>
					<trkpt lat="45.125420" lon="4.491490">
						<ele>1024</ele>
						<time>2026-09-04T00:53:29Z</time>
					</trkpt>
					<trkpt lat="45.124910" lon="4.490450">
						<ele>1012</ele>
						<time>2026-09-04T00:54:14Z</time>
					</trkpt>
					<trkpt lat="45.124720" lon="4.489700">
						<ele>1006</ele>
						<time>2026-09-04T00:54:42Z</time>
					</trkpt>
					<trkpt lat="45.124300" lon="4.487620">
						<ele>1004</ele>
						<time>2026-09-04T00:55:58Z</time>
					</trkpt>
					<trkpt lat="45.124140" lon="4.487220">
						<ele>1009</ele>
						<time>2026-09-04T00:56:14Z</time>
					</trkpt>
					<trkpt lat="45.123750" lon="4.486480">
						<ele>1027</ele>
						<time>2026-09-04T00:56:47Z</time>
					</trkpt>
					<trkpt lat="45.123690" lon="4.486160">
						<ele>1032</ele>
						<time>2026-09-04T00:56:59Z</time>
					</trkpt>
					<trkpt lat="45.123690" lon="4.485970">
						<ele>1033</ele>
						<time>2026-09-04T00:57:05Z</time>
					</trkpt>
					<trkpt lat="45.123710" lon="4.485810">
						<ele>1034</ele>
						<time>2026-09-04T00:57:11Z</time>
					</trkpt>
					<trkpt lat="45.123780" lon="4.485610">
						<ele>1032</ele>
						<time>2026-09-04T00:57:19Z</time>
					</trkpt>
					<trkpt lat="45.124000" lon="4.485220">
						<ele>1027</ele>
						<time>2026-09-04T00:57:37Z</time>
					</trkpt>
					<trkpt lat="45.124050" lon="4.485090">
						<ele>1027</ele>
						<time>2026-09-04T00:57:42Z</time>
					</trkpt>
					<trkpt lat="45.124100" lon="4.484710">
						<ele>1025</ele>
						<time>2026-09-04T00:57:56Z</time>
					</trkpt>
					<trkpt lat="45.124080" lon="4.484450">
						<ele>1024</ele>
						<time>2026-09-04T00:58:05Z</time>
					</trkpt>
					<trkpt lat="45.124210" lon="4.483780">
						<ele>1016</ele>
						<time>2026-09-04T00:58:29Z</time>
					</trkpt>
					<trkpt lat="45.124260" lon="4.483580">
						<ele>1013</ele>
						<time>2026-09-04T00:58:37Z</time>
					</trkpt>
					<trkpt lat="45.124440" lon="4.483180">
						<ele>1007</ele>
						<time>2026-09-04T00:58:54Z</time>
					</trkpt>
					<trkpt lat="45.124690" lon="4.482310">
						<ele>1004</ele>
						<time>2026-09-04T00:59:27Z</time>
					</trkpt>
					<trkpt lat="45.124900" lon="4.481190">
						<ele>1009</ele>
						<time>2026-09-04T01:00:08Z</time>
					</trkpt>
					<trkpt lat="45.125150" lon="4.480240">
						<ele>1011</ele>
						<time>2026-09-04T01:00:44Z</time>
					</trkpt>
					<trkpt lat="45.125210" lon="4.479700">
						<ele>1010</ele>
						<time>2026-09-04T01:01:03Z</time>
					</trkpt>
					<trkpt lat="45.125360" lon="4.479360">
						<ele>1009</ele>
						<time>2026-09-04T01:01:17Z</time>
					</trkpt>
					<trkpt lat="45.125470" lon="4.478920">
						<ele>1007</ele>
						<time>2026-09-04T01:01:33Z</time>
					</trkpt>
					<trkpt lat="45.125460" lon="4.478470">
						<ele>1004</ele>
						<time>2026-09-04T01:01:49Z</time>
					</trkpt>
					<trkpt lat="45.125350" lon="4.477630">
						<ele>998</ele>
						<time>2026-09-04T01:02:20Z</time>
					</trkpt>
					<trkpt lat="45.125100" lon="4.476520">
						<ele>993</ele>
						<time>2026-09-04T01:03:01Z</time>
					</trkpt>
					<trkpt lat="45.125050" lon="4.476000">
						<ele>990</ele>
						<time>2026-09-04T01:03:19Z</time>
					</trkpt>
					<trkpt lat="45.125020" lon="4.475860">
						<ele>990</ele>
						<time>2026-09-04T01:03:24Z</time>
					</trkpt>
					<trkpt lat="45.124950" lon="4.475750">
						<ele>987</ele>
						<time>2026-09-04T01:03:30Z</time>
					</trkpt>
					<trkpt lat="45.124910" lon="4.475750">
						<ele>986</ele>
						<time>2026-09-04T01:03:32Z</time>
					</trkpt>
					<trkpt lat="45.124840" lon="4.475820">
						<ele>984</ele>
						<time>2026-09-04T01:03:36Z</time>
					</trkpt>
					<trkpt lat="45.124710" lon="4.476070">
						<ele>982</ele>
						<time>2026-09-04T01:03:47Z</time>
					</trkpt>
					<trkpt lat="45.124660" lon="4.476070">
						<ele>980</ele>
						<time>2026-09-04T01:03:49Z</time>
					</trkpt>
					<trkpt lat="45.124660" lon="4.475170">
						<ele>968</ele>
						<time>2026-09-04T01:04:21Z</time>
					</trkpt>
					<trkpt lat="45.124690" lon="4.474820">
						<ele>962</ele>
						<time>2026-09-04T01:04:34Z</time>
					</trkpt>
					<trkpt lat="45.124730" lon="4.474650">
						<ele>960</ele>
						<time>2026-09-04T01:04:40Z</time>
					</trkpt>
					<trkpt lat="45.124850" lon="4.474370">
						<ele>957</ele>
						<time>2026-09-04T01:04:51Z</time>
					</trkpt>
					<trkpt lat="45.124940" lon="4.474260">
						<ele>957</ele>
						<time>2026-09-04T01:04:57Z</time>
					</trkpt>
					<trkpt lat="45.125120" lon="4.474190">
						<ele>954</ele>
						<time>2026-09-04T01:05:07Z</time>
					</trkpt>
					<trkpt lat="45.125330" lon="4.474290">
						<ele>951</ele>
						<time>2026-09-04T01:05:18Z</time>
					</trkpt>
					<trkpt lat="45.125590" lon="4.474540">
						<ele>950</ele>
						<time>2026-09-04T01:05:34Z</time>
					</trkpt>
					<trkpt lat="45.125620" lon="4.474540">
						<ele>949</ele>
						<time>2026-09-04T01:05:35Z</time>
					</trkpt>
					<trkpt lat="45.125560" lon="4.474210">
						<ele>943</ele>
						<time>2026-09-04T01:05:47Z</time>
					</trkpt>
					<trkpt lat="45.125560" lon="4.474090">
						<ele>941</ele>
						<time>2026-09-04T01:05:51Z</time>
					</trkpt>
					<trkpt lat="45.125630" lon="4.473590">
						<ele>928</ele>
						<time>2026-09-04T01:06:09Z</time>
					</trkpt>
					<trkpt lat="45.125600" lon="4.473440">
						<ele>925</ele>
						<time>2026-09-04T01:06:15Z</time>
					</trkpt>
					<trkpt lat="45.125430" lon="4.473330">
						<ele>925</ele>
						<time>2026-09-04T01:06:24Z</time>
					</trkpt>
					<trkpt lat="45.124810" lon="4.473240">
						<ele>924</ele>
						<time>2026-09-04T01:06:55Z</time>
					</trkpt>
					<trkpt lat="45.124050" lon="4.473470">
						<ele>912</ele>
						<time>2026-09-04T01:07:34Z</time>
					</trkpt>
					<trkpt lat="45.123860" lon="4.473540">
						<ele>905</ele>
						<time>2026-09-04T01:07:44Z</time>
					</trkpt>
					<trkpt lat="45.123770" lon="4.473610">
						<ele>903</ele>
						<time>2026-09-04T01:07:49Z</time>
					</trkpt>
					<trkpt lat="45.123700" lon="4.473680">
						<ele>901</ele>
						<time>2026-09-04T01:07:54Z</time>
					</trkpt>
					<trkpt lat="45.123640" lon="4.473870">
						<ele>901</ele>
						<time>2026-09-04T01:08:01Z</time>
					</trkpt>
					<trkpt lat="45.123600" lon="4.474140">
						<ele>904</ele>
						<time>2026-09-04T01:08:11Z</time>
					</trkpt>
					<trkpt lat="45.123480" lon="4.474440">
						<ele>902</ele>
						<time>2026-09-04T01:08:23Z</time>
					</trkpt>
					<trkpt lat="45.123310" lon="4.474690">
						<ele>898</ele>
						<time>2026-09-04T01:08:35Z</time>
					</trkpt>
					<trkpt lat="45.123020" lon="4.475250">
						<ele>895</ele>
						<time>2026-09-04T01:09:00Z</time>
					</trkpt>
					<trkpt lat="45.122910" lon="4.475560">
						<ele>895</ele>
						<time>2026-09-04T01:09:12Z</time>
					</trkpt>
					<trkpt lat="45.122840" lon="4.475570">
						<ele>892</ele>
						<time>2026-09-04T01:09:15Z</time>
					</trkpt>
					<trkpt lat="45.122630" lon="4.475930">
						<ele>887</ele>
						<time>2026-09-04T01:09:32Z</time>
					</trkpt>
					<trkpt lat="45.122420" lon="4.476410">
						<ele>885</ele>
						<time>2026-09-04T01:09:52Z</time>
					</trkpt>
					<trkpt lat="45.122350" lon="4.476450">
						<ele>885</ele>
						<time>2026-09-04T01:09:56Z</time>
					</trkpt>
					<trkpt lat="45.122300" lon="4.476380">
						<ele>883</ele>
						<time>2026-09-04T01:09:59Z</time>
					</trkpt>
					<trkpt lat="45.122180" lon="4.475760">
						<ele>873</ele>
						<time>2026-09-04T01:10:22Z</time>
					</trkpt>
					<trkpt lat="45.122020" lon="4.475450">
						<ele>866</ele>
						<time>2026-09-04T01:10:35Z</time>
					</trkpt>
					<trkpt lat="45.122060" lon="4.475190">
						<ele>863</ele>
						<time>2026-09-04T01:10:45Z</time>
					</trkpt>
					<trkpt lat="45.122220" lon="4.474780">
						<ele>862</ele>
						<time>2026-09-04T01:11:01Z</time>
					</trkpt>
					<trkpt lat="45.122320" lon="4.474410">
						<ele>860</ele>
						<time>2026-09-04T01:11:15Z</time>
					</trkpt>
					<trkpt lat="45.122330" lon="4.473980">
						<ele>855</ele>
						<time>2026-09-04T01:11:30Z</time>
					</trkpt>
					<trkpt lat="45.122240" lon="4.473830">
						<ele>851</ele>
						<time>2026-09-04T01:11:37Z</time>
					</trkpt>
					<trkpt lat="45.121950" lon="4.473720">
						<ele>843</ele>
						<time>2026-09-04T01:11:52Z</time>
					</trkpt>
					<trkpt lat="45.121860" lon="4.473720">
						<ele>842</ele>
						<time>2026-09-04T01:11:57Z</time>
					</trkpt>
					<trkpt lat="45.121790" lon="4.473760">
						<ele>841</ele>
						<time>2026-09-04T01:12:01Z</time>
					</trkpt>
					<trkpt lat="45.121720" lon="4.473950">
						<ele>843</ele>
						<time>2026-09-04T01:12:08Z</time>
					</trkpt>
					<trkpt lat="45.121670" lon="4.474350">
						<ele>847</ele>
						<time>2026-09-04T01:12:23Z</time>
					</trkpt>
					<trkpt lat="45.121600" lon="4.474490">
						<ele>848</ele>
						<time>2026-09-04T01:12:29Z</time>
					</trkpt>
					<trkpt lat="45.121560" lon="4.474500">
						<ele>849</ele>
						<time>2026-09-04T01:12:31Z</time>
					</trkpt>
					<trkpt lat="45.121470" lon="4.474460">
						<ele>850</ele>
						<time>2026-09-04T01:12:35Z</time>
					</trkpt>
					<trkpt lat="45.121390" lon="4.474340">
						<ele>849</ele>
						<time>2026-09-04T01:12:41Z</time>
					</trkpt>
					<trkpt lat="45.121480" lon="4.474210">
						<ele>847</ele>
						<time>2026-09-04T01:12:48Z</time>
					</trkpt>
					<trkpt lat="45.121520" lon="4.474090">
						<ele>845</ele>
						<time>2026-09-04T01:12:52Z</time>
					</trkpt>
					<trkpt lat="45.121550" lon="4.473600">
						<ele>836</ele>
						<time>2026-09-04T01:13:10Z</time>
					</trkpt>
					<trkpt lat="45.121630" lon="4.473400">
						<ele>833</ele>
						<time>2026-09-04T01:13:18Z</time>
					</trkpt>
					<trkpt lat="45.121750" lon="4.473310">
						<ele>833</ele>
						<time>2026-09-04T01:13:25Z</time>
					</trkpt>
					<trkpt lat="45.121850" lon="4.473270">
						<ele>835</ele>
						<time>2026-09-04T01:13:30Z</time>
					</trkpt>
					<trkpt lat="45.122080" lon="4.473340">
						<ele>840</ele>
						<time>2026-09-04T01:13:42Z</time>
					</trkpt>
					<trkpt lat="45.122380" lon="4.473500">
						<ele>848</ele>
						<time>2026-09-04T01:13:58Z</time>
					</trkpt>
					<trkpt lat="45.122450" lon="4.473490">
						<ele>849</ele>
						<time>2026-09-04T01:14:01Z</time>
					</trkpt>
					<trkpt lat="45.122500" lon="4.473450">
						<ele>850</ele>
						<time>2026-09-04T01:14:04Z</time>
					</trkpt>
					<trkpt lat="45.122540" lon="4.473340">
						<ele>850</ele>
						<time>2026-09-04T01:14:08Z</time>
					</trkpt>
					<trkpt lat="45.122540" lon="4.473180">
						<ele>847</ele>
						<time>2026-09-04T01:14:14Z</time>
					</trkpt>
					<trkpt lat="45.122440" lon="4.472940">
						<ele>839</ele>
						<time>2026-09-04T01:14:24Z</time>
					</trkpt>
					<trkpt lat="45.122440" lon="4.472870">
						<ele>838</ele>
						<time>2026-09-04T01:14:26Z</time>
					</trkpt>
					<trkpt lat="45.122450" lon="4.472790">
						<ele>837</ele>
						<time>2026-09-04T01:14:29Z</time>
					</trkpt>
					<trkpt lat="45.122520" lon="4.472690">
						<ele>836</ele>
						<time>2026-09-04T01:14:34Z</time>
					</trkpt>
					<trkpt lat="45.122900" lon="4.472540">
						<ele>845</ele>
						<time>2026-09-04T01:14:54Z</time>
					</trkpt>
					<trkpt lat="45.124500" lon="4.471710">
						<ele>862</ele>
						<time>2026-09-04T01:16:19Z</time>
					</trkpt>
					<trkpt lat="45.125150" lon="4.471460">
						<ele>866</ele>
						<time>2026-09-04T01:16:53Z</time>
					</trkpt>
					<trkpt lat="45.125340" lon="4.471480">
						<ele>867</ele>
						<time>2026-09-04T01:17:02Z</time>
					</trkpt>
					<trkpt lat="45.125930" lon="4.471610">
						<ele>869</ele>
						<time>2026-09-04T01:17:32Z</time>
					</trkpt>
					<trkpt lat="45.126230" lon="4.471620">
						<ele>866</ele>
						<time>2026-09-04T01:17:47Z</time>
					</trkpt>
					<trkpt lat="45.126300" lon="4.471650">
						<ele>866</ele>
						<time>2026-09-04T01:17:51Z</time>
					</trkpt>
					<trkpt lat="45.126350" lon="4.471720">
						<ele>867</ele>
						<time>2026-09-04T01:17:55Z</time>
					</trkpt>
					<trkpt lat="45.126440" lon="4.472320">
						<ele>877</ele>
						<time>2026-09-04T01:18:16Z</time>
					</trkpt>
					<trkpt lat="45.126540" lon="4.472610">
						<ele>879</ele>
						<time>2026-09-04T01:18:28Z</time>
					</trkpt>
					<trkpt lat="45.126950" lon="4.473540">
						<ele>882</ele>
						<time>2026-09-04T01:19:06Z</time>
					</trkpt>
					<trkpt lat="45.127100" lon="4.473940">
						<ele>884</ele>
						<time>2026-09-04T01:19:22Z</time>
					</trkpt>
					<trkpt lat="45.127210" lon="4.474130">
						<ele>884</ele>
						<time>2026-09-04T01:19:31Z</time>
					</trkpt>
					<trkpt lat="45.127260" lon="4.474170">
						<ele>883</ele>
						<time>2026-09-04T01:19:34Z</time>
					</trkpt>
					<trkpt lat="45.127320" lon="4.474160">
						<ele>881</ele>
						<time>2026-09-04T01:19:37Z</time>
					</trkpt>
					<trkpt lat="45.127580" lon="4.473920">
						<ele>877</ele>
						<time>2026-09-04T01:19:52Z</time>
					</trkpt>
					<trkpt lat="45.127620" lon="4.473850">
						<ele>878</ele>
						<time>2026-09-04T01:19:56Z</time>
					</trkpt>
					<trkpt lat="45.127630" lon="4.473720">
						<ele>878</ele>
						<time>2026-09-04T01:20:00Z</time>
					</trkpt>
					<trkpt lat="45.127530" lon="4.473120">
						<ele>872</ele>
						<time>2026-09-04T01:20:22Z</time>
					</trkpt>
					<trkpt lat="45.127570" lon="4.472820">
						<ele>874</ele>
						<time>2026-09-04T01:20:33Z</time>
					</trkpt>
					<trkpt lat="45.127540" lon="4.472600">
						<ele>873</ele>
						<time>2026-09-04T01:20:41Z</time>
					</trkpt>
					<trkpt lat="45.127480" lon="4.472590">
						<ele>872</ele>
						<time>2026-09-04T01:20:44Z</time>
					</trkpt>
					<trkpt lat="45.127360" lon="4.472510">
						<ele>872</ele>
						<time>2026-09-04T01:20:50Z</time>
					</trkpt>
					<trkpt lat="45.126950" lon="4.471960">
						<ele>871</ele>
						<time>2026-09-04T01:21:19Z</time>
					</trkpt>
					<trkpt lat="45.126860" lon="4.471770">
						<ele>868</ele>
						<time>2026-09-04T01:21:27Z</time>
					</trkpt>
					<trkpt lat="45.126970" lon="4.471090">
						<ele>874</ele>
						<time>2026-09-04T01:21:51Z</time>
					</trkpt>
					<trkpt lat="45.126920" lon="4.470600">
						<ele>880</ele>
						<time>2026-09-04T01:22:09Z</time>
					</trkpt>
					<trkpt lat="45.126790" lon="4.470410">
						<ele>880</ele>
						<time>2026-09-04T01:22:18Z</time>
					</trkpt>
					<trkpt lat="45.126580" lon="4.470300">
						<ele>877</ele>
						<time>2026-09-04T01:22:29Z</time>
					</trkpt>
					<trkpt lat="45.126160" lon="4.470310">
						<ele>874</ele>
						<time>2026-09-04T01:22:50Z</time>
					</trkpt>
					<trkpt lat="45.125920" lon="4.470260">
						<ele>873</ele>
						<time>2026-09-04T01:23:02Z</time>
					</trkpt>
					<trkpt lat="45.125750" lon="4.470190">
						<ele>874</ele>
						<time>2026-09-04T01:23:11Z</time>
					</trkpt>
					<trkpt lat="45.125610" lon="4.470100">
						<ele>875</ele>
						<time>2026-09-04T01:23:19Z</time>
					</trkpt>
					<trkpt lat="45.125270" lon="4.469800">
						<ele>881</ele>
						<time>2026-09-04T01:23:39Z</time>
					</trkpt>
					<trkpt lat="45.124320" lon="4.469490">
						<ele>882</ele>
						<time>2026-09-04T01:24:28Z</time>
					</trkpt>
					<trkpt lat="45.123890" lon="4.469250">
						<ele>885</ele>
						<time>2026-09-04T01:24:51Z</time>
					</trkpt>
					<trkpt lat="45.123710" lon="4.469080">
						<ele>888</ele>
						<time>2026-09-04T01:25:02Z</time>
					</trkpt>
					<trkpt lat="45.123500" lon="4.468800">
						<ele>894</ele>
						<time>2026-09-04T01:25:16Z</time>
					</trkpt>
					<trkpt lat="45.123420" lon="4.468740">
						<ele>894</ele>
						<time>2026-09-04T01:25:21Z</time>
					</trkpt>
					<trkpt lat="45.123060" lon="4.468900">
						<ele>894</ele>
						<time>2026-09-04T01:25:40Z</time>
					</trkpt>
					<trkpt lat="45.122870" lon="4.469010">
						<ele>894</ele>
						<time>2026-09-04T01:25:50Z</time>
					</trkpt>
					<trkpt lat="45.122720" lon="4.469140">
						<ele>894</ele>
						<time>2026-09-04T01:25:59Z</time>
					</trkpt>
					<trkpt lat="45.122640" lon="4.469170">
						<ele>894</ele>
						<time>2026-09-04T01:26:03Z</time>
					</trkpt>
					<trkpt lat="45.122270" lon="4.469200">
						<ele>896</ele>
						<time>2026-09-04T01:26:21Z</time>
					</trkpt>
					<trkpt lat="45.121880" lon="4.469320">
						<ele>892</ele>
						<time>2026-09-04T01:26:41Z</time>
					</trkpt>
					<trkpt lat="45.121810" lon="4.469290">
						<ele>893</ele>
						<time>2026-09-04T01:26:45Z</time>
					</trkpt>
					<trkpt lat="45.121690" lon="4.469110">
						<ele>897</ele>
						<time>2026-09-04T01:26:54Z</time>
					</trkpt>
					<trkpt lat="45.121570" lon="4.468980">
						<ele>896</ele>
						<time>2026-09-04T01:27:01Z</time>
					</trkpt>
					<trkpt lat="45.121470" lon="4.468710">
						<ele>897</ele>
						<time>2026-09-04T01:27:12Z</time>
					</trkpt>
					<trkpt lat="45.121660" lon="4.468840">
						<ele>901</ele>
						<time>2026-09-04T01:27:23Z</time>
					</trkpt>
					<trkpt lat="45.121780" lon="4.468860">
						<ele>901</ele>
						<time>2026-09-04T01:27:29Z</time>
					</trkpt>
					<trkpt lat="45.121880" lon="4.468810">
						<ele>903</ele>
						<time>2026-09-04T01:27:34Z</time>
					</trkpt>
					<trkpt lat="45.121720" lon="4.468680">
						<ele>904</ele>
						<time>2026-09-04T01:27:43Z</time>
					</trkpt>
					<trkpt lat="45.121730" lon="4.468620">
						<ele>905</ele>
						<time>2026-09-04T01:27:45Z</time>
					</trkpt>
					<trkpt lat="45.121950" lon="4.468180">
						<ele>916</ele>
						<time>2026-09-04T01:28:04Z</time>
					</trkpt>
					<trkpt lat="45.122090" lon="4.468020">
						<ele>922</ele>
						<time>2026-09-04T01:28:13Z</time>
					</trkpt>
					<trkpt lat="45.122220" lon="4.467950">
						<ele>926</ele>
						<time>2026-09-04T01:28:20Z</time>
					</trkpt>
					<trkpt lat="45.122060" lon="4.467800">
						<ele>927</ele>
						<time>2026-09-04T01:28:30Z</time>
					</trkpt>
					<trkpt lat="45.121920" lon="4.467620">
						<ele>929</ele>
						<time>2026-09-04T01:28:39Z</time>
					</trkpt>
					<trkpt lat="45.121710" lon="4.467230">
						<ele>933</ele>
						<time>2026-09-04T01:28:57Z</time>
					</trkpt>
					<trkpt lat="45.121040" lon="4.465700">
						<ele>940</ele>
						<time>2026-09-04T01:30:00Z</time>
					</trkpt>
					<trkpt lat="45.120900" lon="4.465500">
						<ele>939</ele>
						<time>2026-09-04T01:30:10Z</time>
					</trkpt>
					<trkpt lat="45.120730" lon="4.465430">
						<ele>939</ele>
						<time>2026-09-04T01:30:19Z</time>
					</trkpt>
					<trkpt lat="45.120440" lon="4.465460">
						<ele>940</ele>
						<time>2026-09-04T01:30:34Z</time>
					</trkpt>
					<trkpt lat="45.120480" lon="4.465010">
						<ele>947</ele>
						<time>2026-09-04T01:30:50Z</time>
					</trkpt>
					<trkpt lat="45.120450" lon="4.464880">
						<ele>946</ele>
						<time>2026-09-04T01:30:55Z</time>
					</trkpt>
					<trkpt lat="45.120390" lon="4.464820">
						<ele>946</ele>
						<time>2026-09-04T01:30:58Z</time>
					</trkpt>
					<trkpt lat="45.120440" lon="4.464570">
						<ele>945</ele>
						<time>2026-09-04T01:31:07Z</time>
					</trkpt>
					<trkpt lat="45.120740" lon="4.464450">
						<ele>947</ele>
						<time>2026-09-04T01:31:23Z</time>
					</trkpt>
					<trkpt lat="45.121190" lon="4.464140">
						<ele>954</ele>
						<time>2026-09-04T01:31:48Z</time>
					</trkpt>
					<trkpt lat="45.121230" lon="4.464090">
						<ele>954</ele>
						<time>2026-09-04T01:31:51Z</time>
					</trkpt>
					<trkpt lat="45.121300" lon="4.464140">
						<ele>956</ele>
						<time>2026-09-04T01:31:55Z</time>
					</trkpt>
					<trkpt lat="45.121400" lon="4.464150">
						<ele>958</ele>
						<time>2026-09-04T01:32:00Z</time>
					</trkpt>
					<trkpt lat="45.122090" lon="4.463800">
						<ele>967</ele>
						<time>2026-09-04T01:32:36Z</time>
					</trkpt>
					<trkpt lat="45.122330" lon="4.463770">
						<ele>972</ele>
						<time>2026-09-04T01:32:48Z</time>
					</trkpt>
					<trkpt lat="45.122560" lon="4.463810">
						<ele>975</ele>
						<time>2026-09-04T01:33:00Z</time>
					</trkpt>
					<trkpt lat="45.122620" lon="4.463900">
						<ele>976</ele>
						<time>2026-09-04T01:33:04Z</time>
					</trkpt>
					<trkpt lat="45.122710" lon="4.463950">
						<ele>976</ele>
						<time>2026-09-04T01:33:09Z</time>
					</trkpt>
					<trkpt lat="45.123070" lon="4.464430">
						<ele>979</ele>
						<time>2026-09-04T01:33:34Z</time>
					</trkpt>
					<trkpt lat="45.123620" lon="4.465250">
						<ele>984</ele>
						<time>2026-09-04T01:34:14Z</time>
					</trkpt>
					<trkpt lat="45.123690" lon="4.465320">
						<ele>984</ele>
						<time>2026-09-04T01:34:18Z</time>
					</trkpt>
					<trkpt lat="45.123760" lon="4.465350">
						<ele>984</ele>
						<time>2026-09-04T01:34:22Z</time>
					</trkpt>
					<trkpt lat="45.123820" lon="4.465360">
						<ele>984</ele>
						<time>2026-09-04T01:34:25Z</time>
					</trkpt>
					<trkpt lat="45.124010" lon="4.465220">
						<ele>984</ele>
						<time>2026-09-04T01:34:36Z</time>
					</trkpt>
					<trkpt lat="45.124250" lon="4.465090">
						<ele>984</ele>
						<time>2026-09-04T01:34:48Z</time>
					</trkpt>
					<trkpt lat="45.124540" lon="4.465020">
						<ele>981</ele>
						<time>2026-09-04T01:35:03Z</time>
					</trkpt>
					<trkpt lat="45.124960" lon="4.465030">
						<ele>977</ele>
						<time>2026-09-04T01:35:24Z</time>
					</trkpt>
					<trkpt lat="45.125310" lon="4.465360">
						<ele>980</ele>
						<time>2026-09-04T01:35:45Z</time>
					</trkpt>
					<trkpt lat="45.125480" lon="4.465490">
						<ele>982</ele>
						<time>2026-09-04T01:35:55Z</time>
					</trkpt>
					<trkpt lat="45.125730" lon="4.465610">
						<ele>983</ele>
						<time>2026-09-04T01:36:08Z</time>
					</trkpt>
					<trkpt lat="45.125860" lon="4.465620">
						<ele>983</ele>
						<time>2026-09-04T01:36:15Z</time>
					</trkpt>
					<trkpt lat="45.126040" lon="4.465600">
						<ele>985</ele>
						<time>2026-09-04T01:36:24Z</time>
					</trkpt>
					<trkpt lat="45.126930" lon="4.465260">
						<ele>993</ele>
						<time>2026-09-04T01:37:10Z</time>
					</trkpt>
					<trkpt lat="45.126960" lon="4.465160">
						<ele>991</ele>
						<time>2026-09-04T01:37:14Z</time>
					</trkpt>
					<trkpt lat="45.127290" lon="4.464740">
						<ele>988</ele>
						<time>2026-09-04T01:37:36Z</time>
					</trkpt>
					<trkpt lat="45.127360" lon="4.464580">
						<ele>986</ele>
						<time>2026-09-04T01:37:42Z</time>
					</trkpt>
					<trkpt lat="45.127660" lon="4.464220">
						<ele>984</ele>
						<time>2026-09-04T01:38:02Z</time>
					</trkpt>
					<trkpt lat="45.127840" lon="4.463930">
						<ele>982</ele>
						<time>2026-09-04T01:38:16Z</time>
					</trkpt>
					<trkpt lat="45.128030" lon="4.463510">
						<ele>978</ele>
						<time>2026-09-04T01:38:33Z</time>
					</trkpt>
					<trkpt lat="45.128090" lon="4.463270">
						<ele>976</ele>
						<time>2026-09-04T01:38:42Z</time>
					</trkpt>
					<trkpt lat="45.128090" lon="4.463130">
						<ele>974</ele>
						<time>2026-09-04T01:38:47Z</time>
					</trkpt>
					<trkpt lat="45.128020" lon="4.462770">
						<ele>970</ele>
						<time>2026-09-04T01:39:01Z</time>
					</trkpt>
					<trkpt lat="45.127820" lon="4.462140">
						<ele>963</ele>
						<time>2026-09-04T01:39:25Z</time>
					</trkpt>
					<trkpt lat="45.127700" lon="4.461670">
						<ele>960</ele>
						<time>2026-09-04T01:39:43Z</time>
					</trkpt>
					<trkpt lat="45.127710" lon="4.461260">
						<ele>960</ele>
						<time>2026-09-04T01:39:57Z</time>
					</trkpt>
					<trkpt lat="45.127660" lon="4.460880">
						<ele>960</ele>
						<time>2026-09-04T01:40:11Z</time>
					</trkpt>
					<trkpt lat="45.127640" lon="4.460380">
						<ele>959</ele>
						<time>2026-09-04T01:40:28Z</time>
					</trkpt>
					<trkpt lat="45.127500" lon="4.460120">
						<ele>960</ele>
						<time>2026-09-04T01:40:40Z</time>
					</trkpt>
					<trkpt lat="45.127480" lon="4.460040">
						<ele>959</ele>
						<time>2026-09-04T01:40:43Z</time>
					</trkpt>
					<trkpt lat="45.127500" lon="4.460010">
						<ele>960</ele>
						<time>2026-09-04T01:40:44Z</time>
					</trkpt>
					<trkpt lat="45.127590" lon="4.460030">
						<ele>958</ele>
						<time>2026-09-04T01:40:49Z</time>
					</trkpt>
					<trkpt lat="45.127740" lon="4.460110">
						<ele>956</ele>
						<time>2026-09-04T01:40:57Z</time>
					</trkpt>
					<trkpt lat="45.128240" lon="4.460620">
						<ele>952</ele>
						<time>2026-09-04T01:41:28Z</time>
					</trkpt>
					<trkpt lat="45.128650" lon="4.461260">
						<ele>947</ele>
						<time>2026-09-04T01:41:58Z</time>
					</trkpt>
					<trkpt lat="45.128750" lon="4.461480">
						<ele>947</ele>
						<time>2026-09-04T01:42:08Z</time>
					</trkpt>
					<trkpt lat="45.128780" lon="4.461500">
						<ele>947</ele>
						<time>2026-09-04T01:42:09Z</time>
					</trkpt>
					<trkpt lat="45.128810" lon="4.461470">
						<ele>945</ele>
						<time>2026-09-04T01:42:11Z</time>
					</trkpt>
					<trkpt lat="45.128710" lon="4.461130">
						<ele>942</ele>
						<time>2026-09-04T01:42:24Z</time>
					</trkpt>
					<trkpt lat="45.128630" lon="4.460420">
						<ele>934</ele>
						<time>2026-09-04T01:42:49Z</time>
					</trkpt>
					<trkpt lat="45.128630" lon="4.459640">
						<ele>924</ele>
						<time>2026-09-04T01:43:17Z</time>
					</trkpt>
					<trkpt lat="45.128430" lon="4.458840">
						<ele>920</ele>
						<time>2026-09-04T01:43:47Z</time>
					</trkpt>
					<trkpt lat="45.128140" lon="4.458080">
						<ele>912</ele>
						<time>2026-09-04T01:44:17Z</time>
					</trkpt>
					<trkpt lat="45.127940" lon="4.457910">
						<ele>912</ele>
						<time>2026-09-04T01:44:29Z</time>
					</trkpt>
					<trkpt lat="45.127590" lon="4.457740">
						<ele>915</ele>
						<time>2026-09-04T01:44:48Z</time>
					</trkpt>
					<trkpt lat="45.127280" lon="4.457710">
						<ele>913</ele>
						<time>2026-09-04T01:45:03Z</time>
					</trkpt>
					<trkpt lat="45.126570" lon="4.457980">
						<ele>905</ele>
						<time>2026-09-04T01:45:40Z</time>
					</trkpt>
					<trkpt lat="45.126840" lon="4.457680">
						<ele>904</ele>
						<time>2026-09-04T01:45:57Z</time>
					</trkpt>
					<trkpt lat="45.127020" lon="4.457440">
						<ele>900</ele>
						<time>2026-09-04T01:46:09Z</time>
					</trkpt>
					<trkpt lat="45.127350" lon="4.457320">
						<ele>902</ele>
						<time>2026-09-04T01:46:27Z</time>
					</trkpt>
					<trkpt lat="45.127940" lon="4.457270">
						<ele>896</ele>
						<time>2026-09-04T01:46:56Z</time>
					</trkpt>
					<trkpt lat="45.129290" lon="4.458560">
						<ele>877</ele>
						<time>2026-09-04T01:48:18Z</time>
					</trkpt>
					<trkpt lat="45.129800" lon="4.460260">
						<ele>882</ele>
						<time>2026-09-04T01:49:23Z</time>
					</trkpt>
					<trkpt lat="45.130210" lon="4.460340">
						<ele>871</ele>
						<time>2026-09-04T01:49:44Z</time>
					</trkpt>
					<trkpt lat="45.130850" lon="4.460920">
						<ele>863</ele>
						<time>2026-09-04T01:50:22Z</time>
					</trkpt>
					<trkpt lat="45.131350" lon="4.461540">
						<ele>866</ele>
						<time>2026-09-04T01:50:55Z</time>
					</trkpt>
					<trkpt lat="45.131890" lon="4.461590">
						<ele>862</ele>
						<time>2026-09-04T01:51:22Z</time>
					</trkpt>
					<trkpt lat="45.131140" lon="4.458970">
						<ele>868</ele>
						<time>2026-09-04T01:53:02Z</time>
					</trkpt>
					<trkpt lat="45.130940" lon="4.457620">
						<ele>871</ele>
						<time>2026-09-04T01:53:50Z</time>
					</trkpt>
					<trkpt lat="45.130860" lon="4.455940">
						<ele>877</ele>
						<time>2026-09-04T01:54:50Z</time>
					</trkpt>
					<trkpt lat="45.130050" lon="4.453840">
						<ele>866</ele>
						<time>2026-09-04T01:56:14Z</time>
					</trkpt>
					<trkpt lat="45.131060" lon="4.452570">
						<ele>895</ele>
						<time>2026-09-04T01:57:22Z</time>
					</trkpt>
					<trkpt lat="45.129980" lon="4.451290">
						<ele>885</ele>
						<time>2026-09-04T01:58:32Z</time>
					</trkpt>
					<trkpt lat="45.130080" lon="4.450280">
						<ele>892</ele>
						<time>2026-09-04T01:59:08Z</time>
					</trkpt>
					<trkpt lat="45.130420" lon="4.448930">
						<ele>897</ele>
						<time>2026-09-04T01:59:59Z</time>
					</trkpt>
					<trkpt lat="45.131660" lon="4.447640">
						<ele>911</ele>
						<time>2026-09-04T02:01:16Z</time>
					</trkpt>
					<trkpt lat="45.132940" lon="4.447190">
						<ele>932</ele>
						<time>2026-09-04T02:02:22Z</time>
					</trkpt>
					<trkpt lat="45.134100" lon="4.447100">
						<ele>947</ele>
						<time>2026-09-04T02:03:20Z</time>
					</trkpt>
					<trkpt lat="45.135750" lon="4.448150">
						<ele>977</ele>
						<time>2026-09-04T02:04:51Z</time>
					</trkpt>
					<trkpt lat="45.136920" lon="4.448990">
						<ele>992</ele>
						<time>2026-09-04T02:05:56Z</time>
					</trkpt>
					<trkpt lat="45.138050" lon="4.449360">
						<ele>1005</ele>
						<time>2026-09-04T02:06:54Z</time>
					</trkpt>
					<trkpt lat="45.138290" lon="4.449470">
						<ele>1009</ele>
						<time>2026-09-04T02:07:07Z</time>
					</trkpt>
					<trkpt lat="45.138410" lon="4.449470">
						<ele>1011</ele>
						<time>2026-09-04T02:07:13Z</time>
					</trkpt>
					<trkpt lat="45.138450" lon="4.449000">
						<ele>1008</ele>
						<time>2026-09-04T02:07:30Z</time>
					</trkpt>
					<trkpt lat="45.138540" lon="4.449040">
						<ele>1011</ele>
						<time>2026-09-04T02:07:34Z</time>
					</trkpt>
					<trkpt lat="45.138610" lon="4.449750">
						<ele>1021</ele>
						<time>2026-09-04T02:08:00Z</time>
					</trkpt>
					<trkpt lat="45.138540" lon="4.449850">
						<ele>1021</ele>
						<time>2026-09-04T02:08:05Z</time>
					</trkpt>
					<trkpt lat="45.138050" lon="4.449840">
						<ele>1015</ele>
						<time>2026-09-04T02:08:29Z</time>
					</trkpt>
					<trkpt lat="45.136720" lon="4.450160">
						<ele>1028</ele>
						<time>2026-09-04T02:09:37Z</time>
					</trkpt>
					<trkpt lat="45.136430" lon="4.449930">
						<ele>1024</ele>
						<time>2026-09-04T02:09:53Z</time>
					</trkpt>
					<trkpt lat="45.136020" lon="4.449800">
						<ele>1026</ele>
						<time>2026-09-04T02:10:14Z</time>
					</trkpt>
					<trkpt lat="45.135550" lon="4.449740">
						<ele>1031</ele>
						<time>2026-09-04T02:10:38Z</time>
					</trkpt>
					<trkpt lat="45.135340" lon="4.449770">
						<ele>1034</ele>
						<time>2026-09-04T02:10:48Z</time>
					</trkpt>
					<trkpt lat="45.135490" lon="4.449850">
						<ele>1035</ele>
						<time>2026-09-04T02:10:56Z</time>
					</trkpt>
					<trkpt lat="45.135720" lon="4.449890">
						<ele>1033</ele>
						<time>2026-09-04T02:11:08Z</time>
					</trkpt>
					<trkpt lat="45.136020" lon="4.450010">
						<ele>1033</ele>
						<time>2026-09-04T02:11:24Z</time>
					</trkpt>
					<trkpt lat="45.136680" lon="4.450600">
						<ele>1042</ele>
						<time>2026-09-04T02:12:03Z</time>
					</trkpt>
					<trkpt lat="45.136810" lon="4.450660">
						<ele>1044</ele>
						<time>2026-09-04T02:12:10Z</time>
					</trkpt>
					<trkpt lat="45.136980" lon="4.450640">
						<ele>1043</ele>
						<time>2026-09-04T02:12:18Z</time>
					</trkpt>
					<trkpt lat="45.137700" lon="4.450780">
						<ele>1046</ele>
						<time>2026-09-04T02:12:54Z</time>
					</trkpt>
					<trkpt lat="45.138210" lon="4.450850">
						<ele>1047</ele>
						<time>2026-09-04T02:13:20Z</time>
					</trkpt>
					<trkpt lat="45.138610" lon="4.451010">
						<ele>1052</ele>
						<time>2026-09-04T02:13:41Z</time>
					</trkpt>
					<trkpt lat="45.139160" lon="4.451300">
						<ele>1060</ele>
						<time>2026-09-04T02:14:10Z</time>
					</trkpt>
					<trkpt lat="45.139500" lon="4.451400">
						<ele>1065</ele>
						<time>2026-09-04T02:14:28Z</time>
					</trkpt>
					<trkpt lat="45.139730" lon="4.451420">
						<ele>1067</ele>
						<time>2026-09-04T02:14:39Z</time>
					</trkpt>
					<trkpt lat="45.139840" lon="4.451390">
						<ele>1068</ele>
						<time>2026-09-04T02:14:45Z</time>
					</trkpt>
					<trkpt lat="45.140010" lon="4.451290">
						<ele>1069</ele>
						<time>2026-09-04T02:14:54Z</time>
					</trkpt>
					<trkpt lat="45.140120" lon="4.451090">
						<ele>1068</ele>
						<time>2026-09-04T02:15:03Z</time>
					</trkpt>
					<trkpt lat="45.140170" lon="4.450810">
						<ele>1067</ele>
						<time>2026-09-04T02:15:13Z</time>
					</trkpt>
					<trkpt lat="45.140170" lon="4.450350">
						<ele>1068</ele>
						<time>2026-09-04T02:15:29Z</time>
					</trkpt>
					<trkpt lat="45.139850" lon="4.448360">
						<ele>1070</ele>
						<time>2026-09-04T02:16:41Z</time>
					</trkpt>
					<trkpt lat="45.139850" lon="4.448110">
						<ele>1071</ele>
						<time>2026-09-04T02:16:50Z</time>
					</trkpt>
					<trkpt lat="45.139900" lon="4.448030">
						<ele>1073</ele>
						<time>2026-09-04T02:16:54Z</time>
					</trkpt>
					<trkpt lat="45.139880" lon="4.447460">
						<ele>1072</ele>
						<time>2026-09-04T02:17:14Z</time>
					</trkpt>
					<trkpt lat="45.139920" lon="4.447270">
						<ele>1072</ele>
						<time>2026-09-04T02:17:21Z</time>
					</trkpt>
					<trkpt lat="45.139970" lon="4.447120">
						<ele>1072</ele>
						<time>2026-09-04T02:17:27Z</time>
					</trkpt>
					<trkpt lat="45.140250" lon="4.446760">
						<ele>1073</ele>
						<time>2026-09-04T02:17:46Z</time>
					</trkpt>
					<trkpt lat="45.140840" lon="4.446410">
						<ele>1076</ele>
						<time>2026-09-04T02:18:18Z</time>
					</trkpt>
					<trkpt lat="45.141200" lon="4.446260">
						<ele>1075</ele>
						<time>2026-09-04T02:18:37Z</time>
					</trkpt>
					<trkpt lat="45.141640" lon="4.445970">
						<ele>1075</ele>
						<time>2026-09-04T02:19:01Z</time>
					</trkpt>
					<trkpt lat="45.141680" lon="4.445830">
						<ele>1075</ele>
						<time>2026-09-04T02:19:06Z</time>
					</trkpt>
					<trkpt lat="45.142010" lon="4.445610">
						<ele>1074</ele>
						<time>2026-09-04T02:19:25Z</time>
					</trkpt>
					<trkpt lat="45.142260" lon="4.445090">
						<ele>1082</ele>
						<time>2026-09-04T02:19:47Z</time>
					</trkpt>
					<trkpt lat="45.142200" lon="4.444780">
						<ele>1087</ele>
						<time>2026-09-04T02:19:58Z</time>
					</trkpt>
					<trkpt lat="45.141950" lon="4.444130">
						<ele>1093</ele>
						<time>2026-09-04T02:20:24Z</time>
					</trkpt>
					<trkpt lat="45.141940" lon="4.443960">
						<ele>1093</ele>
						<time>2026-09-04T02:20:30Z</time>
					</trkpt>
					<trkpt lat="45.142030" lon="4.443620">
						<ele>1096</ele>
						<time>2026-09-04T02:20:43Z</time>
					</trkpt>
					<trkpt lat="45.142090" lon="4.443480">
						<ele>1097</ele>
						<time>2026-09-04T02:20:49Z</time>
					</trkpt>
					<trkpt lat="45.142420" lon="4.443610">
						<ele>1100</ele>
						<time>2026-09-04T02:21:06Z</time>
					</trkpt>
					<trkpt lat="45.142600" lon="4.443630">
						<ele>1104</ele>
						<time>2026-09-04T02:21:15Z</time>
					</trkpt>
					<trkpt lat="45.142740" lon="4.443470">
						<ele>1109</ele>
						<time>2026-09-04T02:21:24Z</time>
					</trkpt>
					<trkpt lat="45.143020" lon="4.442700">
						<ele>1114</ele>
						<time>2026-09-04T02:21:55Z</time>
					</trkpt>
					<trkpt lat="45.143320" lon="4.441080">
						<ele>1111</ele>
						<time>2026-09-04T02:22:54Z</time>
					</trkpt>
					<trkpt lat="45.143380" lon="4.440530">
						<ele>1109</ele>
						<time>2026-09-04T02:23:13Z</time>
					</trkpt>
					<trkpt lat="45.143430" lon="4.440310">
						<ele>1109</ele>
						<time>2026-09-04T02:23:22Z</time>
					</trkpt>
					<trkpt lat="45.143650" lon="4.439920">
						<ele>1110</ele>
						<time>2026-09-04T02:23:39Z</time>
					</trkpt>
					<trkpt lat="45.143850" lon="4.439500">
						<ele>1112</ele>
						<time>2026-09-04T02:23:57Z</time>
					</trkpt>
					<trkpt lat="45.143620" lon="4.439110">
						<ele>1107</ele>
						<time>2026-09-04T02:24:15Z</time>
					</trkpt>
					<trkpt lat="45.143490" lon="4.438660">
						<ele>1107</ele>
						<time>2026-09-04T02:24:32Z</time>
					</trkpt>
					<trkpt lat="45.143270" lon="4.438080">
						<ele>1107</ele>
						<time>2026-09-04T02:24:55Z</time>
					</trkpt>
					<trkpt lat="45.143120" lon="4.437770">
						<ele>1107</ele>
						<time>2026-09-04T02:25:09Z</time>
					</trkpt>
					<trkpt lat="45.143030" lon="4.437230">
						<ele>1110</ele>
						<time>2026-09-04T02:25:28Z</time>
					</trkpt>
					<trkpt lat="45.142760" lon="4.436510">
						<ele>1114</ele>
						<time>2026-09-04T02:25:57Z</time>
					</trkpt>
					<trkpt lat="45.143010" lon="4.436510">
						<ele>1114</ele>
						<time>2026-09-04T02:26:10Z</time>
					</trkpt>
					<trkpt lat="45.143300" lon="4.436670">
						<ele>1114</ele>
						<time>2026-09-04T02:26:25Z</time>
					</trkpt>
					<trkpt lat="45.143740" lon="4.436710">
						<ele>1111</ele>
						<time>2026-09-04T02:26:47Z</time>
					</trkpt>
					<trkpt lat="45.143940" lon="4.436820">
						<ele>1110</ele>
						<time>2026-09-04T02:26:58Z</time>
					</trkpt>
					<trkpt lat="45.145030" lon="4.436560">
						<ele>1098</ele>
						<time>2026-09-04T02:27:53Z</time>
					</trkpt>
					<trkpt lat="45.145260" lon="4.436570">
						<ele>1095</ele>
						<time>2026-09-04T02:28:05Z</time>
					</trkpt>
					<trkpt lat="45.145610" lon="4.436740">
						<ele>1091</ele>
						<time>2026-09-04T02:28:23Z</time>
					</trkpt>
					<trkpt lat="45.145800" lon="4.436800">
						<ele>1089</ele>
						<time>2026-09-04T02:28:33Z</time>
					</trkpt>
					<trkpt lat="45.145940" lon="4.436770">
						<ele>1087</ele>
						<time>2026-09-04T02:28:40Z</time>
					</trkpt>
					<trkpt lat="45.146410" lon="4.436500">
						<ele>1082</ele>
						<time>2026-09-04T02:29:05Z</time>
					</trkpt>
					<trkpt lat="45.146660" lon="4.436390">
						<ele>1079</ele>
						<time>2026-09-04T02:29:19Z</time>
					</trkpt>
					<trkpt lat="45.146890" lon="4.436340">
						<ele>1078</ele>
						<time>2026-09-04T02:29:30Z</time>
					</trkpt>
					<trkpt lat="45.147120" lon="4.436340">
						<ele>1077</ele>
						<time>2026-09-04T02:29:42Z</time>
					</trkpt>
					<trkpt lat="45.147750" lon="4.436400">
						<ele>1073</ele>
						<time>2026-09-04T02:30:13Z</time>
					</trkpt>
					<trkpt lat="45.147960" lon="4.436460">
						<ele>1072</ele>
						<time>2026-09-04T02:30:24Z</time>
					</trkpt>
					<trkpt lat="45.148220" lon="4.436620">
						<ele>1071</ele>
						<time>2026-09-04T02:30:38Z</time>
					</trkpt>
					<trkpt lat="45.148360" lon="4.436770">
						<ele>1070</ele>
						<time>2026-09-04T02:30:47Z</time>
					</trkpt>
					<trkpt lat="45.148440" lon="4.436920">
						<ele>1070</ele>
						<time>2026-09-04T02:30:54Z</time>
					</trkpt>
					<trkpt lat="45.148760" lon="4.437970">
						<ele>1062</ele>
						<time>2026-09-04T02:31:34Z</time>
					</trkpt>
					<trkpt lat="45.148910" lon="4.438210">
						<ele>1056</ele>
						<time>2026-09-04T02:31:45Z</time>
					</trkpt>
					<trkpt lat="45.149070" lon="4.438400">
						<ele>1050</ele>
						<time>2026-09-04T02:31:56Z</time>
					</trkpt>
					<trkpt lat="45.149160" lon="4.438440">
						<ele>1046</ele>
						<time>2026-09-04T02:32:00Z</time>
					</trkpt>
					<trkpt lat="45.149320" lon="4.438680">
						<ele>1045</ele>
						<time>2026-09-04T02:32:12Z</time>
					</trkpt>
					<trkpt lat="45.149570" lon="4.438860">
						<ele>1044</ele>
						<time>2026-09-04T02:32:26Z</time>
					</trkpt>
					<trkpt lat="45.149750" lon="4.438840">
						<ele>1044</ele>
						<time>2026-09-04T02:32:35Z</time>
					</trkpt>
					<trkpt lat="45.149960" lon="4.438870">
						<ele>1044</ele>
						<time>2026-09-04T02:32:46Z</time>
					</trkpt>
					<trkpt lat="45.150430" lon="4.438530">
						<ele>1046</ele>
						<time>2026-09-04T02:33:12Z</time>
					</trkpt>
					<trkpt lat="45.151380" lon="4.438060">
						<ele>1052</ele>
						<time>2026-09-04T02:34:03Z</time>
					</trkpt>
					<trkpt lat="45.151520" lon="4.437940">
						<ele>1053</ele>
						<time>2026-09-04T02:34:11Z</time>
					</trkpt>
					<trkpt lat="45.151670" lon="4.437730">
						<ele>1053</ele>
						<time>2026-09-04T02:34:21Z</time>
					</trkpt>
					<trkpt lat="45.152000" lon="4.437000">
						<ele>1057</ele>
						<time>2026-09-04T02:34:52Z</time>
					</trkpt>
					<trkpt lat="45.152130" lon="4.436880">
						<ele>1059</ele>
						<time>2026-09-04T02:35:00Z</time>
					</trkpt>
					<trkpt lat="45.152440" lon="4.436900">
						<ele>1062</ele>
						<time>2026-09-04T02:35:15Z</time>
					</trkpt>
					<trkpt lat="45.152710" lon="4.436790">
						<ele>1066</ele>
						<time>2026-09-04T02:35:29Z</time>
					</trkpt>
					<trkpt lat="45.152690" lon="4.436700">
						<ele>1066</ele>
						<time>2026-09-04T02:35:33Z</time>
					</trkpt>
					<trkpt lat="45.152570" lon="4.436570">
						<ele>1065</ele>
						<time>2026-09-04T02:35:40Z</time>
					</trkpt>
					<trkpt lat="45.152490" lon="4.435560">
						<ele>1072</ele>
						<time>2026-09-04T02:36:16Z</time>
					</trkpt>
					<trkpt lat="45.152360" lon="4.435070">
						<ele>1076</ele>
						<time>2026-09-04T02:36:34Z</time>
					</trkpt>
					<trkpt lat="45.152320" lon="4.434830">
						<ele>1078</ele>
						<time>2026-09-04T02:36:43Z</time>
					</trkpt>
					<trkpt lat="45.152340" lon="4.434630">
						<ele>1080</ele>
						<time>2026-09-04T02:36:50Z</time>
					</trkpt>
					<trkpt lat="45.153040" lon="4.432860">
						<ele>1092</ele>
						<time>2026-09-04T02:38:02Z</time>
					</trkpt>
					<trkpt lat="45.153220" lon="4.432510">
						<ele>1093</ele>
						<time>2026-09-04T02:38:17Z</time>
					</trkpt>
					<trkpt lat="45.153440" lon="4.431960">
						<ele>1090</ele>
						<time>2026-09-04T02:38:39Z</time>
					</trkpt>
					<trkpt lat="45.153750" lon="4.431310">
						<ele>1084</ele>
						<time>2026-09-04T02:39:07Z</time>
					</trkpt>
					<trkpt lat="45.153800" lon="4.431250">
						<ele>1082</ele>
						<time>2026-09-04T02:39:10Z</time>
					</trkpt>
					<trkpt lat="45.154400" lon="4.431220">
						<ele>1081</ele>
						<time>2026-09-04T02:39:41Z</time>
					</trkpt>
					<trkpt lat="45.154680" lon="4.430920">
						<ele>1082</ele>
						<time>2026-09-04T02:39:58Z</time>
					</trkpt>
					<trkpt lat="45.154740" lon="4.430820">
						<ele>1082</ele>
						<time>2026-09-04T02:40:03Z</time>
					</trkpt>
					<trkpt lat="45.154970" lon="4.429830">
						<ele>1076</ele>
						<time>2026-09-04T02:40:39Z</time>
					</trkpt>
					<trkpt lat="45.155070" lon="4.429300">
						<ele>1074</ele>
						<time>2026-09-04T02:40:59Z</time>
					</trkpt>
					<trkpt lat="45.155120" lon="4.428750">
						<ele>1070</ele>
						<time>2026-09-04T02:41:18Z</time>
					</trkpt>
					<trkpt lat="45.155290" lon="4.428030">
						<ele>1068</ele>
						<time>2026-09-04T02:41:45Z</time>
					</trkpt>
					<trkpt lat="45.155420" lon="4.427650">
						<ele>1066</ele>
						<time>2026-09-04T02:42:00Z</time>
					</trkpt>
					<trkpt lat="45.155730" lon="4.426890">
						<ele>1059</ele>
						<time>2026-09-04T02:42:31Z</time>
					</trkpt>
					<trkpt lat="45.155910" lon="4.426330">
						<ele>1050</ele>
						<time>2026-09-04T02:42:53Z</time>
					</trkpt>
					<trkpt lat="45.156250" lon="4.426580">
						<ele>1053</ele>
						<time>2026-09-04T02:43:12Z</time>
					</trkpt>
					<trkpt lat="45.156440" lon="4.426750">
						<ele>1055</ele>
						<time>2026-09-04T02:43:23Z</time>
					</trkpt>
					<trkpt lat="45.156550" lon="4.426910">
						<ele>1058</ele>
						<time>2026-09-04T02:43:31Z</time>
					</trkpt>
					<trkpt lat="45.156660" lon="4.427200">
						<ele>1064</ele>
						<time>2026-09-04T02:43:43Z</time>
					</trkpt>
					<trkpt lat="45.156790" lon="4.427360">
						<ele>1067</ele>
						<time>2026-09-04T02:43:51Z</time>
					</trkpt>
					<trkpt lat="45.157020" lon="4.427540">
						<ele>1068</ele>
						<time>2026-09-04T02:44:04Z</time>
					</trkpt>
					<trkpt lat="45.157410" lon="4.428000">
						<ele>1072</ele>
						<time>2026-09-04T02:44:30Z</time>
					</trkpt>
					<trkpt lat="45.157690" lon="4.428150">
						<ele>1074</ele>
						<time>2026-09-04T02:44:45Z</time>
					</trkpt>
					<trkpt lat="45.158410" lon="4.428630">
						<ele>1079</ele>
						<time>2026-09-04T02:45:25Z</time>
					</trkpt>
					<trkpt lat="45.158740" lon="4.427850">
						<ele>1080</ele>
						<time>2026-09-04T02:45:57Z</time>
					</trkpt>
					<trkpt lat="45.158950" lon="4.427210">
						<ele>1081</ele>
						<time>2026-09-04T02:46:22Z</time>
					</trkpt>
					<trkpt lat="45.159040" lon="4.426610">
						<ele>1082</ele>
						<time>2026-09-04T02:46:43Z</time>
					</trkpt>
					<trkpt lat="45.159500" lon="4.424970">
						<ele>1078</ele>
						<time>2026-09-04T02:47:46Z</time>
					</trkpt>
					<trkpt lat="45.159710" lon="4.424620">
						<ele>1075</ele>
						<time>2026-09-04T02:48:02Z</time>
					</trkpt>
					<trkpt lat="45.160290" lon="4.423320">
						<ele>1065</ele>
						<time>2026-09-04T02:48:56Z</time>
					</trkpt>
					<trkpt lat="45.160880" lon="4.421840">
						<ele>1054</ele>
						<time>2026-09-04T02:49:56Z</time>
					</trkpt>
					<trkpt lat="45.161060" lon="4.421160">
						<ele>1046</ele>
						<time>2026-09-04T02:50:22Z</time>
					</trkpt>
					<trkpt lat="45.161390" lon="4.420330">
						<ele>1035</ele>
						<time>2026-09-04T02:50:55Z</time>
					</trkpt>
					<trkpt lat="45.161670" lon="4.419930">
						<ele>1031</ele>
						<time>2026-09-04T02:51:15Z</time>
					</trkpt>
					<trkpt lat="45.162140" lon="4.419410">
						<ele>1018</ele>
						<time>2026-09-04T02:51:45Z</time>
					</trkpt>
					<trkpt lat="45.162920" lon="4.418660">
						<ele>1004</ele>
						<time>2026-09-04T02:52:32Z</time>
					</trkpt>
					<trkpt lat="45.163010" lon="4.418520">
						<ele>1003</ele>
						<time>2026-09-04T02:52:39Z</time>
					</trkpt>
					<trkpt lat="45.163050" lon="4.418380">
						<ele>1003</ele>
						<time>2026-09-04T02:52:44Z</time>
					</trkpt>
					<trkpt lat="45.163060" lon="4.418230">
						<ele>1001</ele>
						<time>2026-09-04T02:52:50Z</time>
					</trkpt>
					<trkpt lat="45.163000" lon="4.418060">
						<ele>999</ele>
						<time>2026-09-04T02:52:56Z</time>
					</trkpt>
					<trkpt lat="45.162920" lon="4.417970">
						<ele>997</ele>
						<time>2026-09-04T02:53:01Z</time>
					</trkpt>
					<trkpt lat="45.162800" lon="4.417910">
						<ele>997</ele>
						<time>2026-09-04T02:53:08Z</time>
					</trkpt>
					<trkpt lat="45.162350" lon="4.417830">
						<ele>995</ele>
						<time>2026-09-04T02:53:30Z</time>
					</trkpt>
					<trkpt lat="45.162660" lon="4.417540">
						<ele>991</ele>
						<time>2026-09-04T02:53:49Z</time>
					</trkpt>
					<trkpt lat="45.163120" lon="4.417220">
						<ele>979</ele>
						<time>2026-09-04T02:54:15Z</time>
					</trkpt>
					<trkpt lat="45.163540" lon="4.417050">
						<ele>968</ele>
						<time>2026-09-04T02:54:37Z</time>
					</trkpt>
					<trkpt lat="45.163820" lon="4.417090">
						<ele>964</ele>
						<time>2026-09-04T02:54:51Z</time>
					</trkpt>
					<trkpt lat="45.163990" lon="4.417180">
						<ele>962</ele>
						<time>2026-09-04T02:55:00Z</time>
					</trkpt>
					<trkpt lat="45.164140" lon="4.417300">
						<ele>961</ele>
						<time>2026-09-04T02:55:08Z</time>
					</trkpt>
					<trkpt lat="45.164250" lon="4.417430">
						<ele>960</ele>
						<time>2026-09-04T02:55:15Z</time>
					</trkpt>
					<trkpt lat="45.164370" lon="4.417650">
						<ele>959</ele>
						<time>2026-09-04T02:55:25Z</time>
					</trkpt>
					<trkpt lat="45.164650" lon="4.418390">
						<ele>954</ele>
						<time>2026-09-04T02:55:55Z</time>
					</trkpt>
					<trkpt lat="45.164710" lon="4.417930">
						<ele>951</ele>
						<time>2026-09-04T02:56:11Z</time>
					</trkpt>
					<trkpt lat="45.164710" lon="4.417410">
						<ele>948</ele>
						<time>2026-09-04T02:56:30Z</time>
					</trkpt>
					<trkpt lat="45.164830" lon="4.417060">
						<ele>941</ele>
						<time>2026-09-04T02:56:43Z</time>
					</trkpt>
					<trkpt lat="45.164830" lon="4.416820">
						<ele>938</ele>
						<time>2026-09-04T02:56:52Z</time>
					</trkpt>
					<trkpt lat="45.164720" lon="4.416610">
						<ele>940</ele>
						<time>2026-09-04T02:57:01Z</time>
					</trkpt>
					<trkpt lat="45.164740" lon="4.416500">
						<ele>941</ele>
						<time>2026-09-04T02:57:05Z</time>
					</trkpt>
					<trkpt lat="45.164830" lon="4.416470">
						<ele>940</ele>
						<time>2026-09-04T02:57:10Z</time>
					</trkpt>
					<trkpt lat="45.164920" lon="4.416590">
						<ele>936</ele>
						<time>2026-09-04T02:57:16Z</time>
					</trkpt>
					<trkpt lat="45.165030" lon="4.416530">
						<ele>936</ele>
						<time>2026-09-04T02:57:22Z</time>
					</trkpt>
					<trkpt lat="45.165440" lon="4.416610">
						<ele>936</ele>
						<time>2026-09-04T02:57:43Z</time>
					</trkpt>
					<trkpt lat="45.165720" lon="4.416570">
						<ele>938</ele>
						<time>2026-09-04T02:57:57Z</time>
					</trkpt>
					<trkpt lat="45.166350" lon="4.416650">
						<ele>942</ele>
						<time>2026-09-04T02:58:28Z</time>
					</trkpt>
					<trkpt lat="45.166650" lon="4.416630">
						<ele>944</ele>
						<time>2026-09-04T02:58:43Z</time>
					</trkpt>
					<trkpt lat="45.167080" lon="4.416540">
						<ele>947</ele>
						<time>2026-09-04T02:59:05Z</time>
					</trkpt>
					<trkpt lat="45.167290" lon="4.416530">
						<ele>948</ele>
						<time>2026-09-04T02:59:16Z</time>
					</trkpt>
					<trkpt lat="45.168030" lon="4.416260">
						<ele>953</ele>
						<time>2026-09-04T02:59:54Z</time>
					</trkpt>
					<trkpt lat="45.168650" lon="4.416090">
						<ele>959</ele>
						<time>2026-09-04T03:00:25Z</time>
					</trkpt>
					<trkpt lat="45.168710" lon="4.416120">
						<ele>961</ele>
						<time>2026-09-04T03:00:29Z</time>
					</trkpt>
					<trkpt lat="45.168700" lon="4.416220">
						<ele>965</ele>
						<time>2026-09-04T03:00:32Z</time>
					</trkpt>
					<trkpt lat="45.168610" lon="4.416380">
						<ele>969</ele>
						<time>2026-09-04T03:00:39Z</time>
					</trkpt>
					<trkpt lat="45.167910" lon="4.417170">
						<ele>982</ele>
						<time>2026-09-04T03:01:24Z</time>
					</trkpt>
					<trkpt lat="45.167570" lon="4.417700">
						<ele>992</ele>
						<time>2026-09-04T03:01:50Z</time>
					</trkpt>
					<trkpt lat="45.167060" lon="4.418570">
						<ele>1002</ele>
						<time>2026-09-04T03:02:29Z</time>
					</trkpt>
					<trkpt lat="45.166770" lon="4.419230">
						<ele>1006</ele>
						<time>2026-09-04T03:02:57Z</time>
					</trkpt>
					<trkpt lat="45.166780" lon="4.419280">
						<ele>1006</ele>
						<time>2026-09-04T03:02:59Z</time>
					</trkpt>
					<trkpt lat="45.166860" lon="4.419350">
						<ele>1007</ele>
						<time>2026-09-04T03:03:03Z</time>
					</trkpt>
					<trkpt lat="45.167080" lon="4.419380">
						<ele>1011</ele>
						<time>2026-09-04T03:03:14Z</time>
					</trkpt>
					<trkpt lat="45.168090" lon="4.419450">
						<ele>1021</ele>
						<time>2026-09-04T03:04:05Z</time>
					</trkpt>
					<trkpt lat="45.168180" lon="4.419530">
						<ele>1021</ele>
						<time>2026-09-04T03:04:10Z</time>
					</trkpt>
					<trkpt lat="45.168460" lon="4.419920">
						<ele>1021</ele>
						<time>2026-09-04T03:04:30Z</time>
					</trkpt>
					<trkpt lat="45.168550" lon="4.419970">
						<ele>1022</ele>
						<time>2026-09-04T03:04:35Z</time>
					</trkpt>
					<trkpt lat="45.169170" lon="4.420040">
						<ele>1026</ele>
						<time>2026-09-04T03:05:06Z</time>
					</trkpt>
					<trkpt lat="45.169280" lon="4.420030">
						<ele>1027</ele>
						<time>2026-09-04T03:05:11Z</time>
					</trkpt>
					<trkpt lat="45.169840" lon="4.419750">
						<ele>1035</ele>
						<time>2026-09-04T03:05:41Z</time>
					</trkpt>
					<trkpt lat="45.170280" lon="4.419750">
						<ele>1041</ele>
						<time>2026-09-04T03:06:03Z</time>
					</trkpt>
					<trkpt lat="45.170420" lon="4.419660">
						<ele>1042</ele>
						<time>2026-09-04T03:06:11Z</time>
					</trkpt>
					<trkpt lat="45.170380" lon="4.419520">
						<ele>1042</ele>
						<time>2026-09-04T03:06:16Z</time>
					</trkpt>
					<trkpt lat="45.170390" lon="4.419260">
						<ele>1042</ele>
						<time>2026-09-04T03:06:25Z</time>
					</trkpt>
					<trkpt lat="45.170470" lon="4.418730">
						<ele>1040</ele>
						<time>2026-09-04T03:06:45Z</time>
					</trkpt>
					<trkpt lat="45.170590" lon="4.418350">
						<ele>1039</ele>
						<time>2026-09-04T03:06:59Z</time>
					</trkpt>
					<trkpt lat="45.171060" lon="4.417320">
						<ele>1033</ele>
						<time>2026-09-04T03:07:43Z</time>
					</trkpt>
					<trkpt lat="45.172470" lon="4.415480">
						<ele>1016</ele>
						<time>2026-09-04T03:09:18Z</time>
					</trkpt>
					<trkpt lat="45.173090" lon="4.414810">
						<ele>1012</ele>
						<time>2026-09-04T03:09:57Z</time>
					</trkpt>
					<trkpt lat="45.173960" lon="4.413780">
						<ele>1009</ele>
						<time>2026-09-04T03:10:54Z</time>
					</trkpt>
					<trkpt lat="45.174340" lon="4.413230">
						<ele>1005</ele>
						<time>2026-09-04T03:11:21Z</time>
					</trkpt>
					<trkpt lat="45.174550" lon="4.412820">
						<ele>1002</ele>
						<time>2026-09-04T03:11:39Z</time>
					</trkpt>
					<trkpt lat="45.174710" lon="4.412220">
						<ele>998</ele>
						<time>2026-09-04T03:12:02Z</time>
					</trkpt>
					<trkpt lat="45.175020" lon="4.411240">
						<ele>989</ele>
						<time>2026-09-04T03:12:40Z</time>
					</trkpt>
					<trkpt lat="45.175250" lon="4.410640">
						<ele>983</ele>
						<time>2026-09-04T03:13:04Z</time>
					</trkpt>
					<trkpt lat="45.175310" lon="4.410420">
						<ele>981</ele>
						<time>2026-09-04T03:13:12Z</time>
					</trkpt>
					<trkpt lat="45.175360" lon="4.410150">
						<ele>979</ele>
						<time>2026-09-04T03:13:22Z</time>
					</trkpt>
					<trkpt lat="45.175370" lon="4.409840">
						<ele>978</ele>
						<time>2026-09-04T03:13:33Z</time>
					</trkpt>
					<trkpt lat="45.175260" lon="4.408960">
						<ele>970</ele>
						<time>2026-09-04T03:14:04Z</time>
					</trkpt>
					<trkpt lat="45.175350" lon="4.408710">
						<ele>965</ele>
						<time>2026-09-04T03:14:14Z</time>
					</trkpt>
					<trkpt lat="45.175490" lon="4.408500">
						<ele>962</ele>
						<time>2026-09-04T03:14:25Z</time>
					</trkpt>
					<trkpt lat="45.175670" lon="4.408000">
						<ele>956</ele>
						<time>2026-09-04T03:14:44Z</time>
					</trkpt>
					<trkpt lat="45.175680" lon="4.407890">
						<ele>954</ele>
						<time>2026-09-04T03:14:48Z</time>
					</trkpt>
					<trkpt lat="45.175650" lon="4.407760">
						<ele>953</ele>
						<time>2026-09-04T03:14:53Z</time>
					</trkpt>
					<trkpt lat="45.175590" lon="4.407660">
						<ele>951</ele>
						<time>2026-09-04T03:14:58Z</time>
					</trkpt>
					<trkpt lat="45.175300" lon="4.407330">
						<ele>944</ele>
						<time>2026-09-04T03:15:16Z</time>
					</trkpt>
					<trkpt lat="45.175400" lon="4.407230">
						<ele>943</ele>
						<time>2026-09-04T03:15:22Z</time>
					</trkpt>
					<trkpt lat="45.175630" lon="4.407070">
						<ele>941</ele>
						<time>2026-09-04T03:15:35Z</time>
					</trkpt>
					<trkpt lat="45.175760" lon="4.407030">
						<ele>941</ele>
						<time>2026-09-04T03:15:42Z</time>
					</trkpt>
					<trkpt lat="45.175820" lon="4.406940">
						<ele>940</ele>
						<time>2026-09-04T03:15:46Z</time>
					</trkpt>
					<trkpt lat="45.175930" lon="4.406910">
						<ele>938</ele>
						<time>2026-09-04T03:15:52Z</time>
					</trkpt>
					<trkpt lat="45.175950" lon="4.406810">
						<ele>935</ele>
						<time>2026-09-04T03:15:56Z</time>
					</trkpt>
					<trkpt lat="45.175890" lon="4.406640">
						<ele>933</ele>
						<time>2026-09-04T03:16:02Z</time>
					</trkpt>
					<trkpt lat="45.175910" lon="4.406560">
						<ele>930</ele>
						<time>2026-09-04T03:16:05Z</time>
					</trkpt>
					<trkpt lat="45.175950" lon="4.406530">
						<ele>929</ele>
						<time>2026-09-04T03:16:08Z</time>
					</trkpt>
					<trkpt lat="45.176100" lon="4.406540">
						<ele>927</ele>
						<time>2026-09-04T03:16:15Z</time>
					</trkpt>
					<trkpt lat="45.176380" lon="4.406760">
						<ele>926</ele>
						<time>2026-09-04T03:16:31Z</time>
					</trkpt>
					<trkpt lat="45.176700" lon="4.406940">
						<ele>923</ele>
						<time>2026-09-04T03:16:48Z</time>
					</trkpt>
					<trkpt lat="45.176840" lon="4.407070">
						<ele>922</ele>
						<time>2026-09-04T03:16:57Z</time>
					</trkpt>
					<trkpt lat="45.176920" lon="4.407190">
						<ele>922</ele>
						<time>2026-09-04T03:17:02Z</time>
					</trkpt>
					<trkpt lat="45.176980" lon="4.407180">
						<ele>921</ele>
						<time>2026-09-04T03:17:05Z</time>
					</trkpt>
					<trkpt lat="45.176980" lon="4.406810">
						<ele>915</ele>
						<time>2026-09-04T03:17:19Z</time>
					</trkpt>
					<trkpt lat="45.176940" lon="4.406640">
						<ele>913</ele>
						<time>2026-09-04T03:17:25Z</time>
					</trkpt>
					<trkpt lat="45.176820" lon="4.406340">
						<ele>912</ele>
						<time>2026-09-04T03:17:37Z</time>
					</trkpt>
					<trkpt lat="45.176630" lon="4.405970">
						<ele>907</ele>
						<time>2026-09-04T03:17:53Z</time>
					</trkpt>
					<trkpt lat="45.176520" lon="4.405630">
						<ele>902</ele>
						<time>2026-09-04T03:18:06Z</time>
					</trkpt>
					<trkpt lat="45.176540" lon="4.405520">
						<ele>901</ele>
						<time>2026-09-04T03:18:10Z</time>
					</trkpt>
					<trkpt lat="45.176720" lon="4.405450">
						<ele>901</ele>
						<time>2026-09-04T03:18:20Z</time>
					</trkpt>
					<trkpt lat="45.176830" lon="4.405350">
						<ele>901</ele>
						<time>2026-09-04T03:18:26Z</time>
					</trkpt>
					<trkpt lat="45.176970" lon="4.405200">
						<ele>903</ele>
						<time>2026-09-04T03:18:35Z</time>
					</trkpt>
					<trkpt lat="45.177030" lon="4.405060">
						<ele>903</ele>
						<time>2026-09-04T03:18:41Z</time>
					</trkpt>
					<trkpt lat="45.177000" lon="4.404720">
						<ele>901</ele>
						<time>2026-09-04T03:18:53Z</time>
					</trkpt>
					<trkpt lat="45.177030" lon="4.403800">
						<ele>899</ele>
						<time>2026-09-04T03:19:25Z</time>
					</trkpt>
					<trkpt lat="45.177160" lon="4.403790">
						<ele>902</ele>
						<time>2026-09-04T03:19:32Z</time>
					</trkpt>
					<trkpt lat="45.177280" lon="4.403850">
						<ele>905</ele>
						<time>2026-09-04T03:19:38Z</time>
					</trkpt>
					<trkpt lat="45.177200" lon="4.404100">
						<ele>903</ele>
						<time>2026-09-04T03:19:48Z</time>
					</trkpt>
					<trkpt lat="45.177200" lon="4.404240">
						<ele>903</ele>
						<time>2026-09-04T03:19:53Z</time>
					</trkpt>
					<trkpt lat="45.177270" lon="4.404830">
						<ele>908</ele>
						<time>2026-09-04T03:20:14Z</time>
					</trkpt>
					<trkpt lat="45.177350" lon="4.405060">
						<ele>910</ele>
						<time>2026-09-04T03:20:23Z</time>
					</trkpt>
					<trkpt lat="45.177510" lon="4.405280">
						<ele>912</ele>
						<time>2026-09-04T03:20:34Z</time>
					</trkpt>
					<trkpt lat="45.177700" lon="4.405470">
						<ele>917</ele>
						<time>2026-09-04T03:20:46Z</time>
					</trkpt>
					<trkpt lat="45.177890" lon="4.405550">
						<ele>923</ele>
						<time>2026-09-04T03:20:56Z</time>
					</trkpt>
					<trkpt lat="45.177710" lon="4.405190">
						<ele>920</ele>
						<time>2026-09-04T03:21:11Z</time>
					</trkpt>
					<trkpt lat="45.177660" lon="4.405050">
						<ele>919</ele>
						<time>2026-09-04T03:21:17Z</time>
					</trkpt>
					<trkpt lat="45.177640" lon="4.404900">
						<ele>918</ele>
						<time>2026-09-04T03:21:22Z</time>
					</trkpt>
					<trkpt lat="45.177650" lon="4.404770">
						<ele>918</ele>
						<time>2026-09-04T03:21:27Z</time>
					</trkpt>
					<trkpt lat="45.177700" lon="4.404630">
						<ele>919</ele>
						<time>2026-09-04T03:21:32Z</time>
					</trkpt>
					<trkpt lat="45.177780" lon="4.404570">
						<ele>921</ele>
						<time>2026-09-04T03:21:37Z</time>
					</trkpt>
					<trkpt lat="45.177840" lon="4.404570">
						<ele>923</ele>
						<time>2026-09-04T03:21:40Z</time>
					</trkpt>
					<trkpt lat="45.177880" lon="4.404620">
						<ele>924</ele>
						<time>2026-09-04T03:21:43Z</time>
					</trkpt>
					<trkpt lat="45.177880" lon="4.404810">
						<ele>926</ele>
						<time>2026-09-04T03:21:49Z</time>
					</trkpt>
					<trkpt lat="45.178030" lon="4.405090">
						<ele>931</ele>
						<time>2026-09-04T03:22:02Z</time>
					</trkpt>
					<trkpt lat="45.178220" lon="4.405260">
						<ele>936</ele>
						<time>2026-09-04T03:22:13Z</time>
					</trkpt>
					<trkpt lat="45.178250" lon="4.405200">
						<ele>938</ele>
						<time>2026-09-04T03:22:16Z</time>
					</trkpt>
					<trkpt lat="45.178260" lon="4.405010">
						<ele>939</ele>
						<time>2026-09-04T03:22:22Z</time>
					</trkpt>
					<trkpt lat="45.178310" lon="4.404900">
						<ele>940</ele>
						<time>2026-09-04T03:22:27Z</time>
					</trkpt>
					<trkpt lat="45.178420" lon="4.404810">
						<ele>942</ele>
						<time>2026-09-04T03:22:33Z</time>
					</trkpt>
					<trkpt lat="45.178550" lon="4.404790">
						<ele>944</ele>
						<time>2026-09-04T03:22:40Z</time>
					</trkpt>
					<trkpt lat="45.178670" lon="4.404890">
						<ele>947</ele>
						<time>2026-09-04T03:22:47Z</time>
					</trkpt>
					<trkpt lat="45.178750" lon="4.405010">
						<ele>949</ele>
						<time>2026-09-04T03:22:53Z</time>
					</trkpt>
					<trkpt lat="45.179280" lon="4.405130">
						<ele>957</ele>
						<time>2026-09-04T03:23:19Z</time>
					</trkpt>
					<trkpt lat="45.179580" lon="4.405150">
						<ele>961</ele>
						<time>2026-09-04T03:23:34Z</time>
					</trkpt>
					<trkpt lat="45.179630" lon="4.405170">
						<ele>961</ele>
						<time>2026-09-04T03:23:37Z</time>
					</trkpt>
					<trkpt lat="45.179740" lon="4.405300">
						<ele>962</ele>
						<time>2026-09-04T03:23:44Z</time>
					</trkpt>
					<trkpt lat="45.180030" lon="4.405400">
						<ele>965</ele>
						<time>2026-09-04T03:23:59Z</time>
					</trkpt>
					<trkpt lat="45.180820" lon="4.405220">
						<ele>969</ele>
						<time>2026-09-04T03:24:39Z</time>
					</trkpt>
					<trkpt lat="45.181550" lon="4.405150">
						<ele>978</ele>
						<time>2026-09-04T03:25:16Z</time>
					</trkpt>
					<trkpt lat="45.181650" lon="4.405110">
						<ele>979</ele>
						<time>2026-09-04T03:25:21Z</time>
					</trkpt>
					<trkpt lat="45.181800" lon="4.404940">
						<ele>982</ele>
						<time>2026-09-04T03:25:31Z</time>
					</trkpt>
					<trkpt lat="45.181950" lon="4.404720">
						<ele>984</ele>
						<time>2026-09-04T03:25:41Z</time>
					</trkpt>
					<trkpt lat="45.181980" lon="4.404540">
						<ele>985</ele>
						<time>2026-09-04T03:25:48Z</time>
					</trkpt>
					<trkpt lat="45.181950" lon="4.404000">
						<ele>987</ele>
						<time>2026-09-04T03:26:07Z</time>
					</trkpt>
					<trkpt lat="45.181750" lon="4.403690">
						<ele>987</ele>
						<time>2026-09-04T03:26:22Z</time>
					</trkpt>
					<trkpt lat="45.181750" lon="4.403560">
						<ele>988</ele>
						<time>2026-09-04T03:26:26Z</time>
					</trkpt>
					<trkpt lat="45.181630" lon="4.403470">
						<ele>988</ele>
						<time>2026-09-04T03:26:33Z</time>
					</trkpt>
					<trkpt lat="45.181530" lon="4.403340">
						<ele>989</ele>
						<time>2026-09-04T03:26:40Z</time>
					</trkpt>
					<trkpt lat="45.181350" lon="4.402860">
						<ele>992</ele>
						<time>2026-09-04T03:26:59Z</time>
					</trkpt>
					<trkpt lat="45.181120" lon="4.402470">
						<ele>993</ele>
						<time>2026-09-04T03:27:17Z</time>
					</trkpt>
					<trkpt lat="45.180930" lon="4.402200">
						<ele>993</ele>
						<time>2026-09-04T03:27:31Z</time>
					</trkpt>
					<trkpt lat="45.180760" lon="4.401850">
						<ele>993</ele>
						<time>2026-09-04T03:27:46Z</time>
					</trkpt>
					<trkpt lat="45.180620" lon="4.401480">
						<ele>992</ele>
						<time>2026-09-04T03:28:00Z</time>
					</trkpt>
					<trkpt lat="45.180530" lon="4.401100">
						<ele>991</ele>
						<time>2026-09-04T03:28:15Z</time>
					</trkpt>
					<trkpt lat="45.180450" lon="4.400690">
						<ele>989</ele>
						<time>2026-09-04T03:28:30Z</time>
					</trkpt>
					<trkpt lat="45.180340" lon="4.399890">
						<ele>984</ele>
						<time>2026-09-04T03:28:58Z</time>
					</trkpt>
					<trkpt lat="45.180320" lon="4.399310">
						<ele>981</ele>
						<time>2026-09-04T03:29:19Z</time>
					</trkpt>
					<trkpt lat="45.180350" lon="4.398720">
						<ele>977</ele>
						<time>2026-09-04T03:29:40Z</time>
					</trkpt>
					<trkpt lat="45.180480" lon="4.397840">
						<ele>970</ele>
						<time>2026-09-04T03:30:11Z</time>
					</trkpt>
					<trkpt lat="45.180600" lon="4.397280">
						<ele>966</ele>
						<time>2026-09-04T03:30:32Z</time>
					</trkpt>
					<trkpt lat="45.180730" lon="4.396860">
						<ele>965</ele>
						<time>2026-09-04T03:30:48Z</time>
					</trkpt>
					<trkpt lat="45.180800" lon="4.396460">
						<ele>962</ele>
						<time>2026-09-04T03:31:03Z</time>
					</trkpt>
					<trkpt lat="45.180980" lon="4.395850">
						<ele>960</ele>
						<time>2026-09-04T03:31:26Z</time>
					</trkpt>
					<trkpt lat="45.181240" lon="4.395170">
						<ele>952</ele>
						<time>2026-09-04T03:31:53Z</time>
					</trkpt>
					<trkpt lat="45.181380" lon="4.394900">
						<ele>951</ele>
						<time>2026-09-04T03:32:05Z</time>
					</trkpt>
					<trkpt lat="45.181560" lon="4.394630">
						<ele>953</ele>
						<time>2026-09-04T03:32:18Z</time>
					</trkpt>
					<trkpt lat="45.181570" lon="4.394520">
						<ele>953</ele>
						<time>2026-09-04T03:32:22Z</time>
					</trkpt>
					<trkpt lat="45.181460" lon="4.394090">
						<ele>945</ele>
						<time>2026-09-04T03:32:38Z</time>
					</trkpt>
					<trkpt lat="45.181440" lon="4.393760">
						<ele>942</ele>
						<time>2026-09-04T03:32:50Z</time>
					</trkpt>
					<trkpt lat="45.181310" lon="4.392890">
						<ele>930</ele>
						<time>2026-09-04T03:33:21Z</time>
					</trkpt>
					<trkpt lat="45.181310" lon="4.391990">
						<ele>923</ele>
						<time>2026-09-04T03:33:53Z</time>
					</trkpt>
					<trkpt lat="45.181180" lon="4.390920">
						<ele>912</ele>
						<time>2026-09-04T03:34:31Z</time>
					</trkpt>
					<trkpt lat="45.181130" lon="4.390800">
						<ele>909</ele>
						<time>2026-09-04T03:34:36Z</time>
					</trkpt>
					<trkpt lat="45.181030" lon="4.391050">
						<ele>906</ele>
						<time>2026-09-04T03:34:46Z</time>
					</trkpt>
					<trkpt lat="45.180850" lon="4.392040">
						<ele>904</ele>
						<time>2026-09-04T03:35:23Z</time>
					</trkpt>
					<trkpt lat="45.180700" lon="4.392570">
						<ele>904</ele>
						<time>2026-09-04T03:35:43Z</time>
					</trkpt>
					<trkpt lat="45.180160" lon="4.393700">
						<ele>892</ele>
						<time>2026-09-04T03:36:31Z</time>
					</trkpt>
					<trkpt lat="45.179940" lon="4.393970">
						<ele>887</ele>
						<time>2026-09-04T03:36:45Z</time>
					</trkpt>
					<trkpt lat="45.180150" lon="4.393270">
						<ele>889</ele>
						<time>2026-09-04T03:37:12Z</time>
					</trkpt>
					<trkpt lat="45.180320" lon="4.392320">
						<ele>891</ele>
						<time>2026-09-04T03:37:47Z</time>
					</trkpt>
					<trkpt lat="45.180430" lon="4.391890">
						<ele>892</ele>
						<time>2026-09-04T03:38:03Z</time>
					</trkpt>
					<trkpt lat="45.180470" lon="4.391450">
						<ele>891</ele>
						<time>2026-09-04T03:38:19Z</time>
					</trkpt>
					<trkpt lat="45.180460" lon="4.391210">
						<ele>890</ele>
						<time>2026-09-04T03:38:27Z</time>
					</trkpt>
					<trkpt lat="45.180360" lon="4.390750">
						<ele>887</ele>
						<time>2026-09-04T03:38:44Z</time>
					</trkpt>
					<trkpt lat="45.180370" lon="4.390560">
						<ele>886</ele>
						<time>2026-09-04T03:38:51Z</time>
					</trkpt>
					<trkpt lat="45.180430" lon="4.390440">
						<ele>887</ele>
						<time>2026-09-04T03:38:56Z</time>
					</trkpt>
					<trkpt lat="45.181440" lon="4.388960">
						<ele>880</ele>
						<time>2026-09-04T03:40:09Z</time>
					</trkpt>
					<trkpt lat="45.181610" lon="4.388600">
						<ele>876</ele>
						<time>2026-09-04T03:40:24Z</time>
					</trkpt>
					<trkpt lat="45.181720" lon="4.388540">
						<ele>875</ele>
						<time>2026-09-04T03:40:30Z</time>
					</trkpt>
					<trkpt lat="45.181800" lon="4.388550">
						<ele>874</ele>
						<time>2026-09-04T03:40:34Z</time>
					</trkpt>
					<trkpt lat="45.181940" lon="4.388640">
						<ele>875</ele>
						<time>2026-09-04T03:40:42Z</time>
					</trkpt>
					<trkpt lat="45.181830" lon="4.388370">
						<ele>872</ele>
						<time>2026-09-04T03:40:53Z</time>
					</trkpt>
					<trkpt lat="45.181810" lon="4.388200">
						<ele>873</ele>
						<time>2026-09-04T03:40:59Z</time>
					</trkpt>
					<trkpt lat="45.181950" lon="4.388170">
						<ele>873</ele>
						<time>2026-09-04T03:41:06Z</time>
					</trkpt>
					<trkpt lat="45.182050" lon="4.388120">
						<ele>874</ele>
						<time>2026-09-04T03:41:11Z</time>
					</trkpt>
					<trkpt lat="45.182170" lon="4.388030">
						<ele>875</ele>
						<time>2026-09-04T03:41:18Z</time>
					</trkpt>
					<trkpt lat="45.182200" lon="4.387940">
						<ele>876</ele>
						<time>2026-09-04T03:41:21Z</time>
					</trkpt>
					<trkpt lat="45.182210" lon="4.387790">
						<ele>878</ele>
						<time>2026-09-04T03:41:27Z</time>
					</trkpt>
					<trkpt lat="45.182240" lon="4.387720">
						<ele>878</ele>
						<time>2026-09-04T03:41:30Z</time>
					</trkpt>
					<trkpt lat="45.182160" lon="4.387280">
						<ele>885</ele>
						<time>2026-09-04T03:41:46Z</time>
					</trkpt>
					<trkpt lat="45.182140" lon="4.386800">
						<ele>894</ele>
						<time>2026-09-04T03:42:02Z</time>
					</trkpt>
					<trkpt lat="45.181980" lon="4.386280">
						<ele>903</ele>
						<time>2026-09-04T03:42:23Z</time>
					</trkpt>
					<trkpt lat="45.181910" lon="4.386160">
						<ele>905</ele>
						<time>2026-09-04T03:42:28Z</time>
					</trkpt>
					<trkpt lat="45.181930" lon="4.386130">
						<ele>906</ele>
						<time>2026-09-04T03:42:29Z</time>
					</trkpt>
					<trkpt lat="45.182060" lon="4.386190">
						<ele>906</ele>
						<time>2026-09-04T03:42:36Z</time>
					</trkpt>
					<trkpt lat="45.182330" lon="4.386430">
						<ele>905</ele>
						<time>2026-09-04T03:42:52Z</time>
					</trkpt>
					<trkpt lat="45.182510" lon="4.386700">
						<ele>901</ele>
						<time>2026-09-04T03:43:05Z</time>
					</trkpt>
					<trkpt lat="45.182680" lon="4.386880">
						<ele>900</ele>
						<time>2026-09-04T03:43:16Z</time>
					</trkpt>
					<trkpt lat="45.182920" lon="4.387000">
						<ele>900</ele>
						<time>2026-09-04T03:43:29Z</time>
					</trkpt>
					<trkpt lat="45.183120" lon="4.387000">
						<ele>903</ele>
						<time>2026-09-04T03:43:39Z</time>
					</trkpt>
					<trkpt lat="45.183400" lon="4.386810">
						<ele>911</ele>
						<time>2026-09-04T03:43:54Z</time>
					</trkpt>
					<trkpt lat="45.183520" lon="4.386640">
						<ele>915</ele>
						<time>2026-09-04T03:44:03Z</time>
					</trkpt>
					<trkpt lat="45.183450" lon="4.386600">
						<ele>917</ele>
						<time>2026-09-04T03:44:07Z</time>
					</trkpt>
					<trkpt lat="45.183240" lon="4.386580">
						<ele>917</ele>
						<time>2026-09-04T03:44:17Z</time>
					</trkpt>
					<trkpt lat="45.183160" lon="4.386550">
						<ele>916</ele>
						<time>2026-09-04T03:44:21Z</time>
					</trkpt>
					<trkpt lat="45.183140" lon="4.386050">
						<ele>926</ele>
						<time>2026-09-04T03:44:39Z</time>
					</trkpt>
					<trkpt lat="45.183520" lon="4.385220">
						<ele>944</ele>
						<time>2026-09-04T03:45:14Z</time>
					</trkpt>
					<trkpt lat="45.184020" lon="4.384650">
						<ele>951</ele>
						<time>2026-09-04T03:45:46Z</time>
					</trkpt>
					<trkpt lat="45.185160" lon="4.383700">
						<ele>952</ele>
						<time>2026-09-04T03:46:52Z</time>
					</trkpt>
					<trkpt lat="45.185390" lon="4.383570">
						<ele>948</ele>
						<time>2026-09-04T03:47:04Z</time>
					</trkpt>
					<trkpt lat="45.185630" lon="4.383320">
						<ele>945</ele>
						<time>2026-09-04T03:47:19Z</time>
					</trkpt>
					<trkpt lat="45.185850" lon="4.382890">
						<ele>945</ele>
						<time>2026-09-04T03:47:38Z</time>
					</trkpt>
					<trkpt lat="45.185900" lon="4.382620">
						<ele>946</ele>
						<time>2026-09-04T03:47:48Z</time>
					</trkpt>
					<trkpt lat="45.185960" lon="4.382520">
						<ele>945</ele>
						<time>2026-09-04T03:47:53Z</time>
					</trkpt>
					<trkpt lat="45.186050" lon="4.382200">
						<ele>946</ele>
						<time>2026-09-04T03:48:05Z</time>
					</trkpt>
					<trkpt lat="45.186120" lon="4.382090">
						<ele>946</ele>
						<time>2026-09-04T03:48:10Z</time>
					</trkpt>
					<trkpt lat="45.186390" lon="4.381940">
						<ele>941</ele>
						<time>2026-09-04T03:48:24Z</time>
					</trkpt>
					<trkpt lat="45.186580" lon="4.381750">
						<ele>940</ele>
						<time>2026-09-04T03:48:36Z</time>
					</trkpt>
					<trkpt lat="45.186950" lon="4.381280">
						<ele>940</ele>
						<time>2026-09-04T03:49:01Z</time>
					</trkpt>
					<trkpt lat="45.187340" lon="4.380600">
						<ele>940</ele>
						<time>2026-09-04T03:49:32Z</time>
					</trkpt>
					<trkpt lat="45.187520" lon="4.380210">
						<ele>940</ele>
						<time>2026-09-04T03:49:48Z</time>
					</trkpt>
					<trkpt lat="45.187570" lon="4.380020">
						<ele>941</ele>
						<time>2026-09-04T03:49:55Z</time>
					</trkpt>
					<trkpt lat="45.187560" lon="4.379840">
						<ele>943</ele>
						<time>2026-09-04T03:50:02Z</time>
					</trkpt>
					<trkpt lat="45.187510" lon="4.379680">
						<ele>946</ele>
						<time>2026-09-04T03:50:08Z</time>
					</trkpt>
					<trkpt lat="45.187500" lon="4.379530">
						<ele>948</ele>
						<time>2026-09-04T03:50:13Z</time>
					</trkpt>
					<trkpt lat="45.187540" lon="4.379410">
						<ele>949</ele>
						<time>2026-09-04T03:50:18Z</time>
					</trkpt>
					<trkpt lat="45.187800" lon="4.379140">
						<ele>947</ele>
						<time>2026-09-04T03:50:34Z</time>
					</trkpt>
					<trkpt lat="45.187930" lon="4.378920">
						<ele>950</ele>
						<time>2026-09-04T03:50:44Z</time>
					</trkpt>
					<trkpt lat="45.188100" lon="4.378510">
						<ele>958</ele>
						<time>2026-09-04T03:51:01Z</time>
					</trkpt>
					<trkpt lat="45.188210" lon="4.378480">
						<ele>957</ele>
						<time>2026-09-04T03:51:07Z</time>
					</trkpt>
					<trkpt lat="45.188340" lon="4.378520">
						<ele>954</ele>
						<time>2026-09-04T03:51:13Z</time>
					</trkpt>
					<trkpt lat="45.188490" lon="4.378650">
						<ele>952</ele>
						<time>2026-09-04T03:51:22Z</time>
					</trkpt>
					<trkpt lat="45.188640" lon="4.378720">
						<ele>951</ele>
						<time>2026-09-04T03:51:30Z</time>
					</trkpt>
					<trkpt lat="45.188940" lon="4.378410">
						<ele>961</ele>
						<time>2026-09-04T03:51:49Z</time>
					</trkpt>
					<trkpt lat="45.189020" lon="4.378370">
						<ele>963</ele>
						<time>2026-09-04T03:51:53Z</time>
					</trkpt>
					<trkpt lat="45.189260" lon="4.378370">
						<ele>964</ele>
						<time>2026-09-04T03:52:05Z</time>
					</trkpt>
					<trkpt lat="45.189480" lon="4.378230">
						<ele>969</ele>
						<time>2026-09-04T03:52:17Z</time>
					</trkpt>
					<trkpt lat="45.189880" lon="4.378080">
						<ele>974</ele>
						<time>2026-09-04T03:52:38Z</time>
					</trkpt>
					<trkpt lat="45.190060" lon="4.377970">
						<ele>978</ele>
						<time>2026-09-04T03:52:47Z</time>
					</trkpt>
					<trkpt lat="45.190150" lon="4.377820">
						<ele>982</ele>
						<time>2026-09-04T03:52:54Z</time>
					</trkpt>
					<trkpt lat="45.190220" lon="4.377420">
						<ele>992</ele>
						<time>2026-09-04T03:53:09Z</time>
					</trkpt>
					<trkpt lat="45.190540" lon="4.376090">
						<ele>1003</ele>
						<time>2026-09-04T03:53:58Z</time>
					</trkpt>
					<trkpt lat="45.190600" lon="4.375460">
						<ele>1001</ele>
						<time>2026-09-04T03:54:21Z</time>
					</trkpt>
					<trkpt lat="45.190550" lon="4.375110">
						<ele>999</ele>
						<time>2026-09-04T03:54:33Z</time>
					</trkpt>
					<trkpt lat="45.190350" lon="4.374600">
						<ele>995</ele>
						<time>2026-09-04T03:54:54Z</time>
					</trkpt>
					<trkpt lat="45.190080" lon="4.374150">
						<ele>994</ele>
						<time>2026-09-04T03:55:15Z</time>
					</trkpt>
					<trkpt lat="45.189900" lon="4.373770">
						<ele>990</ele>
						<time>2026-09-04T03:55:31Z</time>
					</trkpt>
					<trkpt lat="45.189610" lon="4.373370">
						<ele>987</ele>
						<time>2026-09-04T03:55:51Z</time>
					</trkpt>
					<trkpt lat="45.189280" lon="4.372660">
						<ele>982</ele>
						<time>2026-09-04T03:56:21Z</time>
					</trkpt>
					<trkpt lat="45.188920" lon="4.372230">
						<ele>986</ele>
						<time>2026-09-04T03:56:45Z</time>
					</trkpt>
					<trkpt lat="45.188840" lon="4.372010">
						<ele>987</ele>
						<time>2026-09-04T03:56:53Z</time>
					</trkpt>
					<trkpt lat="45.188910" lon="4.371800">
						<ele>986</ele>
						<time>2026-09-04T03:57:02Z</time>
					</trkpt>
					<trkpt lat="45.189290" lon="4.371520">
						<ele>981</ele>
						<time>2026-09-04T03:57:23Z</time>
					</trkpt>
					<trkpt lat="45.189420" lon="4.371340">
						<ele>980</ele>
						<time>2026-09-04T03:57:32Z</time>
					</trkpt>
					<trkpt lat="45.189470" lon="4.371100">
						<ele>980</ele>
						<time>2026-09-04T03:57:41Z</time>
					</trkpt>
					<trkpt lat="45.189390" lon="4.370520">
						<ele>982</ele>
						<time>2026-09-04T03:58:02Z</time>
					</trkpt>
					<trkpt lat="45.189400" lon="4.370320">
						<ele>982</ele>
						<time>2026-09-04T03:58:09Z</time>
					</trkpt>
					<trkpt lat="45.189520" lon="4.370160">
						<ele>982</ele>
						<time>2026-09-04T03:58:17Z</time>
					</trkpt>
					<trkpt lat="45.189640" lon="4.370140">
						<ele>981</ele>
						<time>2026-09-04T03:58:23Z</time>
					</trkpt>
					<trkpt lat="45.189970" lon="4.370210">
						<ele>980</ele>
						<time>2026-09-04T03:58:40Z</time>
					</trkpt>
					<trkpt lat="45.190080" lon="4.370180">
						<ele>980</ele>
						<time>2026-09-04T03:58:46Z</time>
					</trkpt>
					<trkpt lat="45.190490" lon="4.369530">
						<ele>987</ele>
						<time>2026-09-04T03:59:16Z</time>
					</trkpt>
					<trkpt lat="45.190650" lon="4.369420">
						<ele>989</ele>
						<time>2026-09-04T03:59:25Z</time>
					</trkpt>
					<trkpt lat="45.190760" lon="4.369470">
						<ele>989</ele>
						<time>2026-09-04T03:59:31Z</time>
					</trkpt>
					<trkpt lat="45.191180" lon="4.370150">
						<ele>987</ele>
						<time>2026-09-04T04:00:03Z</time>
					</trkpt>
					<trkpt lat="45.191290" lon="4.370230">
						<ele>988</ele>
						<time>2026-09-04T04:00:09Z</time>
					</trkpt>
					<trkpt lat="45.191390" lon="4.370100">
						<ele>990</ele>
						<time>2026-09-04T04:00:16Z</time>
					</trkpt>
					<trkpt lat="45.191510" lon="4.369670">
						<ele>993</ele>
						<time>2026-09-04T04:00:32Z</time>
					</trkpt>
					<trkpt lat="45.191730" lon="4.369260">
						<ele>997</ele>
						<time>2026-09-04T04:00:50Z</time>
					</trkpt>
					<trkpt lat="45.191960" lon="4.369020">
						<ele>1000</ele>
						<time>2026-09-04T04:01:05Z</time>
					</trkpt>
					<trkpt lat="45.192090" lon="4.369000">
						<ele>1000</ele>
						<time>2026-09-04T04:01:11Z</time>
					</trkpt>
					<trkpt lat="45.192410" lon="4.368820">
						<ele>1001</ele>
						<time>2026-09-04T04:01:28Z</time>
					</trkpt>
					<trkpt lat="45.192980" lon="4.368440">
						<ele>997</ele>
						<time>2026-09-04T04:02:00Z</time>
					</trkpt>
					<trkpt lat="45.193830" lon="4.367960">
						<ele>993</ele>
						<time>2026-09-04T04:02:46Z</time>
					</trkpt>
					<trkpt lat="45.194670" lon="4.367360">
						<ele>1000</ele>
						<time>2026-09-04T04:03:33Z</time>
					</trkpt>
					<trkpt lat="45.194950" lon="4.367110">
						<ele>1002</ele>
						<time>2026-09-04T04:03:49Z</time>
					</trkpt>
					<trkpt lat="45.195010" lon="4.367030">
						<ele>1003</ele>
						<time>2026-09-04T04:03:53Z</time>
					</trkpt>
					<trkpt lat="45.195330" lon="4.366830">
						<ele>1005</ele>
						<time>2026-09-04T04:04:11Z</time>
					</trkpt>
					<trkpt lat="45.195450" lon="4.366710">
						<ele>1005</ele>
						<time>2026-09-04T04:04:18Z</time>
					</trkpt>
					<trkpt lat="45.196050" lon="4.366370">
						<ele>1002</ele>
						<time>2026-09-04T04:04:51Z</time>
					</trkpt>
					<trkpt lat="45.196700" lon="4.366100">
						<ele>995</ele>
						<time>2026-09-04T04:05:24Z</time>
					</trkpt>
					<trkpt lat="45.196960" lon="4.365910">
						<ele>991</ele>
						<time>2026-09-04T04:05:39Z</time>
					</trkpt>
					<trkpt lat="45.197180" lon="4.365670">
						<ele>988</ele>
						<time>2026-09-04T04:05:53Z</time>
					</trkpt>
					<trkpt lat="45.197390" lon="4.365510">
						<ele>985</ele>
						<time>2026-09-04T04:06:05Z</time>
					</trkpt>
					<trkpt lat="45.197850" lon="4.365240">
						<ele>978</ele>
						<time>2026-09-04T04:06:30Z</time>
					</trkpt>
					<trkpt lat="45.197960" lon="4.365010">
						<ele>975</ele>
						<time>2026-09-04T04:06:40Z</time>
					</trkpt>
					<trkpt lat="45.198510" lon="4.364320">
						<ele>966</ele>
						<time>2026-09-04T04:07:16Z</time>
					</trkpt>
					<trkpt lat="45.198920" lon="4.363950">
						<ele>960</ele>
						<time>2026-09-04T04:07:41Z</time>
					</trkpt>
					<trkpt lat="45.199580" lon="4.362990">
						<ele>946</ele>
						<time>2026-09-04T04:08:28Z</time>
					</trkpt>
					<trkpt lat="45.199990" lon="4.362570">
						<ele>936</ele>
						<time>2026-09-04T04:08:53Z</time>
					</trkpt>
					<trkpt lat="45.200520" lon="4.362150">
						<ele>929</ele>
						<time>2026-09-04T04:09:24Z</time>
					</trkpt>
					<trkpt lat="45.200870" lon="4.361760">
						<ele>925</ele>
						<time>2026-09-04T04:09:46Z</time>
					</trkpt>
					<trkpt lat="45.201100" lon="4.361380">
						<ele>923</ele>
						<time>2026-09-04T04:10:04Z</time>
					</trkpt>
					<trkpt lat="45.201190" lon="4.361070">
						<ele>921</ele>
						<time>2026-09-04T04:10:15Z</time>
					</trkpt>
					<trkpt lat="45.201400" lon="4.360130">
						<ele>920</ele>
						<time>2026-09-04T04:10:50Z</time>
					</trkpt>
					<trkpt lat="45.201570" lon="4.359600">
						<ele>919</ele>
						<time>2026-09-04T04:11:11Z</time>
					</trkpt>
					<trkpt lat="45.201770" lon="4.359170">
						<ele>916</ele>
						<time>2026-09-04T04:11:29Z</time>
					</trkpt>
					<trkpt lat="45.202040" lon="4.358430">
						<ele>905</ele>
						<time>2026-09-04T04:11:58Z</time>
					</trkpt>
					<trkpt lat="45.202420" lon="4.357660">
						<ele>890</ele>
						<time>2026-09-04T04:12:31Z</time>
					</trkpt>
					<trkpt lat="45.202600" lon="4.357360">
						<ele>887</ele>
						<time>2026-09-04T04:12:45Z</time>
					</trkpt>
					<trkpt lat="45.202910" lon="4.356930">
						<ele>888</ele>
						<time>2026-09-04T04:13:07Z</time>
					</trkpt>
					<trkpt lat="45.203050" lon="4.356810">
						<ele>889</ele>
						<time>2026-09-04T04:13:15Z</time>
					</trkpt>
					<trkpt lat="45.203270" lon="4.356700">
						<ele>890</ele>
						<time>2026-09-04T04:13:27Z</time>
					</trkpt>
					<trkpt lat="45.203430" lon="4.356650">
						<ele>890</ele>
						<time>2026-09-04T04:13:35Z</time>
					</trkpt>
					<trkpt lat="45.203550" lon="4.356650">
						<ele>889</ele>
						<time>2026-09-04T04:13:41Z</time>
					</trkpt>
					<trkpt lat="45.203730" lon="4.356550">
						<ele>888</ele>
						<time>2026-09-04T04:13:51Z</time>
					</trkpt>
					<trkpt lat="45.203920" lon="4.356330">
						<ele>888</ele>
						<time>2026-09-04T04:14:03Z</time>
					</trkpt>
					<trkpt lat="45.204330" lon="4.355490">
						<ele>888</ele>
						<time>2026-09-04T04:14:39Z</time>
					</trkpt>
					<trkpt lat="45.204520" lon="4.355190">
						<ele>885</ele>
						<time>2026-09-04T04:14:53Z</time>
					</trkpt>
					<trkpt lat="45.204630" lon="4.355080">
						<ele>884</ele>
						<time>2026-09-04T04:15:00Z</time>
					</trkpt>
					<trkpt lat="45.204960" lon="4.354870">
						<ele>880</ele>
						<time>2026-09-04T04:15:18Z</time>
					</trkpt>
					<trkpt lat="45.205050" lon="4.354740">
						<ele>878</ele>
						<time>2026-09-04T04:15:25Z</time>
					</trkpt>
					<trkpt lat="45.205140" lon="4.354480">
						<ele>875</ele>
						<time>2026-09-04T04:15:35Z</time>
					</trkpt>
					<trkpt lat="45.205290" lon="4.353640">
						<ele>863</ele>
						<time>2026-09-04T04:16:05Z</time>
					</trkpt>
					<trkpt lat="45.205280" lon="4.352920">
						<ele>851</ele>
						<time>2026-09-04T04:16:31Z</time>
					</trkpt>
					<trkpt lat="45.205300" lon="4.352360">
						<ele>841</ele>
						<time>2026-09-04T04:16:50Z</time>
					</trkpt>
					<trkpt lat="45.205230" lon="4.352060">
						<ele>837</ele>
						<time>2026-09-04T04:17:02Z</time>
					</trkpt>
					<trkpt lat="45.205290" lon="4.351970">
						<ele>835</ele>
						<time>2026-09-04T04:17:06Z</time>
					</trkpt>
					<trkpt lat="45.205440" lon="4.351960">
						<ele>834</ele>
						<time>2026-09-04T04:17:13Z</time>
					</trkpt>
					<trkpt lat="45.205600" lon="4.352030">
						<ele>833</ele>
						<time>2026-09-04T04:17:22Z</time>
					</trkpt>
					<trkpt lat="45.205850" lon="4.352240">
						<ele>834</ele>
						<time>2026-09-04T04:17:36Z</time>
					</trkpt>
					<trkpt lat="45.206080" lon="4.352480">
						<ele>835</ele>
						<time>2026-09-04T04:17:51Z</time>
					</trkpt>
					<trkpt lat="45.206390" lon="4.352900">
						<ele>835</ele>
						<time>2026-09-04T04:18:12Z</time>
					</trkpt>
					<trkpt lat="45.206780" lon="4.353240">
						<ele>831</ele>
						<time>2026-09-04T04:18:35Z</time>
					</trkpt>
					<trkpt lat="45.207220" lon="4.353460">
						<ele>826</ele>
						<time>2026-09-04T04:18:58Z</time>
					</trkpt>
					<trkpt lat="45.207300" lon="4.353590">
						<ele>824</ele>
						<time>2026-09-04T04:19:04Z</time>
					</trkpt>
					<trkpt lat="45.207350" lon="4.353800">
						<ele>824</ele>
						<time>2026-09-04T04:19:12Z</time>
					</trkpt>
					<trkpt lat="45.207330" lon="4.354260">
						<ele>823</ele>
						<time>2026-09-04T04:19:29Z</time>
					</trkpt>
					<trkpt lat="45.207360" lon="4.354360">
						<ele>822</ele>
						<time>2026-09-04T04:19:32Z</time>
					</trkpt>
					<trkpt lat="45.207450" lon="4.354420">
						<ele>820</ele>
						<time>2026-09-04T04:19:37Z</time>
					</trkpt>
					<trkpt lat="45.207800" lon="4.354390">
						<ele>815</ele>
						<time>2026-09-04T04:19:55Z</time>
					</trkpt>
					<trkpt lat="45.208190" lon="4.354130">
						<ele>811</ele>
						<time>2026-09-04T04:20:16Z</time>
					</trkpt>
					<trkpt lat="45.208930" lon="4.353300">
						<ele>809</ele>
						<time>2026-09-04T04:21:04Z</time>
					</trkpt>
					<trkpt lat="45.209170" lon="4.353020">
						<ele>808</ele>
						<time>2026-09-04T04:21:19Z</time>
					</trkpt>
					<trkpt lat="45.209380" lon="4.352590">
						<ele>804</ele>
						<time>2026-09-04T04:21:38Z</time>
					</trkpt>
					<trkpt lat="45.209520" lon="4.352140">
						<ele>798</ele>
						<time>2026-09-04T04:21:55Z</time>
					</trkpt>
					<trkpt lat="45.209510" lon="4.351960">
						<ele>797</ele>
						<time>2026-09-04T04:22:01Z</time>
					</trkpt>
					<trkpt lat="45.209310" lon="4.351480">
						<ele>795</ele>
						<time>2026-09-04T04:22:21Z</time>
					</trkpt>
					<trkpt lat="45.209270" lon="4.351110">
						<ele>793</ele>
						<time>2026-09-04T04:22:34Z</time>
					</trkpt>
					<trkpt lat="45.209370" lon="4.350940">
						<ele>792</ele>
						<time>2026-09-04T04:22:42Z</time>
					</trkpt>
					<trkpt lat="45.209880" lon="4.350660">
						<ele>791</ele>
						<time>2026-09-04T04:23:09Z</time>
					</trkpt>
					<trkpt lat="45.210320" lon="4.350340">
						<ele>793</ele>
						<time>2026-09-04T04:23:34Z</time>
					</trkpt>
					<trkpt lat="45.210840" lon="4.349850">
						<ele>793</ele>
						<time>2026-09-04T04:24:05Z</time>
					</trkpt>
					<trkpt lat="45.211130" lon="4.349530">
						<ele>794</ele>
						<time>2026-09-04T04:24:24Z</time>
					</trkpt>
					<trkpt lat="45.211420" lon="4.349300">
						<ele>794</ele>
						<time>2026-09-04T04:24:40Z</time>
					</trkpt>
					<trkpt lat="45.211520" lon="4.349140">
						<ele>794</ele>
						<time>2026-09-04T04:24:48Z</time>
					</trkpt>
					<trkpt lat="45.211730" lon="4.348670">
						<ele>797</ele>
						<time>2026-09-04T04:25:08Z</time>
					</trkpt>
					<trkpt lat="45.211900" lon="4.348680">
						<ele>796</ele>
						<time>2026-09-04T04:25:16Z</time>
					</trkpt>
					<trkpt lat="45.212110" lon="4.348500">
						<ele>796</ele>
						<time>2026-09-04T04:25:28Z</time>
					</trkpt>
					<trkpt lat="45.212410" lon="4.347910">
						<ele>799</ele>
						<time>2026-09-04T04:25:54Z</time>
					</trkpt>
					<trkpt lat="45.212950" lon="4.347100">
						<ele>802</ele>
						<time>2026-09-04T04:26:33Z</time>
					</trkpt>
					<trkpt lat="45.213100" lon="4.346710">
						<ele>803</ele>
						<time>2026-09-04T04:26:49Z</time>
					</trkpt>
					<trkpt lat="45.212930" lon="4.346600">
						<ele>805</ele>
						<time>2026-09-04T04:26:58Z</time>
					</trkpt>
					<trkpt lat="45.212360" lon="4.345880">
						<ele>813</ele>
						<time>2026-09-04T04:27:36Z</time>
					</trkpt>
					<trkpt lat="45.212230" lon="4.345550">
						<ele>816</ele>
						<time>2026-09-04T04:27:50Z</time>
					</trkpt>
					<trkpt lat="45.212160" lon="4.344680">
						<ele>824</ele>
						<time>2026-09-04T04:28:21Z</time>
					</trkpt>
					<trkpt lat="45.211950" lon="4.344080">
						<ele>831</ele>
						<time>2026-09-04T04:28:44Z</time>
					</trkpt>
					<trkpt lat="45.211750" lon="4.343800">
						<ele>836</ele>
						<time>2026-09-04T04:28:58Z</time>
					</trkpt>
					<trkpt lat="45.210920" lon="4.343220">
						<ele>850</ele>
						<time>2026-09-04T04:29:45Z</time>
					</trkpt>
					<trkpt lat="45.210780" lon="4.343050">
						<ele>852</ele>
						<time>2026-09-04T04:29:54Z</time>
					</trkpt>
					<trkpt lat="45.210660" lon="4.342780">
						<ele>855</ele>
						<time>2026-09-04T04:30:05Z</time>
					</trkpt>
					<trkpt lat="45.210600" lon="4.342420">
						<ele>858</ele>
						<time>2026-09-04T04:30:18Z</time>
					</trkpt>
					<trkpt lat="45.210480" lon="4.342190">
						<ele>859</ele>
						<time>2026-09-04T04:30:28Z</time>
					</trkpt>
					<trkpt lat="45.210370" lon="4.342120">
						<ele>861</ele>
						<time>2026-09-04T04:30:34Z</time>
					</trkpt>
					<trkpt lat="45.210270" lon="4.341840">
						<ele>862</ele>
						<time>2026-09-04T04:30:45Z</time>
					</trkpt>
					<trkpt lat="45.210170" lon="4.341430">
						<ele>865</ele>
						<time>2026-09-04T04:31:01Z</time>
					</trkpt>
					<trkpt lat="45.210150" lon="4.341130">
						<ele>867</ele>
						<time>2026-09-04T04:31:11Z</time>
					</trkpt>
					<trkpt lat="45.210230" lon="4.340790">
						<ele>869</ele>
						<time>2026-09-04T04:31:24Z</time>
					</trkpt>
					<trkpt lat="45.210480" lon="4.340270">
						<ele>874</ele>
						<time>2026-09-04T04:31:46Z</time>
					</trkpt>
					<trkpt lat="45.210850" lon="4.339240">
						<ele>888</ele>
						<time>2026-09-04T04:32:27Z</time>
					</trkpt>
					<trkpt lat="45.211000" lon="4.338580">
						<ele>893</ele>
						<time>2026-09-04T04:32:51Z</time>
					</trkpt>
					<trkpt lat="45.211480" lon="4.337270">
						<ele>899</ele>
						<time>2026-09-04T04:33:43Z</time>
					</trkpt>
					<trkpt lat="45.211850" lon="4.336500">
						<ele>903</ele>
						<time>2026-09-04T04:34:16Z</time>
					</trkpt>
					<trkpt lat="45.212260" lon="4.335430">
						<ele>905</ele>
						<time>2026-09-04T04:34:59Z</time>
					</trkpt>
					<trkpt lat="45.212640" lon="4.334720">
						<ele>897</ele>
						<time>2026-09-04T04:35:31Z</time>
					</trkpt>
					<trkpt lat="45.213090" lon="4.334370">
						<ele>889</ele>
						<time>2026-09-04T04:35:56Z</time>
					</trkpt>
					<trkpt lat="45.213170" lon="4.334100">
						<ele>889</ele>
						<time>2026-09-04T04:36:07Z</time>
					</trkpt>
					<trkpt lat="45.213170" lon="4.333680">
						<ele>893</ele>
						<time>2026-09-04T04:36:21Z</time>
					</trkpt>
					<trkpt lat="45.213100" lon="4.333380">
						<ele>898</ele>
						<time>2026-09-04T04:36:33Z</time>
					</trkpt>
					<trkpt lat="45.213230" lon="4.332870">
						<ele>899</ele>
						<time>2026-09-04T04:36:52Z</time>
					</trkpt>
					<trkpt lat="45.213560" lon="4.332120">
						<ele>896</ele>
						<time>2026-09-04T04:37:23Z</time>
					</trkpt>
					<trkpt lat="45.213550" lon="4.331690">
						<ele>896</ele>
						<time>2026-09-04T04:37:38Z</time>
					</trkpt>
					<trkpt lat="45.212360" lon="4.331750">
						<ele>909</ele>
						<time>2026-09-04T04:38:38Z</time>
					</trkpt>
					<trkpt lat="45.212070" lon="4.331860">
						<ele>911</ele>
						<time>2026-09-04T04:38:53Z</time>
					</trkpt>
					<trkpt lat="45.211610" lon="4.332270">
						<ele>918</ele>
						<time>2026-09-04T04:39:20Z</time>
					</trkpt>
					<trkpt lat="45.211410" lon="4.332560">
						<ele>921</ele>
						<time>2026-09-04T04:39:34Z</time>
					</trkpt>
					<trkpt lat="45.211310" lon="4.332870">
						<ele>924</ele>
						<time>2026-09-04T04:39:46Z</time>
					</trkpt>
					<trkpt lat="45.211210" lon="4.333060">
						<ele>926</ele>
						<time>2026-09-04T04:39:54Z</time>
					</trkpt>
					<trkpt lat="45.210150" lon="4.333850">
						<ele>935</ele>
						<time>2026-09-04T04:40:54Z</time>
					</trkpt>
					<trkpt lat="45.209940" lon="4.333980">
						<ele>936</ele>
						<time>2026-09-04T04:41:06Z</time>
					</trkpt>
					<trkpt lat="45.209380" lon="4.334210">
						<ele>935</ele>
						<time>2026-09-04T04:41:35Z</time>
					</trkpt>
					<trkpt lat="45.209160" lon="4.334250">
						<ele>933</ele>
						<time>2026-09-04T04:41:46Z</time>
					</trkpt>
					<trkpt lat="45.209040" lon="4.334200">
						<ele>931</ele>
						<time>2026-09-04T04:41:52Z</time>
					</trkpt>
					<trkpt lat="45.208910" lon="4.334080">
						<ele>928</ele>
						<time>2026-09-04T04:42:00Z</time>
					</trkpt>
					<trkpt lat="45.208780" lon="4.333890">
						<ele>925</ele>
						<time>2026-09-04T04:42:09Z</time>
					</trkpt>
					<trkpt lat="45.208120" lon="4.333140">
						<ele>924</ele>
						<time>2026-09-04T04:42:52Z</time>
					</trkpt>
					<trkpt lat="45.208000" lon="4.333050">
						<ele>924</ele>
						<time>2026-09-04T04:42:59Z</time>
					</trkpt>
					<trkpt lat="45.207810" lon="4.333010">
						<ele>925</ele>
						<time>2026-09-04T04:43:08Z</time>
					</trkpt>
					<trkpt lat="45.207670" lon="4.333010">
						<ele>926</ele>
						<time>2026-09-04T04:43:15Z</time>
					</trkpt>
					<trkpt lat="45.207740" lon="4.332760">
						<ele>925</ele>
						<time>2026-09-04T04:43:25Z</time>
					</trkpt>
					<trkpt lat="45.207770" lon="4.332510">
						<ele>925</ele>
						<time>2026-09-04T04:43:34Z</time>
					</trkpt>
					<trkpt lat="45.207960" lon="4.331840">
						<ele>921</ele>
						<time>2026-09-04T04:43:59Z</time>
					</trkpt>
					<trkpt lat="45.208260" lon="4.331150">
						<ele>917</ele>
						<time>2026-09-04T04:44:28Z</time>
					</trkpt>
					<trkpt lat="45.208290" lon="4.331000">
						<ele>916</ele>
						<time>2026-09-04T04:44:33Z</time>
					</trkpt>
					<trkpt lat="45.208240" lon="4.330840">
						<ele>915</ele>
						<time>2026-09-04T04:44:39Z</time>
					</trkpt>
					<trkpt lat="45.208170" lon="4.330730">
						<ele>916</ele>
						<time>2026-09-04T04:44:45Z</time>
					</trkpt>
					<trkpt lat="45.207830" lon="4.330650">
						<ele>917</ele>
						<time>2026-09-04T04:45:02Z</time>
					</trkpt>
					<trkpt lat="45.207550" lon="4.330440">
						<ele>917</ele>
						<time>2026-09-04T04:45:18Z</time>
					</trkpt>
					<trkpt lat="45.207500" lon="4.330360">
						<ele>916</ele>
						<time>2026-09-04T04:45:21Z</time>
					</trkpt>
					<trkpt lat="45.207360" lon="4.329820">
						<ele>916</ele>
						<time>2026-09-04T04:45:42Z</time>
					</trkpt>
					<trkpt lat="45.207360" lon="4.329190">
						<ele>916</ele>
						<time>2026-09-04T04:46:04Z</time>
					</trkpt>
					<trkpt lat="45.207420" lon="4.328870">
						<ele>914</ele>
						<time>2026-09-04T04:46:16Z</time>
					</trkpt>
					<trkpt lat="45.207440" lon="4.328590">
						<ele>913</ele>
						<time>2026-09-04T04:46:26Z</time>
					</trkpt>
					<trkpt lat="45.207410" lon="4.327710">
						<ele>907</ele>
						<time>2026-09-04T04:46:57Z</time>
					</trkpt>
					<trkpt lat="45.207450" lon="4.327370">
						<ele>905</ele>
						<time>2026-09-04T04:47:09Z</time>
					</trkpt>
					<trkpt lat="45.207580" lon="4.326770">
						<ele>899</ele>
						<time>2026-09-04T04:47:31Z</time>
					</trkpt>
					<trkpt lat="45.207630" lon="4.325950">
						<ele>888</ele>
						<time>2026-09-04T04:48:00Z</time>
					</trkpt>
					<trkpt lat="45.207610" lon="4.325850">
						<ele>887</ele>
						<time>2026-09-04T04:48:04Z</time>
					</trkpt>
					<trkpt lat="45.207150" lon="4.324720">
						<ele>881</ele>
						<time>2026-09-04T04:48:50Z</time>
					</trkpt>
					<trkpt lat="45.206940" lon="4.324370">
						<ele>880</ele>
						<time>2026-09-04T04:49:06Z</time>
					</trkpt>
					<trkpt lat="45.206630" lon="4.323960">
						<ele>877</ele>
						<time>2026-09-04T04:49:27Z</time>
					</trkpt>
					<trkpt lat="45.206580" lon="4.323860">
						<ele>877</ele>
						<time>2026-09-04T04:49:31Z</time>
					</trkpt>
					<trkpt lat="45.206470" lon="4.323340">
						<ele>874</ele>
						<time>2026-09-04T04:49:50Z</time>
					</trkpt>
					<trkpt lat="45.206450" lon="4.323140">
						<ele>874</ele>
						<time>2026-09-04T04:49:58Z</time>
					</trkpt>
					<trkpt lat="45.206570" lon="4.322220">
						<ele>871</ele>
						<time>2026-09-04T04:50:31Z</time>
					</trkpt>
					<trkpt lat="45.206410" lon="4.321870">
						<ele>868</ele>
						<time>2026-09-04T04:50:45Z</time>
					</trkpt>
					<trkpt lat="45.206360" lon="4.321700">
						<ele>867</ele>
						<time>2026-09-04T04:50:52Z</time>
					</trkpt>
					<trkpt lat="45.206260" lon="4.321550">
						<ele>868</ele>
						<time>2026-09-04T04:50:59Z</time>
					</trkpt>
					<trkpt lat="45.206230" lon="4.321370">
						<ele>869</ele>
						<time>2026-09-04T04:51:06Z</time>
					</trkpt>
					<trkpt lat="45.206250" lon="4.321210">
						<ele>870</ele>
						<time>2026-09-04T04:51:11Z</time>
					</trkpt>
					<trkpt lat="45.206360" lon="4.320940">
						<ele>869</ele>
						<time>2026-09-04T04:51:22Z</time>
					</trkpt>
					<trkpt lat="45.206740" lon="4.320200">
						<ele>864</ele>
						<time>2026-09-04T04:51:55Z</time>
					</trkpt>
					<trkpt lat="45.206750" lon="4.319640">
						<ele>864</ele>
						<time>2026-09-04T04:52:14Z</time>
					</trkpt>
					<trkpt lat="45.206720" lon="4.319320">
						<ele>863</ele>
						<time>2026-09-04T04:52:26Z</time>
					</trkpt>
					<trkpt lat="45.206660" lon="4.319040">
						<ele>863</ele>
						<time>2026-09-04T04:52:36Z</time>
					</trkpt>
					<trkpt lat="45.206450" lon="4.318670">
						<ele>863</ele>
						<time>2026-09-04T04:52:53Z</time>
					</trkpt>
					<trkpt lat="45.205950" lon="4.318110">
						<ele>864</ele>
						<time>2026-09-04T04:53:25Z</time>
					</trkpt>
					<trkpt lat="45.205830" lon="4.317910">
						<ele>863</ele>
						<time>2026-09-04T04:53:34Z</time>
					</trkpt>
					<trkpt lat="45.205580" lon="4.317390">
						<ele>862</ele>
						<time>2026-09-04T04:53:56Z</time>
					</trkpt>
					<trkpt lat="45.205620" lon="4.317290">
						<ele>860</ele>
						<time>2026-09-04T04:54:00Z</time>
					</trkpt>
					<trkpt lat="45.205620" lon="4.317160">
						<ele>858</ele>
						<time>2026-09-04T04:54:05Z</time>
					</trkpt>
					<trkpt lat="45.205530" lon="4.316920">
						<ele>856</ele>
						<time>2026-09-04T04:54:14Z</time>
					</trkpt>
					<trkpt lat="45.205300" lon="4.316780">
						<ele>857</ele>
						<time>2026-09-04T04:54:27Z</time>
					</trkpt>
					<trkpt lat="45.205240" lon="4.316710">
						<ele>856</ele>
						<time>2026-09-04T04:54:31Z</time>
					</trkpt>
					<trkpt lat="45.205200" lon="4.316600">
						<ele>855</ele>
						<time>2026-09-04T04:54:35Z</time>
					</trkpt>
					<trkpt lat="45.205110" lon="4.316550">
						<ele>855</ele>
						<time>2026-09-04T04:54:40Z</time>
					</trkpt>
					<trkpt lat="45.204890" lon="4.316540">
						<ele>857</ele>
						<time>2026-09-04T04:54:51Z</time>
					</trkpt>
					<trkpt lat="45.204760" lon="4.316490">
						<ele>858</ele>
						<time>2026-09-04T04:54:58Z</time>
					</trkpt>
					<trkpt lat="45.204130" lon="4.316080">
						<ele>858</ele>
						<time>2026-09-04T04:55:32Z</time>
					</trkpt>
					<trkpt lat="45.204070" lon="4.315960">
						<ele>856</ele>
						<time>2026-09-04T04:55:38Z</time>
					</trkpt>
					<trkpt lat="45.203940" lon="4.315510">
						<ele>854</ele>
						<time>2026-09-04T04:55:55Z</time>
					</trkpt>
					<trkpt lat="45.203690" lon="4.315250">
						<ele>851</ele>
						<time>2026-09-04T04:56:10Z</time>
					</trkpt>
					<trkpt lat="45.203470" lon="4.315070">
						<ele>849</ele>
						<time>2026-09-04T04:56:23Z</time>
					</trkpt>
					<trkpt lat="45.203340" lon="4.315040">
						<ele>847</ele>
						<time>2026-09-04T04:56:30Z</time>
					</trkpt>
					<trkpt lat="45.203170" lon="4.315060">
						<ele>848</ele>
						<time>2026-09-04T04:56:38Z</time>
					</trkpt>
					<trkpt lat="45.202970" lon="4.315200">
						<ele>850</ele>
						<time>2026-09-04T04:56:49Z</time>
					</trkpt>
					<trkpt lat="45.202810" lon="4.315380">
						<ele>852</ele>
						<time>2026-09-04T04:56:59Z</time>
					</trkpt>
					<trkpt lat="45.202740" lon="4.315420">
						<ele>853</ele>
						<time>2026-09-04T04:57:03Z</time>
					</trkpt>
					<trkpt lat="45.202650" lon="4.315420">
						<ele>854</ele>
						<time>2026-09-04T04:57:08Z</time>
					</trkpt>
					<trkpt lat="45.202530" lon="4.315310">
						<ele>854</ele>
						<time>2026-09-04T04:57:15Z</time>
					</trkpt>
					<trkpt lat="45.202490" lon="4.315190">
						<ele>853</ele>
						<time>2026-09-04T04:57:20Z</time>
					</trkpt>
					<trkpt lat="45.202420" lon="4.314510">
						<ele>848</ele>
						<time>2026-09-04T04:57:44Z</time>
					</trkpt>
					<trkpt lat="45.202350" lon="4.314290">
						<ele>847</ele>
						<time>2026-09-04T04:57:52Z</time>
					</trkpt>
					<trkpt lat="45.202280" lon="4.314160">
						<ele>847</ele>
						<time>2026-09-04T04:57:58Z</time>
					</trkpt>
					<trkpt lat="45.202010" lon="4.313890">
						<ele>850</ele>
						<time>2026-09-04T04:58:15Z</time>
					</trkpt>
					<trkpt lat="45.201970" lon="4.313780">
						<ele>850</ele>
						<time>2026-09-04T04:58:19Z</time>
					</trkpt>
					<trkpt lat="45.201980" lon="4.313500">
						<ele>848</ele>
						<time>2026-09-04T04:58:29Z</time>
					</trkpt>
					<trkpt lat="45.202160" lon="4.313320">
						<ele>845</ele>
						<time>2026-09-04T04:58:40Z</time>
					</trkpt>
					<trkpt lat="45.202250" lon="4.313280">
						<ele>845</ele>
						<time>2026-09-04T04:58:45Z</time>
					</trkpt>
					<trkpt lat="45.202390" lon="4.313260">
						<ele>844</ele>
						<time>2026-09-04T04:58:52Z</time>
					</trkpt>
					<trkpt lat="45.202550" lon="4.313190">
						<ele>843</ele>
						<time>2026-09-04T04:59:00Z</time>
					</trkpt>
					<trkpt lat="45.202610" lon="4.313110">
						<ele>843</ele>
						<time>2026-09-04T04:59:04Z</time>
					</trkpt>
					<trkpt lat="45.202660" lon="4.312980">
						<ele>843</ele>
						<time>2026-09-04T04:59:09Z</time>
					</trkpt>
					<trkpt lat="45.202640" lon="4.312660">
						<ele>846</ele>
						<time>2026-09-04T04:59:21Z</time>
					</trkpt>
					<trkpt lat="45.202540" lon="4.312450">
						<ele>850</ele>
						<time>2026-09-04T04:59:30Z</time>
					</trkpt>
					<trkpt lat="45.202260" lon="4.312040">
						<ele>855</ele>
						<time>2026-09-04T04:59:50Z</time>
					</trkpt>
					<trkpt lat="45.202220" lon="4.311890">
						<ele>856</ele>
						<time>2026-09-04T04:59:55Z</time>
					</trkpt>
					<trkpt lat="45.202220" lon="4.311750">
						<ele>856</ele>
						<time>2026-09-04T05:00:00Z</time>
					</trkpt>
					<trkpt lat="45.202310" lon="4.311320">
						<ele>852</ele>
						<time>2026-09-04T05:00:16Z</time>
					</trkpt>
					<trkpt lat="45.202320" lon="4.311130">
						<ele>851</ele>
						<time>2026-09-04T05:00:23Z</time>
					</trkpt>
					<trkpt lat="45.202290" lon="4.311010">
						<ele>851</ele>
						<time>2026-09-04T05:00:27Z</time>
					</trkpt>
					<trkpt lat="45.202250" lon="4.310880">
						<ele>851</ele>
						<time>2026-09-04T05:00:32Z</time>
					</trkpt>
					<trkpt lat="45.201550" lon="4.309880">
						<ele>854</ele>
						<time>2026-09-04T05:01:22Z</time>
					</trkpt>
					<trkpt lat="45.201330" lon="4.309410">
						<ele>856</ele>
						<time>2026-09-04T05:01:42Z</time>
					</trkpt>
					<trkpt lat="45.201300" lon="4.309050">
						<ele>854</ele>
						<time>2026-09-04T05:01:55Z</time>
					</trkpt>
					<trkpt lat="45.201370" lon="4.308550">
						<ele>851</ele>
						<time>2026-09-04T05:02:13Z</time>
					</trkpt>
					<trkpt lat="45.201310" lon="4.308340">
						<ele>851</ele>
						<time>2026-09-04T05:02:21Z</time>
					</trkpt>
					<trkpt lat="45.201200" lon="4.308270">
						<ele>853</ele>
						<time>2026-09-04T05:02:27Z</time>
					</trkpt>
					<trkpt lat="45.200960" lon="4.308240">
						<ele>856</ele>
						<time>2026-09-04T05:02:39Z</time>
					</trkpt>
					<trkpt lat="45.200900" lon="4.308210">
						<ele>857</ele>
						<time>2026-09-04T05:02:42Z</time>
					</trkpt>
					<trkpt lat="45.200830" lon="4.308120">
						<ele>858</ele>
						<time>2026-09-04T05:02:47Z</time>
					</trkpt>
					<trkpt lat="45.200810" lon="4.307970">
						<ele>858</ele>
						<time>2026-09-04T05:02:52Z</time>
					</trkpt>
					<trkpt lat="45.200830" lon="4.307450">
						<ele>856</ele>
						<time>2026-09-04T05:03:10Z</time>
					</trkpt>
					<trkpt lat="45.200800" lon="4.307260">
						<ele>855</ele>
						<time>2026-09-04T05:03:17Z</time>
					</trkpt>
					<trkpt lat="45.200570" lon="4.306820">
						<ele>858</ele>
						<time>2026-09-04T05:03:37Z</time>
					</trkpt>
					<trkpt lat="45.200560" lon="4.306710">
						<ele>858</ele>
						<time>2026-09-04T05:03:41Z</time>
					</trkpt>
					<trkpt lat="45.200620" lon="4.306150">
						<ele>859</ele>
						<time>2026-09-04T05:04:01Z</time>
					</trkpt>
					<trkpt lat="45.200570" lon="4.305910">
						<ele>860</ele>
						<time>2026-09-04T05:04:09Z</time>
					</trkpt>
					<trkpt lat="45.200480" lon="4.305800">
						<ele>862</ele>
						<time>2026-09-04T05:04:15Z</time>
					</trkpt>
					<trkpt lat="45.200380" lon="4.305730">
						<ele>863</ele>
						<time>2026-09-04T05:04:21Z</time>
					</trkpt>
					<trkpt lat="45.200190" lon="4.305670">
						<ele>866</ele>
						<time>2026-09-04T05:04:31Z</time>
					</trkpt>
					<trkpt lat="45.199740" lon="4.304710">
						<ele>856</ele>
						<time>2026-09-04T05:05:11Z</time>
					</trkpt>
					<trkpt lat="45.199600" lon="4.304460">
						<ele>852</ele>
						<time>2026-09-04T05:05:23Z</time>
					</trkpt>
					<trkpt lat="45.199480" lon="4.304310">
						<ele>851</ele>
						<time>2026-09-04T05:05:31Z</time>
					</trkpt>
					<trkpt lat="45.199300" lon="4.303970">
						<ele>849</ele>
						<time>2026-09-04T05:05:46Z</time>
					</trkpt>
					<trkpt lat="45.199220" lon="4.303690">
						<ele>848</ele>
						<time>2026-09-04T05:05:56Z</time>
					</trkpt>
					<trkpt lat="45.199220" lon="4.303480">
						<ele>847</ele>
						<time>2026-09-04T05:06:04Z</time>
					</trkpt>
					<trkpt lat="45.199400" lon="4.302800">
						<ele>850</ele>
						<time>2026-09-04T05:06:29Z</time>
					</trkpt>
					<trkpt lat="45.199630" lon="4.302120">
						<ele>858</ele>
						<time>2026-09-04T05:06:56Z</time>
					</trkpt>
					<trkpt lat="45.199780" lon="4.301760">
						<ele>863</ele>
						<time>2026-09-04T05:07:11Z</time>
					</trkpt>
					<trkpt lat="45.199900" lon="4.301380">
						<ele>866</ele>
						<time>2026-09-04T05:07:25Z</time>
					</trkpt>
					<trkpt lat="45.199940" lon="4.301170">
						<ele>868</ele>
						<time>2026-09-04T05:07:33Z</time>
					</trkpt>
					<trkpt lat="45.200040" lon="4.300930">
						<ele>870</ele>
						<time>2026-09-04T05:07:43Z</time>
					</trkpt>
					<trkpt lat="45.200620" lon="4.300100">
						<ele>870</ele>
						<time>2026-09-04T05:08:24Z</time>
					</trkpt>
					<trkpt lat="45.200730" lon="4.299840">
						<ele>873</ele>
						<time>2026-09-04T05:08:35Z</time>
					</trkpt>
					<trkpt lat="45.200880" lon="4.299290">
						<ele>879</ele>
						<time>2026-09-04T05:08:55Z</time>
					</trkpt>
					<trkpt lat="45.200960" lon="4.299140">
						<ele>881</ele>
						<time>2026-09-04T05:09:02Z</time>
					</trkpt>
					<trkpt lat="45.200960" lon="4.299020">
						<ele>881</ele>
						<time>2026-09-04T05:09:06Z</time>
					</trkpt>
					<trkpt lat="45.200930" lon="4.298910">
						<ele>881</ele>
						<time>2026-09-04T05:09:10Z</time>
					</trkpt>
					<trkpt lat="45.200790" lon="4.298790">
						<ele>881</ele>
						<time>2026-09-04T05:09:19Z</time>
					</trkpt>
					<trkpt lat="45.200620" lon="4.298030">
						<ele>877</ele>
						<time>2026-09-04T05:09:47Z</time>
					</trkpt>
					<trkpt lat="45.200780" lon="4.297240">
						<ele>871</ele>
						<time>2026-09-04T05:10:16Z</time>
					</trkpt>
					<trkpt lat="45.200840" lon="4.297050">
						<ele>870</ele>
						<time>2026-09-04T05:10:23Z</time>
					</trkpt>
					<trkpt lat="45.200870" lon="4.296670">
						<ele>869</ele>
						<time>2026-09-04T05:10:37Z</time>
					</trkpt>
					<trkpt lat="45.200870" lon="4.296140">
						<ele>868</ele>
						<time>2026-09-04T05:10:55Z</time>
					</trkpt>
					<trkpt lat="45.200930" lon="4.295900">
						<ele>868</ele>
						<time>2026-09-04T05:11:04Z</time>
					</trkpt>
					<trkpt lat="45.200920" lon="4.295680">
						<ele>867</ele>
						<time>2026-09-04T05:11:12Z</time>
					</trkpt>
					<trkpt lat="45.200730" lon="4.295300">
						<ele>863</ele>
						<time>2026-09-04T05:11:28Z</time>
					</trkpt>
					<trkpt lat="45.200840" lon="4.294970">
						<ele>862</ele>
						<time>2026-09-04T05:11:41Z</time>
					</trkpt>
					<trkpt lat="45.201190" lon="4.294240">
						<ele>861</ele>
						<time>2026-09-04T05:12:12Z</time>
					</trkpt>
					<trkpt lat="45.201210" lon="4.294100">
						<ele>860</ele>
						<time>2026-09-04T05:12:17Z</time>
					</trkpt>
					<trkpt lat="45.201220" lon="4.292910">
						<ele>859</ele>
						<time>2026-09-04T05:12:59Z</time>
					</trkpt>
					<trkpt lat="45.201190" lon="4.292380">
						<ele>858</ele>
						<time>2026-09-04T05:13:18Z</time>
					</trkpt>
					<trkpt lat="45.201130" lon="4.291860">
						<ele>857</ele>
						<time>2026-09-04T05:13:37Z</time>
					</trkpt>
					<trkpt lat="45.200320" lon="4.292270">
						<ele>849</ele>
						<time>2026-09-04T05:14:20Z</time>
					</trkpt>
					<trkpt lat="45.199960" lon="4.292390">
						<ele>845</ele>
						<time>2026-09-04T05:14:38Z</time>
					</trkpt>
					<trkpt lat="45.199620" lon="4.292370">
						<ele>842</ele>
						<time>2026-09-04T05:14:55Z</time>
					</trkpt>
					<trkpt lat="45.199080" lon="4.292560">
						<ele>837</ele>
						<time>2026-09-04T05:15:23Z</time>
					</trkpt>
					<trkpt lat="45.199030" lon="4.292620">
						<ele>836</ele>
						<time>2026-09-04T05:15:26Z</time>
					</trkpt>
					<trkpt lat="45.198880" lon="4.292940">
						<ele>836</ele>
						<time>2026-09-04T05:15:40Z</time>
					</trkpt>
					<trkpt lat="45.198580" lon="4.293190">
						<ele>835</ele>
						<time>2026-09-04T05:15:57Z</time>
					</trkpt>
					<trkpt lat="45.198260" lon="4.293520">
						<ele>835</ele>
						<time>2026-09-04T05:16:17Z</time>
					</trkpt>
					<trkpt lat="45.197800" lon="4.293920">
						<ele>834</ele>
						<time>2026-09-04T05:16:44Z</time>
					</trkpt>
					<trkpt lat="45.197630" lon="4.293990">
						<ele>833</ele>
						<time>2026-09-04T05:16:53Z</time>
					</trkpt>
					<trkpt lat="45.197480" lon="4.293950">
						<ele>832</ele>
						<time>2026-09-04T05:17:01Z</time>
					</trkpt>
					<trkpt lat="45.197350" lon="4.293950">
						<ele>832</ele>
						<time>2026-09-04T05:17:07Z</time>
					</trkpt>
					<trkpt lat="45.197110" lon="4.294100">
						<ele>833</ele>
						<time>2026-09-04T05:17:20Z</time>
					</trkpt>
					<trkpt lat="45.196530" lon="4.294370">
						<ele>836</ele>
						<time>2026-09-04T05:17:51Z</time>
					</trkpt>
					<trkpt lat="45.196190" lon="4.294560">
						<ele>838</ele>
						<time>2026-09-04T05:18:09Z</time>
					</trkpt>
					<trkpt lat="45.196080" lon="4.294550">
						<ele>837</ele>
						<time>2026-09-04T05:18:15Z</time>
					</trkpt>
					<trkpt lat="45.195930" lon="4.294440">
						<ele>836</ele>
						<time>2026-09-04T05:18:23Z</time>
					</trkpt>
					<trkpt lat="45.195870" lon="4.294440">
						<ele>836</ele>
						<time>2026-09-04T05:18:26Z</time>
					</trkpt>
					<trkpt lat="45.195600" lon="4.294580">
						<ele>837</ele>
						<time>2026-09-04T05:18:41Z</time>
					</trkpt>
					<trkpt lat="45.195370" lon="4.294620">
						<ele>837</ele>
						<time>2026-09-04T05:18:52Z</time>
					</trkpt>
					<trkpt lat="45.195020" lon="4.294580">
						<ele>836</ele>
						<time>2026-09-04T05:19:10Z</time>
					</trkpt>
					<trkpt lat="45.194900" lon="4.294540">
						<ele>836</ele>
						<time>2026-09-04T05:19:16Z</time>
					</trkpt>
					<trkpt lat="45.194350" lon="4.294210">
						<ele>837</ele>
						<time>2026-09-04T05:19:46Z</time>
					</trkpt>
					<trkpt lat="45.194250" lon="4.294180">
						<ele>837</ele>
						<time>2026-09-04T05:19:51Z</time>
					</trkpt>
					<trkpt lat="45.194070" lon="4.294200">
						<ele>837</ele>
						<time>2026-09-04T05:20:00Z</time>
					</trkpt>
					<trkpt lat="45.193140" lon="4.294510">
						<ele>843</ele>
						<time>2026-09-04T05:20:48Z</time>
					</trkpt>
					<trkpt lat="45.192740" lon="4.294560">
						<ele>847</ele>
						<time>2026-09-04T05:21:08Z</time>
					</trkpt>
					<trkpt lat="45.192360" lon="4.294720">
						<ele>852</ele>
						<time>2026-09-04T05:21:28Z</time>
					</trkpt>
					<trkpt lat="45.192020" lon="4.294780">
						<ele>854</ele>
						<time>2026-09-04T05:21:45Z</time>
					</trkpt>
					<trkpt lat="45.191590" lon="4.294800">
						<ele>857</ele>
						<time>2026-09-04T05:22:06Z</time>
					</trkpt>
					<trkpt lat="45.191080" lon="4.294890">
						<ele>861</ele>
						<time>2026-09-04T05:22:32Z</time>
					</trkpt>
					<trkpt lat="45.190790" lon="4.295030">
						<ele>863</ele>
						<time>2026-09-04T05:22:47Z</time>
					</trkpt>
					<trkpt lat="45.190490" lon="4.295230">
						<ele>866</ele>
						<time>2026-09-04T05:23:04Z</time>
					</trkpt>
					<trkpt lat="45.189710" lon="4.295470">
						<ele>874</ele>
						<time>2026-09-04T05:23:44Z</time>
					</trkpt>
					<trkpt lat="45.189230" lon="4.295560">
						<ele>879</ele>
						<time>2026-09-04T05:24:08Z</time>
					</trkpt>
					<trkpt lat="45.188810" lon="4.295610">
						<ele>882</ele>
						<time>2026-09-04T05:24:29Z</time>
					</trkpt>
					<trkpt lat="45.188440" lon="4.295580">
						<ele>885</ele>
						<time>2026-09-04T05:24:48Z</time>
					</trkpt>
					<trkpt lat="45.188230" lon="4.295530">
						<ele>886</ele>
						<time>2026-09-04T05:24:58Z</time>
					</trkpt>
					<trkpt lat="45.188090" lon="4.295070">
						<ele>887</ele>
						<time>2026-09-04T05:25:16Z</time>
					</trkpt>
					<trkpt lat="45.187810" lon="4.294950">
						<ele>885</ele>
						<time>2026-09-04T05:25:31Z</time>
					</trkpt>
					<trkpt lat="45.187500" lon="4.295380">
						<ele>886</ele>
						<time>2026-09-04T05:25:52Z</time>
					</trkpt>
					<trkpt lat="45.186240" lon="4.296860">
						<ele>891</ele>
						<time>2026-09-04T05:27:14Z</time>
					</trkpt>
					<trkpt lat="45.185030" lon="4.297590">
						<ele>892</ele>
						<time>2026-09-04T05:28:20Z</time>
					</trkpt>
					<trkpt lat="45.184510" lon="4.297760">
						<ele>897</ele>
						<time>2026-09-04T05:28:47Z</time>
					</trkpt>
					<trkpt lat="45.183830" lon="4.297450">
						<ele>902</ele>
						<time>2026-09-04T05:29:23Z</time>
					</trkpt>
					<trkpt lat="45.183270" lon="4.297760">
						<ele>908</ele>
						<time>2026-09-04T05:29:53Z</time>
					</trkpt>
					<trkpt lat="45.182670" lon="4.298170">
						<ele>913</ele>
						<time>2026-09-04T05:30:26Z</time>
					</trkpt>
					<trkpt lat="45.183060" lon="4.299290">
						<ele>914</ele>
						<time>2026-09-04T05:31:10Z</time>
					</trkpt>
					<trkpt lat="45.183690" lon="4.299890">
						<ele>912</ele>
						<time>2026-09-04T05:31:48Z</time>
					</trkpt>
					<trkpt lat="45.183980" lon="4.300650">
						<ele>910</ele>
						<time>2026-09-04T05:32:18Z</time>
					</trkpt>
					<trkpt lat="45.184010" lon="4.301230">
						<ele>910</ele>
						<time>2026-09-04T05:32:39Z</time>
					</trkpt>
					<trkpt lat="45.183850" lon="4.303450">
						<ele>912</ele>
						<time>2026-09-04T05:33:58Z</time>
					</trkpt>
					<trkpt lat="45.184200" lon="4.304920">
						<ele>912</ele>
						<time>2026-09-04T05:34:52Z</time>
					</trkpt>
					<trkpt lat="45.184700" lon="4.306370">
						<ele>911</ele>
						<time>2026-09-04T05:35:49Z</time>
					</trkpt>
					<trkpt lat="45.184490" lon="4.307870">
						<ele>912</ele>
						<time>2026-09-04T05:36:43Z</time>
					</trkpt>
					<trkpt lat="45.184240" lon="4.309370">
						<ele>920</ele>
						<time>2026-09-04T05:37:38Z</time>
					</trkpt>
					<trkpt lat="45.184320" lon="4.309680">
						<ele>923</ele>
						<time>2026-09-04T05:37:49Z</time>
					</trkpt>
					<trkpt lat="45.184380" lon="4.311360">
						<ele>927</ele>
						<time>2026-09-04T05:38:49Z</time>
					</trkpt>
					<trkpt lat="45.184430" lon="4.311630">
						<ele>926</ele>
						<time>2026-09-04T05:38:58Z</time>
					</trkpt>
					<trkpt lat="45.184910" lon="4.313380">
						<ele>915</ele>
						<time>2026-09-04T05:40:05Z</time>
					</trkpt>
					<trkpt lat="45.185890" lon="4.316090">
						<ele>924</ele>
						<time>2026-09-04T05:41:52Z</time>
					</trkpt>
					<trkpt lat="45.186020" lon="4.316330">
						<ele>923</ele>
						<time>2026-09-04T05:42:03Z</time>
					</trkpt>
					<trkpt lat="45.185980" lon="4.316990">
						<ele>923</ele>
						<time>2026-09-04T05:42:26Z</time>
					</trkpt>
					<trkpt lat="45.185970" lon="4.317660">
						<ele>923</ele>
						<time>2026-09-04T05:42:50Z</time>
					</trkpt>
					<trkpt lat="45.185930" lon="4.317670">
						<ele>923</ele>
						<time>2026-09-04T05:42:52Z</time>
					</trkpt>
					<trkpt lat="45.185250" lon="4.318370">
						<ele>916</ele>
						<time>2026-09-04T05:43:34Z</time>
					</trkpt>
					<trkpt lat="45.184880" lon="4.318680">
						<ele>914</ele>
						<time>2026-09-04T05:43:55Z</time>
					</trkpt>
					<trkpt lat="45.184520" lon="4.319040">
						<ele>913</ele>
						<time>2026-09-04T05:44:17Z</time>
					</trkpt>
					<trkpt lat="45.184390" lon="4.318820">
						<ele>913</ele>
						<time>2026-09-04T05:44:28Z</time>
					</trkpt>
					<trkpt lat="45.184010" lon="4.318350">
						<ele>916</ele>
						<time>2026-09-04T05:44:53Z</time>
					</trkpt>
					<trkpt lat="45.183870" lon="4.318490">
						<ele>917</ele>
						<time>2026-09-04T05:45:01Z</time>
					</trkpt>
					<trkpt lat="45.183750" lon="4.318690">
						<ele>917</ele>
						<time>2026-09-04T05:45:11Z</time>
					</trkpt>
					<trkpt lat="45.183500" lon="4.319020">
						<ele>916</ele>
						<time>2026-09-04T05:45:28Z</time>
					</trkpt>
					<trkpt lat="45.183090" lon="4.319440">
						<ele>916</ele>
						<time>2026-09-04T05:45:53Z</time>
					</trkpt>
					<trkpt lat="45.182650" lon="4.319960">
						<ele>916</ele>
						<time>2026-09-04T05:46:22Z</time>
					</trkpt>
					<trkpt lat="45.182430" lon="4.320180">
						<ele>915</ele>
						<time>2026-09-04T05:46:35Z</time>
					</trkpt>
					<trkpt lat="45.182040" lon="4.320420">
						<ele>915</ele>
						<time>2026-09-04T05:46:56Z</time>
					</trkpt>
					<trkpt lat="45.181790" lon="4.320450">
						<ele>916</ele>
						<time>2026-09-04T05:47:09Z</time>
					</trkpt>
					<trkpt lat="45.181660" lon="4.320440">
						<ele>916</ele>
						<time>2026-09-04T05:47:15Z</time>
					</trkpt>
					<trkpt lat="45.181550" lon="4.320360">
						<ele>916</ele>
						<time>2026-09-04T05:47:22Z</time>
					</trkpt>
					<trkpt lat="45.181350" lon="4.320150">
						<ele>917</ele>
						<time>2026-09-04T05:47:34Z</time>
					</trkpt>
					<trkpt lat="45.181170" lon="4.319910">
						<ele>917</ele>
						<time>2026-09-04T05:47:46Z</time>
					</trkpt>
					<trkpt lat="45.181020" lon="4.319490">
						<ele>918</ele>
						<time>2026-09-04T05:48:03Z</time>
					</trkpt>
					<trkpt lat="45.180860" lon="4.319620">
						<ele>918</ele>
						<time>2026-09-04T05:48:12Z</time>
					</trkpt>
					<trkpt lat="45.180310" lon="4.319910">
						<ele>921</ele>
						<time>2026-09-04T05:48:42Z</time>
					</trkpt>
					<trkpt lat="45.179860" lon="4.320050">
						<ele>923</ele>
						<time>2026-09-04T05:49:05Z</time>
					</trkpt>
					<trkpt lat="45.179380" lon="4.320260">
						<ele>923</ele>
						<time>2026-09-04T05:49:30Z</time>
					</trkpt>
					<trkpt lat="45.179050" lon="4.320520">
						<ele>923</ele>
						<time>2026-09-04T05:49:49Z</time>
					</trkpt>
					<trkpt lat="45.178140" lon="4.321100">
						<ele>927</ele>
						<time>2026-09-04T05:50:39Z</time>
					</trkpt>
					<trkpt lat="45.177830" lon="4.321440">
						<ele>927</ele>
						<time>2026-09-04T05:50:58Z</time>
					</trkpt>
					<trkpt lat="45.177630" lon="4.321610">
						<ele>928</ele>
						<time>2026-09-04T05:51:10Z</time>
					</trkpt>
					<trkpt lat="45.177400" lon="4.321740">
						<ele>929</ele>
						<time>2026-09-04T05:51:22Z</time>
					</trkpt>
					<trkpt lat="45.177010" lon="4.321880">
						<ele>929</ele>
						<time>2026-09-04T05:51:42Z</time>
					</trkpt>
					<trkpt lat="45.176850" lon="4.322000">
						<ele>930</ele>
						<time>2026-09-04T05:51:52Z</time>
					</trkpt>
					<trkpt lat="45.176560" lon="4.322360">
						<ele>930</ele>
						<time>2026-09-04T05:52:11Z</time>
					</trkpt>
					<trkpt lat="45.176250" lon="4.322690">
						<ele>931</ele>
						<time>2026-09-04T05:52:30Z</time>
					</trkpt>
					<trkpt lat="45.176030" lon="4.322830">
						<ele>932</ele>
						<time>2026-09-04T05:52:42Z</time>
					</trkpt>
					<trkpt lat="45.175930" lon="4.322830">
						<ele>932</ele>
						<time>2026-09-04T05:52:47Z</time>
					</trkpt>
					<trkpt lat="45.175980" lon="4.323030">
						<ele>932</ele>
						<time>2026-09-04T05:52:55Z</time>
					</trkpt>
					<trkpt lat="45.175980" lon="4.323290">
						<ele>932</ele>
						<time>2026-09-04T05:53:04Z</time>
					</trkpt>
					<trkpt lat="45.176010" lon="4.323400">
						<ele>932</ele>
						<time>2026-09-04T05:53:08Z</time>
					</trkpt>
					<trkpt lat="45.175870" lon="4.323510">
						<ele>932</ele>
						<time>2026-09-04T05:53:16Z</time>
					</trkpt>
					<trkpt lat="45.175730" lon="4.323690">
						<ele>931</ele>
						<time>2026-09-04T05:53:26Z</time>
					</trkpt>
					<trkpt lat="45.175700" lon="4.323860">
						<ele>930</ele>
						<time>2026-09-04T05:53:32Z</time>
					</trkpt>
					<trkpt lat="45.174840" lon="4.326000">
						<ele>932</ele>
						<time>2026-09-04T05:54:59Z</time>
					</trkpt>
					<trkpt lat="45.173990" lon="4.329500">
						<ele>933</ele>
						<time>2026-09-04T05:57:09Z</time>
					</trkpt>
					<trkpt lat="45.173590" lon="4.330980">
						<ele>931</ele>
						<time>2026-09-04T05:58:05Z</time>
					</trkpt>
					<trkpt lat="45.173540" lon="4.331060">
						<ele>931</ele>
						<time>2026-09-04T05:58:09Z</time>
					</trkpt>
					<trkpt lat="45.172880" lon="4.330930">
						<ele>928</ele>
						<time>2026-09-04T05:58:42Z</time>
					</trkpt>
					<trkpt lat="45.172620" lon="4.330850">
						<ele>927</ele>
						<time>2026-09-04T05:58:56Z</time>
					</trkpt>
					<trkpt lat="45.171950" lon="4.330750">
						<ele>924</ele>
						<time>2026-09-04T05:59:29Z</time>
					</trkpt>
					<trkpt lat="45.171310" lon="4.330600">
						<ele>921</ele>
						<time>2026-09-04T06:00:02Z</time>
					</trkpt>
					<trkpt lat="45.170600" lon="4.330700">
						<ele>918</ele>
						<time>2026-09-04T06:00:37Z</time>
					</trkpt>
					<trkpt lat="45.170340" lon="4.330680">
						<ele>918</ele>
						<time>2026-09-04T06:00:50Z</time>
					</trkpt>
					<trkpt lat="45.169970" lon="4.330600">
						<ele>916</ele>
						<time>2026-09-04T06:01:09Z</time>
					</trkpt>
					<trkpt lat="45.169430" lon="4.330570">
						<ele>916</ele>
						<time>2026-09-04T06:01:36Z</time>
					</trkpt>
					<trkpt lat="45.169040" lon="4.330470">
						<ele>915</ele>
						<time>2026-09-04T06:01:56Z</time>
					</trkpt>
					<trkpt lat="45.168820" lon="4.330300">
						<ele>912</ele>
						<time>2026-09-04T06:02:09Z</time>
					</trkpt>
					<trkpt lat="45.168740" lon="4.330130">
						<ele>911</ele>
						<time>2026-09-04T06:02:16Z</time>
					</trkpt>
					<trkpt lat="45.168550" lon="4.330040">
						<ele>909</ele>
						<time>2026-09-04T06:02:26Z</time>
					</trkpt>
					<trkpt lat="45.168470" lon="4.330180">
						<ele>909</ele>
						<time>2026-09-04T06:02:32Z</time>
					</trkpt>
					<trkpt lat="45.168300" lon="4.330330">
						<ele>909</ele>
						<time>2026-09-04T06:02:42Z</time>
					</trkpt>
					<trkpt lat="45.167990" lon="4.330440">
						<ele>911</ele>
						<time>2026-09-04T06:02:58Z</time>
					</trkpt>
					<trkpt lat="45.167780" lon="4.330450">
						<ele>912</ele>
						<time>2026-09-04T06:03:09Z</time>
					</trkpt>
					<trkpt lat="45.167470" lon="4.330220">
						<ele>914</ele>
						<time>2026-09-04T06:03:26Z</time>
					</trkpt>
					<trkpt lat="45.167100" lon="4.330200">
						<ele>917</ele>
						<time>2026-09-04T06:03:45Z</time>
					</trkpt>
					<trkpt lat="45.166610" lon="4.330390">
						<ele>921</ele>
						<time>2026-09-04T06:04:10Z</time>
					</trkpt>
					<trkpt lat="45.166120" lon="4.330500">
						<ele>924</ele>
						<time>2026-09-04T06:04:35Z</time>
					</trkpt>
					<trkpt lat="45.165850" lon="4.330510">
						<ele>926</ele>
						<time>2026-09-04T06:04:49Z</time>
					</trkpt>
					<trkpt lat="45.165040" lon="4.330400">
						<ele>930</ele>
						<time>2026-09-04T06:05:29Z</time>
					</trkpt>
					<trkpt lat="45.164470" lon="4.330400">
						<ele>937</ele>
						<time>2026-09-04T06:05:58Z</time>
					</trkpt>
					<trkpt lat="45.164230" lon="4.330430">
						<ele>940</ele>
						<time>2026-09-04T06:06:10Z</time>
					</trkpt>
					<trkpt lat="45.163980" lon="4.330530">
						<ele>941</ele>
						<time>2026-09-04T06:06:23Z</time>
					</trkpt>
					<trkpt lat="45.163850" lon="4.330620">
						<ele>942</ele>
						<time>2026-09-04T06:06:30Z</time>
					</trkpt>
					<trkpt lat="45.163890" lon="4.330930">
						<ele>943</ele>
						<time>2026-09-04T06:06:41Z</time>
					</trkpt>
					<trkpt lat="45.163850" lon="4.331200">
						<ele>945</ele>
						<time>2026-09-04T06:06:51Z</time>
					</trkpt>
					<trkpt lat="45.163860" lon="4.331320">
						<ele>946</ele>
						<time>2026-09-04T06:06:55Z</time>
					</trkpt>
					<trkpt lat="45.163910" lon="4.331430">
						<ele>946</ele>
						<time>2026-09-04T06:07:00Z</time>
					</trkpt>
					<trkpt lat="45.164020" lon="4.331520">
						<ele>946</ele>
						<time>2026-09-04T06:07:06Z</time>
					</trkpt>
					<trkpt lat="45.164170" lon="4.331830">
						<ele>948</ele>
						<time>2026-09-04T06:07:19Z</time>
					</trkpt>
					<trkpt lat="45.164340" lon="4.332050">
						<ele>949</ele>
						<time>2026-09-04T06:07:31Z</time>
					</trkpt>
					<trkpt lat="45.164380" lon="4.332140">
						<ele>949</ele>
						<time>2026-09-04T06:07:35Z</time>
					</trkpt>
					<trkpt lat="45.164370" lon="4.332330">
						<ele>951</ele>
						<time>2026-09-04T06:07:41Z</time>
					</trkpt>
					<trkpt lat="45.164290" lon="4.332560">
						<ele>953</ele>
						<time>2026-09-04T06:07:50Z</time>
					</trkpt>
					<trkpt lat="45.164230" lon="4.332860">
						<ele>956</ele>
						<time>2026-09-04T06:08:01Z</time>
					</trkpt>
					<trkpt lat="45.164260" lon="4.332970">
						<ele>957</ele>
						<time>2026-09-04T06:08:06Z</time>
					</trkpt>
					<trkpt lat="45.164390" lon="4.333130">
						<ele>958</ele>
						<time>2026-09-04T06:08:14Z</time>
					</trkpt>
					<trkpt lat="45.164960" lon="4.333660">
						<ele>961</ele>
						<time>2026-09-04T06:08:48Z</time>
					</trkpt>
					<trkpt lat="45.165050" lon="4.333840">
						<ele>961</ele>
						<time>2026-09-04T06:08:56Z</time>
					</trkpt>
					<trkpt lat="45.165090" lon="4.334110">
						<ele>961</ele>
						<time>2026-09-04T06:09:06Z</time>
					</trkpt>
					<trkpt lat="45.165080" lon="4.334740">
						<ele>958</ele>
						<time>2026-09-04T06:09:28Z</time>
					</trkpt>
					<trkpt lat="45.164160" lon="4.334720">
						<ele>965</ele>
						<time>2026-09-04T06:10:14Z</time>
					</trkpt>
					<trkpt lat="45.163870" lon="4.334950">
						<ele>967</ele>
						<time>2026-09-04T06:10:31Z</time>
					</trkpt>
					<trkpt lat="45.163740" lon="4.334990">
						<ele>968</ele>
						<time>2026-09-04T06:10:37Z</time>
					</trkpt>
					<trkpt lat="45.163560" lon="4.335000">
						<ele>970</ele>
						<time>2026-09-04T06:10:46Z</time>
					</trkpt>
					<trkpt lat="45.163390" lon="4.334960">
						<ele>970</ele>
						<time>2026-09-04T06:10:55Z</time>
					</trkpt>
					<trkpt lat="45.162650" lon="4.335860">
						<ele>976</ele>
						<time>2026-09-04T06:11:44Z</time>
					</trkpt>
					<trkpt lat="45.162430" lon="4.335970">
						<ele>977</ele>
						<time>2026-09-04T06:11:56Z</time>
					</trkpt>
					<trkpt lat="45.161830" lon="4.336640">
						<ele>977</ele>
						<time>2026-09-04T06:12:34Z</time>
					</trkpt>
					<trkpt lat="45.162010" lon="4.337800">
						<ele>979</ele>
						<time>2026-09-04T06:13:16Z</time>
					</trkpt>
					<trkpt lat="45.162000" lon="4.338110">
						<ele>981</ele>
						<time>2026-09-04T06:13:27Z</time>
					</trkpt>
					<trkpt lat="45.161940" lon="4.338360">
						<ele>983</ele>
						<time>2026-09-04T06:13:36Z</time>
					</trkpt>
					<trkpt lat="45.161930" lon="4.339280">
						<ele>987</ele>
						<time>2026-09-04T06:14:08Z</time>
					</trkpt>
					<trkpt lat="45.161890" lon="4.340050">
						<ele>991</ele>
						<time>2026-09-04T06:14:36Z</time>
					</trkpt>
					<trkpt lat="45.161740" lon="4.340690">
						<ele>994</ele>
						<time>2026-09-04T06:14:59Z</time>
					</trkpt>
					<trkpt lat="45.161580" lon="4.341770">
						<ele>1000</ele>
						<time>2026-09-04T06:15:38Z</time>
					</trkpt>
					<trkpt lat="45.161550" lon="4.342290">
						<ele>1001</ele>
						<time>2026-09-04T06:15:57Z</time>
					</trkpt>
					<trkpt lat="45.161580" lon="4.342460">
						<ele>1002</ele>
						<time>2026-09-04T06:16:03Z</time>
					</trkpt>
					<trkpt lat="45.161630" lon="4.342490">
						<ele>1002</ele>
						<time>2026-09-04T06:16:06Z</time>
					</trkpt>
					<trkpt lat="45.161610" lon="4.343020">
						<ele>1002</ele>
						<time>2026-09-04T06:16:24Z</time>
					</trkpt>
					<trkpt lat="45.161400" lon="4.343640">
						<ele>999</ele>
						<time>2026-09-04T06:16:49Z</time>
					</trkpt>
					<trkpt lat="45.161310" lon="4.344050">
						<ele>998</ele>
						<time>2026-09-04T06:17:04Z</time>
					</trkpt>
					<trkpt lat="45.161310" lon="4.344490">
						<ele>999</ele>
						<time>2026-09-04T06:17:19Z</time>
					</trkpt>
					<trkpt lat="45.161270" lon="4.344680">
						<ele>999</ele>
						<time>2026-09-04T06:17:26Z</time>
					</trkpt>
					<trkpt lat="45.161230" lon="4.344650">
						<ele>999</ele>
						<time>2026-09-04T06:17:29Z</time>
					</trkpt>
					<trkpt lat="45.160470" lon="4.344920">
						<ele>999</ele>
						<time>2026-09-04T06:18:08Z</time>
					</trkpt>
					<trkpt lat="45.160010" lon="4.345220">
						<ele>998</ele>
						<time>2026-09-04T06:18:33Z</time>
					</trkpt>
					<trkpt lat="45.159480" lon="4.345510">
						<ele>998</ele>
						<time>2026-09-04T06:19:02Z</time>
					</trkpt>
					<trkpt lat="45.159070" lon="4.346050">
						<ele>1000</ele>
						<time>2026-09-04T06:19:30Z</time>
					</trkpt>
					<trkpt lat="45.158670" lon="4.346220">
						<ele>1000</ele>
						<time>2026-09-04T06:19:51Z</time>
					</trkpt>
					<trkpt lat="45.158050" lon="4.346180">
						<ele>998</ele>
						<time>2026-09-04T06:20:22Z</time>
					</trkpt>
					<trkpt lat="45.157940" lon="4.345940">
						<ele>996</ele>
						<time>2026-09-04T06:20:32Z</time>
					</trkpt>
					<trkpt lat="45.157930" lon="4.345720">
						<ele>994</ele>
						<time>2026-09-04T06:20:39Z</time>
					</trkpt>
					<trkpt lat="45.157760" lon="4.345640">
						<ele>993</ele>
						<time>2026-09-04T06:20:48Z</time>
					</trkpt>
					<trkpt lat="45.157590" lon="4.345520">
						<ele>992</ele>
						<time>2026-09-04T06:20:58Z</time>
					</trkpt>
					<trkpt lat="45.157200" lon="4.344990">
						<ele>987</ele>
						<time>2026-09-04T06:21:25Z</time>
					</trkpt>
					<trkpt lat="45.156810" lon="4.344640">
						<ele>983</ele>
						<time>2026-09-04T06:21:48Z</time>
					</trkpt>
					<trkpt lat="45.156620" lon="4.344530">
						<ele>981</ele>
						<time>2026-09-04T06:21:58Z</time>
					</trkpt>
					<trkpt lat="45.156430" lon="4.344470">
						<ele>979</ele>
						<time>2026-09-04T06:22:08Z</time>
					</trkpt>
					<trkpt lat="45.154880" lon="4.343450">
						<ele>968</ele>
						<time>2026-09-04T06:23:34Z</time>
					</trkpt>
					<trkpt lat="45.153960" lon="4.342880">
						<ele>963</ele>
						<time>2026-09-04T06:24:24Z</time>
					</trkpt>
					<trkpt lat="45.153660" lon="4.342660">
						<ele>962</ele>
						<time>2026-09-04T06:24:41Z</time>
					</trkpt>
					<trkpt lat="45.153100" lon="4.342160">
						<ele>961</ele>
						<time>2026-09-04T06:25:14Z</time>
					</trkpt>
					<trkpt lat="45.152590" lon="4.341790">
						<ele>963</ele>
						<time>2026-09-04T06:25:42Z</time>
					</trkpt>
					<trkpt lat="45.152480" lon="4.341770">
						<ele>964</ele>
						<time>2026-09-04T06:25:48Z</time>
					</trkpt>
					<trkpt lat="45.152140" lon="4.340910">
						<ele>967</ele>
						<time>2026-09-04T06:26:23Z</time>
					</trkpt>
					<trkpt lat="45.152080" lon="4.340700">
						<ele>967</ele>
						<time>2026-09-04T06:26:31Z</time>
					</trkpt>
					<trkpt lat="45.152020" lon="4.340110">
						<ele>963</ele>
						<time>2026-09-04T06:26:52Z</time>
					</trkpt>
					<trkpt lat="45.152110" lon="4.339710">
						<ele>962</ele>
						<time>2026-09-04T06:27:07Z</time>
					</trkpt>
					<trkpt lat="45.152040" lon="4.338890">
						<ele>961</ele>
						<time>2026-09-04T06:27:36Z</time>
					</trkpt>
					<trkpt lat="45.151500" lon="4.338460">
						<ele>958</ele>
						<time>2026-09-04T06:28:07Z</time>
					</trkpt>
					<trkpt lat="45.151400" lon="4.338740">
						<ele>958</ele>
						<time>2026-09-04T06:28:18Z</time>
					</trkpt>
					<trkpt lat="45.151310" lon="4.338790">
						<ele>958</ele>
						<time>2026-09-04T06:28:23Z</time>
					</trkpt>
					<trkpt lat="45.151150" lon="4.338790">
						<ele>957</ele>
						<time>2026-09-04T06:28:31Z</time>
					</trkpt>
					<trkpt lat="45.150690" lon="4.338670">
						<ele>956</ele>
						<time>2026-09-04T06:28:54Z</time>
					</trkpt>
					<trkpt lat="45.150540" lon="4.338700">
						<ele>956</ele>
						<time>2026-09-04T06:29:02Z</time>
					</trkpt>
					<trkpt lat="45.150390" lon="4.338770">
						<ele>957</ele>
						<time>2026-09-04T06:29:10Z</time>
					</trkpt>
					<trkpt lat="45.149370" lon="4.338760">
						<ele>950</ele>
						<time>2026-09-04T06:30:01Z</time>
					</trkpt>
					<trkpt lat="45.149050" lon="4.338720">
						<ele>946</ele>
						<time>2026-09-04T06:30:17Z</time>
					</trkpt>
					<trkpt lat="45.148720" lon="4.339040">
						<ele>944</ele>
						<time>2026-09-04T06:30:37Z</time>
					</trkpt>
					<trkpt lat="45.148270" lon="4.338940">
						<ele>938</ele>
						<time>2026-09-04T06:31:00Z</time>
					</trkpt>
					<trkpt lat="45.148120" lon="4.338940">
						<ele>937</ele>
						<time>2026-09-04T06:31:07Z</time>
					</trkpt>
					<trkpt lat="45.147710" lon="4.339050">
						<ele>935</ele>
						<time>2026-09-04T06:31:28Z</time>
					</trkpt>
					<trkpt lat="45.147330" lon="4.339000">
						<ele>933</ele>
						<time>2026-09-04T06:31:47Z</time>
					</trkpt>
					<trkpt lat="45.146840" lon="4.338890">
						<ele>931</ele>
						<time>2026-09-04T06:32:12Z</time>
					</trkpt>
					<trkpt lat="45.146750" lon="4.338860">
						<ele>930</ele>
						<time>2026-09-04T06:32:17Z</time>
					</trkpt>
					<trkpt lat="45.146530" lon="4.338670">
						<ele>929</ele>
						<time>2026-09-04T06:32:29Z</time>
					</trkpt>
					<trkpt lat="45.146000" lon="4.337990">
						<ele>928</ele>
						<time>2026-09-04T06:33:05Z</time>
					</trkpt>
					<trkpt lat="45.145750" lon="4.337820">
						<ele>927</ele>
						<time>2026-09-04T06:33:19Z</time>
					</trkpt>
					<trkpt lat="45.145590" lon="4.337750">
						<ele>925</ele>
						<time>2026-09-04T06:33:27Z</time>
					</trkpt>
					<trkpt lat="45.145300" lon="4.337670">
						<ele>921</ele>
						<time>2026-09-04T06:33:42Z</time>
					</trkpt>
					<trkpt lat="45.145030" lon="4.337370">
						<ele>918</ele>
						<time>2026-09-04T06:33:59Z</time>
					</trkpt>
					<trkpt lat="45.144940" lon="4.337330">
						<ele>919</ele>
						<time>2026-09-04T06:34:04Z</time>
					</trkpt>
					<trkpt lat="45.144640" lon="4.337320">
						<ele>925</ele>
						<time>2026-09-04T06:34:19Z</time>
					</trkpt>
					<trkpt lat="45.144500" lon="4.337270">
						<ele>928</ele>
						<time>2026-09-04T06:34:26Z</time>
					</trkpt>
					<trkpt lat="45.144410" lon="4.337210">
						<ele>929</ele>
						<time>2026-09-04T06:34:31Z</time>
					</trkpt>
					<trkpt lat="45.143750" lon="4.336340">
						<ele>939</ele>
						<time>2026-09-04T06:35:16Z</time>
					</trkpt>
					<trkpt lat="45.143550" lon="4.336200">
						<ele>943</ele>
						<time>2026-09-04T06:35:28Z</time>
					</trkpt>
					<trkpt lat="45.143140" lon="4.336050">
						<ele>948</ele>
						<time>2026-09-04T06:35:49Z</time>
					</trkpt>
					<trkpt lat="45.143490" lon="4.335760">
						<ele>941</ele>
						<time>2026-09-04T06:36:09Z</time>
					</trkpt>
					<trkpt lat="45.143640" lon="4.335600">
						<ele>940</ele>
						<time>2026-09-04T06:36:18Z</time>
					</trkpt>
					<trkpt lat="45.143890" lon="4.335210">
						<ele>938</ele>
						<time>2026-09-04T06:36:37Z</time>
					</trkpt>
					<trkpt lat="45.144230" lon="4.334530">
						<ele>937</ele>
						<time>2026-09-04T06:37:06Z</time>
					</trkpt>
					<trkpt lat="45.144550" lon="4.333420">
						<ele>937</ele>
						<time>2026-09-04T06:37:49Z</time>
					</trkpt>
					<trkpt lat="45.144560" lon="4.333110">
						<ele>936</ele>
						<time>2026-09-04T06:38:00Z</time>
					</trkpt>
					<trkpt lat="45.144490" lon="4.332490">
						<ele>934</ele>
						<time>2026-09-04T06:38:22Z</time>
					</trkpt>
					<trkpt lat="45.144380" lon="4.331970">
						<ele>929</ele>
						<time>2026-09-04T06:38:41Z</time>
					</trkpt>
					<trkpt lat="45.144140" lon="4.331200">
						<ele>922</ele>
						<time>2026-09-04T06:39:11Z</time>
					</trkpt>
					<trkpt lat="45.143610" lon="4.330110">
						<ele>917</ele>
						<time>2026-09-04T06:39:58Z</time>
					</trkpt>
					<trkpt lat="45.143400" lon="4.330220">
						<ele>919</ele>
						<time>2026-09-04T06:40:09Z</time>
					</trkpt>
					<trkpt lat="45.143260" lon="4.330330">
						<ele>920</ele>
						<time>2026-09-04T06:40:17Z</time>
					</trkpt>
					<trkpt lat="45.143230" lon="4.330320">
						<ele>920</ele>
						<time>2026-09-04T06:40:18Z</time>
					</trkpt>
					<trkpt lat="45.142870" lon="4.329860">
						<ele>915</ele>
						<time>2026-09-04T06:40:43Z</time>
					</trkpt>
					<trkpt lat="45.142590" lon="4.329620">
						<ele>911</ele>
						<time>2026-09-04T06:40:59Z</time>
					</trkpt>
					<trkpt lat="45.142310" lon="4.329620">
						<ele>911</ele>
						<time>2026-09-04T06:41:13Z</time>
					</trkpt>
					<trkpt lat="45.142010" lon="4.329470">
						<ele>911</ele>
						<time>2026-09-04T06:41:29Z</time>
					</trkpt>
					<trkpt lat="45.141550" lon="4.329360">
						<ele>913</ele>
						<time>2026-09-04T06:41:52Z</time>
					</trkpt>
					<trkpt lat="45.141410" lon="4.329280">
						<ele>914</ele>
						<time>2026-09-04T06:42:00Z</time>
					</trkpt>
					<trkpt lat="45.141300" lon="4.329150">
						<ele>914</ele>
						<time>2026-09-04T06:42:07Z</time>
					</trkpt>
					<trkpt lat="45.141260" lon="4.329040">
						<ele>914</ele>
						<time>2026-09-04T06:42:11Z</time>
					</trkpt>
					<trkpt lat="45.141290" lon="4.328800">
						<ele>913</ele>
						<time>2026-09-04T06:42:20Z</time>
					</trkpt>
					<trkpt lat="45.141340" lon="4.328700">
						<ele>912</ele>
						<time>2026-09-04T06:42:24Z</time>
					</trkpt>
					<trkpt lat="45.141440" lon="4.328140">
						<ele>915</ele>
						<time>2026-09-04T06:42:45Z</time>
					</trkpt>
					<trkpt lat="45.141440" lon="4.328050">
						<ele>916</ele>
						<time>2026-09-04T06:42:48Z</time>
					</trkpt>
					<trkpt lat="45.141370" lon="4.327880">
						<ele>918</ele>
						<time>2026-09-04T06:42:55Z</time>
					</trkpt>
					<trkpt lat="45.141260" lon="4.327720">
						<ele>920</ele>
						<time>2026-09-04T06:43:03Z</time>
					</trkpt>
					<trkpt lat="45.141050" lon="4.327550">
						<ele>920</ele>
						<time>2026-09-04T06:43:15Z</time>
					</trkpt>
					<trkpt lat="45.140620" lon="4.327400">
						<ele>920</ele>
						<time>2026-09-04T06:43:37Z</time>
					</trkpt>
					<trkpt lat="45.140180" lon="4.326760">
						<ele>926</ele>
						<time>2026-09-04T06:44:08Z</time>
					</trkpt>
					<trkpt lat="45.140040" lon="4.326390">
						<ele>928</ele>
						<time>2026-09-04T06:44:23Z</time>
					</trkpt>
					<trkpt lat="45.140010" lon="4.325480">
						<ele>933</ele>
						<time>2026-09-04T06:44:55Z</time>
					</trkpt>
					<trkpt lat="45.140110" lon="4.324880">
						<ele>934</ele>
						<time>2026-09-04T06:45:17Z</time>
					</trkpt>
					<trkpt lat="45.140250" lon="4.324510">
						<ele>935</ele>
						<time>2026-09-04T06:45:32Z</time>
					</trkpt>
					<trkpt lat="45.140440" lon="4.324160">
						<ele>936</ele>
						<time>2026-09-04T06:45:48Z</time>
					</trkpt>
					<trkpt lat="45.140550" lon="4.324060">
						<ele>939</ele>
						<time>2026-09-04T06:45:54Z</time>
					</trkpt>
					<trkpt lat="45.140720" lon="4.323970">
						<ele>941</ele>
						<time>2026-09-04T06:46:03Z</time>
					</trkpt>
					<trkpt lat="45.140460" lon="4.323690">
						<ele>943</ele>
						<time>2026-09-04T06:46:19Z</time>
					</trkpt>
					<trkpt lat="45.140020" lon="4.323470">
						<ele>945</ele>
						<time>2026-09-04T06:46:43Z</time>
					</trkpt>
					<trkpt lat="45.139750" lon="4.323400">
						<ele>945</ele>
						<time>2026-09-04T06:46:57Z</time>
					</trkpt>
					<trkpt lat="45.139110" lon="4.323360">
						<ele>944</ele>
						<time>2026-09-04T06:47:29Z</time>
					</trkpt>
					<trkpt lat="45.138960" lon="4.323300">
						<ele>946</ele>
						<time>2026-09-04T06:47:36Z</time>
					</trkpt>
					<trkpt lat="45.138220" lon="4.322830">
						<ele>948</ele>
						<time>2026-09-04T06:48:17Z</time>
					</trkpt>
					<trkpt lat="45.138020" lon="4.322730">
						<ele>950</ele>
						<time>2026-09-04T06:48:28Z</time>
					</trkpt>
					<trkpt lat="45.138420" lon="4.322340">
						<ele>945</ele>
						<time>2026-09-04T06:48:52Z</time>
					</trkpt>
					<trkpt lat="45.138520" lon="4.322170">
						<ele>946</ele>
						<time>2026-09-04T06:49:00Z</time>
					</trkpt>
					<trkpt lat="45.138770" lon="4.321570">
						<ele>947</ele>
						<time>2026-09-04T06:49:24Z</time>
					</trkpt>
					<trkpt lat="45.138910" lon="4.321420">
						<ele>947</ele>
						<time>2026-09-04T06:49:33Z</time>
					</trkpt>
					<trkpt lat="45.138280" lon="4.320320">
						<ele>960</ele>
						<time>2026-09-04T06:50:23Z</time>
					</trkpt>
					<trkpt lat="45.138110" lon="4.320100">
						<ele>958</ele>
						<time>2026-09-04T06:50:35Z</time>
					</trkpt>
					<trkpt lat="45.137760" lon="4.320060">
						<ele>955</ele>
						<time>2026-09-04T06:50:52Z</time>
					</trkpt>
					<trkpt lat="45.137530" lon="4.319900">
						<ele>953</ele>
						<time>2026-09-04T06:51:05Z</time>
					</trkpt>
					<trkpt lat="45.137320" lon="4.319680">
						<ele>949</ele>
						<time>2026-09-04T06:51:18Z</time>
					</trkpt>
					<trkpt lat="45.137060" lon="4.319290">
						<ele>947</ele>
						<time>2026-09-04T06:51:37Z</time>
					</trkpt>
					<trkpt lat="45.136910" lon="4.318900">
						<ele>944</ele>
						<time>2026-09-04T06:51:53Z</time>
					</trkpt>
					<trkpt lat="45.136890" lon="4.318710">
						<ele>943</ele>
						<time>2026-09-04T06:52:00Z</time>
					</trkpt>
					<trkpt lat="45.136950" lon="4.318120">
						<ele>939</ele>
						<time>2026-09-04T06:52:21Z</time>
					</trkpt>
					<trkpt lat="45.136940" lon="4.317970">
						<ele>938</ele>
						<time>2026-09-04T06:52:26Z</time>
					</trkpt>
					<trkpt lat="45.136620" lon="4.317180">
						<ele>934</ele>
						<time>2026-09-04T06:52:58Z</time>
					</trkpt>
					<trkpt lat="45.136510" lon="4.316990">
						<ele>933</ele>
						<time>2026-09-04T06:53:07Z</time>
					</trkpt>
					<trkpt lat="45.136250" lon="4.317040">
						<ele>932</ele>
						<time>2026-09-04T06:53:20Z</time>
					</trkpt>
					<trkpt lat="45.136110" lon="4.316820">
						<ele>932</ele>
						<time>2026-09-04T06:53:30Z</time>
					</trkpt>
					<trkpt lat="45.135560" lon="4.316150">
						<ele>930</ele>
						<time>2026-09-04T06:54:07Z</time>
					</trkpt>
					<trkpt lat="45.135400" lon="4.316070">
						<ele>930</ele>
						<time>2026-09-04T06:54:15Z</time>
					</trkpt>
					<trkpt lat="45.135390" lon="4.315900">
						<ele>930</ele>
						<time>2026-09-04T06:54:21Z</time>
					</trkpt>
					<trkpt lat="45.134710" lon="4.313930">
						<ele>922</ele>
						<time>2026-09-04T06:55:39Z</time>
					</trkpt>
					<trkpt lat="45.134430" lon="4.313340">
						<ele>921</ele>
						<time>2026-09-04T06:56:04Z</time>
					</trkpt>
					<trkpt lat="45.134430" lon="4.313060">
						<ele>921</ele>
						<time>2026-09-04T06:56:14Z</time>
					</trkpt>
					<trkpt lat="45.134080" lon="4.313140">
						<ele>923</ele>
						<time>2026-09-04T06:56:31Z</time>
					</trkpt>
					<trkpt lat="45.134020" lon="4.313130">
						<ele>924</ele>
						<time>2026-09-04T06:56:34Z</time>
					</trkpt>
					<trkpt lat="45.133370" lon="4.312210">
						<ele>943</ele>
						<time>2026-09-04T06:57:20Z</time>
					</trkpt>
					<trkpt lat="45.133350" lon="4.311740">
						<ele>949</ele>
						<time>2026-09-04T06:57:37Z</time>
					</trkpt>
					<trkpt lat="45.133120" lon="4.311100">
						<ele>960</ele>
						<time>2026-09-04T06:58:02Z</time>
					</trkpt>
					<trkpt lat="45.132970" lon="4.310580">
						<ele>967</ele>
						<time>2026-09-04T06:58:22Z</time>
					</trkpt>
					<trkpt lat="45.132870" lon="4.310130">
						<ele>973</ele>
						<time>2026-09-04T06:58:39Z</time>
					</trkpt>
					<trkpt lat="45.132750" lon="4.309770">
						<ele>976</ele>
						<time>2026-09-04T06:58:53Z</time>
					</trkpt>
					<trkpt lat="45.132590" lon="4.309450">
						<ele>977</ele>
						<time>2026-09-04T06:59:07Z</time>
					</trkpt>
					<trkpt lat="45.131780" lon="4.308350">
						<ele>983</ele>
						<time>2026-09-04T07:00:03Z</time>
					</trkpt>
					<trkpt lat="45.131710" lon="4.308180">
						<ele>984</ele>
						<time>2026-09-04T07:00:10Z</time>
					</trkpt>
					<trkpt lat="45.131180" lon="4.307340">
						<ele>989</ele>
						<time>2026-09-04T07:00:49Z</time>
					</trkpt>
					<trkpt lat="45.130470" lon="4.306300">
						<ele>991</ele>
						<time>2026-09-04T07:01:41Z</time>
					</trkpt>
					<trkpt lat="45.130220" lon="4.305990">
						<ele>990</ele>
						<time>2026-09-04T07:01:57Z</time>
					</trkpt>
					<trkpt lat="45.130110" lon="4.305900">
						<ele>989</ele>
						<time>2026-09-04T07:02:04Z</time>
					</trkpt>
					<trkpt lat="45.129960" lon="4.305850">
						<ele>989</ele>
						<time>2026-09-04T07:02:11Z</time>
					</trkpt>
					<trkpt lat="45.129590" lon="4.305190">
						<ele>988</ele>
						<time>2026-09-04T07:02:41Z</time>
					</trkpt>
					<trkpt lat="45.129150" lon="4.304690">
						<ele>989</ele>
						<time>2026-09-04T07:03:09Z</time>
					</trkpt>
					<trkpt lat="45.128940" lon="4.304340">
						<ele>987</ele>
						<time>2026-09-04T07:03:25Z</time>
					</trkpt>
					<trkpt lat="45.128750" lon="4.303860">
						<ele>986</ele>
						<time>2026-09-04T07:03:45Z</time>
					</trkpt>
					<trkpt lat="45.128540" lon="4.303440">
						<ele>983</ele>
						<time>2026-09-04T07:04:03Z</time>
					</trkpt>
					<trkpt lat="45.128340" lon="4.303170">
						<ele>980</ele>
						<time>2026-09-04T07:04:17Z</time>
					</trkpt>
					<trkpt lat="45.128320" lon="4.302970">
						<ele>977</ele>
						<time>2026-09-04T07:04:24Z</time>
					</trkpt>
					<trkpt lat="45.128400" lon="4.302670">
						<ele>974</ele>
						<time>2026-09-04T07:04:35Z</time>
					</trkpt>
					<trkpt lat="45.128440" lon="4.302340">
						<ele>970</ele>
						<time>2026-09-04T07:04:47Z</time>
					</trkpt>
					<trkpt lat="45.128400" lon="4.302180">
						<ele>968</ele>
						<time>2026-09-04T07:04:53Z</time>
					</trkpt>
					<trkpt lat="45.128160" lon="4.301790">
						<ele>957</ele>
						<time>2026-09-04T07:05:11Z</time>
					</trkpt>
					<trkpt lat="45.127990" lon="4.301030">
						<ele>947</ele>
						<time>2026-09-04T07:05:40Z</time>
					</trkpt>
					<trkpt lat="45.127680" lon="4.300680">
						<ele>940</ele>
						<time>2026-09-04T07:05:59Z</time>
					</trkpt>
					<trkpt lat="45.127550" lon="4.300440">
						<ele>938</ele>
						<time>2026-09-04T07:06:10Z</time>
					</trkpt>
					<trkpt lat="45.127230" lon="4.300570">
						<ele>933</ele>
						<time>2026-09-04T07:06:27Z</time>
					</trkpt>
					<trkpt lat="45.127090" lon="4.299580">
						<ele>930</ele>
						<time>2026-09-04T07:07:02Z</time>
					</trkpt>
					<trkpt lat="45.126740" lon="4.298790">
						<ele>923</ele>
						<time>2026-09-04T07:07:35Z</time>
					</trkpt>
					<trkpt lat="45.126540" lon="4.298940">
						<ele>922</ele>
						<time>2026-09-04T07:07:47Z</time>
					</trkpt>
					<trkpt lat="45.126250" lon="4.299330">
						<ele>922</ele>
						<time>2026-09-04T07:08:07Z</time>
					</trkpt>
					<trkpt lat="45.125850" lon="4.299960">
						<ele>916</ele>
						<time>2026-09-04T07:08:37Z</time>
					</trkpt>
					<trkpt lat="45.125370" lon="4.300900">
						<ele>908</ele>
						<time>2026-09-04T07:09:18Z</time>
					</trkpt>
					<trkpt lat="45.125250" lon="4.301180">
						<ele>905</ele>
						<time>2026-09-04T07:09:29Z</time>
					</trkpt>
					<trkpt lat="45.125220" lon="4.301400">
						<ele>902</ele>
						<time>2026-09-04T07:09:37Z</time>
					</trkpt>
					<trkpt lat="45.125250" lon="4.301780">
						<ele>900</ele>
						<time>2026-09-04T07:09:51Z</time>
					</trkpt>
					<trkpt lat="45.125190" lon="4.301930">
						<ele>899</ele>
						<time>2026-09-04T07:09:57Z</time>
					</trkpt>
					<trkpt lat="45.124890" lon="4.302480">
						<ele>894</ele>
						<time>2026-09-04T07:10:21Z</time>
					</trkpt>
					<trkpt lat="45.123410" lon="4.304930">
						<ele>897</ele>
						<time>2026-09-04T07:12:15Z</time>
					</trkpt>
					<trkpt lat="45.123300" lon="4.304550">
						<ele>895</ele>
						<time>2026-09-04T07:12:30Z</time>
					</trkpt>
					<trkpt lat="45.123150" lon="4.304300">
						<ele>894</ele>
						<time>2026-09-04T07:12:41Z</time>
					</trkpt>
					<trkpt lat="45.122670" lon="4.303780">
						<ele>888</ele>
						<time>2026-09-04T07:13:11Z</time>
					</trkpt>
					<trkpt lat="45.122580" lon="4.303610">
						<ele>885</ele>
						<time>2026-09-04T07:13:19Z</time>
					</trkpt>
					<trkpt lat="45.122490" lon="4.303180">
						<ele>878</ele>
						<time>2026-09-04T07:13:35Z</time>
					</trkpt>
					<trkpt lat="45.122490" lon="4.302790">
						<ele>874</ele>
						<time>2026-09-04T07:13:49Z</time>
					</trkpt>
					<trkpt lat="45.122450" lon="4.302710">
						<ele>873</ele>
						<time>2026-09-04T07:13:52Z</time>
					</trkpt>
					<trkpt lat="45.122330" lon="4.302650">
						<ele>873</ele>
						<time>2026-09-04T07:13:58Z</time>
					</trkpt>
					<trkpt lat="45.122300" lon="4.302470">
						<ele>871</ele>
						<time>2026-09-04T07:14:05Z</time>
					</trkpt>
					<trkpt lat="45.122130" lon="4.302140">
						<ele>872</ele>
						<time>2026-09-04T07:14:19Z</time>
					</trkpt>
					<trkpt lat="45.121700" lon="4.300470">
						<ele>873</ele>
						<time>2026-09-04T07:15:22Z</time>
					</trkpt>
					<trkpt lat="45.121590" lon="4.300280">
						<ele>873</ele>
						<time>2026-09-04T07:15:31Z</time>
					</trkpt>
					<trkpt lat="45.121490" lon="4.300240">
						<ele>873</ele>
						<time>2026-09-04T07:15:36Z</time>
					</trkpt>
					<trkpt lat="45.121040" lon="4.300280">
						<ele>874</ele>
						<time>2026-09-04T07:15:59Z</time>
					</trkpt>
					<trkpt lat="45.120830" lon="4.300270">
						<ele>875</ele>
						<time>2026-09-04T07:16:09Z</time>
					</trkpt>
					<trkpt lat="45.120510" lon="4.300060">
						<ele>874</ele>
						<time>2026-09-04T07:16:27Z</time>
					</trkpt>
					<trkpt lat="45.119660" lon="4.299660">
						<ele>871</ele>
						<time>2026-09-04T07:17:11Z</time>
					</trkpt>
					<trkpt lat="45.119630" lon="4.299510">
						<ele>870</ele>
						<time>2026-09-04T07:17:17Z</time>
					</trkpt>
					<trkpt lat="45.119180" lon="4.299120">
						<ele>867</ele>
						<time>2026-09-04T07:17:43Z</time>
					</trkpt>
					<trkpt lat="45.119060" lon="4.299090">
						<ele>866</ele>
						<time>2026-09-04T07:17:49Z</time>
					</trkpt>
					<trkpt lat="45.118820" lon="4.299190">
						<ele>866</ele>
						<time>2026-09-04T07:18:02Z</time>
					</trkpt>
					<trkpt lat="45.118490" lon="4.298660">
						<ele>864</ele>
						<time>2026-09-04T07:18:27Z</time>
					</trkpt>
					<trkpt lat="45.118250" lon="4.298120">
						<ele>864</ele>
						<time>2026-09-04T07:18:49Z</time>
					</trkpt>
					<trkpt lat="45.118060" lon="4.297590">
						<ele>868</ele>
						<time>2026-09-04T07:19:10Z</time>
					</trkpt>
					<trkpt lat="45.117760" lon="4.296340">
						<ele>869</ele>
						<time>2026-09-04T07:19:57Z</time>
					</trkpt>
					<trkpt lat="45.117590" lon="4.295880">
						<ele>867</ele>
						<time>2026-09-04T07:20:15Z</time>
					</trkpt>
					<trkpt lat="45.117410" lon="4.295600">
						<ele>866</ele>
						<time>2026-09-04T07:20:29Z</time>
					</trkpt>
					<trkpt lat="45.117210" lon="4.295420">
						<ele>865</ele>
						<time>2026-09-04T07:20:41Z</time>
					</trkpt>
					<trkpt lat="45.117020" lon="4.295310">
						<ele>865</ele>
						<time>2026-09-04T07:20:51Z</time>
					</trkpt>
					<trkpt lat="45.116670" lon="4.295250">
						<ele>866</ele>
						<time>2026-09-04T07:21:09Z</time>
					</trkpt>
					<trkpt lat="45.116020" lon="4.294590">
						<ele>859</ele>
						<time>2026-09-04T07:21:49Z</time>
					</trkpt>
					<trkpt lat="45.115660" lon="4.294320">
						<ele>856</ele>
						<time>2026-09-04T07:22:09Z</time>
					</trkpt>
					<trkpt lat="45.114770" lon="4.293440">
						<ele>848</ele>
						<time>2026-09-04T07:23:03Z</time>
					</trkpt>
					<trkpt lat="45.114880" lon="4.292930">
						<ele>846</ele>
						<time>2026-09-04T07:23:22Z</time>
					</trkpt>
					<trkpt lat="45.115040" lon="4.292770">
						<ele>846</ele>
						<time>2026-09-04T07:23:32Z</time>
					</trkpt>
					<trkpt lat="45.114930" lon="4.291570">
						<ele>846</ele>
						<time>2026-09-04T07:24:15Z</time>
					</trkpt>
					<trkpt lat="45.114960" lon="4.291280">
						<ele>847</ele>
						<time>2026-09-04T07:24:25Z</time>
					</trkpt>
					<trkpt lat="45.114900" lon="4.291190">
						<ele>847</ele>
						<time>2026-09-04T07:24:29Z</time>
					</trkpt>
					<trkpt lat="45.114940" lon="4.291070">
						<ele>848</ele>
						<time>2026-09-04T07:24:34Z</time>
					</trkpt>
					<trkpt lat="45.115150" lon="4.290820">
						<ele>849</ele>
						<time>2026-09-04T07:24:48Z</time>
					</trkpt>
					<trkpt lat="45.114930" lon="4.290650">
						<ele>849</ele>
						<time>2026-09-04T07:25:00Z</time>
					</trkpt>
					<trkpt lat="45.115100" lon="4.290550">
						<ele>850</ele>
						<time>2026-09-04T07:25:10Z</time>
					</trkpt>
					<trkpt lat="45.115050" lon="4.289940">
						<ele>851</ele>
						<time>2026-09-04T07:25:31Z</time>
					</trkpt>
					<trkpt lat="45.115100" lon="4.289750">
						<ele>850</ele>
						<time>2026-09-04T07:25:38Z</time>
					</trkpt>
					<trkpt lat="45.115130" lon="4.289690">
						<ele>850</ele>
						<time>2026-09-04T07:25:41Z</time>
					</trkpt>
					<trkpt lat="45.115210" lon="4.289620">
						<ele>850</ele>
						<time>2026-09-04T07:25:46Z</time>
					</trkpt>
					<trkpt lat="45.115380" lon="4.289160">
						<ele>848</ele>
						<time>2026-09-04T07:26:04Z</time>
					</trkpt>
					<trkpt lat="45.115370" lon="4.289100">
						<ele>848</ele>
						<time>2026-09-04T07:26:06Z</time>
					</trkpt>
					<trkpt lat="45.115280" lon="4.288950">
						<ele>847</ele>
						<time>2026-09-04T07:26:13Z</time>
					</trkpt>
					<trkpt lat="45.115190" lon="4.289070">
						<ele>848</ele>
						<time>2026-09-04T07:26:19Z</time>
					</trkpt>
					<trkpt lat="45.115080" lon="4.288840">
						<ele>846</ele>
						<time>2026-09-04T07:26:29Z</time>
					</trkpt>
					<trkpt lat="45.115130" lon="4.288780">
						<ele>846</ele>
						<time>2026-09-04T07:26:32Z</time>
					</trkpt>
					<trkpt lat="45.115050" lon="4.288490">
						<ele>844</ele>
						<time>2026-09-04T07:26:43Z</time>
					</trkpt>
					<trkpt lat="45.115000" lon="4.288130">
						<ele>842</ele>
						<time>2026-09-04T07:26:56Z</time>
					</trkpt>
					<trkpt lat="45.114870" lon="4.287810">
						<ele>843</ele>
						<time>2026-09-04T07:27:09Z</time>
					</trkpt>
					<trkpt lat="45.114700" lon="4.287010">
						<ele>842</ele>
						<time>2026-09-04T07:27:39Z</time>
					</trkpt>
					<trkpt lat="45.114730" lon="4.286910">
						<ele>840</ele>
						<time>2026-09-04T07:27:43Z</time>
					</trkpt>
					<trkpt lat="45.115110" lon="4.286420">
						<ele>833</ele>
						<time>2026-09-04T07:28:08Z</time>
					</trkpt>
					<trkpt lat="45.114970" lon="4.286330">
						<ele>834</ele>
						<time>2026-09-04T07:28:16Z</time>
					</trkpt>
					<trkpt lat="45.114900" lon="4.285850">
						<ele>835</ele>
						<time>2026-09-04T07:28:33Z</time>
					</trkpt>
					<trkpt lat="45.114850" lon="4.285080">
						<ele>836</ele>
						<time>2026-09-04T07:29:01Z</time>
					</trkpt>
					<trkpt lat="45.114910" lon="4.284510">
						<ele>836</ele>
						<time>2026-09-04T07:29:21Z</time>
					</trkpt>
					<trkpt lat="45.115100" lon="4.283330">
						<ele>837</ele>
						<time>2026-09-04T07:30:04Z</time>
					</trkpt>
					<trkpt lat="45.115250" lon="4.282920">
						<ele>835</ele>
						<time>2026-09-04T07:30:20Z</time>
					</trkpt>
					<trkpt lat="45.115490" lon="4.281840">
						<ele>833</ele>
						<time>2026-09-04T07:31:00Z</time>
					</trkpt>
					<trkpt lat="45.115570" lon="4.281770">
						<ele>833</ele>
						<time>2026-09-04T07:31:05Z</time>
					</trkpt>
					<trkpt lat="45.115870" lon="4.281810">
						<ele>833</ele>
						<time>2026-09-04T07:31:20Z</time>
					</trkpt>
					<trkpt lat="45.116070" lon="4.281880">
						<ele>834</ele>
						<time>2026-09-04T07:31:30Z</time>
					</trkpt>
					<trkpt lat="45.116420" lon="4.276820">
						<ele>849</ele>
						<time>2026-09-04T07:34:30Z</time>
					</trkpt>
					<trkpt lat="45.116510" lon="4.276400">
						<ele>850</ele>
						<time>2026-09-04T07:34:45Z</time>
					</trkpt>
					<trkpt lat="45.116330" lon="4.276010">
						<ele>853</ele>
						<time>2026-09-04T07:35:02Z</time>
					</trkpt>
					<trkpt lat="45.116420" lon="4.275830">
						<ele>853</ele>
						<time>2026-09-04T07:35:10Z</time>
					</trkpt>
					<trkpt lat="45.116490" lon="4.275600">
						<ele>856</ele>
						<time>2026-09-04T07:35:18Z</time>
					</trkpt>
					<trkpt lat="45.116630" lon="4.273590">
						<ele>877</ele>
						<time>2026-09-04T07:36:30Z</time>
					</trkpt>
					<trkpt lat="45.116620" lon="4.273310">
						<ele>878</ele>
						<time>2026-09-04T07:36:40Z</time>
					</trkpt>
					<trkpt lat="45.116490" lon="4.272810">
						<ele>880</ele>
						<time>2026-09-04T07:36:58Z</time>
					</trkpt>
					<trkpt lat="45.116290" lon="4.272220">
						<ele>881</ele>
						<time>2026-09-04T07:37:22Z</time>
					</trkpt>
					<trkpt lat="45.115660" lon="4.270780">
						<ele>897</ele>
						<time>2026-09-04T07:38:21Z</time>
					</trkpt>
					<trkpt lat="45.115500" lon="4.270190">
						<ele>899</ele>
						<time>2026-09-04T07:38:44Z</time>
					</trkpt>
					<trkpt lat="45.115210" lon="4.269550">
						<ele>904</ele>
						<time>2026-09-04T07:39:11Z</time>
					</trkpt>
					<trkpt lat="45.115120" lon="4.269190">
						<ele>905</ele>
						<time>2026-09-04T07:39:24Z</time>
					</trkpt>
					<trkpt lat="45.115140" lon="4.268970">
						<ele>907</ele>
						<time>2026-09-04T07:39:32Z</time>
					</trkpt>
					<trkpt lat="45.115400" lon="4.268100">
						<ele>915</ele>
						<time>2026-09-04T07:40:05Z</time>
					</trkpt>
					<trkpt lat="45.115450" lon="4.267790">
						<ele>916</ele>
						<time>2026-09-04T07:40:16Z</time>
					</trkpt>
					<trkpt lat="45.115470" lon="4.267020">
						<ele>916</ele>
						<time>2026-09-04T07:40:44Z</time>
					</trkpt>
					<trkpt lat="45.115250" lon="4.265820">
						<ele>910</ele>
						<time>2026-09-04T07:41:27Z</time>
					</trkpt>
					<trkpt lat="45.115190" lon="4.265050">
						<ele>906</ele>
						<time>2026-09-04T07:41:55Z</time>
					</trkpt>
					<trkpt lat="45.115110" lon="4.264680">
						<ele>901</ele>
						<time>2026-09-04T07:42:09Z</time>
					</trkpt>
					<trkpt lat="45.115030" lon="4.264470">
						<ele>899</ele>
						<time>2026-09-04T07:42:17Z</time>
					</trkpt>
					<trkpt lat="45.114930" lon="4.264400">
						<ele>898</ele>
						<time>2026-09-04T07:42:23Z</time>
					</trkpt>
					<trkpt lat="45.114540" lon="4.264260">
						<ele>897</ele>
						<time>2026-09-04T07:42:43Z</time>
					</trkpt>
					<trkpt lat="45.114450" lon="4.264190">
						<ele>896</ele>
						<time>2026-09-04T07:42:48Z</time>
					</trkpt>
					<trkpt lat="45.114370" lon="4.264070">
						<ele>895</ele>
						<time>2026-09-04T07:42:54Z</time>
					</trkpt>
					<trkpt lat="45.114340" lon="4.263950">
						<ele>894</ele>
						<time>2026-09-04T07:42:58Z</time>
					</trkpt>
					<trkpt lat="45.114440" lon="4.263660">
						<ele>891</ele>
						<time>2026-09-04T07:43:10Z</time>
					</trkpt>
					<trkpt lat="45.115230" lon="4.262520">
						<ele>887</ele>
						<time>2026-09-04T07:44:06Z</time>
					</trkpt>
					<trkpt lat="45.115280" lon="4.262320">
						<ele>889</ele>
						<time>2026-09-04T07:44:13Z</time>
					</trkpt>
					<trkpt lat="45.115290" lon="4.260380">
						<ele>902</ele>
						<time>2026-09-04T07:45:22Z</time>
					</trkpt>
					<trkpt lat="45.115390" lon="4.259690">
						<ele>907</ele>
						<time>2026-09-04T07:45:47Z</time>
					</trkpt>
					<trkpt lat="45.115430" lon="4.259550">
						<ele>907</ele>
						<time>2026-09-04T07:45:52Z</time>
					</trkpt>
					<trkpt lat="45.114330" lon="4.259780">
						<ele>906</ele>
						<time>2026-09-04T07:46:48Z</time>
					</trkpt>
					<trkpt lat="45.114120" lon="4.259770">
						<ele>907</ele>
						<time>2026-09-04T07:46:58Z</time>
					</trkpt>
					<trkpt lat="45.113920" lon="4.259650">
						<ele>909</ele>
						<time>2026-09-04T07:47:09Z</time>
					</trkpt>
					<trkpt lat="45.113750" lon="4.259350">
						<ele>912</ele>
						<time>2026-09-04T07:47:23Z</time>
					</trkpt>
					<trkpt lat="45.113710" lon="4.259200">
						<ele>913</ele>
						<time>2026-09-04T07:47:28Z</time>
					</trkpt>
					<trkpt lat="45.113580" lon="4.258170">
						<ele>919</ele>
						<time>2026-09-04T07:48:05Z</time>
					</trkpt>
					<trkpt lat="45.113470" lon="4.257750">
						<ele>921</ele>
						<time>2026-09-04T07:48:21Z</time>
					</trkpt>
					<trkpt lat="45.112090" lon="4.255090">
						<ele>937</ele>
						<time>2026-09-04T07:50:18Z</time>
					</trkpt>
					<trkpt lat="45.111840" lon="4.254400">
						<ele>939</ele>
						<time>2026-09-04T07:50:45Z</time>
					</trkpt>
					<trkpt lat="45.111610" lon="4.253410">
						<ele>942</ele>
						<time>2026-09-04T07:51:22Z</time>
					</trkpt>
					<trkpt lat="45.111560" lon="4.253070">
						<ele>942</ele>
						<time>2026-09-04T07:51:34Z</time>
					</trkpt>
					<trkpt lat="45.111550" lon="4.252360">
						<ele>943</ele>
						<time>2026-09-04T07:51:59Z</time>
					</trkpt>
					<trkpt lat="45.111520" lon="4.251980">
						<ele>942</ele>
						<time>2026-09-04T07:52:13Z</time>
					</trkpt>
					<trkpt lat="45.111480" lon="4.251710">
						<ele>942</ele>
						<time>2026-09-04T07:52:23Z</time>
					</trkpt>
					<trkpt lat="45.111390" lon="4.251410">
						<ele>940</ele>
						<time>2026-09-04T07:52:34Z</time>
					</trkpt>
					<trkpt lat="45.110940" lon="4.250630">
						<ele>935</ele>
						<time>2026-09-04T07:53:10Z</time>
					</trkpt>
					<trkpt lat="45.110670" lon="4.250110">
						<ele>937</ele>
						<time>2026-09-04T07:53:32Z</time>
					</trkpt>
					<trkpt lat="45.110510" lon="4.249640">
						<ele>938</ele>
						<time>2026-09-04T07:53:51Z</time>
					</trkpt>
					<trkpt lat="45.110230" lon="4.249690">
						<ele>942</ele>
						<time>2026-09-04T07:54:05Z</time>
					</trkpt>
					<trkpt lat="45.110000" lon="4.249690">
						<ele>946</ele>
						<time>2026-09-04T07:54:17Z</time>
					</trkpt>
					<trkpt lat="45.109940" lon="4.249670">
						<ele>947</ele>
						<time>2026-09-04T07:54:20Z</time>
					</trkpt>
					<trkpt lat="45.109470" lon="4.249230">
						<ele>951</ele>
						<time>2026-09-04T07:54:48Z</time>
					</trkpt>
					<trkpt lat="45.108840" lon="4.248820">
						<ele>956</ele>
						<time>2026-09-04T07:55:23Z</time>
					</trkpt>
					<trkpt lat="45.108750" lon="4.248690">
						<ele>955</ele>
						<time>2026-09-04T07:55:29Z</time>
					</trkpt>
					<trkpt lat="45.108630" lon="4.248610">
						<ele>956</ele>
						<time>2026-09-04T07:55:36Z</time>
					</trkpt>
					<trkpt lat="45.108360" lon="4.248610">
						<ele>960</ele>
						<time>2026-09-04T07:55:49Z</time>
					</trkpt>
					<trkpt lat="45.107360" lon="4.248750">
						<ele>958</ele>
						<time>2026-09-04T07:56:39Z</time>
					</trkpt>
					<trkpt lat="45.107240" lon="4.245370">
						<ele>945</ele>
						<time>2026-09-04T07:58:39Z</time>
					</trkpt>
					<trkpt lat="45.107050" lon="4.244850">
						<ele>946</ele>
						<time>2026-09-04T07:59:00Z</time>
					</trkpt>
					<trkpt lat="45.106910" lon="4.244110">
						<ele>949</ele>
						<time>2026-09-04T07:59:27Z</time>
					</trkpt>
					<trkpt lat="45.106820" lon="4.243880">
						<ele>950</ele>
						<time>2026-09-04T07:59:36Z</time>
					</trkpt>
					<trkpt lat="45.106880" lon="4.243670">
						<ele>951</ele>
						<time>2026-09-04T07:59:44Z</time>
					</trkpt>
					<trkpt lat="45.106490" lon="4.243160">
						<ele>952</ele>
						<time>2026-09-04T08:00:10Z</time>
					</trkpt>
					<trkpt lat="45.106240" lon="4.242640">
						<ele>952</ele>
						<time>2026-09-04T08:00:33Z</time>
					</trkpt>
					<trkpt lat="45.106140" lon="4.242500">
						<ele>952</ele>
						<time>2026-09-04T08:00:40Z</time>
					</trkpt>
					<trkpt lat="45.106060" lon="4.242260">
						<ele>952</ele>
						<time>2026-09-04T08:00:49Z</time>
					</trkpt>
					<trkpt lat="45.106070" lon="4.242130">
						<ele>952</ele>
						<time>2026-09-04T08:00:54Z</time>
					</trkpt>
					<trkpt lat="45.106000" lon="4.242000">
						<ele>951</ele>
						<time>2026-09-04T08:01:00Z</time>
					</trkpt>
					<trkpt lat="45.105870" lon="4.241590">
						<ele>950</ele>
						<time>2026-09-04T08:01:15Z</time>
					</trkpt>
					<trkpt lat="45.105510" lon="4.241320">
						<ele>947</ele>
						<time>2026-09-04T08:01:36Z</time>
					</trkpt>
					<trkpt lat="45.105420" lon="4.241190">
						<ele>946</ele>
						<time>2026-09-04T08:01:42Z</time>
					</trkpt>
					<trkpt lat="45.105260" lon="4.241070">
						<ele>945</ele>
						<time>2026-09-04T08:01:51Z</time>
					</trkpt>
					<trkpt lat="45.104790" lon="4.240600">
						<ele>939</ele>
						<time>2026-09-04T08:02:20Z</time>
					</trkpt>
					<trkpt lat="45.104530" lon="4.240230">
						<ele>934</ele>
						<time>2026-09-04T08:02:38Z</time>
					</trkpt>
					<trkpt lat="45.104130" lon="4.239990">
						<ele>932</ele>
						<time>2026-09-04T08:03:00Z</time>
					</trkpt>
					<trkpt lat="45.104050" lon="4.239890">
						<ele>932</ele>
						<time>2026-09-04T08:03:06Z</time>
					</trkpt>
					<trkpt lat="45.104040" lon="4.239680">
						<ele>930</ele>
						<time>2026-09-04T08:03:13Z</time>
					</trkpt>
					<trkpt lat="45.104120" lon="4.239450">
						<ele>927</ele>
						<time>2026-09-04T08:03:22Z</time>
					</trkpt>
					<trkpt lat="45.104480" lon="4.238740">
						<ele>921</ele>
						<time>2026-09-04T08:03:53Z</time>
					</trkpt>
					<trkpt lat="45.104490" lon="4.238640">
						<ele>920</ele>
						<time>2026-09-04T08:03:57Z</time>
					</trkpt>
					<trkpt lat="45.104470" lon="4.238320">
						<ele>917</ele>
						<time>2026-09-04T08:04:08Z</time>
					</trkpt>
					<trkpt lat="45.104360" lon="4.238050">
						<ele>915</ele>
						<time>2026-09-04T08:04:19Z</time>
					</trkpt>
					<trkpt lat="45.104280" lon="4.237760">
						<ele>913</ele>
						<time>2026-09-04T08:04:30Z</time>
					</trkpt>
					<trkpt lat="45.104230" lon="4.237460">
						<ele>911</ele>
						<time>2026-09-04T08:04:41Z</time>
					</trkpt>
					<trkpt lat="45.104210" lon="4.236910">
						<ele>912</ele>
						<time>2026-09-04T08:05:00Z</time>
					</trkpt>
					<trkpt lat="45.104180" lon="4.236720">
						<ele>912</ele>
						<time>2026-09-04T08:05:07Z</time>
					</trkpt>
					<trkpt lat="45.104100" lon="4.236510">
						<ele>913</ele>
						<time>2026-09-04T08:05:16Z</time>
					</trkpt>
					<trkpt lat="45.103940" lon="4.236290">
						<ele>915</ele>
						<time>2026-09-04T08:05:27Z</time>
					</trkpt>
					<trkpt lat="45.104400" lon="4.236100">
						<ele>914</ele>
						<time>2026-09-04T08:05:51Z</time>
					</trkpt>
					<trkpt lat="45.105800" lon="4.235420">
						<ele>904</ele>
						<time>2026-09-04T08:07:05Z</time>
					</trkpt>
					<trkpt lat="45.105790" lon="4.235220">
						<ele>904</ele>
						<time>2026-09-04T08:07:12Z</time>
					</trkpt>
					<trkpt lat="45.105750" lon="4.235010">
						<ele>904</ele>
						<time>2026-09-04T08:07:19Z</time>
					</trkpt>
					<trkpt lat="45.105610" lon="4.234600">
						<ele>905</ele>
						<time>2026-09-04T08:07:36Z</time>
					</trkpt>
					<trkpt lat="45.105310" lon="4.234190">
						<ele>907</ele>
						<time>2026-09-04T08:07:56Z</time>
					</trkpt>
					<trkpt lat="45.105320" lon="4.234010">
						<ele>907</ele>
						<time>2026-09-04T08:08:03Z</time>
					</trkpt>
					<trkpt lat="45.105180" lon="4.233800">
						<ele>908</ele>
						<time>2026-09-04T08:08:13Z</time>
					</trkpt>
					<trkpt lat="45.104920" lon="4.233250">
						<ele>911</ele>
						<time>2026-09-04T08:08:36Z</time>
					</trkpt>
					<trkpt lat="45.104740" lon="4.232460">
						<ele>914</ele>
						<time>2026-09-04T08:09:06Z</time>
					</trkpt>
					<trkpt lat="45.104330" lon="4.231730">
						<ele>920</ele>
						<time>2026-09-04T08:09:39Z</time>
					</trkpt>
					<trkpt lat="45.104290" lon="4.231550">
						<ele>922</ele>
						<time>2026-09-04T08:09:45Z</time>
					</trkpt>
					<trkpt lat="45.104420" lon="4.230950">
						<ele>927</ele>
						<time>2026-09-04T08:10:07Z</time>
					</trkpt>
					<trkpt lat="45.104420" lon="4.230760">
						<ele>929</ele>
						<time>2026-09-04T08:10:14Z</time>
					</trkpt>
					<trkpt lat="45.103850" lon="4.228330">
						<ele>958</ele>
						<time>2026-09-04T08:11:45Z</time>
					</trkpt>
					<trkpt lat="45.103630" lon="4.227630">
						<ele>962</ele>
						<time>2026-09-04T08:12:12Z</time>
					</trkpt>
					<trkpt lat="45.103450" lon="4.227270">
						<ele>964</ele>
						<time>2026-09-04T08:12:27Z</time>
					</trkpt>
					<trkpt lat="45.103010" lon="4.226730">
						<ele>965</ele>
						<time>2026-09-04T08:12:56Z</time>
					</trkpt>
					<trkpt lat="45.102530" lon="4.225910">
						<ele>964</ele>
						<time>2026-09-04T08:13:34Z</time>
					</trkpt>
					<trkpt lat="45.102100" lon="4.225130">
						<ele>963</ele>
						<time>2026-09-04T08:14:09Z</time>
					</trkpt>
					<trkpt lat="45.101950" lon="4.224720">
						<ele>964</ele>
						<time>2026-09-04T08:14:25Z</time>
					</trkpt>
					<trkpt lat="45.101850" lon="4.224300">
						<ele>966</ele>
						<time>2026-09-04T08:14:41Z</time>
					</trkpt>
					<trkpt lat="45.101650" lon="4.222670">
						<ele>972</ele>
						<time>2026-09-04T08:15:39Z</time>
					</trkpt>
					<trkpt lat="45.101630" lon="4.221980">
						<ele>974</ele>
						<time>2026-09-04T08:16:04Z</time>
					</trkpt>
					<trkpt lat="45.101510" lon="4.221090">
						<ele>981</ele>
						<time>2026-09-04T08:16:36Z</time>
					</trkpt>
					<trkpt lat="45.101290" lon="4.219790">
						<ele>995</ele>
						<time>2026-09-04T08:17:23Z</time>
					</trkpt>
					<trkpt lat="45.101060" lon="4.218730">
						<ele>1000</ele>
						<time>2026-09-04T08:18:02Z</time>
					</trkpt>
					<trkpt lat="45.100560" lon="4.217180">
						<ele>1006</ele>
						<time>2026-09-04T08:19:02Z</time>
					</trkpt>
					<trkpt lat="45.099910" lon="4.215930">
						<ele>1012</ele>
						<time>2026-09-04T08:19:57Z</time>
					</trkpt>
					<trkpt lat="45.099680" lon="4.215390">
						<ele>1014</ele>
						<time>2026-09-04T08:20:20Z</time>
					</trkpt>
					<trkpt lat="45.099400" lon="4.214970">
						<ele>1016</ele>
						<time>2026-09-04T08:20:40Z</time>
					</trkpt>
					<trkpt lat="45.098810" lon="4.214450">
						<ele>1018</ele>
						<time>2026-09-04T08:21:15Z</time>
					</trkpt>
					<trkpt lat="45.098270" lon="4.214120">
						<ele>1019</ele>
						<time>2026-09-04T08:21:44Z</time>
					</trkpt>
					<trkpt lat="45.097970" lon="4.213810">
						<ele>1018</ele>
						<time>2026-09-04T08:22:03Z</time>
					</trkpt>
					<trkpt lat="45.097850" lon="4.213620">
						<ele>1017</ele>
						<time>2026-09-04T08:22:12Z</time>
					</trkpt>
					<trkpt lat="45.097560" lon="4.212830">
						<ele>1017</ele>
						<time>2026-09-04T08:22:43Z</time>
					</trkpt>
					<trkpt lat="45.097370" lon="4.212440">
						<ele>1017</ele>
						<time>2026-09-04T08:23:00Z</time>
					</trkpt>
					<trkpt lat="45.097180" lon="4.212150">
						<ele>1017</ele>
						<time>2026-09-04T08:23:14Z</time>
					</trkpt>
					<trkpt lat="45.096460" lon="4.211540">
						<ele>1019</ele>
						<time>2026-09-04T08:23:56Z</time>
					</trkpt>
					<trkpt lat="45.096200" lon="4.211240">
						<ele>1020</ele>
						<time>2026-09-04T08:24:13Z</time>
					</trkpt>
					<trkpt lat="45.096000" lon="4.210900">
						<ele>1021</ele>
						<time>2026-09-04T08:24:28Z</time>
					</trkpt>
					<trkpt lat="45.095700" lon="4.210200">
						<ele>1022</ele>
						<time>2026-09-04T08:24:57Z</time>
					</trkpt>
					<trkpt lat="45.095870" lon="4.209190">
						<ele>1026</ele>
						<time>2026-09-04T08:25:34Z</time>
					</trkpt>
					<trkpt lat="45.096270" lon="4.207670">
						<ele>1035</ele>
						<time>2026-09-04T08:26:31Z</time>
					</trkpt>
					<trkpt lat="45.096280" lon="4.207180">
						<ele>1039</ele>
						<time>2026-09-04T08:26:49Z</time>
					</trkpt>
					<trkpt lat="45.096400" lon="4.207140">
						<ele>1040</ele>
						<time>2026-09-04T08:26:55Z</time>
					</trkpt>
					<trkpt lat="45.096560" lon="4.206860">
						<ele>1043</ele>
						<time>2026-09-04T08:27:07Z</time>
					</trkpt>
					<trkpt lat="45.096720" lon="4.206320">
						<ele>1047</ele>
						<time>2026-09-04T08:27:28Z</time>
					</trkpt>
					<trkpt lat="45.096800" lon="4.206160">
						<ele>1048</ele>
						<time>2026-09-04T08:27:35Z</time>
					</trkpt>
					<trkpt lat="45.096680" lon="4.206140">
						<ele>1048</ele>
						<time>2026-09-04T08:27:41Z</time>
					</trkpt>
					<trkpt lat="45.096790" lon="4.205650">
						<ele>1049</ele>
						<time>2026-09-04T08:27:59Z</time>
					</trkpt>
					<trkpt lat="45.096370" lon="4.204990">
						<ele>1046</ele>
						<time>2026-09-04T08:28:31Z</time>
					</trkpt>
					<trkpt lat="45.096110" lon="4.204370">
						<ele>1045</ele>
						<time>2026-09-04T08:28:56Z</time>
					</trkpt>
					<trkpt lat="45.095240" lon="4.204000">
						<ele>1046</ele>
						<time>2026-09-04T08:29:42Z</time>
					</trkpt>
					<trkpt lat="45.094560" lon="4.203520">
						<ele>1046</ele>
						<time>2026-09-04T08:30:20Z</time>
					</trkpt>
					<trkpt lat="45.093520" lon="4.202510">
						<ele>1041</ele>
						<time>2026-09-04T08:31:23Z</time>
					</trkpt>
					<trkpt lat="45.093640" lon="4.201020">
						<ele>1041</ele>
						<time>2026-09-04T08:32:16Z</time>
					</trkpt>
					<trkpt lat="45.095220" lon="4.200450">
						<ele>1028</ele>
						<time>2026-09-04T08:33:37Z</time>
					</trkpt>
					<trkpt lat="45.095390" lon="4.200340">
						<ele>1026</ele>
						<time>2026-09-04T08:33:47Z</time>
					</trkpt>
					<trkpt lat="45.095470" lon="4.200160">
						<ele>1024</ele>
						<time>2026-09-04T08:33:54Z</time>
					</trkpt>
					<trkpt lat="45.095800" lon="4.198960">
						<ele>1017</ele>
						<time>2026-09-04T08:34:40Z</time>
					</trkpt>
					<trkpt lat="45.095930" lon="4.198280">
						<ele>1018</ele>
						<time>2026-09-04T08:35:05Z</time>
					</trkpt>
					<trkpt lat="45.095900" lon="4.197480">
						<ele>1020</ele>
						<time>2026-09-04T08:35:33Z</time>
					</trkpt>
					<trkpt lat="45.095930" lon="4.197010">
						<ele>1017</ele>
						<time>2026-09-04T08:35:49Z</time>
					</trkpt>
					<trkpt lat="45.096000" lon="4.196580">
						<ele>1012</ele>
						<time>2026-09-04T08:36:05Z</time>
					</trkpt>
					<trkpt lat="45.095980" lon="4.196350">
						<ele>1010</ele>
						<time>2026-09-04T08:36:13Z</time>
					</trkpt>
					<trkpt lat="45.095750" lon="4.195720">
						<ele>1008</ele>
						<time>2026-09-04T08:36:38Z</time>
					</trkpt>
					<trkpt lat="45.095590" lon="4.194190">
						<ele>1006</ele>
						<time>2026-09-04T08:37:33Z</time>
					</trkpt>
					<trkpt lat="45.095250" lon="4.192110">
						<ele>1014</ele>
						<time>2026-09-04T08:38:48Z</time>
					</trkpt>
					<trkpt lat="45.095080" lon="4.190840">
						<ele>1016</ele>
						<time>2026-09-04T08:39:34Z</time>
					</trkpt>
					<trkpt lat="45.094740" lon="4.189730">
						<ele>1024</ele>
						<time>2026-09-04T08:40:17Z</time>
					</trkpt>
					<trkpt lat="45.094730" lon="4.189380">
						<ele>1026</ele>
						<time>2026-09-04T08:40:29Z</time>
					</trkpt>
					<trkpt lat="45.094790" lon="4.188630">
						<ele>1029</ele>
						<time>2026-09-04T08:40:56Z</time>
					</trkpt>
					<trkpt lat="45.094870" lon="4.188310">
						<ele>1031</ele>
						<time>2026-09-04T08:41:08Z</time>
					</trkpt>
					<trkpt lat="45.095280" lon="4.187470">
						<ele>1033</ele>
						<time>2026-09-04T08:41:44Z</time>
					</trkpt>
					<trkpt lat="45.095330" lon="4.187290">
						<ele>1033</ele>
						<time>2026-09-04T08:41:51Z</time>
					</trkpt>
					<trkpt lat="45.095130" lon="4.187350">
						<ele>1035</ele>
						<time>2026-09-04T08:42:01Z</time>
					</trkpt>
					<trkpt lat="45.094730" lon="4.187410">
						<ele>1037</ele>
						<time>2026-09-04T08:42:21Z</time>
					</trkpt>
					<trkpt lat="45.094160" lon="4.187420">
						<ele>1040</ele>
						<time>2026-09-04T08:42:50Z</time>
					</trkpt>
					<trkpt lat="45.093840" lon="4.187530">
						<ele>1042</ele>
						<time>2026-09-04T08:43:06Z</time>
					</trkpt>
					<trkpt lat="45.093580" lon="4.187750">
						<ele>1045</ele>
						<time>2026-09-04T08:43:21Z</time>
					</trkpt>
					<trkpt lat="45.093270" lon="4.187930">
						<ele>1050</ele>
						<time>2026-09-04T08:43:38Z</time>
					</trkpt>
					<trkpt lat="45.093050" lon="4.187640">
						<ele>1049</ele>
						<time>2026-09-04T08:43:53Z</time>
					</trkpt>
					<trkpt lat="45.092800" lon="4.187430">
						<ele>1048</ele>
						<time>2026-09-04T08:44:08Z</time>
					</trkpt>
					<trkpt lat="45.092290" lon="4.187070">
						<ele>1047</ele>
						<time>2026-09-04T08:44:36Z</time>
					</trkpt>
					<trkpt lat="45.092180" lon="4.186910">
						<ele>1046</ele>
						<time>2026-09-04T08:44:44Z</time>
					</trkpt>
					<trkpt lat="45.091580" lon="4.185460">
						<ele>1039</ele>
						<time>2026-09-04T08:45:43Z</time>
					</trkpt>
					<trkpt lat="45.090820" lon="4.184060">
						<ele>1034</ele>
						<time>2026-09-04T08:46:46Z</time>
					</trkpt>
					<trkpt lat="45.090560" lon="4.183720">
						<ele>1033</ele>
						<time>2026-09-04T08:47:03Z</time>
					</trkpt>
					<trkpt lat="45.090290" lon="4.183410">
						<ele>1031</ele>
						<time>2026-09-04T08:47:21Z</time>
					</trkpt>
					<trkpt lat="45.090130" lon="4.183290">
						<ele>1031</ele>
						<time>2026-09-04T08:47:30Z</time>
					</trkpt>
					<trkpt lat="45.089620" lon="4.183020">
						<ele>1028</ele>
						<time>2026-09-04T08:47:57Z</time>
					</trkpt>
					<trkpt lat="45.089300" lon="4.182820">
						<ele>1027</ele>
						<time>2026-09-04T08:48:15Z</time>
					</trkpt>
					<trkpt lat="45.089140" lon="4.182660">
						<ele>1026</ele>
						<time>2026-09-04T08:48:24Z</time>
					</trkpt>
					<trkpt lat="45.089000" lon="4.182490">
						<ele>1025</ele>
						<time>2026-09-04T08:48:34Z</time>
					</trkpt>
					<trkpt lat="45.088840" lon="4.182180">
						<ele>1022</ele>
						<time>2026-09-04T08:48:47Z</time>
					</trkpt>
					<trkpt lat="45.088730" lon="4.182020">
						<ele>1021</ele>
						<time>2026-09-04T08:48:55Z</time>
					</trkpt>
					<trkpt lat="45.088700" lon="4.181890">
						<ele>1020</ele>
						<time>2026-09-04T08:49:00Z</time>
					</trkpt>
					<trkpt lat="45.088360" lon="4.181230">
						<ele>1018</ele>
						<time>2026-09-04T08:49:29Z</time>
					</trkpt>
					<trkpt lat="45.088060" lon="4.180810">
						<ele>1014</ele>
						<time>2026-09-04T08:49:50Z</time>
					</trkpt>
					<trkpt lat="45.086950" lon="4.179790">
						<ele>1002</ele>
						<time>2026-09-04T08:50:56Z</time>
					</trkpt>
					<trkpt lat="45.086250" lon="4.179020">
						<ele>996</ele>
						<time>2026-09-04T08:51:41Z</time>
					</trkpt>
					<trkpt lat="45.085530" lon="4.178610">
						<ele>993</ele>
						<time>2026-09-04T08:52:19Z</time>
					</trkpt>
					<trkpt lat="45.085340" lon="4.178410">
						<ele>992</ele>
						<time>2026-09-04T08:52:31Z</time>
					</trkpt>
					<trkpt lat="45.085270" lon="4.178160">
						<ele>991</ele>
						<time>2026-09-04T08:52:41Z</time>
					</trkpt>
					<trkpt lat="45.085350" lon="4.176440">
						<ele>991</ele>
						<time>2026-09-04T08:53:42Z</time>
					</trkpt>
					<trkpt lat="45.085390" lon="4.176200">
						<ele>992</ele>
						<time>2026-09-04T08:53:50Z</time>
					</trkpt>
					<trkpt lat="45.085490" lon="4.176010">
						<ele>993</ele>
						<time>2026-09-04T08:53:59Z</time>
					</trkpt>
					<trkpt lat="45.085670" lon="4.175900">
						<ele>994</ele>
						<time>2026-09-04T08:54:09Z</time>
					</trkpt>
					<trkpt lat="45.086480" lon="4.175920">
						<ele>997</ele>
						<time>2026-09-04T08:54:49Z</time>
					</trkpt>
					<trkpt lat="45.086940" lon="4.175550">
						<ele>1002</ele>
						<time>2026-09-04T08:55:16Z</time>
					</trkpt>
					<trkpt lat="45.087050" lon="4.175340">
						<ele>1004</ele>
						<time>2026-09-04T08:55:25Z</time>
					</trkpt>
					<trkpt lat="45.087250" lon="4.175140">
						<ele>1007</ele>
						<time>2026-09-04T08:55:37Z</time>
					</trkpt>
					<trkpt lat="45.087540" lon="4.174940">
						<ele>1011</ele>
						<time>2026-09-04T08:55:53Z</time>
					</trkpt>
					<trkpt lat="45.087840" lon="4.174670">
						<ele>1016</ele>
						<time>2026-09-04T08:56:11Z</time>
					</trkpt>
					<trkpt lat="45.088080" lon="4.174390">
						<ele>1021</ele>
						<time>2026-09-04T08:56:27Z</time>
					</trkpt>
					<trkpt lat="45.088130" lon="4.174010">
						<ele>1025</ele>
						<time>2026-09-04T08:56:40Z</time>
					</trkpt>
					<trkpt lat="45.088490" lon="4.173510">
						<ele>1030</ele>
						<time>2026-09-04T08:57:05Z</time>
					</trkpt>
					<trkpt lat="45.088710" lon="4.173150">
						<ele>1033</ele>
						<time>2026-09-04T08:57:22Z</time>
					</trkpt>
					<trkpt lat="45.088840" lon="4.173000">
						<ele>1033</ele>
						<time>2026-09-04T08:57:31Z</time>
					</trkpt>
					<trkpt lat="45.089080" lon="4.172960">
						<ele>1035</ele>
						<time>2026-09-04T08:57:43Z</time>
					</trkpt>
					<trkpt lat="45.088980" lon="4.172550">
						<ele>1034</ele>
						<time>2026-09-04T08:57:58Z</time>
					</trkpt>
					<trkpt lat="45.088570" lon="4.171910">
						<ele>1033</ele>
						<time>2026-09-04T08:58:29Z</time>
					</trkpt>
					<trkpt lat="45.088240" lon="4.171560">
						<ele>1033</ele>
						<time>2026-09-04T08:58:49Z</time>
					</trkpt>
					<trkpt lat="45.088080" lon="4.171650">
						<ele>1032</ele>
						<time>2026-09-04T08:58:58Z</time>
					</trkpt>
					<trkpt lat="45.087890" lon="4.171630">
						<ele>1031</ele>
						<time>2026-09-04T08:59:07Z</time>
					</trkpt>
					<trkpt lat="45.087680" lon="4.171570">
						<ele>1030</ele>
						<time>2026-09-04T08:59:18Z</time>
					</trkpt>
					<trkpt lat="45.087360" lon="4.171430">
						<ele>1027</ele>
						<time>2026-09-04T08:59:35Z</time>
					</trkpt>
					<trkpt lat="45.087220" lon="4.171320">
						<ele>1026</ele>
						<time>2026-09-04T08:59:43Z</time>
					</trkpt>
					<trkpt lat="45.086730" lon="4.171260">
						<ele>1020</ele>
						<time>2026-09-04T09:00:07Z</time>
					</trkpt>
					<trkpt lat="45.086470" lon="4.171300">
						<ele>1017</ele>
						<time>2026-09-04T09:00:21Z</time>
					</trkpt>
					<trkpt lat="45.086300" lon="4.171210">
						<ele>1015</ele>
						<time>2026-09-04T09:00:30Z</time>
					</trkpt>
					<trkpt lat="45.086160" lon="4.170940">
						<ele>1013</ele>
						<time>2026-09-04T09:00:41Z</time>
					</trkpt>
					<trkpt lat="45.085990" lon="4.170840">
						<ele>1012</ele>
						<time>2026-09-04T09:00:51Z</time>
					</trkpt>
					<trkpt lat="45.085810" lon="4.170760">
						<ele>1010</ele>
						<time>2026-09-04T09:01:00Z</time>
					</trkpt>
					<trkpt lat="45.085670" lon="4.170780">
						<ele>1010</ele>
						<time>2026-09-04T09:01:07Z</time>
					</trkpt>
					<trkpt lat="45.085180" lon="4.170630">
						<ele>1009</ele>
						<time>2026-09-04T09:01:32Z</time>
					</trkpt>
					<trkpt lat="45.084430" lon="4.170200">
						<ele>1016</ele>
						<time>2026-09-04T09:02:13Z</time>
					</trkpt>
					<trkpt lat="45.084270" lon="4.170000">
						<ele>1017</ele>
						<time>2026-09-04T09:02:23Z</time>
					</trkpt>
					<trkpt lat="45.083940" lon="4.169760">
						<ele>1021</ele>
						<time>2026-09-04T09:02:42Z</time>
					</trkpt>
					<trkpt lat="45.083750" lon="4.169570">
						<ele>1024</ele>
						<time>2026-09-04T09:02:54Z</time>
					</trkpt>
					<trkpt lat="45.083550" lon="4.169320">
						<ele>1026</ele>
						<time>2026-09-04T09:03:07Z</time>
					</trkpt>
					<trkpt lat="45.083420" lon="4.169230">
						<ele>1028</ele>
						<time>2026-09-04T09:03:14Z</time>
					</trkpt>
					<trkpt lat="45.083270" lon="4.169060">
						<ele>1029</ele>
						<time>2026-09-04T09:03:24Z</time>
					</trkpt>
					<trkpt lat="45.082960" lon="4.168620">
						<ele>1030</ele>
						<time>2026-09-04T09:03:46Z</time>
					</trkpt>
					<trkpt lat="45.082850" lon="4.168420">
						<ele>1030</ele>
						<time>2026-09-04T09:03:55Z</time>
					</trkpt>
					<trkpt lat="45.082740" lon="4.168090">
						<ele>1029</ele>
						<time>2026-09-04T09:04:08Z</time>
					</trkpt>
					<trkpt lat="45.082430" lon="4.167340">
						<ele>1029</ele>
						<time>2026-09-04T09:04:38Z</time>
					</trkpt>
					<trkpt lat="45.082160" lon="4.166570">
						<ele>1032</ele>
						<time>2026-09-04T09:05:09Z</time>
					</trkpt>
					<trkpt lat="45.081950" lon="4.165630">
						<ele>1040</ele>
						<time>2026-09-04T09:05:44Z</time>
					</trkpt>
					<trkpt lat="45.081870" lon="4.165440">
						<ele>1042</ele>
						<time>2026-09-04T09:05:51Z</time>
					</trkpt>
					<trkpt lat="45.080880" lon="4.164080">
						<ele>1054</ele>
						<time>2026-09-04T09:07:00Z</time>
					</trkpt>
					<trkpt lat="45.080630" lon="4.163590">
						<ele>1056</ele>
						<time>2026-09-04T09:07:22Z</time>
					</trkpt>
					<trkpt lat="45.080470" lon="4.163320">
						<ele>1057</ele>
						<time>2026-09-04T09:07:34Z</time>
					</trkpt>
					<trkpt lat="45.080170" lon="4.162910">
						<ele>1060</ele>
						<time>2026-09-04T09:07:55Z</time>
					</trkpt>
					<trkpt lat="45.079730" lon="4.162100">
						<ele>1064</ele>
						<time>2026-09-04T09:08:31Z</time>
					</trkpt>
					<trkpt lat="45.079610" lon="4.161710">
						<ele>1066</ele>
						<time>2026-09-04T09:08:46Z</time>
					</trkpt>
					<trkpt lat="45.079490" lon="4.161000">
						<ele>1071</ele>
						<time>2026-09-04T09:09:12Z</time>
					</trkpt>
					<trkpt lat="45.079470" lon="4.160430">
						<ele>1074</ele>
						<time>2026-09-04T09:09:32Z</time>
					</trkpt>
					<trkpt lat="45.079510" lon="4.159370">
						<ele>1078</ele>
						<time>2026-09-04T09:10:10Z</time>
					</trkpt>
					<trkpt lat="45.079320" lon="4.158870">
						<ele>1083</ele>
						<time>2026-09-04T09:10:30Z</time>
					</trkpt>
					<trkpt lat="45.079230" lon="4.158290">
						<ele>1087</ele>
						<time>2026-09-04T09:10:51Z</time>
					</trkpt>
					<trkpt lat="45.079170" lon="4.158070">
						<ele>1089</ele>
						<time>2026-09-04T09:10:59Z</time>
					</trkpt>
					<trkpt lat="45.078960" lon="4.157570">
						<ele>1091</ele>
						<time>2026-09-04T09:11:20Z</time>
					</trkpt>
					<trkpt lat="45.078460" lon="4.156590">
						<ele>1095</ele>
						<time>2026-09-04T09:12:02Z</time>
					</trkpt>
					<trkpt lat="45.077190" lon="4.154440">
						<ele>1096</ele>
						<time>2026-09-04T09:13:41Z</time>
					</trkpt>
					<trkpt lat="45.077070" lon="4.154460">
						<ele>1096</ele>
						<time>2026-09-04T09:13:47Z</time>
					</trkpt>
					<trkpt lat="45.076790" lon="4.153280">
						<ele>1099</ele>
						<time>2026-09-04T09:14:31Z</time>
					</trkpt>
					<trkpt lat="45.076650" lon="4.152530">
						<ele>1100</ele>
						<time>2026-09-04T09:14:59Z</time>
					</trkpt>
					<trkpt lat="45.076450" lon="4.151810">
						<ele>1100</ele>
						<time>2026-09-04T09:15:26Z</time>
					</trkpt>
					<trkpt lat="45.076200" lon="4.151080">
						<ele>1101</ele>
						<time>2026-09-04T09:15:55Z</time>
					</trkpt>
					<trkpt lat="45.076230" lon="4.150610">
						<ele>1101</ele>
						<time>2026-09-04T09:16:12Z</time>
					</trkpt>
					<trkpt lat="45.076360" lon="4.149720">
						<ele>1101</ele>
						<time>2026-09-04T09:16:44Z</time>
					</trkpt>
					<trkpt lat="45.076360" lon="4.149510">
						<ele>1102</ele>
						<time>2026-09-04T09:16:51Z</time>
					</trkpt>
					<trkpt lat="45.076350" lon="4.149260">
						<ele>1103</ele>
						<time>2026-09-04T09:17:00Z</time>
					</trkpt>
					<trkpt lat="45.076160" lon="4.148470">
						<ele>1107</ele>
						<time>2026-09-04T09:17:29Z</time>
					</trkpt>
					<trkpt lat="45.075950" lon="4.147950">
						<ele>1110</ele>
						<time>2026-09-04T09:17:51Z</time>
					</trkpt>
					<trkpt lat="45.075790" lon="4.147740">
						<ele>1111</ele>
						<time>2026-09-04T09:18:01Z</time>
					</trkpt>
					<trkpt lat="45.075560" lon="4.147610">
						<ele>1113</ele>
						<time>2026-09-04T09:18:14Z</time>
					</trkpt>
					<trkpt lat="45.074760" lon="4.147270">
						<ele>1120</ele>
						<time>2026-09-04T09:18:56Z</time>
					</trkpt>
					<trkpt lat="45.074640" lon="4.146520">
						<ele>1127</ele>
						<time>2026-09-04T09:19:23Z</time>
					</trkpt>
					<trkpt lat="45.074670" lon="4.145920">
						<ele>1135</ele>
						<time>2026-09-04T09:19:44Z</time>
					</trkpt>
					<trkpt lat="45.074780" lon="4.145620">
						<ele>1137</ele>
						<time>2026-09-04T09:19:56Z</time>
					</trkpt>
					<trkpt lat="45.074980" lon="4.145190">
						<ele>1140</ele>
						<time>2026-09-04T09:20:14Z</time>
					</trkpt>
					<trkpt lat="45.075060" lon="4.144870">
						<ele>1142</ele>
						<time>2026-09-04T09:20:26Z</time>
					</trkpt>
					<trkpt lat="45.075250" lon="4.144350">
						<ele>1143</ele>
						<time>2026-09-04T09:20:47Z</time>
					</trkpt>
					<trkpt lat="45.075310" lon="4.144050">
						<ele>1145</ele>
						<time>2026-09-04T09:20:58Z</time>
					</trkpt>
					<trkpt lat="45.075370" lon="4.143180">
						<ele>1148</ele>
						<time>2026-09-04T09:21:29Z</time>
					</trkpt>
					<trkpt lat="45.075300" lon="4.142640">
						<ele>1153</ele>
						<time>2026-09-04T09:21:48Z</time>
					</trkpt>
					<trkpt lat="45.075260" lon="4.142530">
						<ele>1155</ele>
						<time>2026-09-04T09:21:53Z</time>
					</trkpt>
					<trkpt lat="45.075120" lon="4.142320">
						<ele>1158</ele>
						<time>2026-09-04T09:22:03Z</time>
					</trkpt>
					<trkpt lat="45.075070" lon="4.142110">
						<ele>1160</ele>
						<time>2026-09-04T09:22:11Z</time>
					</trkpt>
					<trkpt lat="45.074990" lon="4.141130">
						<ele>1167</ele>
						<time>2026-09-04T09:22:46Z</time>
					</trkpt>
					<trkpt lat="45.074800" lon="4.140210">
						<ele>1175</ele>
						<time>2026-09-04T09:23:19Z</time>
					</trkpt>
					<trkpt lat="45.074700" lon="4.139880">
						<ele>1178</ele>
						<time>2026-09-04T09:23:32Z</time>
					</trkpt>
					<trkpt lat="45.074680" lon="4.139390">
						<ele>1182</ele>
						<time>2026-09-04T09:23:49Z</time>
					</trkpt>
					<trkpt lat="45.074620" lon="4.139120">
						<ele>1185</ele>
						<time>2026-09-04T09:23:59Z</time>
					</trkpt>
					<trkpt lat="45.074660" lon="4.138830">
						<ele>1187</ele>
						<time>2026-09-04T09:24:10Z</time>
					</trkpt>
					<trkpt lat="45.074670" lon="4.138430">
						<ele>1191</ele>
						<time>2026-09-04T09:24:24Z</time>
					</trkpt>
					<trkpt lat="45.074670" lon="4.133530">
						<ele>1224</ele>
						<time>2026-09-04T09:27:17Z</time>
					</trkpt>
					<trkpt lat="45.074530" lon="4.132520">
						<ele>1229</ele>
						<time>2026-09-04T09:27:54Z</time>
					</trkpt>
					<trkpt lat="45.074350" lon="4.131890">
						<ele>1234</ele>
						<time>2026-09-04T09:28:18Z</time>
					</trkpt>
					<trkpt lat="45.073960" lon="4.130920">
						<ele>1241</ele>
						<time>2026-09-04T09:28:57Z</time>
					</trkpt>
					<trkpt lat="45.073200" lon="4.128560">
						<ele>1249</ele>
						<time>2026-09-04T09:30:29Z</time>
					</trkpt>
					<trkpt lat="45.072440" lon="4.126680">
						<ele>1265</ele>
						<time>2026-09-04T09:31:45Z</time>
					</trkpt>
					<trkpt lat="45.071880" lon="4.126120">
						<ele>1269</ele>
						<time>2026-09-04T09:32:20Z</time>
					</trkpt>
					<trkpt lat="45.071570" lon="4.124440">
						<ele>1274</ele>
						<time>2026-09-04T09:33:21Z</time>
					</trkpt>
					<trkpt lat="45.070470" lon="4.122470">
						<ele>1281</ele>
						<time>2026-09-04T09:34:50Z</time>
					</trkpt>
					<trkpt lat="45.069630" lon="4.120170">
						<ele>1286</ele>
						<time>2026-09-04T09:36:21Z</time>
					</trkpt>
					<trkpt lat="45.069580" lon="4.119100">
						<ele>1284</ele>
						<time>2026-09-04T09:36:59Z</time>
					</trkpt>
					<trkpt lat="45.069080" lon="4.117640">
						<ele>1266</ele>
						<time>2026-09-04T09:37:56Z</time>
					</trkpt>
					<trkpt lat="45.069290" lon="4.116090">
						<ele>1260</ele>
						<time>2026-09-04T09:38:52Z</time>
					</trkpt>
					<trkpt lat="45.069350" lon="4.115960">
						<ele>1261</ele>
						<time>2026-09-04T09:38:58Z</time>
					</trkpt>
					<trkpt lat="45.069390" lon="4.115780">
						<ele>1262</ele>
						<time>2026-09-04T09:39:04Z</time>
					</trkpt>
					<trkpt lat="45.069440" lon="4.115350">
						<ele>1261</ele>
						<time>2026-09-04T09:39:20Z</time>
					</trkpt>
					<trkpt lat="45.069500" lon="4.115030">
						<ele>1262</ele>
						<time>2026-09-04T09:39:31Z</time>
					</trkpt>
					<trkpt lat="45.069550" lon="4.114890">
						<ele>1263</ele>
						<time>2026-09-04T09:39:37Z</time>
					</trkpt>
					<trkpt lat="45.069510" lon="4.114680">
						<ele>1260</ele>
						<time>2026-09-04T09:39:45Z</time>
					</trkpt>
					<trkpt lat="45.069500" lon="4.114350">
						<ele>1257</ele>
						<time>2026-09-04T09:39:56Z</time>
					</trkpt>
					<trkpt lat="45.069950" lon="4.111710">
						<ele>1235</ele>
						<time>2026-09-04T09:41:32Z</time>
					</trkpt>
					<trkpt lat="45.070140" lon="4.110790">
						<ele>1228</ele>
						<time>2026-09-04T09:42:06Z</time>
					</trkpt>
					<trkpt lat="45.070250" lon="4.110460">
						<ele>1224</ele>
						<time>2026-09-04T09:42:19Z</time>
					</trkpt>
					<trkpt lat="45.070400" lon="4.110170">
						<ele>1220</ele>
						<time>2026-09-04T09:42:32Z</time>
					</trkpt>
					<trkpt lat="45.070100" lon="4.110300">
						<ele>1217</ele>
						<time>2026-09-04T09:42:48Z</time>
					</trkpt>
					<trkpt lat="45.069910" lon="4.110440">
						<ele>1218</ele>
						<time>2026-09-04T09:42:58Z</time>
					</trkpt>
					<trkpt lat="45.069570" lon="4.110220">
						<ele>1214</ele>
						<time>2026-09-04T09:43:17Z</time>
					</trkpt>
					<trkpt lat="45.069460" lon="4.110200">
						<ele>1214</ele>
						<time>2026-09-04T09:43:23Z</time>
					</trkpt>
					<trkpt lat="45.069330" lon="4.110080">
						<ele>1214</ele>
						<time>2026-09-04T09:43:30Z</time>
					</trkpt>
					<trkpt lat="45.069240" lon="4.109740">
						<ele>1210</ele>
						<time>2026-09-04T09:43:43Z</time>
					</trkpt>
					<trkpt lat="45.069110" lon="4.109370">
						<ele>1205</ele>
						<time>2026-09-04T09:43:58Z</time>
					</trkpt>
					<trkpt lat="45.069020" lon="4.109230">
						<ele>1202</ele>
						<time>2026-09-04T09:44:04Z</time>
					</trkpt>
					<trkpt lat="45.068970" lon="4.109030">
						<ele>1200</ele>
						<time>2026-09-04T09:44:12Z</time>
					</trkpt>
					<trkpt lat="45.069000" lon="4.108910">
						<ele>1199</ele>
						<time>2026-09-04T09:44:16Z</time>
					</trkpt>
					<trkpt lat="45.069100" lon="4.108740">
						<ele>1197</ele>
						<time>2026-09-04T09:44:24Z</time>
					</trkpt>
					<trkpt lat="45.069140" lon="4.108550">
						<ele>1196</ele>
						<time>2026-09-04T09:44:31Z</time>
					</trkpt>
					<trkpt lat="45.069130" lon="4.108180">
						<ele>1192</ele>
						<time>2026-09-04T09:44:44Z</time>
					</trkpt>
					<trkpt lat="45.069150" lon="4.108000">
						<ele>1191</ele>
						<time>2026-09-04T09:44:51Z</time>
					</trkpt>
					<trkpt lat="45.069530" lon="4.106290">
						<ele>1173</ele>
						<time>2026-09-04T09:45:54Z</time>
					</trkpt>
					<trkpt lat="45.070110" lon="4.106010">
						<ele>1173</ele>
						<time>2026-09-04T09:46:25Z</time>
					</trkpt>
					<trkpt lat="45.070150" lon="4.105960">
						<ele>1172</ele>
						<time>2026-09-04T09:46:27Z</time>
					</trkpt>
					<trkpt lat="45.070500" lon="4.105310">
						<ele>1166</ele>
						<time>2026-09-04T09:46:56Z</time>
					</trkpt>
					<trkpt lat="45.070760" lon="4.104940">
						<ele>1163</ele>
						<time>2026-09-04T09:47:15Z</time>
					</trkpt>
					<trkpt lat="45.070790" lon="4.104870">
						<ele>1162</ele>
						<time>2026-09-04T09:47:18Z</time>
					</trkpt>
					<trkpt lat="45.070820" lon="4.104620">
						<ele>1160</ele>
						<time>2026-09-04T09:47:27Z</time>
					</trkpt>
					<trkpt lat="45.070970" lon="4.104120">
						<ele>1156</ele>
						<time>2026-09-04T09:47:46Z</time>
					</trkpt>
					<trkpt lat="45.071100" lon="4.103850">
						<ele>1155</ele>
						<time>2026-09-04T09:47:57Z</time>
					</trkpt>
					<trkpt lat="45.071460" lon="4.103350">
						<ele>1153</ele>
						<time>2026-09-04T09:48:23Z</time>
					</trkpt>
					<trkpt lat="45.071930" lon="4.102040">
						<ele>1149</ele>
						<time>2026-09-04T09:49:15Z</time>
					</trkpt>
					<trkpt lat="45.072020" lon="4.101890">
						<ele>1148</ele>
						<time>2026-09-04T09:49:22Z</time>
					</trkpt>
					<trkpt lat="45.072170" lon="4.101710">
						<ele>1148</ele>
						<time>2026-09-04T09:49:31Z</time>
					</trkpt>
					<trkpt lat="45.072570" lon="4.101290">
						<ele>1150</ele>
						<time>2026-09-04T09:49:56Z</time>
					</trkpt>
					<trkpt lat="45.072670" lon="4.101120">
						<ele>1150</ele>
						<time>2026-09-04T09:50:04Z</time>
					</trkpt>
					<trkpt lat="45.072690" lon="4.101010">
						<ele>1149</ele>
						<time>2026-09-04T09:50:08Z</time>
					</trkpt>
					<trkpt lat="45.072480" lon="4.101110">
						<ele>1148</ele>
						<time>2026-09-04T09:50:19Z</time>
					</trkpt>
					<trkpt lat="45.071620" lon="4.101250">
						<ele>1140</ele>
						<time>2026-09-04T09:51:03Z</time>
					</trkpt>
					<trkpt lat="45.071480" lon="4.101310">
						<ele>1139</ele>
						<time>2026-09-04T09:51:10Z</time>
					</trkpt>
					<trkpt lat="45.071330" lon="4.101450">
						<ele>1138</ele>
						<time>2026-09-04T09:51:19Z</time>
					</trkpt>
					<trkpt lat="45.070930" lon="4.102010">
						<ele>1139</ele>
						<time>2026-09-04T09:51:47Z</time>
					</trkpt>
					<trkpt lat="45.070780" lon="4.102130">
						<ele>1140</ele>
						<time>2026-09-04T09:51:56Z</time>
					</trkpt>
					<trkpt lat="45.070700" lon="4.102160">
						<ele>1140</ele>
						<time>2026-09-04T09:52:00Z</time>
					</trkpt>
					<trkpt lat="45.070610" lon="4.102160">
						<ele>1140</ele>
						<time>2026-09-04T09:52:04Z</time>
					</trkpt>
					<trkpt lat="45.069810" lon="4.101880">
						<ele>1139</ele>
						<time>2026-09-04T09:52:45Z</time>
					</trkpt>
					<trkpt lat="45.069210" lon="4.101640">
						<ele>1140</ele>
						<time>2026-09-04T09:53:17Z</time>
					</trkpt>
					<trkpt lat="45.068590" lon="4.101610">
						<ele>1138</ele>
						<time>2026-09-04T09:53:48Z</time>
					</trkpt>
					<trkpt lat="45.068370" lon="4.101660">
						<ele>1137</ele>
						<time>2026-09-04T09:53:59Z</time>
					</trkpt>
					<trkpt lat="45.067440" lon="4.101980">
						<ele>1133</ele>
						<time>2026-09-04T09:54:47Z</time>
					</trkpt>
					<trkpt lat="45.067330" lon="4.102000">
						<ele>1132</ele>
						<time>2026-09-04T09:54:52Z</time>
					</trkpt>
					<trkpt lat="45.066900" lon="4.101950">
						<ele>1128</ele>
						<time>2026-09-04T09:55:14Z</time>
					</trkpt>
					<trkpt lat="45.066750" lon="4.102000">
						<ele>1127</ele>
						<time>2026-09-04T09:55:22Z</time>
					</trkpt>
					<trkpt lat="45.066580" lon="4.102120">
						<ele>1126</ele>
						<time>2026-09-04T09:55:31Z</time>
					</trkpt>
					<trkpt lat="45.066360" lon="4.102400">
						<ele>1124</ele>
						<time>2026-09-04T09:55:46Z</time>
					</trkpt>
					<trkpt lat="45.066160" lon="4.102400">
						<ele>1121</ele>
						<time>2026-09-04T09:55:56Z</time>
					</trkpt>
					<trkpt lat="45.066020" lon="4.102440">
						<ele>1119</ele>
						<time>2026-09-04T09:56:03Z</time>
					</trkpt>
					<trkpt lat="45.065450" lon="4.102690">
						<ele>1109</ele>
						<time>2026-09-04T09:56:33Z</time>
					</trkpt>
					<trkpt lat="45.065230" lon="4.102760">
						<ele>1106</ele>
						<time>2026-09-04T09:56:44Z</time>
					</trkpt>
					<trkpt lat="45.065090" lon="4.102830">
						<ele>1104</ele>
						<time>2026-09-04T09:56:52Z</time>
					</trkpt>
					<trkpt lat="45.064810" lon="4.103130">
						<ele>1099</ele>
						<time>2026-09-04T09:57:09Z</time>
					</trkpt>
					<trkpt lat="45.064760" lon="4.103110">
						<ele>1098</ele>
						<time>2026-09-04T09:57:12Z</time>
					</trkpt>
					<trkpt lat="45.064690" lon="4.103010">
						<ele>1098</ele>
						<time>2026-09-04T09:57:17Z</time>
					</trkpt>
					<trkpt lat="45.064550" lon="4.102690">
						<ele>1098</ele>
						<time>2026-09-04T09:57:30Z</time>
					</trkpt>
					<trkpt lat="45.064460" lon="4.102280">
						<ele>1098</ele>
						<time>2026-09-04T09:57:45Z</time>
					</trkpt>
					<trkpt lat="45.064390" lon="4.102180">
						<ele>1097</ele>
						<time>2026-09-04T09:57:50Z</time>
					</trkpt>
					<trkpt lat="45.063720" lon="4.102180">
						<ele>1088</ele>
						<time>2026-09-04T09:58:24Z</time>
					</trkpt>
					<trkpt lat="45.063670" lon="4.102210">
						<ele>1088</ele>
						<time>2026-09-04T09:58:27Z</time>
					</trkpt>
					<trkpt lat="45.063630" lon="4.102280">
						<ele>1087</ele>
						<time>2026-09-04T09:58:30Z</time>
					</trkpt>
					<trkpt lat="45.063590" lon="4.102470">
						<ele>1086</ele>
						<time>2026-09-04T09:58:37Z</time>
					</trkpt>
					<trkpt lat="45.063560" lon="4.102970">
						<ele>1080</ele>
						<time>2026-09-04T09:58:54Z</time>
					</trkpt>
					<trkpt lat="45.063590" lon="4.103100">
						<ele>1079</ele>
						<time>2026-09-04T09:58:59Z</time>
					</trkpt>
					<trkpt lat="45.063820" lon="4.103650">
						<ele>1076</ele>
						<time>2026-09-04T09:59:22Z</time>
					</trkpt>
					<trkpt lat="45.063970" lon="4.103870">
						<ele>1075</ele>
						<time>2026-09-04T09:59:33Z</time>
					</trkpt>
					<trkpt lat="45.064110" lon="4.104000">
						<ele>1076</ele>
						<time>2026-09-04T09:59:41Z</time>
					</trkpt>
					<trkpt lat="45.064320" lon="4.104310">
						<ele>1075</ele>
						<time>2026-09-04T09:59:56Z</time>
					</trkpt>
					<trkpt lat="45.064520" lon="4.104430">
						<ele>1077</ele>
						<time>2026-09-04T10:00:07Z</time>
					</trkpt>
					<trkpt lat="45.064610" lon="4.104550">
						<ele>1077</ele>
						<time>2026-09-04T10:00:13Z</time>
					</trkpt>
					<trkpt lat="45.064670" lon="4.104720">
						<ele>1077</ele>
						<time>2026-09-04T10:00:20Z</time>
					</trkpt>
					<trkpt lat="45.064540" lon="4.104980">
						<ele>1073</ele>
						<time>2026-09-04T10:00:31Z</time>
					</trkpt>
					<trkpt lat="45.064270" lon="4.105310">
						<ele>1070</ele>
						<time>2026-09-04T10:00:49Z</time>
					</trkpt>
					<trkpt lat="45.063880" lon="4.105870">
						<ele>1067</ele>
						<time>2026-09-04T10:01:17Z</time>
					</trkpt>
					<trkpt lat="45.062790" lon="4.106900">
						<ele>1054</ele>
						<time>2026-09-04T10:02:22Z</time>
					</trkpt>
					<trkpt lat="45.062600" lon="4.107030">
						<ele>1052</ele>
						<time>2026-09-04T10:02:33Z</time>
					</trkpt>
					<trkpt lat="45.062370" lon="4.107110">
						<ele>1050</ele>
						<time>2026-09-04T10:02:45Z</time>
					</trkpt>
					<trkpt lat="45.061930" lon="4.107110">
						<ele>1049</ele>
						<time>2026-09-04T10:03:07Z</time>
					</trkpt>
					<trkpt lat="45.061710" lon="4.107140">
						<ele>1049</ele>
						<time>2026-09-04T10:03:18Z</time>
					</trkpt>
					<trkpt lat="45.061140" lon="4.107370">
						<ele>1055</ele>
						<time>2026-09-04T10:03:48Z</time>
					</trkpt>
					<trkpt lat="45.060990" lon="4.107460">
						<ele>1057</ele>
						<time>2026-09-04T10:03:56Z</time>
					</trkpt>
					<trkpt lat="45.060740" lon="4.107390">
						<ele>1058</ele>
						<time>2026-09-04T10:04:09Z</time>
					</trkpt>
					<trkpt lat="45.060560" lon="4.107210">
						<ele>1058</ele>
						<time>2026-09-04T10:04:20Z</time>
					</trkpt>
					<trkpt lat="45.060300" lon="4.107070">
						<ele>1058</ele>
						<time>2026-09-04T10:04:33Z</time>
					</trkpt>
					<trkpt lat="45.060060" lon="4.107000">
						<ele>1058</ele>
						<time>2026-09-04T10:04:46Z</time>
					</trkpt>
					<trkpt lat="45.059530" lon="4.106750">
						<ele>1056</ele>
						<time>2026-09-04T10:05:14Z</time>
					</trkpt>
					<trkpt lat="45.059330" lon="4.106700">
						<ele>1056</ele>
						<time>2026-09-04T10:05:24Z</time>
					</trkpt>
					<trkpt lat="45.059070" lon="4.106700">
						<ele>1056</ele>
						<time>2026-09-04T10:05:37Z</time>
					</trkpt>
					<trkpt lat="45.058980" lon="4.106670">
						<ele>1055</ele>
						<time>2026-09-04T10:05:42Z</time>
					</trkpt>
					<trkpt lat="45.058880" lon="4.106570">
						<ele>1054</ele>
						<time>2026-09-04T10:05:48Z</time>
					</trkpt>
					<trkpt lat="45.058690" lon="4.106250">
						<ele>1050</ele>
						<time>2026-09-04T10:06:02Z</time>
					</trkpt>
					<trkpt lat="45.058670" lon="4.106170">
						<ele>1049</ele>
						<time>2026-09-04T10:06:05Z</time>
					</trkpt>
					<trkpt lat="45.058600" lon="4.106130">
						<ele>1048</ele>
						<time>2026-09-04T10:06:09Z</time>
					</trkpt>
					<trkpt lat="45.058370" lon="4.106130">
						<ele>1047</ele>
						<time>2026-09-04T10:06:21Z</time>
					</trkpt>
					<trkpt lat="45.058180" lon="4.106220">
						<ele>1047</ele>
						<time>2026-09-04T10:06:31Z</time>
					</trkpt>
					<trkpt lat="45.058070" lon="4.106330">
						<ele>1048</ele>
						<time>2026-09-04T10:06:37Z</time>
					</trkpt>
					<trkpt lat="45.058000" lon="4.106460">
						<ele>1049</ele>
						<time>2026-09-04T10:06:43Z</time>
					</trkpt>
					<trkpt lat="45.057670" lon="4.106660">
						<ele>1050</ele>
						<time>2026-09-04T10:07:01Z</time>
					</trkpt>
					<trkpt lat="45.057560" lon="4.106770">
						<ele>1051</ele>
						<time>2026-09-04T10:07:08Z</time>
					</trkpt>
					<trkpt lat="45.057280" lon="4.106850">
						<ele>1050</ele>
						<time>2026-09-04T10:07:22Z</time>
					</trkpt>
					<trkpt lat="45.057170" lon="4.106610">
						<ele>1046</ele>
						<time>2026-09-04T10:07:32Z</time>
					</trkpt>
					<trkpt lat="45.057190" lon="4.106340">
						<ele>1043</ele>
						<time>2026-09-04T10:07:42Z</time>
					</trkpt>
					<trkpt lat="45.057290" lon="4.106140">
						<ele>1041</ele>
						<time>2026-09-04T10:07:51Z</time>
					</trkpt>
					<trkpt lat="45.057470" lon="4.105960">
						<ele>1040</ele>
						<time>2026-09-04T10:08:02Z</time>
					</trkpt>
					<trkpt lat="45.057440" lon="4.105880">
						<ele>1039</ele>
						<time>2026-09-04T10:08:05Z</time>
					</trkpt>
					<trkpt lat="45.057380" lon="4.105780">
						<ele>1038</ele>
						<time>2026-09-04T10:08:09Z</time>
					</trkpt>
					<trkpt lat="45.057140" lon="4.105640">
						<ele>1034</ele>
						<time>2026-09-04T10:08:22Z</time>
					</trkpt>
					<trkpt lat="45.056740" lon="4.105530">
						<ele>1030</ele>
						<time>2026-09-04T10:08:43Z</time>
					</trkpt>
					<trkpt lat="45.056450" lon="4.104640">
						<ele>1018</ele>
						<time>2026-09-04T10:09:18Z</time>
					</trkpt>
					<trkpt lat="45.056120" lon="4.103750">
						<ele>1007</ele>
						<time>2026-09-04T10:09:53Z</time>
					</trkpt>
					<trkpt lat="45.055650" lon="4.103020">
						<ele>996</ele>
						<time>2026-09-04T10:10:28Z</time>
					</trkpt>
					<trkpt lat="45.055130" lon="4.102480">
						<ele>991</ele>
						<time>2026-09-04T10:11:00Z</time>
					</trkpt>
					<trkpt lat="45.054940" lon="4.102350">
						<ele>990</ele>
						<time>2026-09-04T10:11:11Z</time>
					</trkpt>
					<trkpt lat="45.054910" lon="4.102220">
						<ele>988</ele>
						<time>2026-09-04T10:11:16Z</time>
					</trkpt>
					<trkpt lat="45.054920" lon="4.102110">
						<ele>987</ele>
						<time>2026-09-04T10:11:20Z</time>
					</trkpt>
					<trkpt lat="45.054890" lon="4.102020">
						<ele>986</ele>
						<time>2026-09-04T10:11:23Z</time>
					</trkpt>
					<trkpt lat="45.054550" lon="4.101540">
						<ele>982</ele>
						<time>2026-09-04T10:11:47Z</time>
					</trkpt>
					<trkpt lat="45.054120" lon="4.101290">
						<ele>982</ele>
						<time>2026-09-04T10:12:10Z</time>
					</trkpt>
					<trkpt lat="45.054020" lon="4.101170">
						<ele>982</ele>
						<time>2026-09-04T10:12:17Z</time>
					</trkpt>
					<trkpt lat="45.053800" lon="4.100650">
						<ele>983</ele>
						<time>2026-09-04T10:12:38Z</time>
					</trkpt>
					<trkpt lat="45.053740" lon="4.100410">
						<ele>983</ele>
						<time>2026-09-04T10:12:47Z</time>
					</trkpt>
					<trkpt lat="45.053610" lon="4.099350">
						<ele>978</ele>
						<time>2026-09-04T10:13:25Z</time>
					</trkpt>
					<trkpt lat="45.053540" lon="4.099050">
						<ele>977</ele>
						<time>2026-09-04T10:13:37Z</time>
					</trkpt>
					<trkpt lat="45.053210" lon="4.098210">
						<ele>980</ele>
						<time>2026-09-04T10:14:11Z</time>
					</trkpt>
					<trkpt lat="45.052900" lon="4.097190">
						<ele>992</ele>
						<time>2026-09-04T10:14:50Z</time>
					</trkpt>
					<trkpt lat="45.052760" lon="4.096890">
						<ele>997</ele>
						<time>2026-09-04T10:15:02Z</time>
					</trkpt>
					<trkpt lat="45.052590" lon="4.096650">
						<ele>1003</ele>
						<time>2026-09-04T10:15:15Z</time>
					</trkpt>
					<trkpt lat="45.052230" lon="4.096230">
						<ele>1011</ele>
						<time>2026-09-04T10:15:38Z</time>
					</trkpt>
					<trkpt lat="45.051730" lon="4.095530">
						<ele>1019</ele>
						<time>2026-09-04T10:16:13Z</time>
					</trkpt>
					<trkpt lat="45.051540" lon="4.095330">
						<ele>1020</ele>
						<time>2026-09-04T10:16:25Z</time>
					</trkpt>
					<trkpt lat="45.050650" lon="4.094560">
						<ele>1023</ele>
						<time>2026-09-04T10:17:17Z</time>
					</trkpt>
					<trkpt lat="45.050150" lon="4.094300">
						<ele>1028</ele>
						<time>2026-09-04T10:17:44Z</time>
					</trkpt>
					<trkpt lat="45.049620" lon="4.094170">
						<ele>1031</ele>
						<time>2026-09-04T10:18:11Z</time>
					</trkpt>
					<trkpt lat="45.049490" lon="4.094160">
						<ele>1032</ele>
						<time>2026-09-04T10:18:17Z</time>
					</trkpt>
					<trkpt lat="45.049380" lon="4.094190">
						<ele>1034</ele>
						<time>2026-09-04T10:18:23Z</time>
					</trkpt>
					<trkpt lat="45.049240" lon="4.094110">
						<ele>1033</ele>
						<time>2026-09-04T10:18:30Z</time>
					</trkpt>
					<trkpt lat="45.048020" lon="4.092800">
						<ele>1019</ele>
						<time>2026-09-04T10:19:47Z</time>
					</trkpt>
					<trkpt lat="45.047660" lon="4.092560">
						<ele>1016</ele>
						<time>2026-09-04T10:20:07Z</time>
					</trkpt>
					<trkpt lat="45.047230" lon="4.092480">
						<ele>1016</ele>
						<time>2026-09-04T10:20:29Z</time>
					</trkpt>
					<trkpt lat="45.047100" lon="4.092420">
						<ele>1015</ele>
						<time>2026-09-04T10:20:35Z</time>
					</trkpt>
					<trkpt lat="45.046800" lon="4.092210">
						<ele>1012</ele>
						<time>2026-09-04T10:20:52Z</time>
					</trkpt>
					<trkpt lat="45.046330" lon="4.092000">
						<ele>1013</ele>
						<time>2026-09-04T10:21:17Z</time>
					</trkpt>
					<trkpt lat="45.045860" lon="4.091690">
						<ele>1013</ele>
						<time>2026-09-04T10:21:43Z</time>
					</trkpt>
					<trkpt lat="45.045710" lon="4.091620">
						<ele>1013</ele>
						<time>2026-09-04T10:21:51Z</time>
					</trkpt>
					<trkpt lat="45.045220" lon="4.091490">
						<ele>1015</ele>
						<time>2026-09-04T10:22:16Z</time>
					</trkpt>
					<trkpt lat="45.044930" lon="4.091040">
						<ele>1009</ele>
						<time>2026-09-04T10:22:37Z</time>
					</trkpt>
					<trkpt lat="45.044630" lon="4.090730">
						<ele>1004</ele>
						<time>2026-09-04T10:22:56Z</time>
					</trkpt>
					<trkpt lat="45.044460" lon="4.090600">
						<ele>1002</ele>
						<time>2026-09-04T10:23:05Z</time>
					</trkpt>
					<trkpt lat="45.044460" lon="4.090500">
						<ele>1001</ele>
						<time>2026-09-04T10:23:09Z</time>
					</trkpt>
					<trkpt lat="45.044360" lon="4.090280">
						<ele>999</ele>
						<time>2026-09-04T10:23:18Z</time>
					</trkpt>
					<trkpt lat="45.044230" lon="4.090140">
						<ele>997</ele>
						<time>2026-09-04T10:23:26Z</time>
					</trkpt>
					<trkpt lat="45.043980" lon="4.090010">
						<ele>995</ele>
						<time>2026-09-04T10:23:40Z</time>
					</trkpt>
					<trkpt lat="45.043870" lon="4.089860">
						<ele>991</ele>
						<time>2026-09-04T10:23:47Z</time>
					</trkpt>
					<trkpt lat="45.043360" lon="4.089600">
						<ele>983</ele>
						<time>2026-09-04T10:24:15Z</time>
					</trkpt>
					<trkpt lat="45.042830" lon="4.089000">
						<ele>972</ele>
						<time>2026-09-04T10:24:48Z</time>
					</trkpt>
					<trkpt lat="45.042580" lon="4.088760">
						<ele>968</ele>
						<time>2026-09-04T10:25:04Z</time>
					</trkpt>
					<trkpt lat="45.042400" lon="4.088750">
						<ele>966</ele>
						<time>2026-09-04T10:25:13Z</time>
					</trkpt>
					<trkpt lat="45.041840" lon="4.088820">
						<ele>964</ele>
						<time>2026-09-04T10:25:41Z</time>
					</trkpt>
					<trkpt lat="45.041850" lon="4.088740">
						<ele>963</ele>
						<time>2026-09-04T10:25:44Z</time>
					</trkpt>
					<trkpt lat="45.041370" lon="4.088770">
						<ele>958</ele>
						<time>2026-09-04T10:26:08Z</time>
					</trkpt>
					<trkpt lat="45.040740" lon="4.088630">
						<ele>950</ele>
						<time>2026-09-04T10:26:40Z</time>
					</trkpt>
					<trkpt lat="45.040660" lon="4.088550">
						<ele>949</ele>
						<time>2026-09-04T10:26:44Z</time>
					</trkpt>
					<trkpt lat="45.040590" lon="4.088430">
						<ele>947</ele>
						<time>2026-09-04T10:26:50Z</time>
					</trkpt>
					<trkpt lat="45.040530" lon="4.088050">
						<ele>944</ele>
						<time>2026-09-04T10:27:04Z</time>
					</trkpt>
					<trkpt lat="45.040250" lon="4.087970">
						<ele>942</ele>
						<time>2026-09-04T10:27:18Z</time>
					</trkpt>
					<trkpt lat="45.040200" lon="4.087970">
						<ele>942</ele>
						<time>2026-09-04T10:27:21Z</time>
					</trkpt>
					<trkpt lat="45.039960" lon="4.088070">
						<ele>943</ele>
						<time>2026-09-04T10:27:33Z</time>
					</trkpt>
					<trkpt lat="45.039810" lon="4.088040">
						<ele>944</ele>
						<time>2026-09-04T10:27:41Z</time>
					</trkpt>
					<trkpt lat="45.039420" lon="4.087820">
						<ele>945</ele>
						<time>2026-09-04T10:28:02Z</time>
					</trkpt>
					<trkpt lat="45.039320" lon="4.087720">
						<ele>946</ele>
						<time>2026-09-04T10:28:08Z</time>
					</trkpt>
					<trkpt lat="45.039210" lon="4.087530">
						<ele>946</ele>
						<time>2026-09-04T10:28:16Z</time>
					</trkpt>
					<trkpt lat="45.039080" lon="4.087430">
						<ele>947</ele>
						<time>2026-09-04T10:28:24Z</time>
					</trkpt>
					<trkpt lat="45.038660" lon="4.087250">
						<ele>949</ele>
						<time>2026-09-04T10:28:46Z</time>
					</trkpt>
					<trkpt lat="45.038500" lon="4.087850">
						<ele>953</ele>
						<time>2026-09-04T10:29:08Z</time>
					</trkpt>
					<trkpt lat="45.038440" lon="4.087950">
						<ele>954</ele>
						<time>2026-09-04T10:29:13Z</time>
					</trkpt>
					<trkpt lat="45.038470" lon="4.088130">
						<ele>955</ele>
						<time>2026-09-04T10:29:20Z</time>
					</trkpt>
					<trkpt lat="45.038340" lon="4.088200">
						<ele>956</ele>
						<time>2026-09-04T10:29:27Z</time>
					</trkpt>
					<trkpt lat="45.038220" lon="4.088350">
						<ele>958</ele>
						<time>2026-09-04T10:29:35Z</time>
					</trkpt>
					<trkpt lat="45.038110" lon="4.088550">
						<ele>961</ele>
						<time>2026-09-04T10:29:44Z</time>
					</trkpt>
					<trkpt lat="45.037790" lon="4.088960">
						<ele>969</ele>
						<time>2026-09-04T10:30:05Z</time>
					</trkpt>
					<trkpt lat="45.037750" lon="4.089070">
						<ele>971</ele>
						<time>2026-09-04T10:30:10Z</time>
					</trkpt>
					<trkpt lat="45.037660" lon="4.089400">
						<ele>975</ele>
						<time>2026-09-04T10:30:22Z</time>
					</trkpt>
					<trkpt lat="45.037600" lon="4.089930">
						<ele>981</ele>
						<time>2026-09-04T10:30:41Z</time>
					</trkpt>
					<trkpt lat="45.037570" lon="4.090550">
						<ele>984</ele>
						<time>2026-09-04T10:31:03Z</time>
					</trkpt>
					<trkpt lat="45.037530" lon="4.090770">
						<ele>985</ele>
						<time>2026-09-04T10:31:11Z</time>
					</trkpt>
					<trkpt lat="45.037340" lon="4.091250">
						<ele>988</ele>
						<time>2026-09-04T10:31:31Z</time>
					</trkpt>
					<trkpt lat="45.037320" lon="4.091510">
						<ele>990</ele>
						<time>2026-09-04T10:31:40Z</time>
					</trkpt>
					<trkpt lat="45.037190" lon="4.091480">
						<ele>992</ele>
						<time>2026-09-04T10:31:46Z</time>
					</trkpt>
					<trkpt lat="45.037030" lon="4.091480">
						<ele>994</ele>
						<time>2026-09-04T10:31:54Z</time>
					</trkpt>
					<trkpt lat="45.036900" lon="4.091410">
						<ele>994</ele>
						<time>2026-09-04T10:32:01Z</time>
					</trkpt>
					<trkpt lat="45.036690" lon="4.091150">
						<ele>993</ele>
						<time>2026-09-04T10:32:15Z</time>
					</trkpt>
					<trkpt lat="45.036540" lon="4.091010">
						<ele>990</ele>
						<time>2026-09-04T10:32:24Z</time>
					</trkpt>
					<trkpt lat="45.036410" lon="4.090950">
						<ele>989</ele>
						<time>2026-09-04T10:32:31Z</time>
					</trkpt>
					<trkpt lat="45.036250" lon="4.090960">
						<ele>990</ele>
						<time>2026-09-04T10:32:39Z</time>
					</trkpt>
					<trkpt lat="45.035840" lon="4.091040">
						<ele>992</ele>
						<time>2026-09-04T10:33:00Z</time>
					</trkpt>
					<trkpt lat="45.035710" lon="4.091030">
						<ele>991</ele>
						<time>2026-09-04T10:33:06Z</time>
					</trkpt>
					<trkpt lat="45.035210" lon="4.090840">
						<ele>983</ele>
						<time>2026-09-04T10:33:32Z</time>
					</trkpt>
					<trkpt lat="45.035050" lon="4.090820">
						<ele>981</ele>
						<time>2026-09-04T10:33:40Z</time>
					</trkpt>
					<trkpt lat="45.035120" lon="4.090440">
						<ele>979</ele>
						<time>2026-09-04T10:33:54Z</time>
					</trkpt>
					<trkpt lat="45.035110" lon="4.089810">
						<ele>975</ele>
						<time>2026-09-04T10:34:17Z</time>
					</trkpt>
					<trkpt lat="45.035070" lon="4.089660">
						<ele>973</ele>
						<time>2026-09-04T10:34:22Z</time>
					</trkpt>
					<trkpt lat="45.035050" lon="4.089400">
						<ele>971</ele>
						<time>2026-09-04T10:34:31Z</time>
					</trkpt>
					<trkpt lat="45.034930" lon="4.089000">
						<ele>966</ele>
						<time>2026-09-04T10:34:47Z</time>
					</trkpt>
					<trkpt lat="45.034930" lon="4.088720">
						<ele>963</ele>
						<time>2026-09-04T10:34:57Z</time>
					</trkpt>
					<trkpt lat="45.034890" lon="4.088570">
						<ele>961</ele>
						<time>2026-09-04T10:35:02Z</time>
					</trkpt>
					<trkpt lat="45.034470" lon="4.088240">
						<ele>956</ele>
						<time>2026-09-04T10:35:26Z</time>
					</trkpt>
					<trkpt lat="45.034360" lon="4.088230">
						<ele>955</ele>
						<time>2026-09-04T10:35:32Z</time>
					</trkpt>
					<trkpt lat="45.034250" lon="4.088240">
						<ele>955</ele>
						<time>2026-09-04T10:35:37Z</time>
					</trkpt>
					<trkpt lat="45.034040" lon="4.088340">
						<ele>955</ele>
						<time>2026-09-04T10:35:49Z</time>
					</trkpt>
					<trkpt lat="45.033900" lon="4.088320">
						<ele>954</ele>
						<time>2026-09-04T10:35:56Z</time>
					</trkpt>
					<trkpt lat="45.033750" lon="4.088330">
						<ele>954</ele>
						<time>2026-09-04T10:36:03Z</time>
					</trkpt>
					<trkpt lat="45.033010" lon="4.088530">
						<ele>950</ele>
						<time>2026-09-04T10:36:41Z</time>
					</trkpt>
					<trkpt lat="45.032770" lon="4.088640">
						<ele>948</ele>
						<time>2026-09-04T10:36:53Z</time>
					</trkpt>
					<trkpt lat="45.032570" lon="4.088640">
						<ele>945</ele>
						<time>2026-09-04T10:37:03Z</time>
					</trkpt>
					<trkpt lat="45.032290" lon="4.088410">
						<ele>941</ele>
						<time>2026-09-04T10:37:20Z</time>
					</trkpt>
					<trkpt lat="45.031900" lon="4.087860">
						<ele>934</ele>
						<time>2026-09-04T10:37:47Z</time>
					</trkpt>
					<trkpt lat="45.031800" lon="4.087760">
						<ele>932</ele>
						<time>2026-09-04T10:37:53Z</time>
					</trkpt>
					<trkpt lat="45.031420" lon="4.087620">
						<ele>927</ele>
						<time>2026-09-04T10:38:13Z</time>
					</trkpt>
					<trkpt lat="45.030920" lon="4.087560">
						<ele>923</ele>
						<time>2026-09-04T10:38:38Z</time>
					</trkpt>
					<trkpt lat="45.030800" lon="4.087460">
						<ele>922</ele>
						<time>2026-09-04T10:38:45Z</time>
					</trkpt>
					<trkpt lat="45.030680" lon="4.087300">
						<ele>920</ele>
						<time>2026-09-04T10:38:53Z</time>
					</trkpt>
					<trkpt lat="45.030580" lon="4.087100">
						<ele>919</ele>
						<time>2026-09-04T10:39:02Z</time>
					</trkpt>
					<trkpt lat="45.030520" lon="4.086890">
						<ele>918</ele>
						<time>2026-09-04T10:39:10Z</time>
					</trkpt>
					<trkpt lat="45.030340" lon="4.086540">
						<ele>916</ele>
						<time>2026-09-04T10:39:25Z</time>
					</trkpt>
					<trkpt lat="45.030210" lon="4.086220">
						<ele>915</ele>
						<time>2026-09-04T10:39:38Z</time>
					</trkpt>
					<trkpt lat="45.030230" lon="4.085770">
						<ele>913</ele>
						<time>2026-09-04T10:39:54Z</time>
					</trkpt>
					<trkpt lat="45.030070" lon="4.085610">
						<ele>912</ele>
						<time>2026-09-04T10:40:04Z</time>
					</trkpt>
					<trkpt lat="45.029870" lon="4.084800">
						<ele>912</ele>
						<time>2026-09-04T10:40:34Z</time>
					</trkpt>
					<trkpt lat="45.029830" lon="4.084710">
						<ele>913</ele>
						<time>2026-09-04T10:40:38Z</time>
					</trkpt>
					<trkpt lat="45.029810" lon="4.084440">
						<ele>913</ele>
						<time>2026-09-04T10:40:48Z</time>
					</trkpt>
					<trkpt lat="45.029840" lon="4.083970">
						<ele>915</ele>
						<time>2026-09-04T10:41:04Z</time>
					</trkpt>
					<trkpt lat="45.029810" lon="4.083880">
						<ele>916</ele>
						<time>2026-09-04T10:41:08Z</time>
					</trkpt>
					<trkpt lat="45.029840" lon="4.083480">
						<ele>918</ele>
						<time>2026-09-04T10:41:22Z</time>
					</trkpt>
					<trkpt lat="45.029710" lon="4.083340">
						<ele>919</ele>
						<time>2026-09-04T10:41:30Z</time>
					</trkpt>
					<trkpt lat="45.029300" lon="4.083010">
						<ele>921</ele>
						<time>2026-09-04T10:41:54Z</time>
					</trkpt>
					<trkpt lat="45.029060" lon="4.082760">
						<ele>923</ele>
						<time>2026-09-04T10:42:09Z</time>
					</trkpt>
					<trkpt lat="45.028880" lon="4.082670">
						<ele>925</ele>
						<time>2026-09-04T10:42:18Z</time>
					</trkpt>
					<trkpt lat="45.028470" lon="4.082380">
						<ele>929</ele>
						<time>2026-09-04T10:42:41Z</time>
					</trkpt>
					<trkpt lat="45.028300" lon="4.082300">
						<ele>930</ele>
						<time>2026-09-04T10:42:50Z</time>
					</trkpt>
					<trkpt lat="45.028450" lon="4.081970">
						<ele>933</ele>
						<time>2026-09-04T10:43:04Z</time>
					</trkpt>
					<trkpt lat="45.028500" lon="4.081780">
						<ele>934</ele>
						<time>2026-09-04T10:43:11Z</time>
					</trkpt>
					<trkpt lat="45.028610" lon="4.081590">
						<ele>936</ele>
						<time>2026-09-04T10:43:20Z</time>
					</trkpt>
					<trkpt lat="45.028700" lon="4.081510">
						<ele>937</ele>
						<time>2026-09-04T10:43:25Z</time>
					</trkpt>
					<trkpt lat="45.028890" lon="4.081430">
						<ele>937</ele>
						<time>2026-09-04T10:43:35Z</time>
					</trkpt>
					<trkpt lat="45.028900" lon="4.081330">
						<ele>938</ele>
						<time>2026-09-04T10:43:39Z</time>
					</trkpt>
					<trkpt lat="45.028800" lon="4.081180">
						<ele>940</ele>
						<time>2026-09-04T10:43:46Z</time>
					</trkpt>
					<trkpt lat="45.028720" lon="4.081150">
						<ele>940</ele>
						<time>2026-09-04T10:43:50Z</time>
					</trkpt>
					<trkpt lat="45.028530" lon="4.080910">
						<ele>942</ele>
						<time>2026-09-04T10:44:03Z</time>
					</trkpt>
					<trkpt lat="45.028540" lon="4.080720">
						<ele>944</ele>
						<time>2026-09-04T10:44:10Z</time>
					</trkpt>
					<trkpt lat="45.028510" lon="4.080590">
						<ele>945</ele>
						<time>2026-09-04T10:44:15Z</time>
					</trkpt>
					<trkpt lat="45.028610" lon="4.079930">
						<ele>952</ele>
						<time>2026-09-04T10:44:39Z</time>
					</trkpt>
					<trkpt lat="45.028600" lon="4.079020">
						<ele>964</ele>
						<time>2026-09-04T10:45:11Z</time>
					</trkpt>
					<trkpt lat="45.028620" lon="4.078820">
						<ele>968</ele>
						<time>2026-09-04T10:45:18Z</time>
					</trkpt>
					<trkpt lat="45.028680" lon="4.078610">
						<ele>972</ele>
						<time>2026-09-04T10:45:26Z</time>
					</trkpt>
					<trkpt lat="45.028650" lon="4.078560">
						<ele>973</ele>
						<time>2026-09-04T10:45:28Z</time>
					</trkpt>
					<trkpt lat="45.028430" lon="4.078370">
						<ele>976</ele>
						<time>2026-09-04T10:45:41Z</time>
					</trkpt>
					<trkpt lat="45.028530" lon="4.078240">
						<ele>978</ele>
						<time>2026-09-04T10:45:48Z</time>
					</trkpt>
					<trkpt lat="45.028640" lon="4.078230">
						<ele>979</ele>
						<time>2026-09-04T10:45:53Z</time>
					</trkpt>
					<trkpt lat="45.028650" lon="4.078200">
						<ele>979</ele>
						<time>2026-09-04T10:45:55Z</time>
					</trkpt>
					<trkpt lat="45.028530" lon="4.078110">
						<ele>980</ele>
						<time>2026-09-04T10:46:01Z</time>
					</trkpt>
					<trkpt lat="45.028530" lon="4.078050">
						<ele>981</ele>
						<time>2026-09-04T10:46:04Z</time>
					</trkpt>
					<trkpt lat="45.028580" lon="4.078030">
						<ele>982</ele>
						<time>2026-09-04T10:46:06Z</time>
					</trkpt>
					<trkpt lat="45.028670" lon="4.078060">
						<ele>982</ele>
						<time>2026-09-04T10:46:11Z</time>
					</trkpt>
					<trkpt lat="45.028720" lon="4.078010">
						<ele>983</ele>
						<time>2026-09-04T10:46:14Z</time>
					</trkpt>
					<trkpt lat="45.028560" lon="4.077870">
						<ele>984</ele>
						<time>2026-09-04T10:46:23Z</time>
					</trkpt>
					<trkpt lat="45.028500" lon="4.077780">
						<ele>985</ele>
						<time>2026-09-04T10:46:28Z</time>
					</trkpt>
					<trkpt lat="45.028470" lon="4.077680">
						<ele>986</ele>
						<time>2026-09-04T10:46:31Z</time>
					</trkpt>
					<trkpt lat="45.028410" lon="4.077350">
						<ele>987</ele>
						<time>2026-09-04T10:46:43Z</time>
					</trkpt>
					<trkpt lat="45.028450" lon="4.077080">
						<ele>986</ele>
						<time>2026-09-04T10:46:53Z</time>
					</trkpt>
					<trkpt lat="45.028440" lon="4.076980">
						<ele>985</ele>
						<time>2026-09-04T10:46:57Z</time>
					</trkpt>
					<trkpt lat="45.028500" lon="4.076830">
						<ele>985</ele>
						<time>2026-09-04T10:47:03Z</time>
					</trkpt>
					<trkpt lat="45.028890" lon="4.076410">
						<ele>984</ele>
						<time>2026-09-04T10:47:27Z</time>
					</trkpt>
					<trkpt lat="45.028980" lon="4.076280">
						<ele>982</ele>
						<time>2026-09-04T10:47:34Z</time>
					</trkpt>
					<trkpt lat="45.029140" lon="4.076190">
						<ele>982</ele>
						<time>2026-09-04T10:47:42Z</time>
					</trkpt>
					<trkpt lat="45.029390" lon="4.076130">
						<ele>979</ele>
						<time>2026-09-04T10:47:55Z</time>
					</trkpt>
					<trkpt lat="45.029540" lon="4.076060">
						<ele>977</ele>
						<time>2026-09-04T10:48:03Z</time>
					</trkpt>
					<trkpt lat="45.029640" lon="4.075940">
						<ele>973</ele>
						<time>2026-09-04T10:48:10Z</time>
					</trkpt>
					<trkpt lat="45.029780" lon="4.075920">
						<ele>972</ele>
						<time>2026-09-04T10:48:17Z</time>
					</trkpt>
					<trkpt lat="45.029920" lon="4.075770">
						<ele>968</ele>
						<time>2026-09-04T10:48:25Z</time>
					</trkpt>
					<trkpt lat="45.030000" lon="4.075800">
						<ele>969</ele>
						<time>2026-09-04T10:48:30Z</time>
					</trkpt>
					<trkpt lat="45.030130" lon="4.075790">
						<ele>966</ele>
						<time>2026-09-04T10:48:36Z</time>
					</trkpt>
					<trkpt lat="45.030230" lon="4.075760">
						<ele>963</ele>
						<time>2026-09-04T10:48:41Z</time>
					</trkpt>
					<trkpt lat="45.030360" lon="4.075660">
						<ele>957</ele>
						<time>2026-09-04T10:48:49Z</time>
					</trkpt>
					<trkpt lat="45.030440" lon="4.075660">
						<ele>956</ele>
						<time>2026-09-04T10:48:53Z</time>
					</trkpt>
					<trkpt lat="45.030620" lon="4.075780">
						<ele>955</ele>
						<time>2026-09-04T10:49:03Z</time>
					</trkpt>
					<trkpt lat="45.030830" lon="4.075790">
						<ele>950</ele>
						<time>2026-09-04T10:49:13Z</time>
					</trkpt>
					<trkpt lat="45.030990" lon="4.075830">
						<ele>946</ele>
						<time>2026-09-04T10:49:21Z</time>
					</trkpt>
					<trkpt lat="45.031050" lon="4.075760">
						<ele>943</ele>
						<time>2026-09-04T10:49:25Z</time>
					</trkpt>
					<trkpt lat="45.031040" lon="4.075540">
						<ele>941</ele>
						<time>2026-09-04T10:49:33Z</time>
					</trkpt>
					<trkpt lat="45.031140" lon="4.075350">
						<ele>936</ele>
						<time>2026-09-04T10:49:41Z</time>
					</trkpt>
					<trkpt lat="45.031190" lon="4.075140">
						<ele>933</ele>
						<time>2026-09-04T10:49:49Z</time>
					</trkpt>
					<trkpt lat="45.031250" lon="4.075190">
						<ele>933</ele>
						<time>2026-09-04T10:49:53Z</time>
					</trkpt>
					<trkpt lat="45.031400" lon="4.075220">
						<ele>930</ele>
						<time>2026-09-04T10:50:00Z</time>
					</trkpt>
					<trkpt lat="45.031390" lon="4.075060">
						<ele>929</ele>
						<time>2026-09-04T10:50:06Z</time>
					</trkpt>
					<trkpt lat="45.031460" lon="4.074840">
						<ele>927</ele>
						<time>2026-09-04T10:50:14Z</time>
					</trkpt>
					<trkpt lat="45.031520" lon="4.074750">
						<ele>926</ele>
						<time>2026-09-04T10:50:19Z</time>
					</trkpt>
					<trkpt lat="45.031570" lon="4.074730">
						<ele>926</ele>
						<time>2026-09-04T10:50:21Z</time>
					</trkpt>
					<trkpt lat="45.031880" lon="4.074750">
						<ele>923</ele>
						<time>2026-09-04T10:50:37Z</time>
					</trkpt>
					<trkpt lat="45.032040" lon="4.074620">
						<ele>922</ele>
						<time>2026-09-04T10:50:46Z</time>
					</trkpt>
					<trkpt lat="45.032290" lon="4.074300">
						<ele>920</ele>
						<time>2026-09-04T10:51:03Z</time>
					</trkpt>
					<trkpt lat="45.032380" lon="4.074160">
						<ele>919</ele>
						<time>2026-09-04T10:51:10Z</time>
					</trkpt>
					<trkpt lat="45.032380" lon="4.073860">
						<ele>917</ele>
						<time>2026-09-04T10:51:20Z</time>
					</trkpt>
					<trkpt lat="45.032460" lon="4.073550">
						<ele>915</ele>
						<time>2026-09-04T10:51:32Z</time>
					</trkpt>
					<trkpt lat="45.032530" lon="4.073490">
						<ele>915</ele>
						<time>2026-09-04T10:51:36Z</time>
					</trkpt>
					<trkpt lat="45.032620" lon="4.073540">
						<ele>914</ele>
						<time>2026-09-04T10:51:41Z</time>
					</trkpt>
					<trkpt lat="45.032880" lon="4.073500">
						<ele>912</ele>
						<time>2026-09-04T10:51:54Z</time>
					</trkpt>
					<trkpt lat="45.033030" lon="4.073260">
						<ele>910</ele>
						<time>2026-09-04T10:52:05Z</time>
					</trkpt>
					<trkpt lat="45.033260" lon="4.073000">
						<ele>908</ele>
						<time>2026-09-04T10:52:20Z</time>
					</trkpt>
					<trkpt lat="45.033730" lon="4.072690">
						<ele>903</ele>
						<time>2026-09-04T10:52:46Z</time>
					</trkpt>
					<trkpt lat="45.033960" lon="4.072630">
						<ele>900</ele>
						<time>2026-09-04T10:52:58Z</time>
					</trkpt>
					<trkpt lat="45.034480" lon="4.072580">
						<ele>895</ele>
						<time>2026-09-04T10:53:24Z</time>
					</trkpt>
					<trkpt lat="45.034450" lon="4.072480">
						<ele>895</ele>
						<time>2026-09-04T10:53:28Z</time>
					</trkpt>
					<trkpt lat="45.034140" lon="4.072070">
						<ele>897</ele>
						<time>2026-09-04T10:53:49Z</time>
					</trkpt>
					<trkpt lat="45.033950" lon="4.071770">
						<ele>898</ele>
						<time>2026-09-04T10:54:03Z</time>
					</trkpt>
					<trkpt lat="45.033930" lon="4.071700">
						<ele>898</ele>
						<time>2026-09-04T10:54:06Z</time>
					</trkpt>
					<trkpt lat="45.034000" lon="4.070980">
						<ele>897</ele>
						<time>2026-09-04T10:54:32Z</time>
					</trkpt>
					<trkpt lat="45.033950" lon="4.070750">
						<ele>897</ele>
						<time>2026-09-04T10:54:40Z</time>
					</trkpt>
					<trkpt lat="45.033980" lon="4.070290">
						<ele>894</ele>
						<time>2026-09-04T10:54:56Z</time>
					</trkpt>
					<trkpt lat="45.034090" lon="4.069950">
						<ele>890</ele>
						<time>2026-09-04T10:55:10Z</time>
					</trkpt>
					<trkpt lat="45.034160" lon="4.069900">
						<ele>889</ele>
						<time>2026-09-04T10:55:14Z</time>
					</trkpt>
					<trkpt lat="45.034340" lon="4.069620">
						<ele>883</ele>
						<time>2026-09-04T10:55:27Z</time>
					</trkpt>
					<trkpt lat="45.034550" lon="4.069480">
						<ele>880</ele>
						<time>2026-09-04T10:55:39Z</time>
					</trkpt>
					<trkpt lat="45.035110" lon="4.068870">
						<ele>873</ele>
						<time>2026-09-04T10:56:14Z</time>
					</trkpt>
					<trkpt lat="45.035230" lon="4.068820">
						<ele>872</ele>
						<time>2026-09-04T10:56:20Z</time>
					</trkpt>
					<trkpt lat="45.035350" lon="4.068720">
						<ele>870</ele>
						<time>2026-09-04T10:56:27Z</time>
					</trkpt>
					<trkpt lat="45.035410" lon="4.068600">
						<ele>869</ele>
						<time>2026-09-04T10:56:32Z</time>
					</trkpt>
					<trkpt lat="45.035440" lon="4.068470">
						<ele>868</ele>
						<time>2026-09-04T10:56:37Z</time>
					</trkpt>
					<trkpt lat="45.035590" lon="4.068420">
						<ele>867</ele>
						<time>2026-09-04T10:56:45Z</time>
					</trkpt>
					<trkpt lat="45.035800" lon="4.068390">
						<ele>866</ele>
						<time>2026-09-04T10:56:55Z</time>
					</trkpt>
					<trkpt lat="45.036080" lon="4.068400">
						<ele>863</ele>
						<time>2026-09-04T10:57:09Z</time>
					</trkpt>
					<trkpt lat="45.036150" lon="4.068330">
						<ele>862</ele>
						<time>2026-09-04T10:57:14Z</time>
					</trkpt>
					<trkpt lat="45.036450" lon="4.068390">
						<ele>859</ele>
						<time>2026-09-04T10:57:29Z</time>
					</trkpt>
					<trkpt lat="45.036470" lon="4.068000">
						<ele>855</ele>
						<time>2026-09-04T10:57:43Z</time>
					</trkpt>
					<trkpt lat="45.036410" lon="4.067080">
						<ele>848</ele>
						<time>2026-09-04T10:58:15Z</time>
					</trkpt>
					<trkpt lat="45.036470" lon="4.066170">
						<ele>840</ele>
						<time>2026-09-04T10:58:48Z</time>
					</trkpt>
					<trkpt lat="45.036380" lon="4.065670">
						<ele>838</ele>
						<time>2026-09-04T10:59:06Z</time>
					</trkpt>
					<trkpt lat="45.036360" lon="4.065190">
						<ele>836</ele>
						<time>2026-09-04T10:59:23Z</time>
					</trkpt>
					<trkpt lat="45.036290" lon="4.064650">
						<ele>834</ele>
						<time>2026-09-04T10:59:42Z</time>
					</trkpt>
					<trkpt lat="45.036150" lon="4.063780">
						<ele>829</ele>
						<time>2026-09-04T11:00:14Z</time>
					</trkpt>
					<trkpt lat="45.035900" lon="4.062930">
						<ele>825</ele>
						<time>2026-09-04T11:00:46Z</time>
					</trkpt>
					<trkpt lat="45.035770" lon="4.063000">
						<ele>825</ele>
						<time>2026-09-04T11:00:53Z</time>
					</trkpt>
					<trkpt lat="45.035650" lon="4.063020">
						<ele>826</ele>
						<time>2026-09-04T11:00:59Z</time>
					</trkpt>
					<trkpt lat="45.035110" lon="4.063020">
						<ele>830</ele>
						<time>2026-09-04T11:01:27Z</time>
					</trkpt>
					<trkpt lat="45.035010" lon="4.062960">
						<ele>831</ele>
						<time>2026-09-04T11:01:32Z</time>
					</trkpt>
					<trkpt lat="45.034940" lon="4.063000">
						<ele>831</ele>
						<time>2026-09-04T11:01:36Z</time>
					</trkpt>
					<trkpt lat="45.034840" lon="4.063000">
						<ele>833</ele>
						<time>2026-09-04T11:01:41Z</time>
					</trkpt>
					<trkpt lat="45.034660" lon="4.062350">
						<ele>839</ele>
						<time>2026-09-04T11:02:05Z</time>
					</trkpt>
					<trkpt lat="45.034570" lon="4.062220">
						<ele>840</ele>
						<time>2026-09-04T11:02:12Z</time>
					</trkpt>
					<trkpt lat="45.034630" lon="4.062020">
						<ele>838</ele>
						<time>2026-09-04T11:02:20Z</time>
					</trkpt>
					<trkpt lat="45.034860" lon="4.061660">
						<ele>834</ele>
						<time>2026-09-04T11:02:37Z</time>
					</trkpt>
					<trkpt lat="45.034870" lon="4.061570">
						<ele>834</ele>
						<time>2026-09-04T11:02:40Z</time>
					</trkpt>
					<trkpt lat="45.035080" lon="4.061490">
						<ele>832</ele>
						<time>2026-09-04T11:02:51Z</time>
					</trkpt>
					<trkpt lat="45.035550" lon="4.061030">
						<ele>827</ele>
						<time>2026-09-04T11:03:19Z</time>
					</trkpt>
					<trkpt lat="45.035740" lon="4.060960">
						<ele>826</ele>
						<time>2026-09-04T11:03:29Z</time>
					</trkpt>
					<trkpt lat="45.036120" lon="4.060760">
						<ele>823</ele>
						<time>2026-09-04T11:03:50Z</time>
					</trkpt>
					<trkpt lat="45.036420" lon="4.060680">
						<ele>821</ele>
						<time>2026-09-04T11:04:05Z</time>
					</trkpt>
					<trkpt lat="45.036510" lon="4.058700">
						<ele>818</ele>
						<time>2026-09-04T11:05:15Z</time>
					</trkpt>
					<trkpt lat="45.037120" lon="4.058390">
						<ele>815</ele>
						<time>2026-09-04T11:05:47Z</time>
					</trkpt>
					<trkpt lat="45.037240" lon="4.058270">
						<ele>814</ele>
						<time>2026-09-04T11:05:55Z</time>
					</trkpt>
					<trkpt lat="45.037910" lon="4.057130">
						<ele>810</ele>
						<time>2026-09-04T11:06:47Z</time>
					</trkpt>
					<trkpt lat="45.038180" lon="4.056640">
						<ele>809</ele>
						<time>2026-09-04T11:07:09Z</time>
					</trkpt>
					<trkpt lat="45.038460" lon="4.055950">
						<ele>808</ele>
						<time>2026-09-04T11:07:37Z</time>
					</trkpt>
					<trkpt lat="45.038760" lon="4.055120">
						<ele>807</ele>
						<time>2026-09-04T11:08:10Z</time>
					</trkpt>
					<trkpt lat="45.039100" lon="4.054330">
						<ele>805</ele>
						<time>2026-09-04T11:08:43Z</time>
					</trkpt>
					<trkpt lat="45.039510" lon="4.053490">
						<ele>802</ele>
						<time>2026-09-04T11:09:19Z</time>
					</trkpt>
					<trkpt lat="45.039920" lon="4.052780">
						<ele>800</ele>
						<time>2026-09-04T11:09:51Z</time>
					</trkpt>
					<trkpt lat="45.040600" lon="4.051820">
						<ele>799</ele>
						<time>2026-09-04T11:10:40Z</time>
					</trkpt>
					<trkpt lat="45.040750" lon="4.051560">
						<ele>799</ele>
						<time>2026-09-04T11:10:51Z</time>
					</trkpt>
					<trkpt lat="45.040850" lon="4.051320">
						<ele>799</ele>
						<time>2026-09-04T11:11:01Z</time>
					</trkpt>
					<trkpt lat="45.040870" lon="4.051170">
						<ele>798</ele>
						<time>2026-09-04T11:11:07Z</time>
					</trkpt>
					<trkpt lat="45.040070" lon="4.050550">
						<ele>800</ele>
						<time>2026-09-04T11:11:52Z</time>
					</trkpt>
					<trkpt lat="45.039460" lon="4.049950">
						<ele>803</ele>
						<time>2026-09-04T11:12:29Z</time>
					</trkpt>
					<trkpt lat="45.039120" lon="4.049540">
						<ele>805</ele>
						<time>2026-09-04T11:12:52Z</time>
					</trkpt>
					<trkpt lat="45.038980" lon="4.049440">
						<ele>806</ele>
						<time>2026-09-04T11:13:00Z</time>
					</trkpt>
					<trkpt lat="45.038810" lon="4.049260">
						<ele>808</ele>
						<time>2026-09-04T11:13:10Z</time>
					</trkpt>
					<trkpt lat="45.038440" lon="4.048620">
						<ele>810</ele>
						<time>2026-09-04T11:13:40Z</time>
					</trkpt>
					<trkpt lat="45.038080" lon="4.048170">
						<ele>810</ele>
						<time>2026-09-04T11:14:04Z</time>
					</trkpt>
					<trkpt lat="45.037940" lon="4.047890">
						<ele>810</ele>
						<time>2026-09-04T11:14:16Z</time>
					</trkpt>
					<trkpt lat="45.037810" lon="4.047500">
						<ele>809</ele>
						<time>2026-09-04T11:14:31Z</time>
					</trkpt>
					<trkpt lat="45.037590" lon="4.047380">
						<ele>809</ele>
						<time>2026-09-04T11:14:43Z</time>
					</trkpt>
					<trkpt lat="45.037460" lon="4.047360">
						<ele>809</ele>
						<time>2026-09-04T11:14:49Z</time>
					</trkpt>
					<trkpt lat="45.036910" lon="4.047380">
						<ele>810</ele>
						<time>2026-09-04T11:15:17Z</time>
					</trkpt>
					<trkpt lat="45.036900" lon="4.046020">
						<ele>811</ele>
						<time>2026-09-04T11:16:05Z</time>
					</trkpt>
					<trkpt lat="45.036990" lon="4.045870">
						<ele>811</ele>
						<time>2026-09-04T11:16:12Z</time>
					</trkpt>
					<trkpt lat="45.037020" lon="4.045680">
						<ele>811</ele>
						<time>2026-09-04T11:16:19Z</time>
					</trkpt>
					<trkpt lat="45.037030" lon="4.045300">
						<ele>810</ele>
						<time>2026-09-04T11:16:32Z</time>
					</trkpt>
					<trkpt lat="45.037100" lon="4.045000">
						<ele>809</ele>
						<time>2026-09-04T11:16:43Z</time>
					</trkpt>
					<trkpt lat="45.037180" lon="4.044240">
						<ele>806</ele>
						<time>2026-09-04T11:17:11Z</time>
					</trkpt>
					<trkpt lat="45.037180" lon="4.043880">
						<ele>805</ele>
						<time>2026-09-04T11:17:23Z</time>
					</trkpt>
					<trkpt lat="45.037110" lon="4.043230">
						<ele>804</ele>
						<time>2026-09-04T11:17:47Z</time>
					</trkpt>
					<trkpt lat="45.037130" lon="4.041440">
						<ele>800</ele>
						<time>2026-09-04T11:18:50Z</time>
					</trkpt>
					<trkpt lat="45.037220" lon="4.040060">
						<ele>796</ele>
						<time>2026-09-04T11:19:39Z</time>
					</trkpt>
					<trkpt lat="45.037210" lon="4.039730">
						<ele>794</ele>
						<time>2026-09-04T11:19:51Z</time>
					</trkpt>
					<trkpt lat="45.037350" lon="4.039430">
						<ele>789</ele>
						<time>2026-09-04T11:20:03Z</time>
					</trkpt>
					<trkpt lat="45.037610" lon="4.038720">
						<ele>781</ele>
						<time>2026-09-04T11:20:32Z</time>
					</trkpt>
					<trkpt lat="45.037710" lon="4.038310">
						<ele>778</ele>
						<time>2026-09-04T11:20:47Z</time>
					</trkpt>
					<trkpt lat="45.037740" lon="4.038040">
						<ele>777</ele>
						<time>2026-09-04T11:20:57Z</time>
					</trkpt>
					<trkpt lat="45.037700" lon="4.037800">
						<ele>776</ele>
						<time>2026-09-04T11:21:05Z</time>
					</trkpt>
					<trkpt lat="45.037720" lon="4.037680">
						<ele>776</ele>
						<time>2026-09-04T11:21:10Z</time>
					</trkpt>
					<trkpt lat="45.037960" lon="4.037500">
						<ele>775</ele>
						<time>2026-09-04T11:21:23Z</time>
					</trkpt>
					<trkpt lat="45.037970" lon="4.037410">
						<ele>775</ele>
						<time>2026-09-04T11:21:26Z</time>
					</trkpt>
					<trkpt lat="45.037920" lon="4.037130">
						<ele>776</ele>
						<time>2026-09-04T11:21:37Z</time>
					</trkpt>
					<trkpt lat="45.037750" lon="4.036550">
						<ele>775</ele>
						<time>2026-09-04T11:21:59Z</time>
					</trkpt>
					<trkpt lat="45.037850" lon="4.036490">
						<ele>776</ele>
						<time>2026-09-04T11:22:04Z</time>
					</trkpt>
					<trkpt lat="45.037910" lon="4.036410">
						<ele>777</ele>
						<time>2026-09-04T11:22:08Z</time>
					</trkpt>
					<trkpt lat="45.037690" lon="4.035670">
						<ele>773</ele>
						<time>2026-09-04T11:22:37Z</time>
					</trkpt>
					<trkpt lat="45.037670" lon="4.035120">
						<ele>773</ele>
						<time>2026-09-04T11:22:56Z</time>
					</trkpt>
					<trkpt lat="45.037750" lon="4.034170">
						<ele>777</ele>
						<time>2026-09-04T11:23:30Z</time>
					</trkpt>
					<trkpt lat="45.037760" lon="4.033690">
						<ele>778</ele>
						<time>2026-09-04T11:23:47Z</time>
					</trkpt>
					<trkpt lat="45.037760" lon="4.033210">
						<ele>777</ele>
						<time>2026-09-04T11:24:04Z</time>
					</trkpt>
					<trkpt lat="45.037690" lon="4.032650">
						<ele>775</ele>
						<time>2026-09-04T11:24:24Z</time>
					</trkpt>
					<trkpt lat="45.037690" lon="4.032480">
						<ele>775</ele>
						<time>2026-09-04T11:24:30Z</time>
					</trkpt>
					<trkpt lat="45.037850" lon="4.031700">
						<ele>779</ele>
						<time>2026-09-04T11:24:59Z</time>
					</trkpt>
					<trkpt lat="45.037850" lon="4.031120">
						<ele>780</ele>
						<time>2026-09-04T11:25:19Z</time>
					</trkpt>
					<trkpt lat="45.037900" lon="4.030840">
						<ele>783</ele>
						<time>2026-09-04T11:25:30Z</time>
					</trkpt>
					<trkpt lat="45.037930" lon="4.030230">
						<ele>784</ele>
						<time>2026-09-04T11:25:51Z</time>
					</trkpt>
					<trkpt lat="45.037920" lon="4.029390">
						<ele>784</ele>
						<time>2026-09-04T11:26:21Z</time>
					</trkpt>
					<trkpt lat="45.038020" lon="4.028630">
						<ele>788</ele>
						<time>2026-09-04T11:26:48Z</time>
					</trkpt>
					<trkpt lat="45.037980" lon="4.028470">
						<ele>787</ele>
						<time>2026-09-04T11:26:54Z</time>
					</trkpt>
					<trkpt lat="45.037820" lon="4.028300">
						<ele>784</ele>
						<time>2026-09-04T11:27:04Z</time>
					</trkpt>
					<trkpt lat="45.037760" lon="4.028180">
						<ele>782</ele>
						<time>2026-09-04T11:27:10Z</time>
					</trkpt>
					<trkpt lat="45.037750" lon="4.028100">
						<ele>782</ele>
						<time>2026-09-04T11:27:12Z</time>
					</trkpt>
					<trkpt lat="45.037800" lon="4.027880">
						<ele>783</ele>
						<time>2026-09-04T11:27:21Z</time>
					</trkpt>
					<trkpt lat="45.038030" lon="4.027490">
						<ele>786</ele>
						<time>2026-09-04T11:27:39Z</time>
					</trkpt>
					<trkpt lat="45.038120" lon="4.027210">
						<ele>786</ele>
						<time>2026-09-04T11:27:49Z</time>
					</trkpt>
					<trkpt lat="45.038210" lon="4.027160">
						<ele>787</ele>
						<time>2026-09-04T11:27:54Z</time>
					</trkpt>
					<trkpt lat="45.038310" lon="4.027150">
						<ele>787</ele>
						<time>2026-09-04T11:27:59Z</time>
					</trkpt>
					<trkpt lat="45.038410" lon="4.026840">
						<ele>785</ele>
						<time>2026-09-04T11:28:11Z</time>
					</trkpt>
					<trkpt lat="45.038440" lon="4.026640">
						<ele>784</ele>
						<time>2026-09-04T11:28:19Z</time>
					</trkpt>
					<trkpt lat="45.038510" lon="4.026470">
						<ele>782</ele>
						<time>2026-09-04T11:28:25Z</time>
					</trkpt>
					<trkpt lat="45.038580" lon="4.026420">
						<ele>781</ele>
						<time>2026-09-04T11:28:29Z</time>
					</trkpt>
					<trkpt lat="45.038650" lon="4.026420">
						<ele>781</ele>
						<time>2026-09-04T11:28:33Z</time>
					</trkpt>
					<trkpt lat="45.038860" lon="4.026490">
						<ele>781</ele>
						<time>2026-09-04T11:28:44Z</time>
					</trkpt>
					<trkpt lat="45.038960" lon="4.026460">
						<ele>781</ele>
						<time>2026-09-04T11:28:49Z</time>
					</trkpt>
					<trkpt lat="45.039190" lon="4.026290">
						<ele>780</ele>
						<time>2026-09-04T11:29:02Z</time>
					</trkpt>
					<trkpt lat="45.039760" lon="4.026100">
						<ele>778</ele>
						<time>2026-09-04T11:29:31Z</time>
					</trkpt>
					<trkpt lat="45.040030" lon="4.026160">
						<ele>778</ele>
						<time>2026-09-04T11:29:45Z</time>
					</trkpt>
					<trkpt lat="45.040120" lon="4.026140">
						<ele>779</ele>
						<time>2026-09-04T11:29:49Z</time>
					</trkpt>
					<trkpt lat="45.040150" lon="4.026090">
						<ele>779</ele>
						<time>2026-09-04T11:29:52Z</time>
					</trkpt>
					<trkpt lat="45.039990" lon="4.025720">
						<ele>774</ele>
						<time>2026-09-04T11:30:07Z</time>
					</trkpt>
					<trkpt lat="45.039970" lon="4.025600">
						<ele>773</ele>
						<time>2026-09-04T11:30:11Z</time>
					</trkpt>
					<trkpt lat="45.040010" lon="4.025370">
						<ele>772</ele>
						<time>2026-09-04T11:30:20Z</time>
					</trkpt>
					<trkpt lat="45.039990" lon="4.025050">
						<ele>769</ele>
						<time>2026-09-04T11:30:31Z</time>
					</trkpt>
					<trkpt lat="45.039920" lon="4.024830">
						<ele>768</ele>
						<time>2026-09-04T11:30:40Z</time>
					</trkpt>
					<trkpt lat="45.039870" lon="4.024750">
						<ele>767</ele>
						<time>2026-09-04T11:30:43Z</time>
					</trkpt>
					<trkpt lat="45.039790" lon="4.024670">
						<ele>766</ele>
						<time>2026-09-04T11:30:48Z</time>
					</trkpt>
					<trkpt lat="45.039710" lon="4.024670">
						<ele>765</ele>
						<time>2026-09-04T11:30:52Z</time>
					</trkpt>
					<trkpt lat="45.039340" lon="4.024840">
						<ele>763</ele>
						<time>2026-09-04T11:31:12Z</time>
					</trkpt>
					<trkpt lat="45.039160" lon="4.024850">
						<ele>762</ele>
						<time>2026-09-04T11:31:21Z</time>
					</trkpt>
					<trkpt lat="45.038800" lon="4.024770">
						<ele>761</ele>
						<time>2026-09-04T11:31:39Z</time>
					</trkpt>
					<trkpt lat="45.038730" lon="4.024690">
						<ele>761</ele>
						<time>2026-09-04T11:31:44Z</time>
					</trkpt>
					<trkpt lat="45.038580" lon="4.024150">
						<ele>760</ele>
						<time>2026-09-04T11:32:04Z</time>
					</trkpt>
					<trkpt lat="45.038830" lon="4.023660">
						<ele>762</ele>
						<time>2026-09-04T11:32:25Z</time>
					</trkpt>
					<trkpt lat="45.038850" lon="4.023180">
						<ele>766</ele>
						<time>2026-09-04T11:32:42Z</time>
					</trkpt>
					<trkpt lat="45.039050" lon="4.022190">
						<ele>771</ele>
						<time>2026-09-04T11:33:19Z</time>
					</trkpt>
					<trkpt lat="45.039140" lon="4.021440">
						<ele>776</ele>
						<time>2026-09-04T11:33:46Z</time>
					</trkpt>
					<trkpt lat="45.039430" lon="4.019480">
						<ele>795</ele>
						<time>2026-09-04T11:34:57Z</time>
					</trkpt>
					<trkpt lat="45.039520" lon="4.019050">
						<ele>801</ele>
						<time>2026-09-04T11:35:12Z</time>
					</trkpt>
					<trkpt lat="45.039750" lon="4.018470">
						<ele>807</ele>
						<time>2026-09-04T11:35:36Z</time>
					</trkpt>
					<trkpt lat="45.039900" lon="4.018220">
						<ele>807</ele>
						<time>2026-09-04T11:35:48Z</time>
					</trkpt>
					<trkpt lat="45.040150" lon="4.017920">
						<ele>805</ele>
						<time>2026-09-04T11:36:04Z</time>
					</trkpt>
					<trkpt lat="45.040380" lon="4.017580">
						<ele>807</ele>
						<time>2026-09-04T11:36:21Z</time>
					</trkpt>
					<trkpt lat="45.040430" lon="4.017460">
						<ele>808</ele>
						<time>2026-09-04T11:36:26Z</time>
					</trkpt>
					<trkpt lat="45.040470" lon="4.017000">
						<ele>809</ele>
						<time>2026-09-04T11:36:42Z</time>
					</trkpt>
					<trkpt lat="45.040450" lon="4.016620">
						<ele>811</ele>
						<time>2026-09-04T11:36:55Z</time>
					</trkpt>
					<trkpt lat="45.040400" lon="4.016330">
						<ele>809</ele>
						<time>2026-09-04T11:37:06Z</time>
					</trkpt>
					<trkpt lat="45.040290" lon="4.016050">
						<ele>809</ele>
						<time>2026-09-04T11:37:17Z</time>
					</trkpt>
					<trkpt lat="45.039990" lon="4.015530">
						<ele>810</ele>
						<time>2026-09-04T11:37:41Z</time>
					</trkpt>
					<trkpt lat="45.039850" lon="4.015140">
						<ele>811</ele>
						<time>2026-09-04T11:37:56Z</time>
					</trkpt>
					<trkpt lat="45.039620" lon="4.013940">
						<ele>815</ele>
						<time>2026-09-04T11:38:40Z</time>
					</trkpt>
					<trkpt lat="45.039650" lon="4.012840">
						<ele>812</ele>
						<time>2026-09-04T11:39:19Z</time>
					</trkpt>
					<trkpt lat="45.039640" lon="4.012060">
						<ele>806</ele>
						<time>2026-09-04T11:39:47Z</time>
					</trkpt>
					<trkpt lat="45.039460" lon="4.010960">
						<ele>796</ele>
						<time>2026-09-04T11:40:27Z</time>
					</trkpt>
					<trkpt lat="45.039320" lon="4.009390">
						<ele>788</ele>
						<time>2026-09-04T11:41:23Z</time>
					</trkpt>
					<trkpt lat="45.039250" lon="4.008900">
						<ele>785</ele>
						<time>2026-09-04T11:41:41Z</time>
					</trkpt>
					<trkpt lat="45.039320" lon="4.008550">
						<ele>784</ele>
						<time>2026-09-04T11:41:53Z</time>
					</trkpt>
					<trkpt lat="45.039570" lon="4.007730">
						<ele>784</ele>
						<time>2026-09-04T11:42:25Z</time>
					</trkpt>
					<trkpt lat="45.039570" lon="4.007590">
						<ele>784</ele>
						<time>2026-09-04T11:42:30Z</time>
					</trkpt>
					<trkpt lat="45.039120" lon="4.006180">
						<ele>784</ele>
						<time>2026-09-04T11:43:25Z</time>
					</trkpt>
					<trkpt lat="45.038910" lon="4.005370">
						<ele>783</ele>
						<time>2026-09-04T11:43:55Z</time>
					</trkpt>
					<trkpt lat="45.038860" lon="4.004990">
						<ele>783</ele>
						<time>2026-09-04T11:44:09Z</time>
					</trkpt>
					<trkpt lat="45.038780" lon="4.004680">
						<ele>781</ele>
						<time>2026-09-04T11:44:20Z</time>
					</trkpt>
					<trkpt lat="45.038620" lon="4.004300">
						<ele>779</ele>
						<time>2026-09-04T11:44:36Z</time>
					</trkpt>
					<trkpt lat="45.038220" lon="4.002800">
						<ele>766</ele>
						<time>2026-09-04T11:45:33Z</time>
					</trkpt>
					<trkpt lat="45.038160" lon="4.002320">
						<ele>766</ele>
						<time>2026-09-04T11:45:50Z</time>
					</trkpt>
					<trkpt lat="45.038180" lon="4.002080">
						<ele>766</ele>
						<time>2026-09-04T11:45:59Z</time>
					</trkpt>
					<trkpt lat="45.038250" lon="4.001870">
						<ele>766</ele>
						<time>2026-09-04T11:46:07Z</time>
					</trkpt>
					<trkpt lat="45.038580" lon="4.001240">
						<ele>765</ele>
						<time>2026-09-04T11:46:35Z</time>
					</trkpt>
					<trkpt lat="45.038730" lon="4.000880">
						<ele>764</ele>
						<time>2026-09-04T11:46:49Z</time>
					</trkpt>
					<trkpt lat="45.039110" lon="3.999210">
						<ele>763</ele>
						<time>2026-09-04T11:47:51Z</time>
					</trkpt>
					<trkpt lat="45.039150" lon="3.998670">
						<ele>762</ele>
						<time>2026-09-04T11:48:11Z</time>
					</trkpt>
					<trkpt lat="45.039250" lon="3.998370">
						<ele>761</ele>
						<time>2026-09-04T11:48:22Z</time>
					</trkpt>
					<trkpt lat="45.039620" lon="3.997500">
						<ele>756</ele>
						<time>2026-09-04T11:48:58Z</time>
					</trkpt>
					<trkpt lat="45.040360" lon="3.995450">
						<ele>746</ele>
						<time>2026-09-04T11:50:20Z</time>
					</trkpt>
					<trkpt lat="45.040610" lon="3.994300">
						<ele>741</ele>
						<time>2026-09-04T11:51:02Z</time>
					</trkpt>
					<trkpt lat="45.040720" lon="3.993950">
						<ele>740</ele>
						<time>2026-09-04T11:51:16Z</time>
					</trkpt>
					<trkpt lat="45.040690" lon="3.993670">
						<ele>737</ele>
						<time>2026-09-04T11:51:26Z</time>
					</trkpt>
					<trkpt lat="45.041340" lon="3.992910">
						<ele>733</ele>
						<time>2026-09-04T11:52:08Z</time>
					</trkpt>
					<trkpt lat="45.041290" lon="3.992880">
						<ele>733</ele>
						<time>2026-09-04T11:52:11Z</time>
					</trkpt>
					<trkpt lat="45.041130" lon="3.992910">
						<ele>733</ele>
						<time>2026-09-04T11:52:19Z</time>
					</trkpt>
					<trkpt lat="45.041080" lon="3.992890">
						<ele>732</ele>
						<time>2026-09-04T11:52:21Z</time>
					</trkpt>
					<trkpt lat="45.041010" lon="3.992810">
						<ele>732</ele>
						<time>2026-09-04T11:52:26Z</time>
					</trkpt>
					<trkpt lat="45.040890" lon="3.992750">
						<ele>731</ele>
						<time>2026-09-04T11:52:32Z</time>
					</trkpt>
					<trkpt lat="45.040260" lon="3.992790">
						<ele>727</ele>
						<time>2026-09-04T11:53:04Z</time>
					</trkpt>
					<trkpt lat="45.039980" lon="3.992870">
						<ele>725</ele>
						<time>2026-09-04T11:53:18Z</time>
					</trkpt>
					<trkpt lat="45.039490" lon="3.992920">
						<ele>723</ele>
						<time>2026-09-04T11:53:43Z</time>
					</trkpt>
					<trkpt lat="45.039370" lon="3.992920">
						<ele>722</ele>
						<time>2026-09-04T11:53:49Z</time>
					</trkpt>
					<trkpt lat="45.039250" lon="3.992880">
						<ele>721</ele>
						<time>2026-09-04T11:53:55Z</time>
					</trkpt>
					<trkpt lat="45.039120" lon="3.992640">
						<ele>719</ele>
						<time>2026-09-04T11:54:05Z</time>
					</trkpt>
					<trkpt lat="45.039000" lon="3.992280">
						<ele>716</ele>
						<time>2026-09-04T11:54:20Z</time>
					</trkpt>
					<trkpt lat="45.038910" lon="3.992180">
						<ele>715</ele>
						<time>2026-09-04T11:54:25Z</time>
					</trkpt>
					<trkpt lat="45.038670" lon="3.991670">
						<ele>709</ele>
						<time>2026-09-04T11:54:47Z</time>
					</trkpt>
					<trkpt lat="45.038350" lon="3.990890">
						<ele>702</ele>
						<time>2026-09-04T11:55:19Z</time>
					</trkpt>
					<trkpt lat="45.038140" lon="3.990600">
						<ele>699</ele>
						<time>2026-09-04T11:55:33Z</time>
					</trkpt>
					<trkpt lat="45.037900" lon="3.990410">
						<ele>698</ele>
						<time>2026-09-04T11:55:47Z</time>
					</trkpt>
					<trkpt lat="45.037880" lon="3.990370">
						<ele>698</ele>
						<time>2026-09-04T11:55:49Z</time>
					</trkpt>
					<trkpt lat="45.037760" lon="3.989430">
						<ele>694</ele>
						<time>2026-09-04T11:56:23Z</time>
					</trkpt>
					<trkpt lat="45.037720" lon="3.989280">
						<ele>693</ele>
						<time>2026-09-04T11:56:28Z</time>
					</trkpt>
					<trkpt lat="45.037500" lon="3.988820">
						<ele>692</ele>
						<time>2026-09-04T11:56:48Z</time>
					</trkpt>
					<trkpt lat="45.037460" lon="3.988680">
						<ele>692</ele>
						<time>2026-09-04T11:56:53Z</time>
					</trkpt>
					<trkpt lat="45.037410" lon="3.988000">
						<ele>695</ele>
						<time>2026-09-04T11:57:18Z</time>
					</trkpt>
					<trkpt lat="45.037320" lon="3.987680">
						<ele>699</ele>
						<time>2026-09-04T11:57:30Z</time>
					</trkpt>
					<trkpt lat="45.037190" lon="3.987510">
						<ele>700</ele>
						<time>2026-09-04T11:57:39Z</time>
					</trkpt>
					<trkpt lat="45.037090" lon="3.987460">
						<ele>701</ele>
						<time>2026-09-04T11:57:44Z</time>
					</trkpt>
					<trkpt lat="45.036730" lon="3.987470">
						<ele>701</ele>
						<time>2026-09-04T11:58:02Z</time>
					</trkpt>
					<trkpt lat="45.036680" lon="3.987450">
						<ele>701</ele>
						<time>2026-09-04T11:58:05Z</time>
					</trkpt>
					<trkpt lat="45.036530" lon="3.987260">
						<ele>702</ele>
						<time>2026-09-04T11:58:15Z</time>
					</trkpt>
					<trkpt lat="45.036800" lon="3.987190">
						<ele>702</ele>
						<time>2026-09-04T11:58:28Z</time>
					</trkpt>
					<trkpt lat="45.037360" lon="3.986460">
						<ele>705</ele>
						<time>2026-09-04T11:59:06Z</time>
					</trkpt>
					<trkpt lat="45.037570" lon="3.986250">
						<ele>704</ele>
						<time>2026-09-04T11:59:19Z</time>
					</trkpt>
					<trkpt lat="45.037790" lon="3.986080">
						<ele>704</ele>
						<time>2026-09-04T11:59:32Z</time>
					</trkpt>
					<trkpt lat="45.038260" lon="3.985750">
						<ele>705</ele>
						<time>2026-09-04T11:59:58Z</time>
					</trkpt>
					<trkpt lat="45.039110" lon="3.985370">
						<ele>697</ele>
						<time>2026-09-04T12:00:43Z</time>
					</trkpt>
					<trkpt lat="45.039290" lon="3.985220">
						<ele>695</ele>
						<time>2026-09-04T12:00:53Z</time>
					</trkpt>
					<trkpt lat="45.039440" lon="3.985080">
						<ele>692</ele>
						<time>2026-09-04T12:01:02Z</time>
					</trkpt>
					<trkpt lat="45.039530" lon="3.984950">
						<ele>691</ele>
						<time>2026-09-04T12:01:09Z</time>
					</trkpt>
					<trkpt lat="45.039890" lon="3.984180">
						<ele>686</ele>
						<time>2026-09-04T12:01:41Z</time>
					</trkpt>
					<trkpt lat="45.040100" lon="3.984030">
						<ele>685</ele>
						<time>2026-09-04T12:01:53Z</time>
					</trkpt>
					<trkpt lat="45.040260" lon="3.983970">
						<ele>685</ele>
						<time>2026-09-04T12:02:01Z</time>
					</trkpt>
					<trkpt lat="45.041240" lon="3.983690">
						<ele>681</ele>
						<time>2026-09-04T12:02:51Z</time>
					</trkpt>
					<trkpt lat="45.041310" lon="3.983650">
						<ele>681</ele>
						<time>2026-09-04T12:02:55Z</time>
					</trkpt>
					<trkpt lat="45.041380" lon="3.983560">
						<ele>680</ele>
						<time>2026-09-04T12:03:00Z</time>
					</trkpt>
					<trkpt lat="45.041740" lon="3.982770">
						<ele>675</ele>
						<time>2026-09-04T12:03:33Z</time>
					</trkpt>
					<trkpt lat="45.042170" lon="3.981660">
						<ele>671</ele>
						<time>2026-09-04T12:04:18Z</time>
					</trkpt>
					<trkpt lat="45.042430" lon="3.980810">
						<ele>670</ele>
						<time>2026-09-04T12:04:51Z</time>
					</trkpt>
					<trkpt lat="45.042710" lon="3.979570">
						<ele>670</ele>
						<time>2026-09-04T12:05:37Z</time>
					</trkpt>
					<trkpt lat="45.042870" lon="3.978270">
						<ele>670</ele>
						<time>2026-09-04T12:06:23Z</time>
					</trkpt>
					<trkpt lat="45.043100" lon="3.975950">
						<ele>668</ele>
						<time>2026-09-04T12:07:46Z</time>
					</trkpt>
					<trkpt lat="45.043100" lon="3.975490">
						<ele>668</ele>
						<time>2026-09-04T12:08:02Z</time>
					</trkpt>
					<trkpt lat="45.043010" lon="3.975000">
						<ele>668</ele>
						<time>2026-09-04T12:08:20Z</time>
					</trkpt>
					<trkpt lat="45.042730" lon="3.974460">
						<ele>667</ele>
						<time>2026-09-04T12:08:44Z</time>
					</trkpt>
					<trkpt lat="45.042590" lon="3.974110">
						<ele>667</ele>
						<time>2026-09-04T12:08:58Z</time>
					</trkpt>
					<trkpt lat="45.042500" lon="3.974010">
						<ele>666</ele>
						<time>2026-09-04T12:09:04Z</time>
					</trkpt>
					<trkpt lat="45.042340" lon="3.973980">
						<ele>666</ele>
						<time>2026-09-04T12:09:12Z</time>
					</trkpt>
					<trkpt lat="45.041960" lon="3.973980">
						<ele>666</ele>
						<time>2026-09-04T12:09:31Z</time>
					</trkpt>
					<trkpt lat="45.041420" lon="3.973900">
						<ele>666</ele>
						<time>2026-09-04T12:09:58Z</time>
					</trkpt>
					<trkpt lat="45.041070" lon="3.973820">
						<ele>665</ele>
						<time>2026-09-04T12:10:16Z</time>
					</trkpt>
					<trkpt lat="45.040580" lon="3.973620">
						<ele>666</ele>
						<time>2026-09-04T12:10:41Z</time>
					</trkpt>
					<trkpt lat="45.040330" lon="3.973840">
						<ele>666</ele>
						<time>2026-09-04T12:10:56Z</time>
					</trkpt>
					<trkpt lat="45.040120" lon="3.973880">
						<ele>667</ele>
						<time>2026-09-04T12:11:07Z</time>
					</trkpt>
					<trkpt lat="45.039830" lon="3.973860">
						<ele>667</ele>
						<time>2026-09-04T12:11:21Z</time>
					</trkpt>
					<trkpt lat="45.038980" lon="3.973710">
						<ele>666</ele>
						<time>2026-09-04T12:12:04Z</time>
					</trkpt>
					<trkpt lat="45.038930" lon="3.972950">
						<ele>667</ele>
						<time>2026-09-04T12:12:31Z</time>
					</trkpt>
					<trkpt lat="45.038850" lon="3.972680">
						<ele>667</ele>
						<time>2026-09-04T12:12:42Z</time>
					</trkpt>
					<trkpt lat="45.038670" lon="3.972640">
						<ele>667</ele>
						<time>2026-09-04T12:12:51Z</time>
					</trkpt>
					<trkpt lat="45.038600" lon="3.972600">
						<ele>667</ele>
						<time>2026-09-04T12:12:54Z</time>
					</trkpt>
					<trkpt lat="45.038160" lon="3.972560">
						<ele>667</ele>
						<time>2026-09-04T12:13:16Z</time>
					</trkpt>
					<trkpt lat="45.038080" lon="3.972490">
						<ele>667</ele>
						<time>2026-09-04T12:13:21Z</time>
					</trkpt>
					<trkpt lat="45.038110" lon="3.972210">
						<ele>667</ele>
						<time>2026-09-04T12:13:31Z</time>
					</trkpt>
					<trkpt lat="45.038530" lon="3.970260">
						<ele>671</ele>
						<time>2026-09-04T12:14:43Z</time>
					</trkpt>
					<trkpt lat="45.038380" lon="3.970290">
						<ele>671</ele>
						<time>2026-09-04T12:14:51Z</time>
					</trkpt>
					<trkpt lat="45.038250" lon="3.970360">
						<ele>671</ele>
						<time>2026-09-04T12:14:58Z</time>
					</trkpt>
					<trkpt lat="45.038130" lon="3.969970">
						<ele>674</ele>
						<time>2026-09-04T12:15:13Z</time>
					</trkpt>
					<trkpt lat="45.038030" lon="3.969440">
						<ele>676</ele>
						<time>2026-09-04T12:15:32Z</time>
					</trkpt>
					<trkpt lat="45.038000" lon="3.969370">
						<ele>677</ele>
						<time>2026-09-04T12:15:35Z</time>
					</trkpt>
					<trkpt lat="45.037910" lon="3.969300">
						<ele>677</ele>
						<time>2026-09-04T12:15:40Z</time>
					</trkpt>
					<trkpt lat="45.037860" lon="3.969150">
						<ele>678</ele>
						<time>2026-09-04T12:15:46Z</time>
					</trkpt>
					<trkpt lat="45.038050" lon="3.969020">
						<ele>678</ele>
						<time>2026-09-04T12:15:57Z</time>
					</trkpt>
					<trkpt lat="45.038200" lon="3.968880">
						<ele>677</ele>
						<time>2026-09-04T12:16:06Z</time>
					</trkpt>
					<trkpt lat="45.038340" lon="3.969220">
						<ele>677</ele>
						<time>2026-09-04T12:16:20Z</time>
					</trkpt>
					<trkpt lat="45.038860" lon="3.969050">
						<ele>673</ele>
						<time>2026-09-04T12:16:46Z</time>
					</trkpt>
					<trkpt lat="45.039100" lon="3.968330">
						<ele>672</ele>
						<time>2026-09-04T12:17:15Z</time>
					</trkpt>
					<trkpt lat="45.039690" lon="3.967550">
						<ele>672</ele>
						<time>2026-09-04T12:17:55Z</time>
					</trkpt>
					<trkpt lat="45.040020" lon="3.966950">
						<ele>672</ele>
						<time>2026-09-04T12:18:22Z</time>
					</trkpt>
					<trkpt lat="45.040410" lon="3.966370">
						<ele>672</ele>
						<time>2026-09-04T12:18:50Z</time>
					</trkpt>
					<trkpt lat="45.040660" lon="3.966090">
						<ele>673</ele>
						<time>2026-09-04T12:19:06Z</time>
					</trkpt>
					<trkpt lat="45.041510" lon="3.965510">
						<ele>674</ele>
						<time>2026-09-04T12:19:53Z</time>
					</trkpt>
					<trkpt lat="45.041860" lon="3.965300">
						<ele>674</ele>
						<time>2026-09-04T12:20:12Z</time>
					</trkpt>
					<trkpt lat="45.042140" lon="3.965210">
						<ele>674</ele>
						<time>2026-09-04T12:20:27Z</time>
					</trkpt>
					<trkpt lat="45.042410" lon="3.965060">
						<ele>674</ele>
						<time>2026-09-04T12:20:41Z</time>
					</trkpt>
					<trkpt lat="45.042480" lon="3.964940">
						<ele>674</ele>
						<time>2026-09-04T12:20:47Z</time>
					</trkpt>
					<trkpt lat="45.042670" lon="3.964710">
						<ele>674</ele>
						<time>2026-09-04T12:20:59Z</time>
					</trkpt>
					<trkpt lat="45.043140" lon="3.963990">
						<ele>673</ele>
						<time>2026-09-04T12:21:34Z</time>
					</trkpt>
					<trkpt lat="45.044540" lon="3.961530">
						<ele>677</ele>
						<time>2026-09-04T12:23:26Z</time>
					</trkpt>
					<trkpt lat="45.046310" lon="3.957990">
						<ele>676</ele>
						<time>2026-09-04T12:25:59Z</time>
					</trkpt>
					<trkpt lat="45.046320" lon="3.957640">
						<ele>677</ele>
						<time>2026-09-04T12:26:11Z</time>
					</trkpt>
					<trkpt lat="45.046520" lon="3.956660">
						<ele>683</ele>
						<time>2026-09-04T12:26:47Z</time>
					</trkpt>
					<trkpt lat="45.046820" lon="3.955910">
						<ele>685</ele>
						<time>2026-09-04T12:27:18Z</time>
					</trkpt>
					<trkpt lat="45.046930" lon="3.954700">
						<ele>695</ele>
						<time>2026-09-04T12:28:01Z</time>
					</trkpt>
					<trkpt lat="45.046990" lon="3.954420">
						<ele>697</ele>
						<time>2026-09-04T12:28:11Z</time>
					</trkpt>
					<trkpt lat="45.047210" lon="3.953680">
						<ele>701</ele>
						<time>2026-09-04T12:28:40Z</time>
					</trkpt>
					<trkpt lat="45.047320" lon="3.952500">
						<ele>709</ele>
						<time>2026-09-04T12:29:22Z</time>
					</trkpt>
					<trkpt lat="45.047390" lon="3.952130">
						<ele>712</ele>
						<time>2026-09-04T12:29:35Z</time>
					</trkpt>
					<trkpt lat="45.047470" lon="3.951920">
						<ele>713</ele>
						<time>2026-09-04T12:29:44Z</time>
					</trkpt>
					<trkpt lat="45.047660" lon="3.951610">
						<ele>714</ele>
						<time>2026-09-04T12:29:58Z</time>
					</trkpt>
					<trkpt lat="45.047910" lon="3.951330">
						<ele>715</ele>
						<time>2026-09-04T12:30:14Z</time>
					</trkpt>
					<trkpt lat="45.047990" lon="3.951150">
						<ele>716</ele>
						<time>2026-09-04T12:30:22Z</time>
					</trkpt>
					<trkpt lat="45.048100" lon="3.950720">
						<ele>718</ele>
						<time>2026-09-04T12:30:38Z</time>
					</trkpt>
					<trkpt lat="45.048040" lon="3.950160">
						<ele>721</ele>
						<time>2026-09-04T12:30:58Z</time>
					</trkpt>
					<trkpt lat="45.048250" lon="3.950000">
						<ele>720</ele>
						<time>2026-09-04T12:31:10Z</time>
					</trkpt>
					<trkpt lat="45.048250" lon="3.949810">
						<ele>719</ele>
						<time>2026-09-04T12:31:17Z</time>
					</trkpt>
					<trkpt lat="45.048500" lon="3.948340">
						<ele>712</ele>
						<time>2026-09-04T12:32:10Z</time>
					</trkpt>
					<trkpt lat="45.048810" lon="3.947430">
						<ele>709</ele>
						<time>2026-09-04T12:32:46Z</time>
					</trkpt>
					<trkpt lat="45.049170" lon="3.946670">
						<ele>704</ele>
						<time>2026-09-04T12:33:18Z</time>
					</trkpt>
					<trkpt lat="45.049330" lon="3.946450">
						<ele>701</ele>
						<time>2026-09-04T12:33:29Z</time>
					</trkpt>
					<trkpt lat="45.049490" lon="3.946300">
						<ele>700</ele>
						<time>2026-09-04T12:33:39Z</time>
					</trkpt>
					<trkpt lat="45.049660" lon="3.946220">
						<ele>699</ele>
						<time>2026-09-04T12:33:48Z</time>
					</trkpt>
					<trkpt lat="45.049770" lon="3.946110">
						<ele>697</ele>
						<time>2026-09-04T12:33:55Z</time>
					</trkpt>
					<trkpt lat="45.049970" lon="3.945780">
						<ele>692</ele>
						<time>2026-09-04T12:34:10Z</time>
					</trkpt>
					<trkpt lat="45.050150" lon="3.945560">
						<ele>690</ele>
						<time>2026-09-04T12:34:22Z</time>
					</trkpt>
					<trkpt lat="45.050730" lon="3.944650">
						<ele>682</ele>
						<time>2026-09-04T12:35:05Z</time>
					</trkpt>
					<trkpt lat="45.051030" lon="3.944080">
						<ele>676</ele>
						<time>2026-09-04T12:35:30Z</time>
					</trkpt>
					<trkpt lat="45.051330" lon="3.943640">
						<ele>671</ele>
						<time>2026-09-04T12:35:52Z</time>
					</trkpt>
					<trkpt lat="45.051420" lon="3.943230">
						<ele>667</ele>
						<time>2026-09-04T12:36:07Z</time>
					</trkpt>
					<trkpt lat="45.051270" lon="3.942600">
						<ele>665</ele>
						<time>2026-09-04T12:36:31Z</time>
					</trkpt>
					<trkpt lat="45.051170" lon="3.942670">
						<ele>665</ele>
						<time>2026-09-04T12:36:36Z</time>
					</trkpt>
					<trkpt lat="45.051080" lon="3.942650">
						<ele>665</ele>
						<time>2026-09-04T12:36:41Z</time>
					</trkpt>
					<trkpt lat="45.050470" lon="3.942260">
						<ele>664</ele>
						<time>2026-09-04T12:37:14Z</time>
					</trkpt>
					<trkpt lat="45.050280" lon="3.941990">
						<ele>664</ele>
						<time>2026-09-04T12:37:28Z</time>
					</trkpt>
					<trkpt lat="45.050080" lon="3.941270">
						<ele>661</ele>
						<time>2026-09-04T12:37:55Z</time>
					</trkpt>
					<trkpt lat="45.050100" lon="3.941090">
						<ele>660</ele>
						<time>2026-09-04T12:38:01Z</time>
					</trkpt>
					<trkpt lat="45.050080" lon="3.940920">
						<ele>659</ele>
						<time>2026-09-04T12:38:08Z</time>
					</trkpt>
					<trkpt lat="45.049910" lon="3.940430">
						<ele>659</ele>
						<time>2026-09-04T12:38:27Z</time>
					</trkpt>
					<trkpt lat="45.049750" lon="3.939830">
						<ele>659</ele>
						<time>2026-09-04T12:38:50Z</time>
					</trkpt>
					<trkpt lat="45.049490" lon="3.939300">
						<ele>657</ele>
						<time>2026-09-04T12:39:12Z</time>
					</trkpt>
					<trkpt lat="45.048730" lon="3.937440">
						<ele>646</ele>
						<time>2026-09-04T12:40:28Z</time>
					</trkpt>
					<trkpt lat="45.048330" lon="3.936840">
						<ele>639</ele>
						<time>2026-09-04T12:40:58Z</time>
					</trkpt>
					<trkpt lat="45.048110" lon="3.936250">
						<ele>638</ele>
						<time>2026-09-04T12:41:21Z</time>
					</trkpt>
					<trkpt lat="45.048010" lon="3.935770">
						<ele>637</ele>
						<time>2026-09-04T12:41:39Z</time>
					</trkpt>
					<trkpt lat="45.047810" lon="3.935470">
						<ele>633</ele>
						<time>2026-09-04T12:41:53Z</time>
					</trkpt>
					<trkpt lat="45.047190" lon="3.933900">
						<ele>620</ele>
						<time>2026-09-04T12:42:57Z</time>
					</trkpt>
					<trkpt lat="45.047050" lon="3.933710">
						<ele>619</ele>
						<time>2026-09-04T12:43:07Z</time>
					</trkpt>
					<trkpt lat="45.046900" lon="3.933610">
						<ele>617</ele>
						<time>2026-09-04T12:43:15Z</time>
					</trkpt>
					<trkpt lat="45.046900" lon="3.933480">
						<ele>617</ele>
						<time>2026-09-04T12:43:20Z</time>
					</trkpt>
					<trkpt lat="45.046730" lon="3.932940">
						<ele>614</ele>
						<time>2026-09-04T12:43:40Z</time>
					</trkpt>
					<trkpt lat="45.046680" lon="3.932630">
						<ele>613</ele>
						<time>2026-09-04T12:43:52Z</time>
					</trkpt>
					<trkpt lat="45.046720" lon="3.932030">
						<ele>612</ele>
						<time>2026-09-04T12:44:13Z</time>
					</trkpt>
					<trkpt lat="45.046760" lon="3.930540">
						<ele>609</ele>
						<time>2026-09-04T12:45:06Z</time>
					</trkpt>
					<trkpt lat="45.046730" lon="3.930260">
						<ele>609</ele>
						<time>2026-09-04T12:45:16Z</time>
					</trkpt>
					<trkpt lat="45.047840" lon="3.928950">
						<ele>613</ele>
						<time>2026-09-04T12:46:28Z</time>
					</trkpt>
					<trkpt lat="45.047960" lon="3.927830">
						<ele>608</ele>
						<time>2026-09-04T12:47:08Z</time>
					</trkpt>
					<trkpt lat="45.047940" lon="3.927720">
						<ele>608</ele>
						<time>2026-09-04T12:47:12Z</time>
					</trkpt>
					<trkpt lat="45.047880" lon="3.927640">
						<ele>607</ele>
						<time>2026-09-04T12:47:16Z</time>
					</trkpt>
					<trkpt lat="45.047880" lon="3.927520">
						<ele>606</ele>
						<time>2026-09-04T12:47:21Z</time>
					</trkpt>
					<trkpt lat="45.047050" lon="3.926660">
						<ele>605</ele>
						<time>2026-09-04T12:48:12Z</time>
					</trkpt>
					<trkpt lat="45.047200" lon="3.926380">
						<ele>604</ele>
						<time>2026-09-04T12:48:24Z</time>
					</trkpt>
					<trkpt lat="45.047250" lon="3.926360">
						<ele>604</ele>
						<time>2026-09-04T12:48:27Z</time>
					</trkpt>
					<trkpt lat="45.047310" lon="3.926140">
						<ele>605</ele>
						<time>2026-09-04T12:48:35Z</time>
					</trkpt>
					<trkpt lat="45.047740" lon="3.925250">
						<ele>604</ele>
						<time>2026-09-04T12:49:13Z</time>
					</trkpt>
					<trkpt lat="45.048080" lon="3.924470">
						<ele>603</ele>
						<time>2026-09-04T12:49:46Z</time>
					</trkpt>
					<trkpt lat="45.048520" lon="3.923650">
						<ele>603</ele>
						<time>2026-09-04T12:50:22Z</time>
					</trkpt>
					<trkpt lat="45.048820" lon="3.922870">
						<ele>604</ele>
						<time>2026-09-04T12:50:54Z</time>
					</trkpt>
					<trkpt lat="45.049660" lon="3.920960">
						<ele>603</ele>
						<time>2026-09-04T12:52:13Z</time>
					</trkpt>
					<trkpt lat="45.050630" lon="3.919380">
						<ele>602</ele>
						<time>2026-09-04T12:53:27Z</time>
					</trkpt>
					<trkpt lat="45.050660" lon="3.919100">
						<ele>602</ele>
						<time>2026-09-04T12:53:37Z</time>
					</trkpt>
					<trkpt lat="45.050810" lon="3.919110">
						<ele>602</ele>
						<time>2026-09-04T12:53:45Z</time>
					</trkpt>
					<trkpt lat="45.051540" lon="3.918100">
						<ele>601</ele>
						<time>2026-09-04T12:54:36Z</time>
					</trkpt>
					<trkpt lat="45.052810" lon="3.916090">
						<ele>600</ele>
						<time>2026-09-04T12:56:11Z</time>
					</trkpt>
					<trkpt lat="45.052880" lon="3.915850">
						<ele>601</ele>
						<time>2026-09-04T12:56:20Z</time>
					</trkpt>
					<trkpt lat="45.052930" lon="3.915780">
						<ele>600</ele>
						<time>2026-09-04T12:56:24Z</time>
					</trkpt>
					<trkpt lat="45.053020" lon="3.915780">
						<ele>600</ele>
						<time>2026-09-04T12:56:28Z</time>
					</trkpt>
					<trkpt lat="45.053100" lon="3.915750">
						<ele>600</ele>
						<time>2026-09-04T12:56:33Z</time>
					</trkpt>
					<trkpt lat="45.053650" lon="3.915130">
						<ele>600</ele>
						<time>2026-09-04T12:57:08Z</time>
					</trkpt>
					<trkpt lat="45.054480" lon="3.914390">
						<ele>602</ele>
						<time>2026-09-04T12:57:57Z</time>
					</trkpt>
					<trkpt lat="45.055330" lon="3.913720">
						<ele>600</ele>
						<time>2026-09-04T12:58:45Z</time>
					</trkpt>
					<trkpt lat="45.055820" lon="3.913280">
						<ele>598</ele>
						<time>2026-09-04T12:59:14Z</time>
					</trkpt>
					<trkpt lat="45.055940" lon="3.913310">
						<ele>598</ele>
						<time>2026-09-04T12:59:21Z</time>
					</trkpt>
					<trkpt lat="45.056170" lon="3.913210">
						<ele>597</ele>
						<time>2026-09-04T12:59:33Z</time>
					</trkpt>
					<trkpt lat="45.056280" lon="3.913080">
						<ele>597</ele>
						<time>2026-09-04T12:59:40Z</time>
					</trkpt>
					<trkpt lat="45.056260" lon="3.912450">
						<ele>601</ele>
						<time>2026-09-04T13:00:02Z</time>
					</trkpt>
					<trkpt lat="45.056130" lon="3.911520">
						<ele>603</ele>
						<time>2026-09-04T13:00:36Z</time>
					</trkpt>
					<trkpt lat="45.056050" lon="3.911210">
						<ele>603</ele>
						<time>2026-09-04T13:00:47Z</time>
					</trkpt>
					<trkpt lat="45.055750" lon="3.910550">
						<ele>602</ele>
						<time>2026-09-04T13:01:15Z</time>
					</trkpt>
					<trkpt lat="45.055580" lon="3.909990">
						<ele>601</ele>
						<time>2026-09-04T13:01:37Z</time>
					</trkpt>
					<trkpt lat="45.055410" lon="3.909320">
						<ele>602</ele>
						<time>2026-09-04T13:02:02Z</time>
					</trkpt>
					<trkpt lat="45.055360" lon="3.909000">
						<ele>602</ele>
						<time>2026-09-04T13:02:13Z</time>
					</trkpt>
					<trkpt lat="45.055370" lon="3.908910">
						<ele>602</ele>
						<time>2026-09-04T13:02:17Z</time>
					</trkpt>
					<trkpt lat="45.055450" lon="3.908660">
						<ele>603</ele>
						<time>2026-09-04T13:02:26Z</time>
					</trkpt>
					<trkpt lat="45.056090" lon="3.907180">
						<ele>605</ele>
						<time>2026-09-04T13:03:28Z</time>
					</trkpt>
					<trkpt lat="45.056210" lon="3.906800">
						<ele>606</ele>
						<time>2026-09-04T13:03:42Z</time>
					</trkpt>
					<trkpt lat="45.056500" lon="3.905580">
						<ele>607</ele>
						<time>2026-09-04T13:04:28Z</time>
					</trkpt>
					<trkpt lat="45.056600" lon="3.905300">
						<ele>606</ele>
						<time>2026-09-04T13:04:39Z</time>
					</trkpt>
					<trkpt lat="45.056770" lon="3.905010">
						<ele>606</ele>
						<time>2026-09-04T13:04:52Z</time>
					</trkpt>
					<trkpt lat="45.056830" lon="3.904830">
						<ele>605</ele>
						<time>2026-09-04T13:04:59Z</time>
					</trkpt>
					<trkpt lat="45.057070" lon="3.904310">
						<ele>603</ele>
						<time>2026-09-04T13:05:21Z</time>
					</trkpt>
					<trkpt lat="45.057440" lon="3.903790">
						<ele>603</ele>
						<time>2026-09-04T13:05:47Z</time>
					</trkpt>
					<trkpt lat="45.057530" lon="3.903610">
						<ele>604</ele>
						<time>2026-09-04T13:05:55Z</time>
					</trkpt>
					<trkpt lat="45.057520" lon="3.903300">
						<ele>605</ele>
						<time>2026-09-04T13:06:06Z</time>
					</trkpt>
					<trkpt lat="45.057380" lon="3.902850">
						<ele>605</ele>
						<time>2026-09-04T13:06:23Z</time>
					</trkpt>
					<trkpt lat="45.057060" lon="3.902220">
						<ele>607</ele>
						<time>2026-09-04T13:06:51Z</time>
					</trkpt>
					<trkpt lat="45.056710" lon="3.901800">
						<ele>605</ele>
						<time>2026-09-04T13:07:14Z</time>
					</trkpt>
					<trkpt lat="45.056450" lon="3.901610">
						<ele>605</ele>
						<time>2026-09-04T13:07:28Z</time>
					</trkpt>
					<trkpt lat="45.056220" lon="3.901540">
						<ele>606</ele>
						<time>2026-09-04T13:07:40Z</time>
					</trkpt>
					<trkpt lat="45.056160" lon="3.901550">
						<ele>605</ele>
						<time>2026-09-04T13:07:43Z</time>
					</trkpt>
					<trkpt lat="45.056110" lon="3.901580">
						<ele>605</ele>
						<time>2026-09-04T13:07:46Z</time>
					</trkpt>
					<trkpt lat="45.055980" lon="3.901750">
						<ele>603</ele>
						<time>2026-09-04T13:07:55Z</time>
					</trkpt>
					<trkpt lat="45.055820" lon="3.902060">
						<ele>604</ele>
						<time>2026-09-04T13:08:08Z</time>
					</trkpt>
					<trkpt lat="45.055750" lon="3.902030">
						<ele>605</ele>
						<time>2026-09-04T13:08:12Z</time>
					</trkpt>
					<trkpt lat="45.055670" lon="3.901970">
						<ele>605</ele>
						<time>2026-09-04T13:08:17Z</time>
					</trkpt>
					<trkpt lat="45.055640" lon="3.901430">
						<ele>605</ele>
						<time>2026-09-04T13:08:36Z</time>
					</trkpt>
					<trkpt lat="45.055530" lon="3.901220">
						<ele>606</ele>
						<time>2026-09-04T13:08:45Z</time>
					</trkpt>
					<trkpt lat="45.054590" lon="3.900370">
						<ele>606</ele>
						<time>2026-09-04T13:09:41Z</time>
					</trkpt>
					<trkpt lat="45.053400" lon="3.900310">
						<ele>604</ele>
						<time>2026-09-04T13:10:40Z</time>
					</trkpt>
					<trkpt lat="45.053240" lon="3.900470">
						<ele>604</ele>
						<time>2026-09-04T13:10:50Z</time>
					</trkpt>
					<trkpt lat="45.053050" lon="3.900590">
						<ele>604</ele>
						<time>2026-09-04T13:11:01Z</time>
					</trkpt>
					<trkpt lat="45.052990" lon="3.900590">
						<ele>604</ele>
						<time>2026-09-04T13:11:04Z</time>
					</trkpt>
					<trkpt lat="45.052490" lon="3.900430">
						<ele>606</ele>
						<time>2026-09-04T13:11:29Z</time>
					</trkpt>
					<trkpt lat="45.052160" lon="3.900260">
						<ele>606</ele>
						<time>2026-09-04T13:11:47Z</time>
					</trkpt>
					<trkpt lat="45.052030" lon="3.900120">
						<ele>606</ele>
						<time>2026-09-04T13:11:55Z</time>
					</trkpt>
					<trkpt lat="45.052000" lon="3.900030">
						<ele>606</ele>
						<time>2026-09-04T13:11:59Z</time>
					</trkpt>
					<trkpt lat="45.052100" lon="3.899700">
						<ele>607</ele>
						<time>2026-09-04T13:12:11Z</time>
					</trkpt>
					<trkpt lat="45.051730" lon="3.899330">
						<ele>607</ele>
						<time>2026-09-04T13:12:34Z</time>
					</trkpt>
					<trkpt lat="45.051310" lon="3.898860">
						<ele>606</ele>
						<time>2026-09-04T13:13:01Z</time>
					</trkpt>
					<trkpt lat="45.051160" lon="3.898630">
						<ele>606</ele>
						<time>2026-09-04T13:13:12Z</time>
					</trkpt>
					<trkpt lat="45.050980" lon="3.898280">
						<ele>606</ele>
						<time>2026-09-04T13:13:27Z</time>
					</trkpt>
					<trkpt lat="45.050720" lon="3.897530">
						<ele>608</ele>
						<time>2026-09-04T13:13:57Z</time>
					</trkpt>
					<trkpt lat="45.050590" lon="3.897270">
						<ele>609</ele>
						<time>2026-09-04T13:14:08Z</time>
					</trkpt>
					<trkpt lat="45.050560" lon="3.897100">
						<ele>610</ele>
						<time>2026-09-04T13:14:14Z</time>
					</trkpt>
					<trkpt lat="45.050570" lon="3.896910">
						<ele>610</ele>
						<time>2026-09-04T13:14:21Z</time>
					</trkpt>
					<trkpt lat="45.050540" lon="3.896430">
						<ele>610</ele>
						<time>2026-09-04T13:14:38Z</time>
					</trkpt>
					<trkpt lat="45.050740" lon="3.895660">
						<ele>609</ele>
						<time>2026-09-04T13:15:07Z</time>
					</trkpt>
					<trkpt lat="45.050770" lon="3.895340">
						<ele>609</ele>
						<time>2026-09-04T13:15:18Z</time>
					</trkpt>
					<trkpt lat="45.050760" lon="3.894650">
						<ele>609</ele>
						<time>2026-09-04T13:15:43Z</time>
					</trkpt>
					<trkpt lat="45.050710" lon="3.894010">
						<ele>608</ele>
						<time>2026-09-04T13:16:05Z</time>
					</trkpt>
					<trkpt lat="45.050450" lon="3.894020">
						<ele>608</ele>
						<time>2026-09-04T13:16:18Z</time>
					</trkpt>
					<trkpt lat="45.050470" lon="3.893280">
						<ele>608</ele>
						<time>2026-09-04T13:16:45Z</time>
					</trkpt>
					<trkpt lat="45.050440" lon="3.892950">
						<ele>608</ele>
						<time>2026-09-04T13:16:56Z</time>
					</trkpt>
					<trkpt lat="45.050400" lon="3.892850">
						<ele>608</ele>
						<time>2026-09-04T13:17:00Z</time>
					</trkpt>
					<trkpt lat="45.050000" lon="3.892420">
						<ele>608</ele>
						<time>2026-09-04T13:17:26Z</time>
					</trkpt>
					<trkpt lat="45.049930" lon="3.892310">
						<ele>608</ele>
						<time>2026-09-04T13:17:31Z</time>
					</trkpt>
					<trkpt lat="45.049870" lon="3.892190">
						<ele>609</ele>
						<time>2026-09-04T13:17:36Z</time>
					</trkpt>
					<trkpt lat="45.049790" lon="3.891880">
						<ele>609</ele>
						<time>2026-09-04T13:17:48Z</time>
					</trkpt>
					<trkpt lat="45.049850" lon="3.891090">
						<ele>610</ele>
						<time>2026-09-04T13:18:16Z</time>
					</trkpt>
					<trkpt lat="45.049900" lon="3.889850">
						<ele>611</ele>
						<time>2026-09-04T13:19:00Z</time>
					</trkpt>
					<trkpt lat="45.049810" lon="3.889000">
						<ele>612</ele>
						<time>2026-09-04T13:19:30Z</time>
					</trkpt>
					<trkpt lat="45.049830" lon="3.888530">
						<ele>613</ele>
						<time>2026-09-04T13:19:47Z</time>
					</trkpt>
					<trkpt lat="45.049910" lon="3.887900">
						<ele>613</ele>
						<time>2026-09-04T13:20:09Z</time>
					</trkpt>
					<trkpt lat="45.049990" lon="3.887540">
						<ele>612</ele>
						<time>2026-09-04T13:20:23Z</time>
					</trkpt>
					<trkpt lat="45.050470" lon="3.885790">
						<ele>616</ele>
						<time>2026-09-04T13:21:29Z</time>
					</trkpt>
					<trkpt lat="45.050420" lon="3.885630">
						<ele>616</ele>
						<time>2026-09-04T13:21:35Z</time>
					</trkpt>
					<trkpt lat="45.050460" lon="3.885510">
						<ele>615</ele>
						<time>2026-09-04T13:21:40Z</time>
					</trkpt>
					<trkpt lat="45.050460" lon="3.885420">
						<ele>615</ele>
						<time>2026-09-04T13:21:43Z</time>
					</trkpt>
					<trkpt lat="45.050490" lon="3.885300">
						<ele>614</ele>
						<time>2026-09-04T13:21:48Z</time>
					</trkpt>
					<trkpt lat="45.050560" lon="3.885230">
						<ele>614</ele>
						<time>2026-09-04T13:21:52Z</time>
					</trkpt>
					<trkpt lat="45.050810" lon="3.884610">
						<ele>612</ele>
						<time>2026-09-04T13:22:17Z</time>
					</trkpt>
					<trkpt lat="45.050600" lon="3.884360">
						<ele>613</ele>
						<time>2026-09-04T13:22:31Z</time>
					</trkpt>
					<trkpt lat="45.050630" lon="3.883980">
						<ele>614</ele>
						<time>2026-09-04T13:22:44Z</time>
					</trkpt>
					<trkpt lat="45.050620" lon="3.883840">
						<ele>614</ele>
						<time>2026-09-04T13:22:49Z</time>
					</trkpt>
					<trkpt lat="45.050490" lon="3.883800">
						<ele>616</ele>
						<time>2026-09-04T13:22:56Z</time>
					</trkpt>
					<trkpt lat="45.050310" lon="3.883600">
						<ele>618</ele>
						<time>2026-09-04T13:23:07Z</time>
					</trkpt>
					<trkpt lat="45.050240" lon="3.883570">
						<ele>619</ele>
						<time>2026-09-04T13:23:11Z</time>
					</trkpt>
					<trkpt lat="45.050020" lon="3.883550">
						<ele>622</ele>
						<time>2026-09-04T13:23:22Z</time>
					</trkpt>
					<trkpt lat="45.049820" lon="3.883450">
						<ele>626</ele>
						<time>2026-09-04T13:23:33Z</time>
					</trkpt>
					<trkpt lat="45.049750" lon="3.883280">
						<ele>627</ele>
						<time>2026-09-04T13:23:40Z</time>
					</trkpt>
					<trkpt lat="45.049500" lon="3.883360">
						<ele>631</ele>
						<time>2026-09-04T13:23:53Z</time>
					</trkpt>
					<trkpt lat="45.049310" lon="3.883460">
						<ele>633</ele>
						<time>2026-09-04T13:24:03Z</time>
					</trkpt>
					<trkpt lat="45.049010" lon="3.883400">
						<ele>638</ele>
						<time>2026-09-04T13:24:18Z</time>
					</trkpt>
					<trkpt lat="45.048900" lon="3.883320">
						<ele>639</ele>
						<time>2026-09-04T13:24:24Z</time>
					</trkpt>
					<trkpt lat="45.048870" lon="3.883440">
						<ele>640</ele>
						<time>2026-09-04T13:24:29Z</time>
					</trkpt>
					<trkpt lat="45.048890" lon="3.883870">
						<ele>642</ele>
						<time>2026-09-04T13:24:44Z</time>
					</trkpt>
					<trkpt lat="45.048870" lon="3.883940">
						<ele>643</ele>
						<time>2026-09-04T13:24:46Z</time>
					</trkpt>
					<trkpt lat="45.048220" lon="3.883480">
						<ele>652</ele>
						<time>2026-09-04T13:25:23Z</time>
					</trkpt>
					<trkpt lat="45.048130" lon="3.883500">
						<ele>653</ele>
						<time>2026-09-04T13:25:27Z</time>
					</trkpt>
					<trkpt lat="45.048100" lon="3.883570">
						<ele>655</ele>
						<time>2026-09-04T13:25:30Z</time>
					</trkpt>
					<trkpt lat="45.047690" lon="3.883380">
						<ele>657</ele>
						<time>2026-09-04T13:25:52Z</time>
					</trkpt>
					<trkpt lat="45.047270" lon="3.883290">
						<ele>660</ele>
						<time>2026-09-04T13:26:13Z</time>
					</trkpt>
					<trkpt lat="45.047140" lon="3.883310">
						<ele>661</ele>
						<time>2026-09-04T13:26:20Z</time>
					</trkpt>
					<trkpt lat="45.046470" lon="3.883540">
						<ele>667</ele>
						<time>2026-09-04T13:26:54Z</time>
					</trkpt>
					<trkpt lat="45.046230" lon="3.883560">
						<ele>667</ele>
						<time>2026-09-04T13:27:06Z</time>
					</trkpt>
					<trkpt lat="45.046130" lon="3.883930">
						<ele>675</ele>
						<time>2026-09-04T13:27:20Z</time>
					</trkpt>
					<trkpt lat="45.046100" lon="3.884370">
						<ele>683</ele>
						<time>2026-09-04T13:27:36Z</time>
					</trkpt>
					<trkpt lat="45.046310" lon="3.884400">
						<ele>684</ele>
						<time>2026-09-04T13:27:46Z</time>
					</trkpt>
					<trkpt lat="45.046350" lon="3.884550">
						<ele>688</ele>
						<time>2026-09-04T13:27:52Z</time>
					</trkpt>
					<trkpt lat="45.046240" lon="3.884600">
						<ele>688</ele>
						<time>2026-09-04T13:27:58Z</time>
					</trkpt>
					<trkpt lat="45.046100" lon="3.884710">
						<ele>690</ele>
						<time>2026-09-04T13:28:06Z</time>
					</trkpt>
					<trkpt lat="45.046080" lon="3.885030">
						<ele>695</ele>
						<time>2026-09-04T13:28:17Z</time>
					</trkpt>
					<trkpt lat="45.045760" lon="3.885050">
						<ele>691</ele>
						<time>2026-09-04T13:28:33Z</time>
					</trkpt>
					<trkpt lat="45.045740" lon="3.885270">
						<ele>689</ele>
						<time>2026-09-04T13:28:41Z</time>
					</trkpt>
					<trkpt lat="45.045700" lon="3.885350">
						<ele>687</ele>
						<time>2026-09-04T13:28:45Z</time>
					</trkpt>
					<trkpt lat="45.045440" lon="3.885350">
						<ele>683</ele>
						<time>2026-09-04T13:28:58Z</time>
					</trkpt>
					<trkpt lat="45.045430" lon="3.885300">
						<ele>683</ele>
						<time>2026-09-04T13:28:59Z</time>
					</trkpt>
					<trkpt lat="45.045320" lon="3.885330">
						<ele>681</ele>
						<time>2026-09-04T13:29:05Z</time>
					</trkpt>
					<trkpt lat="45.045290" lon="3.885580">
						<ele>678</ele>
						<time>2026-09-04T13:29:14Z</time>
					</trkpt>
					<trkpt lat="45.045300" lon="3.885680">
						<ele>677</ele>
						<time>2026-09-04T13:29:18Z</time>
					</trkpt>
					<trkpt lat="45.045240" lon="3.885740">
						<ele>675</ele>
						<time>2026-09-04T13:29:21Z</time>
					</trkpt>
					<trkpt lat="45.045190" lon="3.885590">
						<ele>676</ele>
						<time>2026-09-04T13:29:27Z</time>
					</trkpt>
					<trkpt lat="45.045100" lon="3.885800">
						<ele>672</ele>
						<time>2026-09-04T13:29:36Z</time>
					</trkpt>
					<trkpt lat="45.044870" lon="3.885900">
						<ele>666</ele>
						<time>2026-09-04T13:29:48Z</time>
					</trkpt>
					<trkpt lat="45.044830" lon="3.885740">
						<ele>667</ele>
						<time>2026-09-04T13:29:54Z</time>
					</trkpt>
					<trkpt lat="45.044790" lon="3.885680">
						<ele>667</ele>
						<time>2026-09-04T13:29:57Z</time>
					</trkpt>
					<trkpt lat="45.044780" lon="3.885760">
						<ele>665</ele>
						<time>2026-09-04T13:30:00Z</time>
					</trkpt>
					<trkpt lat="45.044740" lon="3.885730">
						<ele>665</ele>
						<time>2026-09-04T13:30:02Z</time>
					</trkpt>
					<trkpt lat="45.044670" lon="3.885430">
						<ele>666</ele>
						<time>2026-09-04T13:30:13Z</time>
					</trkpt>
					<trkpt lat="45.044630" lon="3.885370">
						<ele>665</ele>
						<time>2026-09-04T13:30:16Z</time>
					</trkpt>
					<trkpt lat="45.044580" lon="3.885380">
						<ele>664</ele>
						<time>2026-09-04T13:30:19Z</time>
					</trkpt>
					<trkpt lat="45.044510" lon="3.885460">
						<ele>661</ele>
						<time>2026-09-04T13:30:23Z</time>
					</trkpt>
					<trkpt lat="45.044250" lon="3.885630">
						<ele>653</ele>
						<time>2026-09-04T13:30:37Z</time>
					</trkpt>
					<trkpt lat="45.044180" lon="3.885400">
						<ele>653</ele>
						<time>2026-09-04T13:30:46Z</time>
					</trkpt>
					<trkpt lat="45.044130" lon="3.885400">
						<ele>652</ele>
						<time>2026-09-04T13:30:49Z</time>
					</trkpt>
					<trkpt lat="45.044060" lon="3.885270">
						<ele>652</ele>
						<time>2026-09-04T13:30:54Z</time>
					</trkpt>
					<trkpt lat="45.044040" lon="3.884910">
						<ele>653</ele>
						<time>2026-09-04T13:31:07Z</time>
					</trkpt>
					<trkpt lat="45.043600" lon="3.885160">
						<ele>644</ele>
						<time>2026-09-04T13:31:31Z</time>
					</trkpt>
					</trkseg>
				</trk>
			</gpx>